<?xml version="1.0" encoding="UTF-8" standalone="no" ?>
<gpx xmlns="http://www.topografix.com/GPX/1/1" xmlns:xsi="http://www.w3.org/2001/XMLSchema-instance" xsi:schemaLocation="http://www.topografix.com/GPX/1/1 http://www.topografix.com/GPX/1/1/gpx.xsd" version="1.1" creator="VisuGPX - https://www.visugpx.com">
  <metadata>
    <name>Sortie VTT en Moulière</name>
  </metadata>
  <trk>
    <name><![CDATA[Sortie VTT en Moulière_1]]></name>
    <trkseg>
      <trkpt lat="46.66441" lon="0.43644">
        <ele>127.8</ele>
        <time>2024-02-18T07:35:50Z</time>
      </trkpt>
      <trkpt lat="46.66442" lon="0.43647">
        <ele>127.8</ele>
        <time>2024-02-18T07:35:56Z</time>
      </trkpt>
      <trkpt lat="46.66447" lon="0.43638">
        <ele>127.8</ele>
        <time>2024-02-18T07:36:02Z</time>
      </trkpt>
      <trkpt lat="46.66455" lon="0.43623">
        <ele>127.8</ele>
        <time>2024-02-18T07:36:07Z</time>
      </trkpt>
      <trkpt lat="46.66462" lon="0.43604">
        <ele>127.6</ele>
        <time>2024-02-18T07:36:12Z</time>
      </trkpt>
      <trkpt lat="46.66472" lon="0.43578">
        <ele>127.4</ele>
        <time>2024-02-18T07:36:17Z</time>
      </trkpt>
      <trkpt lat="46.66476" lon="0.43568">
        <ele>126.6</ele>
        <time>2024-02-18T07:36:19Z</time>
      </trkpt>
      <trkpt lat="46.66486" lon="0.43542">
        <ele>126</ele>
        <time>2024-02-18T07:36:24Z</time>
      </trkpt>
      <trkpt lat="46.66495" lon="0.43517">
        <ele>125.6</ele>
        <time>2024-02-18T07:36:28Z</time>
      </trkpt>
      <trkpt lat="46.66502" lon="0.43497">
        <ele>125.4</ele>
        <time>2024-02-18T07:36:31Z</time>
      </trkpt>
      <trkpt lat="46.66515" lon="0.43459">
        <ele>125</ele>
        <time>2024-02-18T07:36:37Z</time>
      </trkpt>
      <trkpt lat="46.66524" lon="0.43439">
        <ele>124.4</ele>
        <time>2024-02-18T07:36:41Z</time>
      </trkpt>
      <trkpt lat="46.66533" lon="0.43419">
        <ele>123.8</ele>
        <time>2024-02-18T07:36:45Z</time>
      </trkpt>
      <trkpt lat="46.66551" lon="0.43386">
        <ele>123.8</ele>
        <time>2024-02-18T07:36:52Z</time>
      </trkpt>
      <trkpt lat="46.66556" lon="0.43377">
        <ele>123.6</ele>
        <time>2024-02-18T07:36:54Z</time>
      </trkpt>
      <trkpt lat="46.66562" lon="0.43367">
        <ele>123.4</ele>
        <time>2024-02-18T07:36:56Z</time>
      </trkpt>
      <trkpt lat="46.66568" lon="0.43357">
        <ele>123</ele>
        <time>2024-02-18T07:36:58Z</time>
      </trkpt>
      <trkpt lat="46.66589" lon="0.43322">
        <ele>122.6</ele>
        <time>2024-02-18T07:37:05Z</time>
      </trkpt>
      <trkpt lat="46.66597" lon="0.43292">
        <ele>122</ele>
        <time>2024-02-18T07:37:10Z</time>
      </trkpt>
      <trkpt lat="46.66598" lon="0.43284">
        <ele>121.6</ele>
        <time>2024-02-18T07:37:11Z</time>
      </trkpt>
      <trkpt lat="46.66599" lon="0.43277">
        <ele>121.4</ele>
        <time>2024-02-18T07:37:12Z</time>
      </trkpt>
      <trkpt lat="46.66603" lon="0.43236">
        <ele>120.8</ele>
        <time>2024-02-18T07:37:17Z</time>
      </trkpt>
      <trkpt lat="46.66607" lon="0.43176">
        <ele>120.2</ele>
        <time>2024-02-18T07:37:24Z</time>
      </trkpt>
      <trkpt lat="46.66607" lon="0.43158">
        <ele>119.8</ele>
        <time>2024-02-18T07:37:26Z</time>
      </trkpt>
      <trkpt lat="46.66608" lon="0.43114">
        <ele>119</ele>
        <time>2024-02-18T07:37:31Z</time>
      </trkpt>
      <trkpt lat="46.66608" lon="0.43104">
        <ele>118.8</ele>
        <time>2024-02-18T07:37:32Z</time>
      </trkpt>
      <trkpt lat="46.66608" lon="0.43067">
        <ele>117.6</ele>
        <time>2024-02-18T07:37:36Z</time>
      </trkpt>
      <trkpt lat="46.66608" lon="0.43058">
        <ele>117.4</ele>
        <time>2024-02-18T07:37:37Z</time>
      </trkpt>
      <trkpt lat="46.6661" lon="0.43012">
        <ele>117.2</ele>
        <time>2024-02-18T07:37:42Z</time>
      </trkpt>
      <trkpt lat="46.66612" lon="0.43003">
        <ele>117</ele>
        <time>2024-02-18T07:37:43Z</time>
      </trkpt>
      <trkpt lat="46.66619" lon="0.42978">
        <ele>116.6</ele>
        <time>2024-02-18T07:37:46Z</time>
      </trkpt>
      <trkpt lat="46.66627" lon="0.42952">
        <ele>116.2</ele>
        <time>2024-02-18T07:37:49Z</time>
      </trkpt>
      <trkpt lat="46.66631" lon="0.42934">
        <ele>116</ele>
        <time>2024-02-18T07:37:51Z</time>
      </trkpt>
      <trkpt lat="46.66641" lon="0.42896">
        <ele>115.4</ele>
        <time>2024-02-18T07:37:55Z</time>
      </trkpt>
      <trkpt lat="46.66646" lon="0.42878">
        <ele>115</ele>
        <time>2024-02-18T07:37:57Z</time>
      </trkpt>
      <trkpt lat="46.66656" lon="0.42851">
        <ele>113.6</ele>
        <time>2024-02-18T07:38:00Z</time>
      </trkpt>
      <trkpt lat="46.66669" lon="0.42819">
        <ele>113.2</ele>
        <time>2024-02-18T07:38:04Z</time>
      </trkpt>
      <trkpt lat="46.66669" lon="0.42807">
        <ele>113.2</ele>
        <time>2024-02-18T07:38:06Z</time>
      </trkpt>
      <trkpt lat="46.66665" lon="0.42803">
        <ele>113.2</ele>
        <time>2024-02-18T07:38:07Z</time>
      </trkpt>
      <trkpt lat="46.6666" lon="0.42801">
        <ele>113</ele>
        <time>2024-02-18T07:38:08Z</time>
      </trkpt>
      <trkpt lat="46.66634" lon="0.4279">
        <ele>112.8</ele>
        <time>2024-02-18T07:38:13Z</time>
      </trkpt>
      <trkpt lat="46.66595" lon="0.42771">
        <ele>113.2</ele>
        <time>2024-02-18T07:38:20Z</time>
      </trkpt>
      <trkpt lat="46.66573" lon="0.4276">
        <ele>113.2</ele>
        <time>2024-02-18T07:38:24Z</time>
      </trkpt>
      <trkpt lat="46.66563" lon="0.42755">
        <ele>113.8</ele>
        <time>2024-02-18T07:38:26Z</time>
      </trkpt>
      <trkpt lat="46.66532" lon="0.42741">
        <ele>114.2</ele>
        <time>2024-02-18T07:38:32Z</time>
      </trkpt>
      <trkpt lat="46.66487" lon="0.42719">
        <ele>114.4</ele>
        <time>2024-02-18T07:38:41Z</time>
      </trkpt>
      <trkpt lat="46.66448" lon="0.42698">
        <ele>114.4</ele>
        <time>2024-02-18T07:38:49Z</time>
      </trkpt>
      <trkpt lat="46.66436" lon="0.42687">
        <ele>114.6</ele>
        <time>2024-02-18T07:38:52Z</time>
      </trkpt>
      <trkpt lat="46.6643" lon="0.42679">
        <ele>114.8</ele>
        <time>2024-02-18T07:38:54Z</time>
      </trkpt>
      <trkpt lat="46.66427" lon="0.42675">
        <ele>115</ele>
        <time>2024-02-18T07:38:55Z</time>
      </trkpt>
      <trkpt lat="46.66417" lon="0.42658">
        <ele>115.2</ele>
        <time>2024-02-18T07:38:59Z</time>
      </trkpt>
      <trkpt lat="46.66409" lon="0.42643">
        <ele>115.2</ele>
        <time>2024-02-18T07:39:03Z</time>
      </trkpt>
      <trkpt lat="46.66402" lon="0.42628">
        <ele>114.8</ele>
        <time>2024-02-18T07:39:09Z</time>
      </trkpt>
      <trkpt lat="46.66401" lon="0.42627">
        <ele>114.6</ele>
        <time>2024-02-18T07:39:11Z</time>
      </trkpt>
      <trkpt lat="46.66401" lon="0.42627">
        <ele>114.8</ele>
        <time>2024-02-18T07:39:15Z</time>
      </trkpt>
      <trkpt lat="46.66398" lon="0.42618">
        <ele>114.6</ele>
        <time>2024-02-18T07:39:25Z</time>
      </trkpt>
      <trkpt lat="46.66392" lon="0.42603">
        <ele>114.6</ele>
        <time>2024-02-18T07:39:31Z</time>
      </trkpt>
      <trkpt lat="46.66377" lon="0.42573">
        <ele>114.6</ele>
        <time>2024-02-18T07:39:40Z</time>
      </trkpt>
      <trkpt lat="46.6636" lon="0.42544">
        <ele>115.2</ele>
        <time>2024-02-18T07:39:48Z</time>
      </trkpt>
      <trkpt lat="46.66339" lon="0.42515">
        <ele>114.8</ele>
        <time>2024-02-18T07:39:56Z</time>
      </trkpt>
      <trkpt lat="46.66311" lon="0.42481">
        <ele>115.6</ele>
        <time>2024-02-18T07:40:06Z</time>
      </trkpt>
      <trkpt lat="46.66294" lon="0.42459">
        <ele>115.6</ele>
        <time>2024-02-18T07:40:13Z</time>
      </trkpt>
      <trkpt lat="46.6627" lon="0.42434">
        <ele>115</ele>
        <time>2024-02-18T07:40:21Z</time>
      </trkpt>
      <trkpt lat="46.66245" lon="0.42408">
        <ele>115</ele>
        <time>2024-02-18T07:40:29Z</time>
      </trkpt>
      <trkpt lat="46.66216" lon="0.42379">
        <ele>114.6</ele>
        <time>2024-02-18T07:40:37Z</time>
      </trkpt>
      <trkpt lat="46.66184" lon="0.4235">
        <ele>114.8</ele>
        <time>2024-02-18T07:40:46Z</time>
      </trkpt>
      <trkpt lat="46.6615" lon="0.42317">
        <ele>115.2</ele>
        <time>2024-02-18T07:40:55Z</time>
      </trkpt>
      <trkpt lat="46.66129" lon="0.42298">
        <ele>115.8</ele>
        <time>2024-02-18T07:41:01Z</time>
      </trkpt>
      <trkpt lat="46.66125" lon="0.42295">
        <ele>116</ele>
        <time>2024-02-18T07:41:02Z</time>
      </trkpt>
      <trkpt lat="46.66092" lon="0.42268">
        <ele>116.8</ele>
        <time>2024-02-18T07:41:11Z</time>
      </trkpt>
      <trkpt lat="46.66085" lon="0.42262">
        <ele>117</ele>
        <time>2024-02-18T07:41:13Z</time>
      </trkpt>
      <trkpt lat="46.66054" lon="0.42238">
        <ele>118.2</ele>
        <time>2024-02-18T07:41:21Z</time>
      </trkpt>
      <trkpt lat="46.6602" lon="0.42208">
        <ele>118.6</ele>
        <time>2024-02-18T07:41:30Z</time>
      </trkpt>
      <trkpt lat="46.65996" lon="0.42186">
        <ele>119.2</ele>
        <time>2024-02-18T07:41:37Z</time>
      </trkpt>
      <trkpt lat="46.65993" lon="0.42184">
        <ele>119.4</ele>
        <time>2024-02-18T07:41:38Z</time>
      </trkpt>
      <trkpt lat="46.65989" lon="0.42185">
        <ele>119.4</ele>
        <time>2024-02-18T07:41:39Z</time>
      </trkpt>
      <trkpt lat="46.65984" lon="0.42191">
        <ele>119.4</ele>
        <time>2024-02-18T07:41:41Z</time>
      </trkpt>
      <trkpt lat="46.65982" lon="0.42202">
        <ele>119.6</ele>
        <time>2024-02-18T07:41:43Z</time>
      </trkpt>
      <trkpt lat="46.6598" lon="0.42221">
        <ele>119.6</ele>
        <time>2024-02-18T07:41:46Z</time>
      </trkpt>
      <trkpt lat="46.65978" lon="0.42256">
        <ele>120.4</ele>
        <time>2024-02-18T07:41:51Z</time>
      </trkpt>
      <trkpt lat="46.65976" lon="0.42284">
        <ele>120.8</ele>
        <time>2024-02-18T07:41:55Z</time>
      </trkpt>
      <trkpt lat="46.65974" lon="0.42312">
        <ele>121.4</ele>
        <time>2024-02-18T07:41:59Z</time>
      </trkpt>
      <trkpt lat="46.6597" lon="0.42354">
        <ele>121.6</ele>
        <time>2024-02-18T07:42:05Z</time>
      </trkpt>
      <trkpt lat="46.65965" lon="0.42388">
        <ele>122.6</ele>
        <time>2024-02-18T07:42:10Z</time>
      </trkpt>
      <trkpt lat="46.65958" lon="0.42416">
        <ele>123</ele>
        <time>2024-02-18T07:42:14Z</time>
      </trkpt>
      <trkpt lat="46.65948" lon="0.42448">
        <ele>123.6</ele>
        <time>2024-02-18T07:42:19Z</time>
      </trkpt>
      <trkpt lat="46.65944" lon="0.42461">
        <ele>123.6</ele>
        <time>2024-02-18T07:42:21Z</time>
      </trkpt>
      <trkpt lat="46.65931" lon="0.42503">
        <ele>124.6</ele>
        <time>2024-02-18T07:42:27Z</time>
      </trkpt>
      <trkpt lat="46.65929" lon="0.4251">
        <ele>124.6</ele>
        <time>2024-02-18T07:42:28Z</time>
      </trkpt>
      <trkpt lat="46.6592" lon="0.42543">
        <ele>125.4</ele>
        <time>2024-02-18T07:42:33Z</time>
      </trkpt>
      <trkpt lat="46.65916" lon="0.42557">
        <ele>125.6</ele>
        <time>2024-02-18T07:42:35Z</time>
      </trkpt>
      <trkpt lat="46.65915" lon="0.42564">
        <ele>125.8</ele>
        <time>2024-02-18T07:42:36Z</time>
      </trkpt>
      <trkpt lat="46.65911" lon="0.42612">
        <ele>126.2</ele>
        <time>2024-02-18T07:42:43Z</time>
      </trkpt>
      <trkpt lat="46.65913" lon="0.42671">
        <ele>126.2</ele>
        <time>2024-02-18T07:42:51Z</time>
      </trkpt>
      <trkpt lat="46.65917" lon="0.42731">
        <ele>125.8</ele>
        <time>2024-02-18T07:42:59Z</time>
      </trkpt>
      <trkpt lat="46.6592" lon="0.42792">
        <ele>125.8</ele>
        <time>2024-02-18T07:43:07Z</time>
      </trkpt>
      <trkpt lat="46.65922" lon="0.42806">
        <ele>126</ele>
        <time>2024-02-18T07:43:09Z</time>
      </trkpt>
      <trkpt lat="46.65928" lon="0.42826">
        <ele>126</ele>
        <time>2024-02-18T07:43:12Z</time>
      </trkpt>
      <trkpt lat="46.65947" lon="0.42856">
        <ele>125.4</ele>
        <time>2024-02-18T07:43:17Z</time>
      </trkpt>
      <trkpt lat="46.65951" lon="0.42863">
        <ele>125.2</ele>
        <time>2024-02-18T07:43:18Z</time>
      </trkpt>
      <trkpt lat="46.65956" lon="0.42878">
        <ele>125.2</ele>
        <time>2024-02-18T07:43:20Z</time>
      </trkpt>
      <trkpt lat="46.65957" lon="0.42887">
        <ele>125</ele>
        <time>2024-02-18T07:43:21Z</time>
      </trkpt>
      <trkpt lat="46.65957" lon="0.42895">
        <ele>125</ele>
        <time>2024-02-18T07:43:22Z</time>
      </trkpt>
      <trkpt lat="46.65955" lon="0.42913">
        <ele>125</ele>
        <time>2024-02-18T07:43:24Z</time>
      </trkpt>
      <trkpt lat="46.65954" lon="0.42922">
        <ele>125</ele>
        <time>2024-02-18T07:43:25Z</time>
      </trkpt>
      <trkpt lat="46.65946" lon="0.42972">
        <ele>124.6</ele>
        <time>2024-02-18T07:43:31Z</time>
      </trkpt>
      <trkpt lat="46.65944" lon="0.4298">
        <ele>124.6</ele>
        <time>2024-02-18T07:43:32Z</time>
      </trkpt>
      <trkpt lat="46.65933" lon="0.43029">
        <ele>123.8</ele>
        <time>2024-02-18T07:43:38Z</time>
      </trkpt>
      <trkpt lat="46.6593" lon="0.43036">
        <ele>123.8</ele>
        <time>2024-02-18T07:43:39Z</time>
      </trkpt>
      <trkpt lat="46.65914" lon="0.43081">
        <ele>123.6</ele>
        <time>2024-02-18T07:43:45Z</time>
      </trkpt>
      <trkpt lat="46.65903" lon="0.4311">
        <ele>123.6</ele>
        <time>2024-02-18T07:43:49Z</time>
      </trkpt>
      <trkpt lat="46.6588" lon="0.43173">
        <ele>123.4</ele>
        <time>2024-02-18T07:43:58Z</time>
      </trkpt>
      <trkpt lat="46.65873" lon="0.43192">
        <ele>123.2</ele>
        <time>2024-02-18T07:44:01Z</time>
      </trkpt>
      <trkpt lat="46.65867" lon="0.43204">
        <ele>123.2</ele>
        <time>2024-02-18T07:44:03Z</time>
      </trkpt>
      <trkpt lat="46.65864" lon="0.4321">
        <ele>123.2</ele>
        <time>2024-02-18T07:44:04Z</time>
      </trkpt>
      <trkpt lat="46.65854" lon="0.43246">
        <ele>123.2</ele>
        <time>2024-02-18T07:44:09Z</time>
      </trkpt>
      <trkpt lat="46.65836" lon="0.43309">
        <ele>123.8</ele>
        <time>2024-02-18T07:44:17Z</time>
      </trkpt>
      <trkpt lat="46.65826" lon="0.43353">
        <ele>124</ele>
        <time>2024-02-18T07:44:23Z</time>
      </trkpt>
      <trkpt lat="46.65825" lon="0.4336">
        <ele>124</ele>
        <time>2024-02-18T07:44:24Z</time>
      </trkpt>
      <trkpt lat="46.65828" lon="0.43413">
        <ele>124.8</ele>
        <time>2024-02-18T07:44:31Z</time>
      </trkpt>
      <trkpt lat="46.65829" lon="0.43421">
        <ele>124.8</ele>
        <time>2024-02-18T07:44:32Z</time>
      </trkpt>
      <trkpt lat="46.65839" lon="0.4349">
        <ele>125.2</ele>
        <time>2024-02-18T07:44:41Z</time>
      </trkpt>
      <trkpt lat="46.6585" lon="0.43555">
        <ele>125.4</ele>
        <time>2024-02-18T07:44:49Z</time>
      </trkpt>
      <trkpt lat="46.65866" lon="0.43612">
        <ele>125</ele>
        <time>2024-02-18T07:44:56Z</time>
      </trkpt>
      <trkpt lat="46.65869" lon="0.4362">
        <ele>125</ele>
        <time>2024-02-18T07:44:57Z</time>
      </trkpt>
      <trkpt lat="46.65899" lon="0.43679">
        <ele>124</ele>
        <time>2024-02-18T07:45:05Z</time>
      </trkpt>
      <trkpt lat="46.6593" lon="0.43734">
        <ele>123.8</ele>
        <time>2024-02-18T07:45:13Z</time>
      </trkpt>
      <trkpt lat="46.65942" lon="0.43755">
        <ele>123.6</ele>
        <time>2024-02-18T07:45:16Z</time>
      </trkpt>
      <trkpt lat="46.65958" lon="0.43791">
        <ele>123.2</ele>
        <time>2024-02-18T07:45:21Z</time>
      </trkpt>
      <trkpt lat="46.65973" lon="0.43837">
        <ele>122.6</ele>
        <time>2024-02-18T07:45:27Z</time>
      </trkpt>
      <trkpt lat="46.65977" lon="0.43853">
        <ele>122.4</ele>
        <time>2024-02-18T07:45:29Z</time>
      </trkpt>
      <trkpt lat="46.6599" lon="0.43929">
        <ele>122.4</ele>
        <time>2024-02-18T07:45:38Z</time>
      </trkpt>
      <trkpt lat="46.66" lon="0.44001">
        <ele>121.8</ele>
        <time>2024-02-18T07:45:46Z</time>
      </trkpt>
      <trkpt lat="46.66002" lon="0.44019">
        <ele>121.4</ele>
        <time>2024-02-18T07:45:48Z</time>
      </trkpt>
      <trkpt lat="46.66008" lon="0.44063">
        <ele>120.4</ele>
        <time>2024-02-18T07:45:53Z</time>
      </trkpt>
      <trkpt lat="46.66009" lon="0.44072">
        <ele>120.2</ele>
        <time>2024-02-18T07:45:54Z</time>
      </trkpt>
      <trkpt lat="46.66016" lon="0.44128">
        <ele>119.2</ele>
        <time>2024-02-18T07:46:00Z</time>
      </trkpt>
      <trkpt lat="46.66019" lon="0.44155">
        <ele>119</ele>
        <time>2024-02-18T07:46:03Z</time>
      </trkpt>
      <trkpt lat="46.66028" lon="0.44236">
        <ele>118.2</ele>
        <time>2024-02-18T07:46:12Z</time>
      </trkpt>
      <trkpt lat="46.6603" lon="0.44245">
        <ele>118.2</ele>
        <time>2024-02-18T07:46:13Z</time>
      </trkpt>
      <trkpt lat="46.66043" lon="0.44305">
        <ele>117.2</ele>
        <time>2024-02-18T07:46:20Z</time>
      </trkpt>
      <trkpt lat="46.66047" lon="0.44321">
        <ele>117</ele>
        <time>2024-02-18T07:46:22Z</time>
      </trkpt>
      <trkpt lat="46.66065" lon="0.44387">
        <ele>116.4</ele>
        <time>2024-02-18T07:46:30Z</time>
      </trkpt>
      <trkpt lat="46.66073" lon="0.4442">
        <ele>116</ele>
        <time>2024-02-18T07:46:34Z</time>
      </trkpt>
      <trkpt lat="46.66082" lon="0.44452">
        <ele>115.8</ele>
        <time>2024-02-18T07:46:38Z</time>
      </trkpt>
      <trkpt lat="46.66102" lon="0.44512">
        <ele>115.6</ele>
        <time>2024-02-18T07:46:46Z</time>
      </trkpt>
      <trkpt lat="46.66106" lon="0.44519">
        <ele>115.6</ele>
        <time>2024-02-18T07:46:47Z</time>
      </trkpt>
      <trkpt lat="46.66124" lon="0.4454">
        <ele>115.8</ele>
        <time>2024-02-18T07:46:51Z</time>
      </trkpt>
      <trkpt lat="46.66162" lon="0.44574">
        <ele>115.8</ele>
        <time>2024-02-18T07:46:59Z</time>
      </trkpt>
      <trkpt lat="46.66171" lon="0.44593">
        <ele>115.8</ele>
        <time>2024-02-18T07:47:02Z</time>
      </trkpt>
      <trkpt lat="46.66173" lon="0.446">
        <ele>116</ele>
        <time>2024-02-18T07:47:03Z</time>
      </trkpt>
      <trkpt lat="46.66176" lon="0.44606">
        <ele>116</ele>
        <time>2024-02-18T07:47:04Z</time>
      </trkpt>
      <trkpt lat="46.66183" lon="0.44613">
        <ele>115.6</ele>
        <time>2024-02-18T07:47:06Z</time>
      </trkpt>
      <trkpt lat="46.66203" lon="0.44611">
        <ele>115.6</ele>
        <time>2024-02-18T07:47:11Z</time>
      </trkpt>
      <trkpt lat="46.66233" lon="0.44612">
        <ele>116.8</ele>
        <time>2024-02-18T07:47:18Z</time>
      </trkpt>
      <trkpt lat="46.66237" lon="0.44613">
        <ele>117.2</ele>
        <time>2024-02-18T07:47:19Z</time>
      </trkpt>
      <trkpt lat="46.66267" lon="0.44622">
        <ele>117.4</ele>
        <time>2024-02-18T07:47:25Z</time>
      </trkpt>
      <trkpt lat="46.66306" lon="0.4464">
        <ele>118</ele>
        <time>2024-02-18T07:47:33Z</time>
      </trkpt>
      <trkpt lat="46.66311" lon="0.44643">
        <ele>118.2</ele>
        <time>2024-02-18T07:47:34Z</time>
      </trkpt>
      <trkpt lat="46.66347" lon="0.44657">
        <ele>118.4</ele>
        <time>2024-02-18T07:47:41Z</time>
      </trkpt>
      <trkpt lat="46.66396" lon="0.44665">
        <ele>118.2</ele>
        <time>2024-02-18T07:47:50Z</time>
      </trkpt>
      <trkpt lat="46.66453" lon="0.44673">
        <ele>117.6</ele>
        <time>2024-02-18T07:48:00Z</time>
      </trkpt>
      <trkpt lat="46.66458" lon="0.44673">
        <ele>117.6</ele>
        <time>2024-02-18T07:48:01Z</time>
      </trkpt>
      <trkpt lat="46.66482" lon="0.44675">
        <ele>117.2</ele>
        <time>2024-02-18T07:48:05Z</time>
      </trkpt>
      <trkpt lat="46.66511" lon="0.44676">
        <ele>117.2</ele>
        <time>2024-02-18T07:48:10Z</time>
      </trkpt>
      <trkpt lat="46.6656" lon="0.44677">
        <ele>117.6</ele>
        <time>2024-02-18T07:48:18Z</time>
      </trkpt>
      <trkpt lat="46.66601" lon="0.44685">
        <ele>118</ele>
        <time>2024-02-18T07:48:25Z</time>
      </trkpt>
      <trkpt lat="46.66608" lon="0.44693">
        <ele>118.2</ele>
        <time>2024-02-18T07:48:27Z</time>
      </trkpt>
      <trkpt lat="46.6661" lon="0.44699">
        <ele>118.4</ele>
        <time>2024-02-18T07:48:28Z</time>
      </trkpt>
      <trkpt lat="46.66609" lon="0.44707">
        <ele>118.4</ele>
        <time>2024-02-18T07:48:29Z</time>
      </trkpt>
      <trkpt lat="46.66605" lon="0.44723">
        <ele>118.6</ele>
        <time>2024-02-18T07:48:31Z</time>
      </trkpt>
      <trkpt lat="46.66595" lon="0.44781">
        <ele>118.4</ele>
        <time>2024-02-18T07:48:38Z</time>
      </trkpt>
      <trkpt lat="46.66587" lon="0.44835">
        <ele>117.4</ele>
        <time>2024-02-18T07:48:46Z</time>
      </trkpt>
      <trkpt lat="46.66582" lon="0.4487">
        <ele>117.2</ele>
        <time>2024-02-18T07:48:51Z</time>
      </trkpt>
      <trkpt lat="46.66577" lon="0.449">
        <ele>116.8</ele>
        <time>2024-02-18T07:48:55Z</time>
      </trkpt>
      <trkpt lat="46.66574" lon="0.44922">
        <ele>116</ele>
        <time>2024-02-18T07:48:58Z</time>
      </trkpt>
      <trkpt lat="46.66567" lon="0.44953">
        <ele>115.4</ele>
        <time>2024-02-18T07:49:02Z</time>
      </trkpt>
      <trkpt lat="46.66558" lon="0.44983">
        <ele>115</ele>
        <time>2024-02-18T07:49:06Z</time>
      </trkpt>
      <trkpt lat="46.66547" lon="0.4502">
        <ele>114.2</ele>
        <time>2024-02-18T07:49:11Z</time>
      </trkpt>
      <trkpt lat="46.66533" lon="0.45068">
        <ele>114.4</ele>
        <time>2024-02-18T07:49:18Z</time>
      </trkpt>
      <trkpt lat="46.66527" lon="0.45089">
        <ele>114</ele>
        <time>2024-02-18T07:49:21Z</time>
      </trkpt>
      <trkpt lat="46.66517" lon="0.45124">
        <ele>113.4</ele>
        <time>2024-02-18T07:49:26Z</time>
      </trkpt>
      <trkpt lat="46.66518" lon="0.45136">
        <ele>113.2</ele>
        <time>2024-02-18T07:49:28Z</time>
      </trkpt>
      <trkpt lat="46.6652" lon="0.45139">
        <ele>113</ele>
        <time>2024-02-18T07:49:29Z</time>
      </trkpt>
      <trkpt lat="46.66524" lon="0.45142">
        <ele>113</ele>
        <time>2024-02-18T07:49:30Z</time>
      </trkpt>
      <trkpt lat="46.66536" lon="0.45149">
        <ele>113</ele>
        <time>2024-02-18T07:49:33Z</time>
      </trkpt>
      <trkpt lat="46.66564" lon="0.45176">
        <ele>113.4</ele>
        <time>2024-02-18T07:49:40Z</time>
      </trkpt>
      <trkpt lat="46.66594" lon="0.45208">
        <ele>114.2</ele>
        <time>2024-02-18T07:49:48Z</time>
      </trkpt>
      <trkpt lat="46.66614" lon="0.45228">
        <ele>115</ele>
        <time>2024-02-18T07:49:54Z</time>
      </trkpt>
      <trkpt lat="46.66621" lon="0.45235">
        <ele>115</ele>
        <time>2024-02-18T07:49:56Z</time>
      </trkpt>
      <trkpt lat="46.66654" lon="0.4527">
        <ele>116</ele>
        <time>2024-02-18T07:50:06Z</time>
      </trkpt>
      <trkpt lat="46.66671" lon="0.45287">
        <ele>116.2</ele>
        <time>2024-02-18T07:50:12Z</time>
      </trkpt>
      <trkpt lat="46.66692" lon="0.45309">
        <ele>116.8</ele>
        <time>2024-02-18T07:50:20Z</time>
      </trkpt>
      <trkpt lat="46.66702" lon="0.4532">
        <ele>117</ele>
        <time>2024-02-18T07:50:24Z</time>
      </trkpt>
      <trkpt lat="46.6671" lon="0.45328">
        <ele>117.2</ele>
        <time>2024-02-18T07:50:27Z</time>
      </trkpt>
      <trkpt lat="46.6673" lon="0.45343">
        <ele>117.4</ele>
        <time>2024-02-18T07:50:34Z</time>
      </trkpt>
      <trkpt lat="46.6675" lon="0.45348">
        <ele>117.4</ele>
        <time>2024-02-18T07:50:40Z</time>
      </trkpt>
      <trkpt lat="46.6678" lon="0.45351">
        <ele>117.2</ele>
        <time>2024-02-18T07:50:49Z</time>
      </trkpt>
      <trkpt lat="46.66808" lon="0.45355">
        <ele>116.8</ele>
        <time>2024-02-18T07:50:56Z</time>
      </trkpt>
      <trkpt lat="46.66843" lon="0.45359">
        <ele>116.2</ele>
        <time>2024-02-18T07:51:06Z</time>
      </trkpt>
      <trkpt lat="46.66854" lon="0.45361">
        <ele>116</ele>
        <time>2024-02-18T07:51:09Z</time>
      </trkpt>
      <trkpt lat="46.66875" lon="0.45365">
        <ele>115.8</ele>
        <time>2024-02-18T07:51:14Z</time>
      </trkpt>
      <trkpt lat="46.66892" lon="0.45369">
        <ele>114.8</ele>
        <time>2024-02-18T07:51:18Z</time>
      </trkpt>
      <trkpt lat="46.66909" lon="0.45372">
        <ele>114.4</ele>
        <time>2024-02-18T07:51:22Z</time>
      </trkpt>
      <trkpt lat="46.6694" lon="0.45378">
        <ele>114.2</ele>
        <time>2024-02-18T07:51:29Z</time>
      </trkpt>
      <trkpt lat="46.66954" lon="0.4538">
        <ele>113.6</ele>
        <time>2024-02-18T07:51:32Z</time>
      </trkpt>
      <trkpt lat="46.66978" lon="0.45385">
        <ele>113</ele>
        <time>2024-02-18T07:51:37Z</time>
      </trkpt>
      <trkpt lat="46.66988" lon="0.45386">
        <ele>112.6</ele>
        <time>2024-02-18T07:51:39Z</time>
      </trkpt>
      <trkpt lat="46.67025" lon="0.45393">
        <ele>111.6</ele>
        <time>2024-02-18T07:51:46Z</time>
      </trkpt>
      <trkpt lat="46.67035" lon="0.45395">
        <ele>111.4</ele>
        <time>2024-02-18T07:51:48Z</time>
      </trkpt>
      <trkpt lat="46.67059" lon="0.45401">
        <ele>110.8</ele>
        <time>2024-02-18T07:51:53Z</time>
      </trkpt>
      <trkpt lat="46.67108" lon="0.45411">
        <ele>110.2</ele>
        <time>2024-02-18T07:52:02Z</time>
      </trkpt>
      <trkpt lat="46.67148" lon="0.4542">
        <ele>109.2</ele>
        <time>2024-02-18T07:52:09Z</time>
      </trkpt>
      <trkpt lat="46.6716" lon="0.45424">
        <ele>108.8</ele>
        <time>2024-02-18T07:52:11Z</time>
      </trkpt>
      <trkpt lat="46.67202" lon="0.45441">
        <ele>108</ele>
        <time>2024-02-18T07:52:18Z</time>
      </trkpt>
      <trkpt lat="46.67208" lon="0.45444">
        <ele>108</ele>
        <time>2024-02-18T07:52:19Z</time>
      </trkpt>
      <trkpt lat="46.67259" lon="0.45476">
        <ele>107.4</ele>
        <time>2024-02-18T07:52:28Z</time>
      </trkpt>
      <trkpt lat="46.67276" lon="0.45486">
        <ele>107</ele>
        <time>2024-02-18T07:52:31Z</time>
      </trkpt>
      <trkpt lat="46.67304" lon="0.45501">
        <ele>106.4</ele>
        <time>2024-02-18T07:52:36Z</time>
      </trkpt>
      <trkpt lat="46.67329" lon="0.45515">
        <ele>105.8</ele>
        <time>2024-02-18T07:52:41Z</time>
      </trkpt>
      <trkpt lat="46.67333" lon="0.45517">
        <ele>105.8</ele>
        <time>2024-02-18T07:52:42Z</time>
      </trkpt>
      <trkpt lat="46.67338" lon="0.4552">
        <ele>105.8</ele>
        <time>2024-02-18T07:52:44Z</time>
      </trkpt>
      <trkpt lat="46.67339" lon="0.45523">
        <ele>105.8</ele>
        <time>2024-02-18T07:52:45Z</time>
      </trkpt>
      <trkpt lat="46.6734" lon="0.45545">
        <ele>105.6</ele>
        <time>2024-02-18T07:52:50Z</time>
      </trkpt>
      <trkpt lat="46.67336" lon="0.45558">
        <ele>106.4</ele>
        <time>2024-02-18T07:52:52Z</time>
      </trkpt>
      <trkpt lat="46.67332" lon="0.45571">
        <ele>106.8</ele>
        <time>2024-02-18T07:52:54Z</time>
      </trkpt>
      <trkpt lat="46.67329" lon="0.45577">
        <ele>106.8</ele>
        <time>2024-02-18T07:52:55Z</time>
      </trkpt>
      <trkpt lat="46.67326" lon="0.45588">
        <ele>107</ele>
        <time>2024-02-18T07:52:57Z</time>
      </trkpt>
      <trkpt lat="46.67322" lon="0.45605">
        <ele>107</ele>
        <time>2024-02-18T07:53:00Z</time>
      </trkpt>
      <trkpt lat="46.6732" lon="0.4561">
        <ele>107</ele>
        <time>2024-02-18T07:53:01Z</time>
      </trkpt>
      <trkpt lat="46.67309" lon="0.45646">
        <ele>106.4</ele>
        <time>2024-02-18T07:53:07Z</time>
      </trkpt>
      <trkpt lat="46.67298" lon="0.45691">
        <ele>105.8</ele>
        <time>2024-02-18T07:53:14Z</time>
      </trkpt>
      <trkpt lat="46.67297" lon="0.45698">
        <ele>105.8</ele>
        <time>2024-02-18T07:53:15Z</time>
      </trkpt>
      <trkpt lat="46.67285" lon="0.45766">
        <ele>105.8</ele>
        <time>2024-02-18T07:53:25Z</time>
      </trkpt>
      <trkpt lat="46.67279" lon="0.45818">
        <ele>106</ele>
        <time>2024-02-18T07:53:33Z</time>
      </trkpt>
      <trkpt lat="46.67276" lon="0.45841">
        <ele>106.4</ele>
        <time>2024-02-18T07:53:37Z</time>
      </trkpt>
      <trkpt lat="46.67276" lon="0.45851">
        <ele>106.8</ele>
        <time>2024-02-18T07:53:39Z</time>
      </trkpt>
      <trkpt lat="46.67271" lon="0.45894">
        <ele>107.4</ele>
        <time>2024-02-18T07:53:46Z</time>
      </trkpt>
      <trkpt lat="46.67269" lon="0.45912">
        <ele>107.8</ele>
        <time>2024-02-18T07:53:49Z</time>
      </trkpt>
      <trkpt lat="46.67265" lon="0.45943">
        <ele>107.6</ele>
        <time>2024-02-18T07:53:54Z</time>
      </trkpt>
      <trkpt lat="46.6726" lon="0.45987">
        <ele>107.4</ele>
        <time>2024-02-18T07:54:01Z</time>
      </trkpt>
      <trkpt lat="46.67254" lon="0.46022">
        <ele>107.2</ele>
        <time>2024-02-18T07:54:07Z</time>
      </trkpt>
      <trkpt lat="46.67249" lon="0.46043">
        <ele>106.8</ele>
        <time>2024-02-18T07:54:11Z</time>
      </trkpt>
      <trkpt lat="46.67247" lon="0.46048">
        <ele>106.8</ele>
        <time>2024-02-18T07:54:12Z</time>
      </trkpt>
      <trkpt lat="46.67237" lon="0.46079">
        <ele>106.6</ele>
        <time>2024-02-18T07:54:18Z</time>
      </trkpt>
      <trkpt lat="46.67233" lon="0.46092">
        <ele>106.2</ele>
        <time>2024-02-18T07:54:22Z</time>
      </trkpt>
      <trkpt lat="46.67229" lon="0.46112">
        <ele>105.8</ele>
        <time>2024-02-18T07:54:28Z</time>
      </trkpt>
      <trkpt lat="46.67228" lon="0.46118">
        <ele>105.8</ele>
        <time>2024-02-18T07:54:30Z</time>
      </trkpt>
      <trkpt lat="46.67226" lon="0.46126">
        <ele>105.6</ele>
        <time>2024-02-18T07:54:33Z</time>
      </trkpt>
      <trkpt lat="46.6722" lon="0.46144">
        <ele>105.8</ele>
        <time>2024-02-18T07:54:38Z</time>
      </trkpt>
      <trkpt lat="46.67207" lon="0.46173">
        <ele>106</ele>
        <time>2024-02-18T07:54:44Z</time>
      </trkpt>
      <trkpt lat="46.67201" lon="0.4619">
        <ele>106</ele>
        <time>2024-02-18T07:54:47Z</time>
      </trkpt>
      <trkpt lat="46.67199" lon="0.46199">
        <ele>106</ele>
        <time>2024-02-18T07:54:49Z</time>
      </trkpt>
      <trkpt lat="46.67201" lon="0.46214">
        <ele>106</ele>
        <time>2024-02-18T07:54:53Z</time>
      </trkpt>
      <trkpt lat="46.67201" lon="0.46218">
        <ele>106</ele>
        <time>2024-02-18T07:54:54Z</time>
      </trkpt>
      <trkpt lat="46.67201" lon="0.46223">
        <ele>106</ele>
        <time>2024-02-18T07:54:55Z</time>
      </trkpt>
      <trkpt lat="46.67204" lon="0.46246">
        <ele>105.4</ele>
        <time>2024-02-18T07:55:00Z</time>
      </trkpt>
      <trkpt lat="46.67201" lon="0.46263">
        <ele>105</ele>
        <time>2024-02-18T07:55:05Z</time>
      </trkpt>
      <trkpt lat="46.67201" lon="0.46273">
        <ele>104.8</ele>
        <time>2024-02-18T07:55:07Z</time>
      </trkpt>
      <trkpt lat="46.672" lon="0.46278">
        <ele>104.6</ele>
        <time>2024-02-18T07:55:08Z</time>
      </trkpt>
      <trkpt lat="46.672" lon="0.46284">
        <ele>104.4</ele>
        <time>2024-02-18T07:55:09Z</time>
      </trkpt>
      <trkpt lat="46.67201" lon="0.46291">
        <ele>104.2</ele>
        <time>2024-02-18T07:55:11Z</time>
      </trkpt>
      <trkpt lat="46.67202" lon="0.46291">
        <ele>104</ele>
        <time>2024-02-18T07:55:12Z</time>
      </trkpt>
      <trkpt lat="46.6721" lon="0.46285">
        <ele>104.6</ele>
        <time>2024-02-18T07:55:18Z</time>
      </trkpt>
      <trkpt lat="46.67211" lon="0.46283">
        <ele>104.6</ele>
        <time>2024-02-18T07:55:19Z</time>
      </trkpt>
      <trkpt lat="46.67217" lon="0.46273">
        <ele>104.4</ele>
        <time>2024-02-18T07:55:24Z</time>
      </trkpt>
      <trkpt lat="46.6722" lon="0.4627">
        <ele>104.6</ele>
        <time>2024-02-18T07:55:26Z</time>
      </trkpt>
      <trkpt lat="46.67225" lon="0.46268">
        <ele>104.2</ele>
        <time>2024-02-18T07:55:28Z</time>
      </trkpt>
      <trkpt lat="46.67227" lon="0.46264">
        <ele>104.4</ele>
        <time>2024-02-18T07:55:30Z</time>
      </trkpt>
      <trkpt lat="46.67231" lon="0.46263">
        <ele>104.2</ele>
        <time>2024-02-18T07:55:32Z</time>
      </trkpt>
      <trkpt lat="46.67233" lon="0.46264">
        <ele>104</ele>
        <time>2024-02-18T07:55:33Z</time>
      </trkpt>
      <trkpt lat="46.67243" lon="0.46266">
        <ele>104</ele>
        <time>2024-02-18T07:55:37Z</time>
      </trkpt>
      <trkpt lat="46.67248" lon="0.46267">
        <ele>104</ele>
        <time>2024-02-18T07:55:39Z</time>
      </trkpt>
      <trkpt lat="46.67259" lon="0.46271">
        <ele>103.4</ele>
        <time>2024-02-18T07:55:43Z</time>
      </trkpt>
      <trkpt lat="46.67262" lon="0.46271">
        <ele>103</ele>
        <time>2024-02-18T07:55:44Z</time>
      </trkpt>
      <trkpt lat="46.67272" lon="0.46273">
        <ele>102.6</ele>
        <time>2024-02-18T07:55:47Z</time>
      </trkpt>
      <trkpt lat="46.67282" lon="0.46278">
        <ele>102.4</ele>
        <time>2024-02-18T07:55:51Z</time>
      </trkpt>
      <trkpt lat="46.67283" lon="0.4628">
        <ele>102.4</ele>
        <time>2024-02-18T07:55:52Z</time>
      </trkpt>
      <trkpt lat="46.67283" lon="0.46283">
        <ele>102.4</ele>
        <time>2024-02-18T07:55:54Z</time>
      </trkpt>
      <trkpt lat="46.67282" lon="0.46284">
        <ele>102.4</ele>
        <time>2024-02-18T07:55:55Z</time>
      </trkpt>
      <trkpt lat="46.67282" lon="0.46286">
        <ele>102.2</ele>
        <time>2024-02-18T07:55:56Z</time>
      </trkpt>
      <trkpt lat="46.67282" lon="0.46288">
        <ele>102.2</ele>
        <time>2024-02-18T07:55:57Z</time>
      </trkpt>
      <trkpt lat="46.67281" lon="0.46296">
        <ele>102.4</ele>
        <time>2024-02-18T07:56:00Z</time>
      </trkpt>
      <trkpt lat="46.67284" lon="0.46302">
        <ele>102.4</ele>
        <time>2024-02-18T07:56:02Z</time>
      </trkpt>
      <trkpt lat="46.67284" lon="0.46311">
        <ele>102.2</ele>
        <time>2024-02-18T07:56:04Z</time>
      </trkpt>
      <trkpt lat="46.67284" lon="0.4632">
        <ele>102</ele>
        <time>2024-02-18T07:56:06Z</time>
      </trkpt>
      <trkpt lat="46.67285" lon="0.4633">
        <ele>102</ele>
        <time>2024-02-18T07:56:08Z</time>
      </trkpt>
      <trkpt lat="46.67284" lon="0.46339">
        <ele>102</ele>
        <time>2024-02-18T07:56:10Z</time>
      </trkpt>
      <trkpt lat="46.67282" lon="0.46344">
        <ele>102.2</ele>
        <time>2024-02-18T07:56:11Z</time>
      </trkpt>
      <trkpt lat="46.67281" lon="0.46351">
        <ele>102.2</ele>
        <time>2024-02-18T07:56:13Z</time>
      </trkpt>
      <trkpt lat="46.67284" lon="0.46357">
        <ele>102.4</ele>
        <time>2024-02-18T07:56:15Z</time>
      </trkpt>
      <trkpt lat="46.6729" lon="0.46361">
        <ele>102.4</ele>
        <time>2024-02-18T07:56:17Z</time>
      </trkpt>
      <trkpt lat="46.67296" lon="0.46364">
        <ele>102.2</ele>
        <time>2024-02-18T07:56:19Z</time>
      </trkpt>
      <trkpt lat="46.67303" lon="0.46366">
        <ele>102</ele>
        <time>2024-02-18T07:56:21Z</time>
      </trkpt>
      <trkpt lat="46.67312" lon="0.46368">
        <ele>101.6</ele>
        <time>2024-02-18T07:56:24Z</time>
      </trkpt>
      <trkpt lat="46.67315" lon="0.4637">
        <ele>101.2</ele>
        <time>2024-02-18T07:56:25Z</time>
      </trkpt>
      <trkpt lat="46.67322" lon="0.46375">
        <ele>101</ele>
        <time>2024-02-18T07:56:27Z</time>
      </trkpt>
      <trkpt lat="46.67328" lon="0.4638">
        <ele>100.8</ele>
        <time>2024-02-18T07:56:29Z</time>
      </trkpt>
      <trkpt lat="46.67336" lon="0.46388">
        <ele>100</ele>
        <time>2024-02-18T07:56:32Z</time>
      </trkpt>
      <trkpt lat="46.67343" lon="0.46392">
        <ele>99.4</ele>
        <time>2024-02-18T07:56:34Z</time>
      </trkpt>
      <trkpt lat="46.6735" lon="0.46395">
        <ele>99.2</ele>
        <time>2024-02-18T07:56:36Z</time>
      </trkpt>
      <trkpt lat="46.67354" lon="0.46396">
        <ele>99</ele>
        <time>2024-02-18T07:56:38Z</time>
      </trkpt>
      <trkpt lat="46.67364" lon="0.46397">
        <ele>98.2</ele>
        <time>2024-02-18T07:56:42Z</time>
      </trkpt>
      <trkpt lat="46.67366" lon="0.46397">
        <ele>98.2</ele>
        <time>2024-02-18T07:56:43Z</time>
      </trkpt>
      <trkpt lat="46.67372" lon="0.46399">
        <ele>98.2</ele>
        <time>2024-02-18T07:56:46Z</time>
      </trkpt>
      <trkpt lat="46.67377" lon="0.46401">
        <ele>98.2</ele>
        <time>2024-02-18T07:56:48Z</time>
      </trkpt>
      <trkpt lat="46.67383" lon="0.46404">
        <ele>97.8</ele>
        <time>2024-02-18T07:56:51Z</time>
      </trkpt>
      <trkpt lat="46.67384" lon="0.46405">
        <ele>97.8</ele>
        <time>2024-02-18T07:56:52Z</time>
      </trkpt>
      <trkpt lat="46.67386" lon="0.4641">
        <ele>97.8</ele>
        <time>2024-02-18T07:56:55Z</time>
      </trkpt>
      <trkpt lat="46.67392" lon="0.46419">
        <ele>97.4</ele>
        <time>2024-02-18T07:56:59Z</time>
      </trkpt>
      <trkpt lat="46.67398" lon="0.46418">
        <ele>97.4</ele>
        <time>2024-02-18T07:57:03Z</time>
      </trkpt>
      <trkpt lat="46.674" lon="0.46418">
        <ele>97.2</ele>
        <time>2024-02-18T07:57:04Z</time>
      </trkpt>
      <trkpt lat="46.67403" lon="0.46427">
        <ele>97.2</ele>
        <time>2024-02-18T07:57:09Z</time>
      </trkpt>
      <trkpt lat="46.67403" lon="0.46429">
        <ele>97.2</ele>
        <time>2024-02-18T07:57:10Z</time>
      </trkpt>
      <trkpt lat="46.67402" lon="0.46435">
        <ele>97.2</ele>
        <time>2024-02-18T07:57:13Z</time>
      </trkpt>
      <trkpt lat="46.67399" lon="0.46438">
        <ele>97.4</ele>
        <time>2024-02-18T07:57:16Z</time>
      </trkpt>
      <trkpt lat="46.67399" lon="0.46437">
        <ele>97.8</ele>
        <time>2024-02-18T07:57:20Z</time>
      </trkpt>
      <trkpt lat="46.67398" lon="0.46437">
        <ele>98</ele>
        <time>2024-02-18T07:57:21Z</time>
      </trkpt>
      <trkpt lat="46.67397" lon="0.46434">
        <ele>98.2</ele>
        <time>2024-02-18T07:57:25Z</time>
      </trkpt>
      <trkpt lat="46.67397" lon="0.46432">
        <ele>98.2</ele>
        <time>2024-02-18T07:57:26Z</time>
      </trkpt>
      <trkpt lat="46.67394" lon="0.4643">
        <ele>98.4</ele>
        <time>2024-02-18T07:57:30Z</time>
      </trkpt>
      <trkpt lat="46.67392" lon="0.46432">
        <ele>98.4</ele>
        <time>2024-02-18T07:57:32Z</time>
      </trkpt>
      <trkpt lat="46.67386" lon="0.46445">
        <ele>98.6</ele>
        <time>2024-02-18T07:57:39Z</time>
      </trkpt>
      <trkpt lat="46.67385" lon="0.46447">
        <ele>99</ele>
        <time>2024-02-18T07:57:40Z</time>
      </trkpt>
      <trkpt lat="46.67383" lon="0.46457">
        <ele>99.4</ele>
        <time>2024-02-18T07:57:43Z</time>
      </trkpt>
      <trkpt lat="46.67378" lon="0.46469">
        <ele>98.6</ele>
        <time>2024-02-18T07:57:48Z</time>
      </trkpt>
      <trkpt lat="46.67378" lon="0.46469">
        <ele>98.4</ele>
        <time>2024-02-18T07:57:49Z</time>
      </trkpt>
      <trkpt lat="46.67374" lon="0.46469">
        <ele>98.6</ele>
        <time>2024-02-18T07:57:52Z</time>
      </trkpt>
      <trkpt lat="46.67373" lon="0.4647">
        <ele>98.6</ele>
        <time>2024-02-18T07:57:53Z</time>
      </trkpt>
      <trkpt lat="46.67369" lon="0.46474">
        <ele>98.4</ele>
        <time>2024-02-18T07:57:55Z</time>
      </trkpt>
      <trkpt lat="46.67361" lon="0.46481">
        <ele>98.8</ele>
        <time>2024-02-18T07:57:58Z</time>
      </trkpt>
      <trkpt lat="46.67355" lon="0.46485">
        <ele>99</ele>
        <time>2024-02-18T07:58:00Z</time>
      </trkpt>
      <trkpt lat="46.67347" lon="0.46487">
        <ele>98.8</ele>
        <time>2024-02-18T07:58:04Z</time>
      </trkpt>
      <trkpt lat="46.67343" lon="0.46488">
        <ele>98.8</ele>
        <time>2024-02-18T07:58:05Z</time>
      </trkpt>
      <trkpt lat="46.67337" lon="0.46492">
        <ele>99</ele>
        <time>2024-02-18T07:58:07Z</time>
      </trkpt>
      <trkpt lat="46.67332" lon="0.46494">
        <ele>99</ele>
        <time>2024-02-18T07:58:08Z</time>
      </trkpt>
      <trkpt lat="46.67328" lon="0.46496">
        <ele>99.2</ele>
        <time>2024-02-18T07:58:09Z</time>
      </trkpt>
      <trkpt lat="46.67322" lon="0.465">
        <ele>99</ele>
        <time>2024-02-18T07:58:11Z</time>
      </trkpt>
      <trkpt lat="46.67319" lon="0.46502">
        <ele>98.8</ele>
        <time>2024-02-18T07:58:12Z</time>
      </trkpt>
      <trkpt lat="46.67318" lon="0.46503">
        <ele>98.8</ele>
        <time>2024-02-18T07:58:13Z</time>
      </trkpt>
      <trkpt lat="46.67313" lon="0.465">
        <ele>98.6</ele>
        <time>2024-02-18T07:58:16Z</time>
      </trkpt>
      <trkpt lat="46.67312" lon="0.46491">
        <ele>98.8</ele>
        <time>2024-02-18T07:58:20Z</time>
      </trkpt>
      <trkpt lat="46.67311" lon="0.46488">
        <ele>98.8</ele>
        <time>2024-02-18T07:58:21Z</time>
      </trkpt>
      <trkpt lat="46.6731" lon="0.46487">
        <ele>99</ele>
        <time>2024-02-18T07:58:22Z</time>
      </trkpt>
      <trkpt lat="46.67305" lon="0.46483">
        <ele>99.2</ele>
        <time>2024-02-18T07:58:25Z</time>
      </trkpt>
      <trkpt lat="46.673" lon="0.46478">
        <ele>100.2</ele>
        <time>2024-02-18T07:58:28Z</time>
      </trkpt>
      <trkpt lat="46.67296" lon="0.46476">
        <ele>100.4</ele>
        <time>2024-02-18T07:58:30Z</time>
      </trkpt>
      <trkpt lat="46.67292" lon="0.46475">
        <ele>100.4</ele>
        <time>2024-02-18T07:58:31Z</time>
      </trkpt>
      <trkpt lat="46.67282" lon="0.46473">
        <ele>100.4</ele>
        <time>2024-02-18T07:58:35Z</time>
      </trkpt>
      <trkpt lat="46.6728" lon="0.46473">
        <ele>100.4</ele>
        <time>2024-02-18T07:58:36Z</time>
      </trkpt>
      <trkpt lat="46.67279" lon="0.46473">
        <ele>100.4</ele>
        <time>2024-02-18T07:58:37Z</time>
      </trkpt>
      <trkpt lat="46.67277" lon="0.46469">
        <ele>100.6</ele>
        <time>2024-02-18T07:58:39Z</time>
      </trkpt>
      <trkpt lat="46.67276" lon="0.46465">
        <ele>100.6</ele>
        <time>2024-02-18T07:58:41Z</time>
      </trkpt>
      <trkpt lat="46.67275" lon="0.46462">
        <ele>100.8</ele>
        <time>2024-02-18T07:58:42Z</time>
      </trkpt>
      <trkpt lat="46.67275" lon="0.46457">
        <ele>101.2</ele>
        <time>2024-02-18T07:58:45Z</time>
      </trkpt>
      <trkpt lat="46.67268" lon="0.46455">
        <ele>101.4</ele>
        <time>2024-02-18T07:58:50Z</time>
      </trkpt>
      <trkpt lat="46.67254" lon="0.46457">
        <ele>101.2</ele>
        <time>2024-02-18T07:58:56Z</time>
      </trkpt>
      <trkpt lat="46.67251" lon="0.46458">
        <ele>101.2</ele>
        <time>2024-02-18T07:58:57Z</time>
      </trkpt>
      <trkpt lat="46.67249" lon="0.46459">
        <ele>101</ele>
        <time>2024-02-18T07:58:58Z</time>
      </trkpt>
      <trkpt lat="46.67245" lon="0.46457">
        <ele>101</ele>
        <time>2024-02-18T07:59:01Z</time>
      </trkpt>
      <trkpt lat="46.67245" lon="0.46455">
        <ele>100.8</ele>
        <time>2024-02-18T07:59:02Z</time>
      </trkpt>
      <trkpt lat="46.6724" lon="0.46452">
        <ele>101</ele>
        <time>2024-02-18T07:59:06Z</time>
      </trkpt>
      <trkpt lat="46.67232" lon="0.46449">
        <ele>100.8</ele>
        <time>2024-02-18T07:59:11Z</time>
      </trkpt>
      <trkpt lat="46.6723" lon="0.46449">
        <ele>100.8</ele>
        <time>2024-02-18T07:59:12Z</time>
      </trkpt>
      <trkpt lat="46.67226" lon="0.46448">
        <ele>100.6</ele>
        <time>2024-02-18T07:59:14Z</time>
      </trkpt>
      <trkpt lat="46.67214" lon="0.46451">
        <ele>100.6</ele>
        <time>2024-02-18T07:59:19Z</time>
      </trkpt>
      <trkpt lat="46.67212" lon="0.46451">
        <ele>100.6</ele>
        <time>2024-02-18T07:59:20Z</time>
      </trkpt>
      <trkpt lat="46.67203" lon="0.46451">
        <ele>100.4</ele>
        <time>2024-02-18T07:59:24Z</time>
      </trkpt>
      <trkpt lat="46.67201" lon="0.46451">
        <ele>100.2</ele>
        <time>2024-02-18T07:59:25Z</time>
      </trkpt>
      <trkpt lat="46.67199" lon="0.46449">
        <ele>100</ele>
        <time>2024-02-18T07:59:27Z</time>
      </trkpt>
      <trkpt lat="46.67196" lon="0.46447">
        <ele>100</ele>
        <time>2024-02-18T07:59:29Z</time>
      </trkpt>
      <trkpt lat="46.67183" lon="0.46432">
        <ele>101.2</ele>
        <time>2024-02-18T07:59:37Z</time>
      </trkpt>
      <trkpt lat="46.67177" lon="0.46427">
        <ele>101.6</ele>
        <time>2024-02-18T07:59:39Z</time>
      </trkpt>
      <trkpt lat="46.67165" lon="0.46417">
        <ele>102.2</ele>
        <time>2024-02-18T07:59:45Z</time>
      </trkpt>
      <trkpt lat="46.67144" lon="0.46408">
        <ele>102.2</ele>
        <time>2024-02-18T07:59:51Z</time>
      </trkpt>
      <trkpt lat="46.67141" lon="0.46406">
        <ele>102.4</ele>
        <time>2024-02-18T07:59:52Z</time>
      </trkpt>
      <trkpt lat="46.67124" lon="0.46402">
        <ele>102.6</ele>
        <time>2024-02-18T07:59:58Z</time>
      </trkpt>
      <trkpt lat="46.67107" lon="0.46404">
        <ele>103</ele>
        <time>2024-02-18T08:00:03Z</time>
      </trkpt>
      <trkpt lat="46.67105" lon="0.46404">
        <ele>103.2</ele>
        <time>2024-02-18T08:00:04Z</time>
      </trkpt>
      <trkpt lat="46.67095" lon="0.46401">
        <ele>103.2</ele>
        <time>2024-02-18T08:00:08Z</time>
      </trkpt>
      <trkpt lat="46.67092" lon="0.464">
        <ele>103.2</ele>
        <time>2024-02-18T08:00:09Z</time>
      </trkpt>
      <trkpt lat="46.67088" lon="0.46396">
        <ele>103.4</ele>
        <time>2024-02-18T08:00:11Z</time>
      </trkpt>
      <trkpt lat="46.67086" lon="0.46393">
        <ele>103.4</ele>
        <time>2024-02-18T08:00:12Z</time>
      </trkpt>
      <trkpt lat="46.67079" lon="0.46375">
        <ele>104.2</ele>
        <time>2024-02-18T08:00:19Z</time>
      </trkpt>
      <trkpt lat="46.67078" lon="0.46372">
        <ele>104.2</ele>
        <time>2024-02-18T08:00:21Z</time>
      </trkpt>
      <trkpt lat="46.6707" lon="0.4636">
        <ele>104.4</ele>
        <time>2024-02-18T08:00:25Z</time>
      </trkpt>
      <trkpt lat="46.67069" lon="0.46356">
        <ele>104.6</ele>
        <time>2024-02-18T08:00:27Z</time>
      </trkpt>
      <trkpt lat="46.67063" lon="0.46343">
        <ele>105</ele>
        <time>2024-02-18T08:00:33Z</time>
      </trkpt>
      <trkpt lat="46.67061" lon="0.46342">
        <ele>105</ele>
        <time>2024-02-18T08:00:34Z</time>
      </trkpt>
      <trkpt lat="46.67044" lon="0.46341">
        <ele>105</ele>
        <time>2024-02-18T08:00:42Z</time>
      </trkpt>
      <trkpt lat="46.67041" lon="0.4635">
        <ele>104.6</ele>
        <time>2024-02-18T08:00:46Z</time>
      </trkpt>
      <trkpt lat="46.67028" lon="0.46363">
        <ele>103.6</ele>
        <time>2024-02-18T08:00:52Z</time>
      </trkpt>
      <trkpt lat="46.67016" lon="0.46372">
        <ele>103.8</ele>
        <time>2024-02-18T08:00:57Z</time>
      </trkpt>
      <trkpt lat="46.6701" lon="0.46381">
        <ele>103.4</ele>
        <time>2024-02-18T08:01:00Z</time>
      </trkpt>
      <trkpt lat="46.67009" lon="0.46384">
        <ele>103.2</ele>
        <time>2024-02-18T08:01:01Z</time>
      </trkpt>
      <trkpt lat="46.67008" lon="0.46392">
        <ele>102.4</ele>
        <time>2024-02-18T08:01:04Z</time>
      </trkpt>
      <trkpt lat="46.67007" lon="0.46394">
        <ele>102.2</ele>
        <time>2024-02-18T08:01:05Z</time>
      </trkpt>
      <trkpt lat="46.67006" lon="0.46396">
        <ele>102.2</ele>
        <time>2024-02-18T08:01:06Z</time>
      </trkpt>
      <trkpt lat="46.67005" lon="0.46402">
        <ele>102</ele>
        <time>2024-02-18T08:01:08Z</time>
      </trkpt>
      <trkpt lat="46.67005" lon="0.46411">
        <ele>101.8</ele>
        <time>2024-02-18T08:01:12Z</time>
      </trkpt>
      <trkpt lat="46.67005" lon="0.46418">
        <ele>102</ele>
        <time>2024-02-18T08:01:15Z</time>
      </trkpt>
      <trkpt lat="46.6701" lon="0.46423">
        <ele>101.8</ele>
        <time>2024-02-18T08:01:19Z</time>
      </trkpt>
      <trkpt lat="46.67017" lon="0.46425">
        <ele>101.4</ele>
        <time>2024-02-18T08:01:23Z</time>
      </trkpt>
      <trkpt lat="46.67018" lon="0.46424">
        <ele>101.4</ele>
        <time>2024-02-18T08:01:24Z</time>
      </trkpt>
      <trkpt lat="46.67023" lon="0.4642">
        <ele>101.8</ele>
        <time>2024-02-18T08:01:29Z</time>
      </trkpt>
      <trkpt lat="46.67024" lon="0.46422">
        <ele>101.8</ele>
        <time>2024-02-18T08:01:30Z</time>
      </trkpt>
      <trkpt lat="46.67028" lon="0.46435">
        <ele>101.4</ele>
        <time>2024-02-18T08:01:34Z</time>
      </trkpt>
      <trkpt lat="46.6703" lon="0.46437">
        <ele>101.4</ele>
        <time>2024-02-18T08:01:35Z</time>
      </trkpt>
      <trkpt lat="46.67032" lon="0.46439">
        <ele>100.8</ele>
        <time>2024-02-18T08:01:36Z</time>
      </trkpt>
      <trkpt lat="46.67036" lon="0.46441">
        <ele>100.6</ele>
        <time>2024-02-18T08:01:38Z</time>
      </trkpt>
      <trkpt lat="46.67043" lon="0.46447">
        <ele>100.2</ele>
        <time>2024-02-18T08:01:41Z</time>
      </trkpt>
      <trkpt lat="46.67047" lon="0.46454">
        <ele>99.8</ele>
        <time>2024-02-18T08:01:43Z</time>
      </trkpt>
      <trkpt lat="46.67051" lon="0.46461">
        <ele>99.2</ele>
        <time>2024-02-18T08:01:45Z</time>
      </trkpt>
      <trkpt lat="46.67053" lon="0.46468">
        <ele>98.6</ele>
        <time>2024-02-18T08:01:47Z</time>
      </trkpt>
      <trkpt lat="46.67053" lon="0.46479">
        <ele>98</ele>
        <time>2024-02-18T08:01:50Z</time>
      </trkpt>
      <trkpt lat="46.6705" lon="0.46493">
        <ele>98</ele>
        <time>2024-02-18T08:01:53Z</time>
      </trkpt>
      <trkpt lat="46.67045" lon="0.46504">
        <ele>98</ele>
        <time>2024-02-18T08:01:55Z</time>
      </trkpt>
      <trkpt lat="46.6704" lon="0.46518">
        <ele>98</ele>
        <time>2024-02-18T08:01:57Z</time>
      </trkpt>
      <trkpt lat="46.67037" lon="0.46535">
        <ele>98</ele>
        <time>2024-02-18T08:01:59Z</time>
      </trkpt>
      <trkpt lat="46.67036" lon="0.46546">
        <ele>97.8</ele>
        <time>2024-02-18T08:02:00Z</time>
      </trkpt>
      <trkpt lat="46.67036" lon="0.46556">
        <ele>97.8</ele>
        <time>2024-02-18T08:02:01Z</time>
      </trkpt>
      <trkpt lat="46.6704" lon="0.46574">
        <ele>97.6</ele>
        <time>2024-02-18T08:02:04Z</time>
      </trkpt>
      <trkpt lat="46.67041" lon="0.46582">
        <ele>97.4</ele>
        <time>2024-02-18T08:02:06Z</time>
      </trkpt>
      <trkpt lat="46.67041" lon="0.46597">
        <ele>97</ele>
        <time>2024-02-18T08:02:10Z</time>
      </trkpt>
      <trkpt lat="46.6704" lon="0.46631">
        <ele>97</ele>
        <time>2024-02-18T08:02:18Z</time>
      </trkpt>
      <trkpt lat="46.67039" lon="0.4666">
        <ele>97</ele>
        <time>2024-02-18T08:02:25Z</time>
      </trkpt>
      <trkpt lat="46.67037" lon="0.46683">
        <ele>97</ele>
        <time>2024-02-18T08:02:31Z</time>
      </trkpt>
      <trkpt lat="46.67036" lon="0.46697">
        <ele>97</ele>
        <time>2024-02-18T08:02:38Z</time>
      </trkpt>
      <trkpt lat="46.67036" lon="0.46699">
        <ele>96.8</ele>
        <time>2024-02-18T08:02:49Z</time>
      </trkpt>
      <trkpt lat="46.67036" lon="0.46708">
        <ele>97</ele>
        <time>2024-02-18T08:03:01Z</time>
      </trkpt>
      <trkpt lat="46.67037" lon="0.46722">
        <ele>97.2</ele>
        <time>2024-02-18T08:03:06Z</time>
      </trkpt>
      <trkpt lat="46.67036" lon="0.46745">
        <ele>97.2</ele>
        <time>2024-02-18T08:03:13Z</time>
      </trkpt>
      <trkpt lat="46.67032" lon="0.46777">
        <ele>97.8</ele>
        <time>2024-02-18T08:03:21Z</time>
      </trkpt>
      <trkpt lat="46.6703" lon="0.4681">
        <ele>97.8</ele>
        <time>2024-02-18T08:03:28Z</time>
      </trkpt>
      <trkpt lat="46.67029" lon="0.46839">
        <ele>98</ele>
        <time>2024-02-18T08:03:35Z</time>
      </trkpt>
      <trkpt lat="46.67031" lon="0.46862">
        <ele>98</ele>
        <time>2024-02-18T08:03:42Z</time>
      </trkpt>
      <trkpt lat="46.67031" lon="0.46869">
        <ele>98.2</ele>
        <time>2024-02-18T08:03:46Z</time>
      </trkpt>
      <trkpt lat="46.6703" lon="0.46873">
        <ele>98.2</ele>
        <time>2024-02-18T08:03:48Z</time>
      </trkpt>
      <trkpt lat="46.67025" lon="0.46877">
        <ele>98.4</ele>
        <time>2024-02-18T08:03:51Z</time>
      </trkpt>
      <trkpt lat="46.67022" lon="0.46879">
        <ele>98.4</ele>
        <time>2024-02-18T08:03:53Z</time>
      </trkpt>
      <trkpt lat="46.67021" lon="0.46881">
        <ele>98.4</ele>
        <time>2024-02-18T08:03:54Z</time>
      </trkpt>
      <trkpt lat="46.67021" lon="0.46882">
        <ele>98.4</ele>
        <time>2024-02-18T08:03:55Z</time>
      </trkpt>
      <trkpt lat="46.67022" lon="0.46891">
        <ele>98.8</ele>
        <time>2024-02-18T08:03:58Z</time>
      </trkpt>
      <trkpt lat="46.67022" lon="0.46895">
        <ele>99</ele>
        <time>2024-02-18T08:03:59Z</time>
      </trkpt>
      <trkpt lat="46.67018" lon="0.46901">
        <ele>99.2</ele>
        <time>2024-02-18T08:04:01Z</time>
      </trkpt>
      <trkpt lat="46.67016" lon="0.46902">
        <ele>99.2</ele>
        <time>2024-02-18T08:04:02Z</time>
      </trkpt>
      <trkpt lat="46.67013" lon="0.46903">
        <ele>99.4</ele>
        <time>2024-02-18T08:04:03Z</time>
      </trkpt>
      <trkpt lat="46.67007" lon="0.46904">
        <ele>99.6</ele>
        <time>2024-02-18T08:04:05Z</time>
      </trkpt>
      <trkpt lat="46.67001" lon="0.46903">
        <ele>99.4</ele>
        <time>2024-02-18T08:04:07Z</time>
      </trkpt>
      <trkpt lat="46.66996" lon="0.46905">
        <ele>99.4</ele>
        <time>2024-02-18T08:04:09Z</time>
      </trkpt>
      <trkpt lat="46.66989" lon="0.46909">
        <ele>99.4</ele>
        <time>2024-02-18T08:04:11Z</time>
      </trkpt>
      <trkpt lat="46.66985" lon="0.46911">
        <ele>99.6</ele>
        <time>2024-02-18T08:04:13Z</time>
      </trkpt>
      <trkpt lat="46.66981" lon="0.46915">
        <ele>99.6</ele>
        <time>2024-02-18T08:04:15Z</time>
      </trkpt>
      <trkpt lat="46.66969" lon="0.46927">
        <ele>100.4</ele>
        <time>2024-02-18T08:04:21Z</time>
      </trkpt>
      <trkpt lat="46.66967" lon="0.4693">
        <ele>100.4</ele>
        <time>2024-02-18T08:04:23Z</time>
      </trkpt>
      <trkpt lat="46.66963" lon="0.46931">
        <ele>100.4</ele>
        <time>2024-02-18T08:04:27Z</time>
      </trkpt>
      <trkpt lat="46.66957" lon="0.46938">
        <ele>100.2</ele>
        <time>2024-02-18T08:04:31Z</time>
      </trkpt>
      <trkpt lat="46.66955" lon="0.46946">
        <ele>100.4</ele>
        <time>2024-02-18T08:04:34Z</time>
      </trkpt>
      <trkpt lat="46.66954" lon="0.46948">
        <ele>100.4</ele>
        <time>2024-02-18T08:04:35Z</time>
      </trkpt>
      <trkpt lat="46.66949" lon="0.46958">
        <ele>101.2</ele>
        <time>2024-02-18T08:04:39Z</time>
      </trkpt>
      <trkpt lat="46.66943" lon="0.46973">
        <ele>101.4</ele>
        <time>2024-02-18T08:04:44Z</time>
      </trkpt>
      <trkpt lat="46.66944" lon="0.46977">
        <ele>101.4</ele>
        <time>2024-02-18T08:04:45Z</time>
      </trkpt>
      <trkpt lat="46.66943" lon="0.46998">
        <ele>102.2</ele>
        <time>2024-02-18T08:04:50Z</time>
      </trkpt>
      <trkpt lat="46.66943" lon="0.47001">
        <ele>102.4</ele>
        <time>2024-02-18T08:04:51Z</time>
      </trkpt>
      <trkpt lat="46.66944" lon="0.47006">
        <ele>102.6</ele>
        <time>2024-02-18T08:04:53Z</time>
      </trkpt>
      <trkpt lat="46.66944" lon="0.47009">
        <ele>102.6</ele>
        <time>2024-02-18T08:04:54Z</time>
      </trkpt>
      <trkpt lat="46.66948" lon="0.47026">
        <ele>103</ele>
        <time>2024-02-18T08:05:00Z</time>
      </trkpt>
      <trkpt lat="46.6695" lon="0.4703">
        <ele>102.8</ele>
        <time>2024-02-18T08:05:03Z</time>
      </trkpt>
      <trkpt lat="46.66952" lon="0.4703">
        <ele>102.6</ele>
        <time>2024-02-18T08:05:05Z</time>
      </trkpt>
      <trkpt lat="46.66958" lon="0.47026">
        <ele>102.2</ele>
        <time>2024-02-18T08:05:10Z</time>
      </trkpt>
      <trkpt lat="46.66959" lon="0.47026">
        <ele>102.2</ele>
        <time>2024-02-18T08:05:11Z</time>
      </trkpt>
      <trkpt lat="46.66966" lon="0.47028">
        <ele>101.8</ele>
        <time>2024-02-18T08:05:17Z</time>
      </trkpt>
      <trkpt lat="46.66967" lon="0.47027">
        <ele>101.6</ele>
        <time>2024-02-18T08:05:18Z</time>
      </trkpt>
      <trkpt lat="46.66973" lon="0.47015">
        <ele>101.6</ele>
        <time>2024-02-18T08:05:24Z</time>
      </trkpt>
      <trkpt lat="46.66974" lon="0.47006">
        <ele>101.2</ele>
        <time>2024-02-18T08:05:26Z</time>
      </trkpt>
      <trkpt lat="46.66974" lon="0.46998">
        <ele>100.8</ele>
        <time>2024-02-18T08:05:28Z</time>
      </trkpt>
      <trkpt lat="46.66972" lon="0.46991">
        <ele>100.6</ele>
        <time>2024-02-18T08:05:30Z</time>
      </trkpt>
      <trkpt lat="46.6697" lon="0.4699">
        <ele>100.2</ele>
        <time>2024-02-18T08:05:32Z</time>
      </trkpt>
      <trkpt lat="46.66969" lon="0.46991">
        <ele>100.2</ele>
        <time>2024-02-18T08:05:33Z</time>
      </trkpt>
      <trkpt lat="46.66962" lon="0.46994">
        <ele>101.2</ele>
        <time>2024-02-18T08:05:39Z</time>
      </trkpt>
      <trkpt lat="46.66961" lon="0.46994">
        <ele>101.4</ele>
        <time>2024-02-18T08:05:40Z</time>
      </trkpt>
      <trkpt lat="46.66958" lon="0.46992">
        <ele>101.6</ele>
        <time>2024-02-18T08:05:42Z</time>
      </trkpt>
      <trkpt lat="46.66957" lon="0.4699">
        <ele>101.6</ele>
        <time>2024-02-18T08:05:44Z</time>
      </trkpt>
      <trkpt lat="46.66956" lon="0.46987">
        <ele>101.6</ele>
        <time>2024-02-18T08:05:45Z</time>
      </trkpt>
      <trkpt lat="46.66956" lon="0.46983">
        <ele>101.4</ele>
        <time>2024-02-18T08:05:47Z</time>
      </trkpt>
      <trkpt lat="46.66957" lon="0.46978">
        <ele>101.2</ele>
        <time>2024-02-18T08:05:49Z</time>
      </trkpt>
      <trkpt lat="46.66958" lon="0.46971">
        <ele>100.8</ele>
        <time>2024-02-18T08:05:52Z</time>
      </trkpt>
      <trkpt lat="46.66961" lon="0.46971">
        <ele>100.4</ele>
        <time>2024-02-18T08:05:54Z</time>
      </trkpt>
      <trkpt lat="46.66966" lon="0.46975">
        <ele>100.4</ele>
        <time>2024-02-18T08:05:58Z</time>
      </trkpt>
      <trkpt lat="46.66968" lon="0.46974">
        <ele>100.6</ele>
        <time>2024-02-18T08:05:59Z</time>
      </trkpt>
      <trkpt lat="46.66969" lon="0.4697">
        <ele>100.6</ele>
        <time>2024-02-18T08:06:01Z</time>
      </trkpt>
      <trkpt lat="46.6697" lon="0.46965">
        <ele>100.8</ele>
        <time>2024-02-18T08:06:03Z</time>
      </trkpt>
      <trkpt lat="46.66978" lon="0.46956">
        <ele>100.2</ele>
        <time>2024-02-18T08:06:07Z</time>
      </trkpt>
      <trkpt lat="46.6698" lon="0.46953">
        <ele>100</ele>
        <time>2024-02-18T08:06:08Z</time>
      </trkpt>
      <trkpt lat="46.66988" lon="0.46937">
        <ele>100</ele>
        <time>2024-02-18T08:06:14Z</time>
      </trkpt>
      <trkpt lat="46.67001" lon="0.46934">
        <ele>100</ele>
        <time>2024-02-18T08:06:19Z</time>
      </trkpt>
      <trkpt lat="46.67001" lon="0.46936">
        <ele>100.2</ele>
        <time>2024-02-18T08:06:21Z</time>
      </trkpt>
      <trkpt lat="46.66999" lon="0.46935">
        <ele>100.4</ele>
        <time>2024-02-18T08:06:23Z</time>
      </trkpt>
      <trkpt lat="46.66998" lon="0.46936">
        <ele>100</ele>
        <time>2024-02-18T08:06:24Z</time>
      </trkpt>
      <trkpt lat="46.66998" lon="0.46942">
        <ele>99.6</ele>
        <time>2024-02-18T08:06:26Z</time>
      </trkpt>
      <trkpt lat="46.67" lon="0.46944">
        <ele>99.4</ele>
        <time>2024-02-18T08:06:27Z</time>
      </trkpt>
      <trkpt lat="46.67003" lon="0.4696">
        <ele>100.2</ele>
        <time>2024-02-18T08:06:32Z</time>
      </trkpt>
      <trkpt lat="46.67004" lon="0.46962">
        <ele>100.4</ele>
        <time>2024-02-18T08:06:33Z</time>
      </trkpt>
      <trkpt lat="46.67008" lon="0.46962">
        <ele>100.4</ele>
        <time>2024-02-18T08:06:35Z</time>
      </trkpt>
      <trkpt lat="46.6701" lon="0.4696">
        <ele>100.4</ele>
        <time>2024-02-18T08:06:37Z</time>
      </trkpt>
      <trkpt lat="46.67012" lon="0.46952">
        <ele>100.2</ele>
        <time>2024-02-18T08:06:42Z</time>
      </trkpt>
      <trkpt lat="46.67013" lon="0.46953">
        <ele>100.2</ele>
        <time>2024-02-18T08:06:43Z</time>
      </trkpt>
      <trkpt lat="46.67014" lon="0.46959">
        <ele>100.2</ele>
        <time>2024-02-18T08:06:45Z</time>
      </trkpt>
      <trkpt lat="46.67015" lon="0.46963">
        <ele>100.2</ele>
        <time>2024-02-18T08:06:46Z</time>
      </trkpt>
      <trkpt lat="46.67016" lon="0.46971">
        <ele>100.4</ele>
        <time>2024-02-18T08:06:48Z</time>
      </trkpt>
      <trkpt lat="46.67018" lon="0.46981">
        <ele>100.6</ele>
        <time>2024-02-18T08:06:50Z</time>
      </trkpt>
      <trkpt lat="46.67025" lon="0.46999">
        <ele>101.2</ele>
        <time>2024-02-18T08:06:54Z</time>
      </trkpt>
      <trkpt lat="46.67027" lon="0.47008">
        <ele>101.2</ele>
        <time>2024-02-18T08:06:56Z</time>
      </trkpt>
      <trkpt lat="46.67028" lon="0.47011">
        <ele>101.4</ele>
        <time>2024-02-18T08:06:57Z</time>
      </trkpt>
      <trkpt lat="46.67036" lon="0.47031">
        <ele>102.2</ele>
        <time>2024-02-18T08:07:02Z</time>
      </trkpt>
      <trkpt lat="46.67037" lon="0.47035">
        <ele>102.4</ele>
        <time>2024-02-18T08:07:03Z</time>
      </trkpt>
      <trkpt lat="46.67038" lon="0.4704">
        <ele>102.8</ele>
        <time>2024-02-18T08:07:04Z</time>
      </trkpt>
      <trkpt lat="46.67036" lon="0.47046">
        <ele>103.2</ele>
        <time>2024-02-18T08:07:06Z</time>
      </trkpt>
      <trkpt lat="46.67034" lon="0.47059">
        <ele>103.4</ele>
        <time>2024-02-18T08:07:09Z</time>
      </trkpt>
      <trkpt lat="46.67035" lon="0.47062">
        <ele>103.4</ele>
        <time>2024-02-18T08:07:10Z</time>
      </trkpt>
      <trkpt lat="46.67037" lon="0.47065">
        <ele>103.6</ele>
        <time>2024-02-18T08:07:11Z</time>
      </trkpt>
      <trkpt lat="46.67041" lon="0.47079">
        <ele>104</ele>
        <time>2024-02-18T08:07:15Z</time>
      </trkpt>
      <trkpt lat="46.67042" lon="0.47083">
        <ele>104.2</ele>
        <time>2024-02-18T08:07:16Z</time>
      </trkpt>
      <trkpt lat="46.67042" lon="0.47085">
        <ele>104.4</ele>
        <time>2024-02-18T08:07:17Z</time>
      </trkpt>
      <trkpt lat="46.67044" lon="0.47099">
        <ele>104.6</ele>
        <time>2024-02-18T08:07:20Z</time>
      </trkpt>
      <trkpt lat="46.67048" lon="0.47118">
        <ele>105.6</ele>
        <time>2024-02-18T08:07:24Z</time>
      </trkpt>
      <trkpt lat="46.67049" lon="0.47129">
        <ele>105.8</ele>
        <time>2024-02-18T08:07:26Z</time>
      </trkpt>
      <trkpt lat="46.67049" lon="0.47155">
        <ele>106.2</ele>
        <time>2024-02-18T08:07:31Z</time>
      </trkpt>
      <trkpt lat="46.67047" lon="0.47164">
        <ele>106.6</ele>
        <time>2024-02-18T08:07:33Z</time>
      </trkpt>
      <trkpt lat="46.67041" lon="0.47176">
        <ele>106.8</ele>
        <time>2024-02-18T08:07:36Z</time>
      </trkpt>
      <trkpt lat="46.67036" lon="0.47185">
        <ele>106.8</ele>
        <time>2024-02-18T08:07:38Z</time>
      </trkpt>
      <trkpt lat="46.67037" lon="0.47192">
        <ele>106.8</ele>
        <time>2024-02-18T08:07:40Z</time>
      </trkpt>
      <trkpt lat="46.67037" lon="0.47196">
        <ele>107</ele>
        <time>2024-02-18T08:07:41Z</time>
      </trkpt>
      <trkpt lat="46.67037" lon="0.47204">
        <ele>107.6</ele>
        <time>2024-02-18T08:07:43Z</time>
      </trkpt>
      <trkpt lat="46.67036" lon="0.47209">
        <ele>107.8</ele>
        <time>2024-02-18T08:07:44Z</time>
      </trkpt>
      <trkpt lat="46.67033" lon="0.47226">
        <ele>108</ele>
        <time>2024-02-18T08:07:47Z</time>
      </trkpt>
      <trkpt lat="46.67027" lon="0.47238">
        <ele>108.4</ele>
        <time>2024-02-18T08:07:51Z</time>
      </trkpt>
      <trkpt lat="46.67026" lon="0.47245">
        <ele>108.8</ele>
        <time>2024-02-18T08:07:53Z</time>
      </trkpt>
      <trkpt lat="46.67022" lon="0.47255">
        <ele>108.8</ele>
        <time>2024-02-18T08:07:56Z</time>
      </trkpt>
      <trkpt lat="46.67019" lon="0.47262">
        <ele>108.8</ele>
        <time>2024-02-18T08:07:58Z</time>
      </trkpt>
      <trkpt lat="46.67019" lon="0.47268">
        <ele>108.8</ele>
        <time>2024-02-18T08:08:00Z</time>
      </trkpt>
      <trkpt lat="46.6702" lon="0.47271">
        <ele>109</ele>
        <time>2024-02-18T08:08:01Z</time>
      </trkpt>
      <trkpt lat="46.67025" lon="0.47275">
        <ele>109.2</ele>
        <time>2024-02-18T08:08:04Z</time>
      </trkpt>
      <trkpt lat="46.67036" lon="0.4728">
        <ele>109.6</ele>
        <time>2024-02-18T08:08:08Z</time>
      </trkpt>
      <trkpt lat="46.6704" lon="0.47297">
        <ele>109.8</ele>
        <time>2024-02-18T08:08:11Z</time>
      </trkpt>
      <trkpt lat="46.6704" lon="0.47312">
        <ele>109.8</ele>
        <time>2024-02-18T08:08:14Z</time>
      </trkpt>
      <trkpt lat="46.67039" lon="0.47319">
        <ele>110</ele>
        <time>2024-02-18T08:08:16Z</time>
      </trkpt>
      <trkpt lat="46.6704" lon="0.47323">
        <ele>110</ele>
        <time>2024-02-18T08:08:17Z</time>
      </trkpt>
      <trkpt lat="46.67043" lon="0.47326">
        <ele>110</ele>
        <time>2024-02-18T08:08:19Z</time>
      </trkpt>
      <trkpt lat="46.67047" lon="0.47333">
        <ele>110.2</ele>
        <time>2024-02-18T08:08:22Z</time>
      </trkpt>
      <trkpt lat="46.67047" lon="0.47336">
        <ele>110.2</ele>
        <time>2024-02-18T08:08:23Z</time>
      </trkpt>
      <trkpt lat="46.67048" lon="0.47365">
        <ele>110.8</ele>
        <time>2024-02-18T08:08:30Z</time>
      </trkpt>
      <trkpt lat="46.67048" lon="0.47369">
        <ele>111</ele>
        <time>2024-02-18T08:08:31Z</time>
      </trkpt>
      <trkpt lat="46.67048" lon="0.47384">
        <ele>111.6</ele>
        <time>2024-02-18T08:08:36Z</time>
      </trkpt>
      <trkpt lat="46.67047" lon="0.47399">
        <ele>112.2</ele>
        <time>2024-02-18T08:08:41Z</time>
      </trkpt>
      <trkpt lat="46.67048" lon="0.47407">
        <ele>112.4</ele>
        <time>2024-02-18T08:08:44Z</time>
      </trkpt>
      <trkpt lat="46.67049" lon="0.47431">
        <ele>112.8</ele>
        <time>2024-02-18T08:08:52Z</time>
      </trkpt>
      <trkpt lat="46.67049" lon="0.47438">
        <ele>113.2</ele>
        <time>2024-02-18T08:08:54Z</time>
      </trkpt>
      <trkpt lat="46.67049" lon="0.4746">
        <ele>113.8</ele>
        <time>2024-02-18T08:09:00Z</time>
      </trkpt>
      <trkpt lat="46.67048" lon="0.47478">
        <ele>114.2</ele>
        <time>2024-02-18T08:09:04Z</time>
      </trkpt>
      <trkpt lat="46.67048" lon="0.47492">
        <ele>114.4</ele>
        <time>2024-02-18T08:09:07Z</time>
      </trkpt>
      <trkpt lat="46.67045" lon="0.47514">
        <ele>115.4</ele>
        <time>2024-02-18T08:09:12Z</time>
      </trkpt>
      <trkpt lat="46.67045" lon="0.47524">
        <ele>115.8</ele>
        <time>2024-02-18T08:09:14Z</time>
      </trkpt>
      <trkpt lat="46.67045" lon="0.47538">
        <ele>116.4</ele>
        <time>2024-02-18T08:09:17Z</time>
      </trkpt>
      <trkpt lat="46.67044" lon="0.47563">
        <ele>116.8</ele>
        <time>2024-02-18T08:09:22Z</time>
      </trkpt>
      <trkpt lat="46.67043" lon="0.47577">
        <ele>117.4</ele>
        <time>2024-02-18T08:09:25Z</time>
      </trkpt>
      <trkpt lat="46.67039" lon="0.47597">
        <ele>118.2</ele>
        <time>2024-02-18T08:09:29Z</time>
      </trkpt>
      <trkpt lat="46.67033" lon="0.47615">
        <ele>118.6</ele>
        <time>2024-02-18T08:09:33Z</time>
      </trkpt>
      <trkpt lat="46.67029" lon="0.47631">
        <ele>119.6</ele>
        <time>2024-02-18T08:09:37Z</time>
      </trkpt>
      <trkpt lat="46.67028" lon="0.47635">
        <ele>119.6</ele>
        <time>2024-02-18T08:09:38Z</time>
      </trkpt>
      <trkpt lat="46.67024" lon="0.47653">
        <ele>120.8</ele>
        <time>2024-02-18T08:09:43Z</time>
      </trkpt>
      <trkpt lat="46.67024" lon="0.47656">
        <ele>120.8</ele>
        <time>2024-02-18T08:09:44Z</time>
      </trkpt>
      <trkpt lat="46.67021" lon="0.4767">
        <ele>122</ele>
        <time>2024-02-18T08:09:48Z</time>
      </trkpt>
      <trkpt lat="46.67019" lon="0.47681">
        <ele>123</ele>
        <time>2024-02-18T08:09:51Z</time>
      </trkpt>
      <trkpt lat="46.67017" lon="0.47697">
        <ele>124</ele>
        <time>2024-02-18T08:09:55Z</time>
      </trkpt>
      <trkpt lat="46.67016" lon="0.47716">
        <ele>124.8</ele>
        <time>2024-02-18T08:09:59Z</time>
      </trkpt>
      <trkpt lat="46.67015" lon="0.47719">
        <ele>125.4</ele>
        <time>2024-02-18T08:10:00Z</time>
      </trkpt>
      <trkpt lat="46.67015" lon="0.47723">
        <ele>125.8</ele>
        <time>2024-02-18T08:10:01Z</time>
      </trkpt>
      <trkpt lat="46.67014" lon="0.47735">
        <ele>126.4</ele>
        <time>2024-02-18T08:10:04Z</time>
      </trkpt>
      <trkpt lat="46.67012" lon="0.47741">
        <ele>126.8</ele>
        <time>2024-02-18T08:10:06Z</time>
      </trkpt>
      <trkpt lat="46.67012" lon="0.47761">
        <ele>127.6</ele>
        <time>2024-02-18T08:10:11Z</time>
      </trkpt>
      <trkpt lat="46.67012" lon="0.47766">
        <ele>127.6</ele>
        <time>2024-02-18T08:10:12Z</time>
      </trkpt>
      <trkpt lat="46.67011" lon="0.47806">
        <ele>128.4</ele>
        <time>2024-02-18T08:10:20Z</time>
      </trkpt>
      <trkpt lat="46.67011" lon="0.47811">
        <ele>128.6</ele>
        <time>2024-02-18T08:10:21Z</time>
      </trkpt>
      <trkpt lat="46.67009" lon="0.4784">
        <ele>129.2</ele>
        <time>2024-02-18T08:10:27Z</time>
      </trkpt>
      <trkpt lat="46.67007" lon="0.47856">
        <ele>129.8</ele>
        <time>2024-02-18T08:10:31Z</time>
      </trkpt>
      <trkpt lat="46.67007" lon="0.47859">
        <ele>129.8</ele>
        <time>2024-02-18T08:10:32Z</time>
      </trkpt>
      <trkpt lat="46.67006" lon="0.47868">
        <ele>130</ele>
        <time>2024-02-18T08:10:35Z</time>
      </trkpt>
      <trkpt lat="46.67008" lon="0.47875">
        <ele>130</ele>
        <time>2024-02-18T08:10:38Z</time>
      </trkpt>
      <trkpt lat="46.67011" lon="0.47881">
        <ele>129</ele>
        <time>2024-02-18T08:10:42Z</time>
      </trkpt>
      <trkpt lat="46.67013" lon="0.47881">
        <ele>128.8</ele>
        <time>2024-02-18T08:10:44Z</time>
      </trkpt>
      <trkpt lat="46.67014" lon="0.47881">
        <ele>128.6</ele>
        <time>2024-02-18T08:10:45Z</time>
      </trkpt>
      <trkpt lat="46.67016" lon="0.47881">
        <ele>128.4</ele>
        <time>2024-02-18T08:10:46Z</time>
      </trkpt>
      <trkpt lat="46.6702" lon="0.4788">
        <ele>128.2</ele>
        <time>2024-02-18T08:10:48Z</time>
      </trkpt>
      <trkpt lat="46.67021" lon="0.47879">
        <ele>128</ele>
        <time>2024-02-18T08:10:49Z</time>
      </trkpt>
      <trkpt lat="46.67023" lon="0.47879">
        <ele>128</ele>
        <time>2024-02-18T08:10:50Z</time>
      </trkpt>
      <trkpt lat="46.67027" lon="0.47882">
        <ele>128</ele>
        <time>2024-02-18T08:10:52Z</time>
      </trkpt>
      <trkpt lat="46.67029" lon="0.47881">
        <ele>127.8</ele>
        <time>2024-02-18T08:10:53Z</time>
      </trkpt>
      <trkpt lat="46.67034" lon="0.47874">
        <ele>127.6</ele>
        <time>2024-02-18T08:10:56Z</time>
      </trkpt>
      <trkpt lat="46.67038" lon="0.47871">
        <ele>127.4</ele>
        <time>2024-02-18T08:10:58Z</time>
      </trkpt>
      <trkpt lat="46.67047" lon="0.47871">
        <ele>127</ele>
        <time>2024-02-18T08:11:01Z</time>
      </trkpt>
      <trkpt lat="46.6705" lon="0.47872">
        <ele>126.4</ele>
        <time>2024-02-18T08:11:02Z</time>
      </trkpt>
      <trkpt lat="46.67055" lon="0.47877">
        <ele>126</ele>
        <time>2024-02-18T08:11:04Z</time>
      </trkpt>
      <trkpt lat="46.6706" lon="0.47882">
        <ele>125.4</ele>
        <time>2024-02-18T08:11:06Z</time>
      </trkpt>
      <trkpt lat="46.67064" lon="0.47882">
        <ele>125</ele>
        <time>2024-02-18T08:11:08Z</time>
      </trkpt>
      <trkpt lat="46.67065" lon="0.47879">
        <ele>124.8</ele>
        <time>2024-02-18T08:11:11Z</time>
      </trkpt>
      <trkpt lat="46.67065" lon="0.47877">
        <ele>124.8</ele>
        <time>2024-02-18T08:11:12Z</time>
      </trkpt>
      <trkpt lat="46.67065" lon="0.47875">
        <ele>124.6</ele>
        <time>2024-02-18T08:11:14Z</time>
      </trkpt>
      <trkpt lat="46.67068" lon="0.47865">
        <ele>124.4</ele>
        <time>2024-02-18T08:11:17Z</time>
      </trkpt>
      <trkpt lat="46.6707" lon="0.47861">
        <ele>124</ele>
        <time>2024-02-18T08:11:18Z</time>
      </trkpt>
      <trkpt lat="46.67076" lon="0.47847">
        <ele>123.4</ele>
        <time>2024-02-18T08:11:21Z</time>
      </trkpt>
      <trkpt lat="46.67079" lon="0.47844">
        <ele>123.2</ele>
        <time>2024-02-18T08:11:22Z</time>
      </trkpt>
      <trkpt lat="46.6708" lon="0.47841">
        <ele>122.6</ele>
        <time>2024-02-18T08:11:23Z</time>
      </trkpt>
      <trkpt lat="46.67081" lon="0.47838">
        <ele>121.8</ele>
        <time>2024-02-18T08:11:24Z</time>
      </trkpt>
      <trkpt lat="46.67083" lon="0.47831">
        <ele>121</ele>
        <time>2024-02-18T08:11:27Z</time>
      </trkpt>
      <trkpt lat="46.67082" lon="0.4783">
        <ele>120.8</ele>
        <time>2024-02-18T08:11:28Z</time>
      </trkpt>
      <trkpt lat="46.67074" lon="0.47823">
        <ele>122.2</ele>
        <time>2024-02-18T08:11:34Z</time>
      </trkpt>
      <trkpt lat="46.67069" lon="0.47817">
        <ele>123.4</ele>
        <time>2024-02-18T08:11:37Z</time>
      </trkpt>
      <trkpt lat="46.67068" lon="0.47812">
        <ele>123.8</ele>
        <time>2024-02-18T08:11:39Z</time>
      </trkpt>
      <trkpt lat="46.6707" lon="0.47804">
        <ele>123.2</ele>
        <time>2024-02-18T08:11:42Z</time>
      </trkpt>
      <trkpt lat="46.67069" lon="0.478">
        <ele>122.6</ele>
        <time>2024-02-18T08:11:44Z</time>
      </trkpt>
      <trkpt lat="46.67067" lon="0.47793">
        <ele>123.6</ele>
        <time>2024-02-18T08:11:49Z</time>
      </trkpt>
      <trkpt lat="46.6707" lon="0.47777">
        <ele>123.2</ele>
        <time>2024-02-18T08:11:53Z</time>
      </trkpt>
      <trkpt lat="46.67071" lon="0.47772">
        <ele>122.8</ele>
        <time>2024-02-18T08:11:54Z</time>
      </trkpt>
      <trkpt lat="46.67071" lon="0.47765">
        <ele>122.2</ele>
        <time>2024-02-18T08:11:56Z</time>
      </trkpt>
      <trkpt lat="46.67069" lon="0.47763">
        <ele>122.2</ele>
        <time>2024-02-18T08:11:57Z</time>
      </trkpt>
      <trkpt lat="46.67068" lon="0.4776">
        <ele>122.2</ele>
        <time>2024-02-18T08:11:58Z</time>
      </trkpt>
      <trkpt lat="46.67066" lon="0.47755">
        <ele>122.2</ele>
        <time>2024-02-18T08:12:00Z</time>
      </trkpt>
      <trkpt lat="46.67064" lon="0.47753">
        <ele>122</ele>
        <time>2024-02-18T08:12:01Z</time>
      </trkpt>
      <trkpt lat="46.67061" lon="0.47748">
        <ele>123</ele>
        <time>2024-02-18T08:12:05Z</time>
      </trkpt>
      <trkpt lat="46.67061" lon="0.47745">
        <ele>123.2</ele>
        <time>2024-02-18T08:12:06Z</time>
      </trkpt>
      <trkpt lat="46.67059" lon="0.47737">
        <ele>122.8</ele>
        <time>2024-02-18T08:12:09Z</time>
      </trkpt>
      <trkpt lat="46.67054" lon="0.47732">
        <ele>122.6</ele>
        <time>2024-02-18T08:12:11Z</time>
      </trkpt>
      <trkpt lat="46.67052" lon="0.4773">
        <ele>122.6</ele>
        <time>2024-02-18T08:12:12Z</time>
      </trkpt>
      <trkpt lat="46.67048" lon="0.47717">
        <ele>122.6</ele>
        <time>2024-02-18T08:12:16Z</time>
      </trkpt>
      <trkpt lat="46.67046" lon="0.47704">
        <ele>122.6</ele>
        <time>2024-02-18T08:12:19Z</time>
      </trkpt>
      <trkpt lat="46.67042" lon="0.47696">
        <ele>122.4</ele>
        <time>2024-02-18T08:12:21Z</time>
      </trkpt>
      <trkpt lat="46.67041" lon="0.47692">
        <ele>122.4</ele>
        <time>2024-02-18T08:12:22Z</time>
      </trkpt>
      <trkpt lat="46.6704" lon="0.47688">
        <ele>122.2</ele>
        <time>2024-02-18T08:12:23Z</time>
      </trkpt>
      <trkpt lat="46.67036" lon="0.4768">
        <ele>121.8</ele>
        <time>2024-02-18T08:12:25Z</time>
      </trkpt>
      <trkpt lat="46.67033" lon="0.47677">
        <ele>121.6</ele>
        <time>2024-02-18T08:12:26Z</time>
      </trkpt>
      <trkpt lat="46.6703" lon="0.47671">
        <ele>121.6</ele>
        <time>2024-02-18T08:12:28Z</time>
      </trkpt>
      <trkpt lat="46.67025" lon="0.47664">
        <ele>121.6</ele>
        <time>2024-02-18T08:12:30Z</time>
      </trkpt>
      <trkpt lat="46.67023" lon="0.47659">
        <ele>121.6</ele>
        <time>2024-02-18T08:12:31Z</time>
      </trkpt>
      <trkpt lat="46.67005" lon="0.47639">
        <ele>121.2</ele>
        <time>2024-02-18T08:12:37Z</time>
      </trkpt>
      <trkpt lat="46.66996" lon="0.4763">
        <ele>121</ele>
        <time>2024-02-18T08:12:39Z</time>
      </trkpt>
      <trkpt lat="46.66981" lon="0.47616">
        <ele>120.6</ele>
        <time>2024-02-18T08:12:42Z</time>
      </trkpt>
      <trkpt lat="46.66973" lon="0.47606">
        <ele>120.6</ele>
        <time>2024-02-18T08:12:44Z</time>
      </trkpt>
      <trkpt lat="46.66963" lon="0.47595">
        <ele>120.2</ele>
        <time>2024-02-18T08:12:46Z</time>
      </trkpt>
      <trkpt lat="46.66959" lon="0.4759">
        <ele>120.2</ele>
        <time>2024-02-18T08:12:47Z</time>
      </trkpt>
      <trkpt lat="46.66954" lon="0.47587">
        <ele>119.8</ele>
        <time>2024-02-18T08:12:48Z</time>
      </trkpt>
      <trkpt lat="46.6695" lon="0.47583">
        <ele>119.6</ele>
        <time>2024-02-18T08:12:49Z</time>
      </trkpt>
      <trkpt lat="46.66936" lon="0.47567">
        <ele>119</ele>
        <time>2024-02-18T08:12:53Z</time>
      </trkpt>
      <trkpt lat="46.66924" lon="0.47557">
        <ele>118.8</ele>
        <time>2024-02-18T08:12:57Z</time>
      </trkpt>
      <trkpt lat="46.66918" lon="0.47551">
        <ele>119.2</ele>
        <time>2024-02-18T08:12:59Z</time>
      </trkpt>
      <trkpt lat="46.66916" lon="0.47548">
        <ele>119.2</ele>
        <time>2024-02-18T08:13:00Z</time>
      </trkpt>
      <trkpt lat="46.66909" lon="0.4754">
        <ele>119.6</ele>
        <time>2024-02-18T08:13:02Z</time>
      </trkpt>
      <trkpt lat="46.66906" lon="0.47537">
        <ele>119.8</ele>
        <time>2024-02-18T08:13:03Z</time>
      </trkpt>
      <trkpt lat="46.669" lon="0.4753">
        <ele>120</ele>
        <time>2024-02-18T08:13:05Z</time>
      </trkpt>
      <trkpt lat="46.66897" lon="0.47527">
        <ele>120</ele>
        <time>2024-02-18T08:13:06Z</time>
      </trkpt>
      <trkpt lat="46.66886" lon="0.47513">
        <ele>119</ele>
        <time>2024-02-18T08:13:10Z</time>
      </trkpt>
      <trkpt lat="46.66883" lon="0.47507">
        <ele>118.8</ele>
        <time>2024-02-18T08:13:11Z</time>
      </trkpt>
      <trkpt lat="46.66877" lon="0.475">
        <ele>118.8</ele>
        <time>2024-02-18T08:13:13Z</time>
      </trkpt>
      <trkpt lat="46.66869" lon="0.4749">
        <ele>119</ele>
        <time>2024-02-18T08:13:15Z</time>
      </trkpt>
      <trkpt lat="46.66862" lon="0.47481">
        <ele>119</ele>
        <time>2024-02-18T08:13:17Z</time>
      </trkpt>
      <trkpt lat="46.66854" lon="0.47472">
        <ele>118.6</ele>
        <time>2024-02-18T08:13:19Z</time>
      </trkpt>
      <trkpt lat="46.66846" lon="0.47462">
        <ele>117.8</ele>
        <time>2024-02-18T08:13:21Z</time>
      </trkpt>
      <trkpt lat="46.66844" lon="0.47458">
        <ele>117.6</ele>
        <time>2024-02-18T08:13:22Z</time>
      </trkpt>
      <trkpt lat="46.66838" lon="0.4745">
        <ele>117</ele>
        <time>2024-02-18T08:13:24Z</time>
      </trkpt>
      <trkpt lat="46.66832" lon="0.47437">
        <ele>117</ele>
        <time>2024-02-18T08:13:26Z</time>
      </trkpt>
      <trkpt lat="46.66828" lon="0.47433">
        <ele>116.8</ele>
        <time>2024-02-18T08:13:27Z</time>
      </trkpt>
      <trkpt lat="46.6682" lon="0.47423">
        <ele>116.8</ele>
        <time>2024-02-18T08:13:28Z</time>
      </trkpt>
      <trkpt lat="46.66817" lon="0.47419">
        <ele>116.4</ele>
        <time>2024-02-18T08:13:30Z</time>
      </trkpt>
      <trkpt lat="46.66814" lon="0.47415">
        <ele>116.4</ele>
        <time>2024-02-18T08:13:31Z</time>
      </trkpt>
      <trkpt lat="46.66806" lon="0.47406">
        <ele>116</ele>
        <time>2024-02-18T08:13:33Z</time>
      </trkpt>
      <trkpt lat="46.66799" lon="0.47394">
        <ele>115.6</ele>
        <time>2024-02-18T08:13:35Z</time>
      </trkpt>
      <trkpt lat="46.66794" lon="0.47386">
        <ele>115.4</ele>
        <time>2024-02-18T08:13:36Z</time>
      </trkpt>
      <trkpt lat="46.66791" lon="0.47377">
        <ele>114.8</ele>
        <time>2024-02-18T08:13:37Z</time>
      </trkpt>
      <trkpt lat="46.66788" lon="0.4737">
        <ele>114.6</ele>
        <time>2024-02-18T08:13:38Z</time>
      </trkpt>
      <trkpt lat="46.66785" lon="0.47365">
        <ele>114.4</ele>
        <time>2024-02-18T08:13:39Z</time>
      </trkpt>
      <trkpt lat="46.66783" lon="0.47359">
        <ele>114.2</ele>
        <time>2024-02-18T08:13:40Z</time>
      </trkpt>
      <trkpt lat="46.66778" lon="0.47344">
        <ele>113.4</ele>
        <time>2024-02-18T08:13:42Z</time>
      </trkpt>
      <trkpt lat="46.66775" lon="0.47339">
        <ele>112.4</ele>
        <time>2024-02-18T08:13:43Z</time>
      </trkpt>
      <trkpt lat="46.66767" lon="0.47327">
        <ele>111.4</ele>
        <time>2024-02-18T08:13:45Z</time>
      </trkpt>
      <trkpt lat="46.66762" lon="0.47321">
        <ele>111.4</ele>
        <time>2024-02-18T08:13:46Z</time>
      </trkpt>
      <trkpt lat="46.66756" lon="0.47317">
        <ele>111</ele>
        <time>2024-02-18T08:13:47Z</time>
      </trkpt>
      <trkpt lat="46.6675" lon="0.47313">
        <ele>111</ele>
        <time>2024-02-18T08:13:48Z</time>
      </trkpt>
      <trkpt lat="46.66737" lon="0.47303">
        <ele>110.6</ele>
        <time>2024-02-18T08:13:50Z</time>
      </trkpt>
      <trkpt lat="46.66731" lon="0.47298">
        <ele>110.4</ele>
        <time>2024-02-18T08:13:51Z</time>
      </trkpt>
      <trkpt lat="46.66708" lon="0.47287">
        <ele>109.8</ele>
        <time>2024-02-18T08:13:55Z</time>
      </trkpt>
      <trkpt lat="46.66696" lon="0.47283">
        <ele>108.8</ele>
        <time>2024-02-18T08:13:57Z</time>
      </trkpt>
      <trkpt lat="46.6669" lon="0.4728">
        <ele>108.6</ele>
        <time>2024-02-18T08:13:58Z</time>
      </trkpt>
      <trkpt lat="46.66685" lon="0.47276">
        <ele>108.2</ele>
        <time>2024-02-18T08:13:59Z</time>
      </trkpt>
      <trkpt lat="46.66671" lon="0.47269">
        <ele>107.4</ele>
        <time>2024-02-18T08:14:02Z</time>
      </trkpt>
      <trkpt lat="46.66663" lon="0.47266">
        <ele>107.2</ele>
        <time>2024-02-18T08:14:04Z</time>
      </trkpt>
      <trkpt lat="46.66657" lon="0.47264">
        <ele>107</ele>
        <time>2024-02-18T08:14:06Z</time>
      </trkpt>
      <trkpt lat="46.66645" lon="0.47256">
        <ele>106.4</ele>
        <time>2024-02-18T08:14:10Z</time>
      </trkpt>
      <trkpt lat="46.66642" lon="0.47257">
        <ele>106.4</ele>
        <time>2024-02-18T08:14:11Z</time>
      </trkpt>
      <trkpt lat="46.66639" lon="0.47258">
        <ele>106.2</ele>
        <time>2024-02-18T08:14:12Z</time>
      </trkpt>
      <trkpt lat="46.66633" lon="0.47258">
        <ele>106</ele>
        <time>2024-02-18T08:14:14Z</time>
      </trkpt>
      <trkpt lat="46.66627" lon="0.47254">
        <ele>105.8</ele>
        <time>2024-02-18T08:14:16Z</time>
      </trkpt>
      <trkpt lat="46.66612" lon="0.47233">
        <ele>105.6</ele>
        <time>2024-02-18T08:14:22Z</time>
      </trkpt>
      <trkpt lat="46.66617" lon="0.47219">
        <ele>105.4</ele>
        <time>2024-02-18T08:14:25Z</time>
      </trkpt>
      <trkpt lat="46.66622" lon="0.47211">
        <ele>105</ele>
        <time>2024-02-18T08:14:27Z</time>
      </trkpt>
      <trkpt lat="46.66632" lon="0.47197">
        <ele>104.8</ele>
        <time>2024-02-18T08:14:31Z</time>
      </trkpt>
      <trkpt lat="46.6664" lon="0.47181">
        <ele>105</ele>
        <time>2024-02-18T08:14:36Z</time>
      </trkpt>
      <trkpt lat="46.66636" lon="0.4717">
        <ele>105</ele>
        <time>2024-02-18T08:14:40Z</time>
      </trkpt>
      <trkpt lat="46.66638" lon="0.47163">
        <ele>104.4</ele>
        <time>2024-02-18T08:14:43Z</time>
      </trkpt>
      <trkpt lat="46.66639" lon="0.47162">
        <ele>104.4</ele>
        <time>2024-02-18T08:14:44Z</time>
      </trkpt>
      <trkpt lat="46.6665" lon="0.4715">
        <ele>104.8</ele>
        <time>2024-02-18T08:14:49Z</time>
      </trkpt>
      <trkpt lat="46.66656" lon="0.47133">
        <ele>104.2</ele>
        <time>2024-02-18T08:14:54Z</time>
      </trkpt>
      <trkpt lat="46.66659" lon="0.47127">
        <ele>104</ele>
        <time>2024-02-18T08:14:56Z</time>
      </trkpt>
      <trkpt lat="46.66666" lon="0.4712">
        <ele>105</ele>
        <time>2024-02-18T08:14:59Z</time>
      </trkpt>
      <trkpt lat="46.66669" lon="0.47118">
        <ele>105.4</ele>
        <time>2024-02-18T08:15:00Z</time>
      </trkpt>
      <trkpt lat="46.66672" lon="0.47112">
        <ele>105.8</ele>
        <time>2024-02-18T08:15:02Z</time>
      </trkpt>
      <trkpt lat="46.66672" lon="0.47109">
        <ele>106</ele>
        <time>2024-02-18T08:15:03Z</time>
      </trkpt>
      <trkpt lat="46.66672" lon="0.47103">
        <ele>105.8</ele>
        <time>2024-02-18T08:15:06Z</time>
      </trkpt>
      <trkpt lat="46.66669" lon="0.47099">
        <ele>104.8</ele>
        <time>2024-02-18T08:15:08Z</time>
      </trkpt>
      <trkpt lat="46.66666" lon="0.47094">
        <ele>104.4</ele>
        <time>2024-02-18T08:15:11Z</time>
      </trkpt>
      <trkpt lat="46.66666" lon="0.47092">
        <ele>104</ele>
        <time>2024-02-18T08:15:12Z</time>
      </trkpt>
      <trkpt lat="46.66666" lon="0.47089">
        <ele>104</ele>
        <time>2024-02-18T08:15:13Z</time>
      </trkpt>
      <trkpt lat="46.66665" lon="0.47085">
        <ele>103.8</ele>
        <time>2024-02-18T08:15:14Z</time>
      </trkpt>
      <trkpt lat="46.66663" lon="0.47068">
        <ele>103.4</ele>
        <time>2024-02-18T08:15:18Z</time>
      </trkpt>
      <trkpt lat="46.66663" lon="0.47064">
        <ele>103.4</ele>
        <time>2024-02-18T08:15:19Z</time>
      </trkpt>
      <trkpt lat="46.66661" lon="0.47057">
        <ele>103.2</ele>
        <time>2024-02-18T08:15:21Z</time>
      </trkpt>
      <trkpt lat="46.66658" lon="0.47046">
        <ele>103.2</ele>
        <time>2024-02-18T08:15:23Z</time>
      </trkpt>
      <trkpt lat="46.66657" lon="0.4704">
        <ele>103.2</ele>
        <time>2024-02-18T08:15:24Z</time>
      </trkpt>
      <trkpt lat="46.66659" lon="0.47035">
        <ele>103</ele>
        <time>2024-02-18T08:15:25Z</time>
      </trkpt>
      <trkpt lat="46.66662" lon="0.4702">
        <ele>103</ele>
        <time>2024-02-18T08:15:28Z</time>
      </trkpt>
      <trkpt lat="46.66669" lon="0.47001">
        <ele>102</ele>
        <time>2024-02-18T08:15:32Z</time>
      </trkpt>
      <trkpt lat="46.66673" lon="0.46992">
        <ele>102</ele>
        <time>2024-02-18T08:15:34Z</time>
      </trkpt>
      <trkpt lat="46.66682" lon="0.46982">
        <ele>102.2</ele>
        <time>2024-02-18T08:15:37Z</time>
      </trkpt>
      <trkpt lat="46.66685" lon="0.46977">
        <ele>102.4</ele>
        <time>2024-02-18T08:15:39Z</time>
      </trkpt>
      <trkpt lat="46.66687" lon="0.46976">
        <ele>102.6</ele>
        <time>2024-02-18T08:15:40Z</time>
      </trkpt>
      <trkpt lat="46.6669" lon="0.46974">
        <ele>102.6</ele>
        <time>2024-02-18T08:15:42Z</time>
      </trkpt>
      <trkpt lat="46.66692" lon="0.46969">
        <ele>102.8</ele>
        <time>2024-02-18T08:15:44Z</time>
      </trkpt>
      <trkpt lat="46.66693" lon="0.46949">
        <ele>102.4</ele>
        <time>2024-02-18T08:15:49Z</time>
      </trkpt>
      <trkpt lat="46.66693" lon="0.46942">
        <ele>102.4</ele>
        <time>2024-02-18T08:15:51Z</time>
      </trkpt>
      <trkpt lat="46.66695" lon="0.46932">
        <ele>102.2</ele>
        <time>2024-02-18T08:15:54Z</time>
      </trkpt>
      <trkpt lat="46.66694" lon="0.4692">
        <ele>101.8</ele>
        <time>2024-02-18T08:15:57Z</time>
      </trkpt>
      <trkpt lat="46.66696" lon="0.46907">
        <ele>101.8</ele>
        <time>2024-02-18T08:15:59Z</time>
      </trkpt>
      <trkpt lat="46.66697" lon="0.46902">
        <ele>101.6</ele>
        <time>2024-02-18T08:16:00Z</time>
      </trkpt>
      <trkpt lat="46.66696" lon="0.46893">
        <ele>102.4</ele>
        <time>2024-02-18T08:16:03Z</time>
      </trkpt>
      <trkpt lat="46.66701" lon="0.46881">
        <ele>102.6</ele>
        <time>2024-02-18T08:16:07Z</time>
      </trkpt>
      <trkpt lat="46.66702" lon="0.46874">
        <ele>102.8</ele>
        <time>2024-02-18T08:16:09Z</time>
      </trkpt>
      <trkpt lat="46.66706" lon="0.46851">
        <ele>102.6</ele>
        <time>2024-02-18T08:16:15Z</time>
      </trkpt>
      <trkpt lat="46.66708" lon="0.46838">
        <ele>102.6</ele>
        <time>2024-02-18T08:16:19Z</time>
      </trkpt>
      <trkpt lat="46.66711" lon="0.46835">
        <ele>102.4</ele>
        <time>2024-02-18T08:16:21Z</time>
      </trkpt>
      <trkpt lat="46.66712" lon="0.46834">
        <ele>102.4</ele>
        <time>2024-02-18T08:16:22Z</time>
      </trkpt>
      <trkpt lat="46.66712" lon="0.46836">
        <ele>101.8</ele>
        <time>2024-02-18T08:16:26Z</time>
      </trkpt>
      <trkpt lat="46.66713" lon="0.46838">
        <ele>101.8</ele>
        <time>2024-02-18T08:16:27Z</time>
      </trkpt>
      <trkpt lat="46.66716" lon="0.46845">
        <ele>102</ele>
        <time>2024-02-18T08:16:31Z</time>
      </trkpt>
      <trkpt lat="46.66727" lon="0.46847">
        <ele>100.8</ele>
        <time>2024-02-18T08:16:36Z</time>
      </trkpt>
      <trkpt lat="46.6673" lon="0.46847">
        <ele>100.4</ele>
        <time>2024-02-18T08:16:37Z</time>
      </trkpt>
      <trkpt lat="46.66741" lon="0.46846">
        <ele>99.8</ele>
        <time>2024-02-18T08:16:41Z</time>
      </trkpt>
      <trkpt lat="46.66745" lon="0.46844">
        <ele>99.6</ele>
        <time>2024-02-18T08:16:42Z</time>
      </trkpt>
      <trkpt lat="46.66747" lon="0.46842">
        <ele>99.6</ele>
        <time>2024-02-18T08:16:43Z</time>
      </trkpt>
      <trkpt lat="46.66751" lon="0.46835">
        <ele>99.2</ele>
        <time>2024-02-18T08:16:45Z</time>
      </trkpt>
      <trkpt lat="46.66753" lon="0.46832">
        <ele>99.2</ele>
        <time>2024-02-18T08:16:46Z</time>
      </trkpt>
      <trkpt lat="46.66756" lon="0.46828">
        <ele>99.2</ele>
        <time>2024-02-18T08:16:47Z</time>
      </trkpt>
      <trkpt lat="46.66765" lon="0.46823">
        <ele>99</ele>
        <time>2024-02-18T08:16:50Z</time>
      </trkpt>
      <trkpt lat="46.66767" lon="0.46823">
        <ele>98.8</ele>
        <time>2024-02-18T08:16:51Z</time>
      </trkpt>
      <trkpt lat="46.6677" lon="0.46827">
        <ele>98.6</ele>
        <time>2024-02-18T08:16:53Z</time>
      </trkpt>
      <trkpt lat="46.66771" lon="0.46829">
        <ele>98.6</ele>
        <time>2024-02-18T08:16:54Z</time>
      </trkpt>
      <trkpt lat="46.66773" lon="0.46836">
        <ele>98.8</ele>
        <time>2024-02-18T08:16:58Z</time>
      </trkpt>
      <trkpt lat="46.66774" lon="0.46837">
        <ele>98.8</ele>
        <time>2024-02-18T08:16:59Z</time>
      </trkpt>
      <trkpt lat="46.66777" lon="0.46843">
        <ele>99</ele>
        <time>2024-02-18T08:17:03Z</time>
      </trkpt>
      <trkpt lat="46.66777" lon="0.46851">
        <ele>99.6</ele>
        <time>2024-02-18T08:17:06Z</time>
      </trkpt>
      <trkpt lat="46.66778" lon="0.46852">
        <ele>99.8</ele>
        <time>2024-02-18T08:17:07Z</time>
      </trkpt>
      <trkpt lat="46.66779" lon="0.46856">
        <ele>100</ele>
        <time>2024-02-18T08:17:09Z</time>
      </trkpt>
      <trkpt lat="46.66781" lon="0.46856">
        <ele>100</ele>
        <time>2024-02-18T08:17:11Z</time>
      </trkpt>
      <trkpt lat="46.66782" lon="0.46851">
        <ele>99.8</ele>
        <time>2024-02-18T08:17:14Z</time>
      </trkpt>
      <trkpt lat="46.66783" lon="0.4685">
        <ele>99.8</ele>
        <time>2024-02-18T08:17:15Z</time>
      </trkpt>
      <trkpt lat="46.66783" lon="0.46849">
        <ele>99.8</ele>
        <time>2024-02-18T08:17:16Z</time>
      </trkpt>
      <trkpt lat="46.66784" lon="0.46846">
        <ele>99.4</ele>
        <time>2024-02-18T08:17:19Z</time>
      </trkpt>
      <trkpt lat="46.66784" lon="0.46843">
        <ele>99.2</ele>
        <time>2024-02-18T08:17:21Z</time>
      </trkpt>
      <trkpt lat="46.66784" lon="0.46842">
        <ele>99</ele>
        <time>2024-02-18T08:17:23Z</time>
      </trkpt>
      <trkpt lat="46.66785" lon="0.46838">
        <ele>98.8</ele>
        <time>2024-02-18T08:17:25Z</time>
      </trkpt>
      <trkpt lat="46.66785" lon="0.46832">
        <ele>98.4</ele>
        <time>2024-02-18T08:17:30Z</time>
      </trkpt>
      <trkpt lat="46.66786" lon="0.46824">
        <ele>98.2</ele>
        <time>2024-02-18T08:17:33Z</time>
      </trkpt>
      <trkpt lat="46.66784" lon="0.4682">
        <ele>98.2</ele>
        <time>2024-02-18T08:17:35Z</time>
      </trkpt>
      <trkpt lat="46.66782" lon="0.4681">
        <ele>98.4</ele>
        <time>2024-02-18T08:17:40Z</time>
      </trkpt>
      <trkpt lat="46.66781" lon="0.46808">
        <ele>98.4</ele>
        <time>2024-02-18T08:17:41Z</time>
      </trkpt>
      <trkpt lat="46.66778" lon="0.46797">
        <ele>98.6</ele>
        <time>2024-02-18T08:17:45Z</time>
      </trkpt>
      <trkpt lat="46.66775" lon="0.46782">
        <ele>98.8</ele>
        <time>2024-02-18T08:17:49Z</time>
      </trkpt>
      <trkpt lat="46.66776" lon="0.46778">
        <ele>98.8</ele>
        <time>2024-02-18T08:17:50Z</time>
      </trkpt>
      <trkpt lat="46.66776" lon="0.46769">
        <ele>98.8</ele>
        <time>2024-02-18T08:17:52Z</time>
      </trkpt>
      <trkpt lat="46.66774" lon="0.46762">
        <ele>98.8</ele>
        <time>2024-02-18T08:17:54Z</time>
      </trkpt>
      <trkpt lat="46.66773" lon="0.46759">
        <ele>98.8</ele>
        <time>2024-02-18T08:17:55Z</time>
      </trkpt>
      <trkpt lat="46.6677" lon="0.46753">
        <ele>98.6</ele>
        <time>2024-02-18T08:17:57Z</time>
      </trkpt>
      <trkpt lat="46.66766" lon="0.46748">
        <ele>98.8</ele>
        <time>2024-02-18T08:17:59Z</time>
      </trkpt>
      <trkpt lat="46.66749" lon="0.46736">
        <ele>99</ele>
        <time>2024-02-18T08:18:04Z</time>
      </trkpt>
      <trkpt lat="46.66728" lon="0.46724">
        <ele>99.6</ele>
        <time>2024-02-18T08:18:10Z</time>
      </trkpt>
      <trkpt lat="46.66725" lon="0.46722">
        <ele>99.8</ele>
        <time>2024-02-18T08:18:11Z</time>
      </trkpt>
      <trkpt lat="46.66722" lon="0.46722">
        <ele>100</ele>
        <time>2024-02-18T08:18:12Z</time>
      </trkpt>
      <trkpt lat="46.66718" lon="0.46721">
        <ele>100.2</ele>
        <time>2024-02-18T08:18:14Z</time>
      </trkpt>
      <trkpt lat="46.66715" lon="0.46717">
        <ele>100.6</ele>
        <time>2024-02-18T08:18:17Z</time>
      </trkpt>
      <trkpt lat="46.66714" lon="0.46713">
        <ele>100.8</ele>
        <time>2024-02-18T08:18:18Z</time>
      </trkpt>
      <trkpt lat="46.66711" lon="0.46705">
        <ele>101</ele>
        <time>2024-02-18T08:18:20Z</time>
      </trkpt>
      <trkpt lat="46.66708" lon="0.46695">
        <ele>100.8</ele>
        <time>2024-02-18T08:18:23Z</time>
      </trkpt>
      <trkpt lat="46.66705" lon="0.46689">
        <ele>99.8</ele>
        <time>2024-02-18T08:18:26Z</time>
      </trkpt>
      <trkpt lat="46.66701" lon="0.46681">
        <ele>99.4</ele>
        <time>2024-02-18T08:18:28Z</time>
      </trkpt>
      <trkpt lat="46.66696" lon="0.46671">
        <ele>99.2</ele>
        <time>2024-02-18T08:18:33Z</time>
      </trkpt>
      <trkpt lat="46.66692" lon="0.46663">
        <ele>98.8</ele>
        <time>2024-02-18T08:18:36Z</time>
      </trkpt>
      <trkpt lat="46.66692" lon="0.46659">
        <ele>98.8</ele>
        <time>2024-02-18T08:18:43Z</time>
      </trkpt>
      <trkpt lat="46.66691" lon="0.46657">
        <ele>98.8</ele>
        <time>2024-02-18T08:18:58Z</time>
      </trkpt>
      <trkpt lat="46.6669" lon="0.46655">
        <ele>98.8</ele>
        <time>2024-02-18T08:19:11Z</time>
      </trkpt>
      <trkpt lat="46.66689" lon="0.46645">
        <ele>98.8</ele>
        <time>2024-02-18T08:19:22Z</time>
      </trkpt>
      <trkpt lat="46.66689" lon="0.46645">
        <ele>98.8</ele>
        <time>2024-02-18T08:19:23Z</time>
      </trkpt>
      <trkpt lat="46.66688" lon="0.46645">
        <ele>98.8</ele>
        <time>2024-02-18T08:19:24Z</time>
      </trkpt>
      <trkpt lat="46.66684" lon="0.46641">
        <ele>99.2</ele>
        <time>2024-02-18T08:19:30Z</time>
      </trkpt>
      <trkpt lat="46.66681" lon="0.46641">
        <ele>99.4</ele>
        <time>2024-02-18T08:19:32Z</time>
      </trkpt>
      <trkpt lat="46.66678" lon="0.46638">
        <ele>99.4</ele>
        <time>2024-02-18T08:19:36Z</time>
      </trkpt>
      <trkpt lat="46.66675" lon="0.46635">
        <ele>99.8</ele>
        <time>2024-02-18T08:19:40Z</time>
      </trkpt>
      <trkpt lat="46.6667" lon="0.46633">
        <ele>99.8</ele>
        <time>2024-02-18T08:19:42Z</time>
      </trkpt>
      <trkpt lat="46.66653" lon="0.46624">
        <ele>100</ele>
        <time>2024-02-18T08:19:50Z</time>
      </trkpt>
      <trkpt lat="46.66642" lon="0.46621">
        <ele>99.8</ele>
        <time>2024-02-18T08:19:54Z</time>
      </trkpt>
      <trkpt lat="46.66636" lon="0.46617">
        <ele>99.6</ele>
        <time>2024-02-18T08:19:56Z</time>
      </trkpt>
      <trkpt lat="46.66625" lon="0.46619">
        <ele>99.6</ele>
        <time>2024-02-18T08:20:00Z</time>
      </trkpt>
      <trkpt lat="46.66619" lon="0.46622">
        <ele>100</ele>
        <time>2024-02-18T08:20:03Z</time>
      </trkpt>
      <trkpt lat="46.66616" lon="0.46628">
        <ele>100.6</ele>
        <time>2024-02-18T08:20:05Z</time>
      </trkpt>
      <trkpt lat="46.66615" lon="0.4663">
        <ele>101</ele>
        <time>2024-02-18T08:20:06Z</time>
      </trkpt>
      <trkpt lat="46.66613" lon="0.46642">
        <ele>101.8</ele>
        <time>2024-02-18T08:20:11Z</time>
      </trkpt>
      <trkpt lat="46.66613" lon="0.46645">
        <ele>102</ele>
        <time>2024-02-18T08:20:12Z</time>
      </trkpt>
      <trkpt lat="46.66612" lon="0.4665">
        <ele>102.2</ele>
        <time>2024-02-18T08:20:15Z</time>
      </trkpt>
      <trkpt lat="46.6661" lon="0.46651">
        <ele>102.6</ele>
        <time>2024-02-18T08:20:16Z</time>
      </trkpt>
      <trkpt lat="46.66602" lon="0.46654">
        <ele>102.8</ele>
        <time>2024-02-18T08:20:21Z</time>
      </trkpt>
      <trkpt lat="46.666" lon="0.46654">
        <ele>102.8</ele>
        <time>2024-02-18T08:20:22Z</time>
      </trkpt>
      <trkpt lat="46.66598" lon="0.46656">
        <ele>103</ele>
        <time>2024-02-18T08:20:23Z</time>
      </trkpt>
      <trkpt lat="46.66598" lon="0.46662">
        <ele>102.8</ele>
        <time>2024-02-18T08:20:26Z</time>
      </trkpt>
      <trkpt lat="46.66598" lon="0.46664">
        <ele>102.8</ele>
        <time>2024-02-18T08:20:27Z</time>
      </trkpt>
      <trkpt lat="46.66599" lon="0.46675">
        <ele>103</ele>
        <time>2024-02-18T08:20:31Z</time>
      </trkpt>
      <trkpt lat="46.66599" lon="0.46678">
        <ele>103.2</ele>
        <time>2024-02-18T08:20:32Z</time>
      </trkpt>
      <trkpt lat="46.66596" lon="0.46685">
        <ele>103.6</ele>
        <time>2024-02-18T08:20:36Z</time>
      </trkpt>
      <trkpt lat="46.66588" lon="0.46685">
        <ele>103.8</ele>
        <time>2024-02-18T08:20:41Z</time>
      </trkpt>
      <trkpt lat="46.66584" lon="0.46685">
        <ele>103.8</ele>
        <time>2024-02-18T08:20:43Z</time>
      </trkpt>
      <trkpt lat="46.66582" lon="0.46689">
        <ele>103.6</ele>
        <time>2024-02-18T08:20:45Z</time>
      </trkpt>
      <trkpt lat="46.66574" lon="0.4671">
        <ele>104</ele>
        <time>2024-02-18T08:20:51Z</time>
      </trkpt>
      <trkpt lat="46.66571" lon="0.46718">
        <ele>104.2</ele>
        <time>2024-02-18T08:20:53Z</time>
      </trkpt>
      <trkpt lat="46.66566" lon="0.46732">
        <ele>104.6</ele>
        <time>2024-02-18T08:20:57Z</time>
      </trkpt>
      <trkpt lat="46.66557" lon="0.46757">
        <ele>105.4</ele>
        <time>2024-02-18T08:21:03Z</time>
      </trkpt>
      <trkpt lat="46.66555" lon="0.46761">
        <ele>105.6</ele>
        <time>2024-02-18T08:21:04Z</time>
      </trkpt>
      <trkpt lat="46.6655" lon="0.46775">
        <ele>106.4</ele>
        <time>2024-02-18T08:21:07Z</time>
      </trkpt>
      <trkpt lat="46.66544" lon="0.46794">
        <ele>106.8</ele>
        <time>2024-02-18T08:21:11Z</time>
      </trkpt>
      <trkpt lat="46.66537" lon="0.46815">
        <ele>107.4</ele>
        <time>2024-02-18T08:21:16Z</time>
      </trkpt>
      <trkpt lat="46.66535" lon="0.46822">
        <ele>107.4</ele>
        <time>2024-02-18T08:21:18Z</time>
      </trkpt>
      <trkpt lat="46.66531" lon="0.46839">
        <ele>107.8</ele>
        <time>2024-02-18T08:21:22Z</time>
      </trkpt>
      <trkpt lat="46.66531" lon="0.46862">
        <ele>108.4</ele>
        <time>2024-02-18T08:21:28Z</time>
      </trkpt>
      <trkpt lat="46.66524" lon="0.46867">
        <ele>108.4</ele>
        <time>2024-02-18T08:21:32Z</time>
      </trkpt>
      <trkpt lat="46.66523" lon="0.46867">
        <ele>108.6</ele>
        <time>2024-02-18T08:21:33Z</time>
      </trkpt>
      <trkpt lat="46.66523" lon="0.46866">
        <ele>108.6</ele>
        <time>2024-02-18T08:21:35Z</time>
      </trkpt>
      <trkpt lat="46.66523" lon="0.46864">
        <ele>108.8</ele>
        <time>2024-02-18T08:21:36Z</time>
      </trkpt>
      <trkpt lat="46.66521" lon="0.46855">
        <ele>108.6</ele>
        <time>2024-02-18T08:21:41Z</time>
      </trkpt>
      <trkpt lat="46.66509" lon="0.46851">
        <ele>108.8</ele>
        <time>2024-02-18T08:21:46Z</time>
      </trkpt>
      <trkpt lat="46.66502" lon="0.46847">
        <ele>108.2</ele>
        <time>2024-02-18T08:21:51Z</time>
      </trkpt>
      <trkpt lat="46.665" lon="0.46846">
        <ele>108.2</ele>
        <time>2024-02-18T08:22:08Z</time>
      </trkpt>
      <trkpt lat="46.665" lon="0.46846">
        <ele>108.2</ele>
        <time>2024-02-18T08:22:15Z</time>
      </trkpt>
      <trkpt lat="46.66499" lon="0.46847">
        <ele>108.2</ele>
        <time>2024-02-18T08:22:24Z</time>
      </trkpt>
      <trkpt lat="46.66493" lon="0.46846">
        <ele>108</ele>
        <time>2024-02-18T08:22:36Z</time>
      </trkpt>
      <trkpt lat="46.66482" lon="0.46842">
        <ele>108.6</ele>
        <time>2024-02-18T08:22:42Z</time>
      </trkpt>
      <trkpt lat="46.66464" lon="0.46832">
        <ele>109</ele>
        <time>2024-02-18T08:22:49Z</time>
      </trkpt>
      <trkpt lat="46.66447" lon="0.46824">
        <ele>108.2</ele>
        <time>2024-02-18T08:22:55Z</time>
      </trkpt>
      <trkpt lat="46.66428" lon="0.46812">
        <ele>108.2</ele>
        <time>2024-02-18T08:23:01Z</time>
      </trkpt>
      <trkpt lat="46.66424" lon="0.46809">
        <ele>108.2</ele>
        <time>2024-02-18T08:23:02Z</time>
      </trkpt>
      <trkpt lat="46.66418" lon="0.46804">
        <ele>108.2</ele>
        <time>2024-02-18T08:23:04Z</time>
      </trkpt>
      <trkpt lat="46.66414" lon="0.468">
        <ele>107.6</ele>
        <time>2024-02-18T08:23:06Z</time>
      </trkpt>
      <trkpt lat="46.66412" lon="0.46798">
        <ele>107.4</ele>
        <time>2024-02-18T08:23:07Z</time>
      </trkpt>
      <trkpt lat="46.664" lon="0.46789">
        <ele>106.2</ele>
        <time>2024-02-18T08:23:12Z</time>
      </trkpt>
      <trkpt lat="46.66397" lon="0.46788">
        <ele>106.2</ele>
        <time>2024-02-18T08:23:13Z</time>
      </trkpt>
      <trkpt lat="46.66378" lon="0.46779">
        <ele>105.6</ele>
        <time>2024-02-18T08:23:19Z</time>
      </trkpt>
      <trkpt lat="46.66369" lon="0.46777">
        <ele>105.2</ele>
        <time>2024-02-18T08:23:22Z</time>
      </trkpt>
      <trkpt lat="46.66358" lon="0.46775">
        <ele>105.2</ele>
        <time>2024-02-18T08:23:25Z</time>
      </trkpt>
      <trkpt lat="46.66334" lon="0.46767">
        <ele>105.6</ele>
        <time>2024-02-18T08:23:32Z</time>
      </trkpt>
      <trkpt lat="46.66318" lon="0.46758">
        <ele>106.4</ele>
        <time>2024-02-18T08:23:36Z</time>
      </trkpt>
      <trkpt lat="46.66314" lon="0.46757">
        <ele>106.4</ele>
        <time>2024-02-18T08:23:37Z</time>
      </trkpt>
      <trkpt lat="46.6631" lon="0.46756">
        <ele>106.4</ele>
        <time>2024-02-18T08:23:38Z</time>
      </trkpt>
      <trkpt lat="46.66288" lon="0.46745">
        <ele>105.6</ele>
        <time>2024-02-18T08:23:43Z</time>
      </trkpt>
      <trkpt lat="46.66284" lon="0.46743">
        <ele>105.2</ele>
        <time>2024-02-18T08:23:44Z</time>
      </trkpt>
      <trkpt lat="46.66264" lon="0.46734">
        <ele>104.8</ele>
        <time>2024-02-18T08:23:49Z</time>
      </trkpt>
      <trkpt lat="46.66257" lon="0.46732">
        <ele>104.8</ele>
        <time>2024-02-18T08:23:51Z</time>
      </trkpt>
      <trkpt lat="46.66239" lon="0.46723">
        <ele>105.2</ele>
        <time>2024-02-18T08:23:55Z</time>
      </trkpt>
      <trkpt lat="46.66234" lon="0.46722">
        <ele>105.2</ele>
        <time>2024-02-18T08:23:56Z</time>
      </trkpt>
      <trkpt lat="46.66224" lon="0.4672">
        <ele>105.2</ele>
        <time>2024-02-18T08:23:58Z</time>
      </trkpt>
      <trkpt lat="46.66215" lon="0.46717">
        <ele>105</ele>
        <time>2024-02-18T08:24:00Z</time>
      </trkpt>
      <trkpt lat="46.66189" lon="0.46705">
        <ele>104.6</ele>
        <time>2024-02-18T08:24:06Z</time>
      </trkpt>
      <trkpt lat="46.6618" lon="0.46702">
        <ele>104.6</ele>
        <time>2024-02-18T08:24:08Z</time>
      </trkpt>
      <trkpt lat="46.66162" lon="0.46696">
        <ele>104.6</ele>
        <time>2024-02-18T08:24:12Z</time>
      </trkpt>
      <trkpt lat="46.66158" lon="0.46696">
        <ele>104.6</ele>
        <time>2024-02-18T08:24:13Z</time>
      </trkpt>
      <trkpt lat="46.6615" lon="0.46695">
        <ele>104.8</ele>
        <time>2024-02-18T08:24:15Z</time>
      </trkpt>
      <trkpt lat="46.6614" lon="0.46692">
        <ele>104.8</ele>
        <time>2024-02-18T08:24:17Z</time>
      </trkpt>
      <trkpt lat="46.66136" lon="0.4669">
        <ele>105</ele>
        <time>2024-02-18T08:24:18Z</time>
      </trkpt>
      <trkpt lat="46.66125" lon="0.46688">
        <ele>105.2</ele>
        <time>2024-02-18T08:24:20Z</time>
      </trkpt>
      <trkpt lat="46.66115" lon="0.46687">
        <ele>105.4</ele>
        <time>2024-02-18T08:24:22Z</time>
      </trkpt>
      <trkpt lat="46.66092" lon="0.46685">
        <ele>106</ele>
        <time>2024-02-18T08:24:27Z</time>
      </trkpt>
      <trkpt lat="46.66088" lon="0.46685">
        <ele>106.2</ele>
        <time>2024-02-18T08:24:28Z</time>
      </trkpt>
      <trkpt lat="46.66084" lon="0.46684">
        <ele>106.4</ele>
        <time>2024-02-18T08:24:29Z</time>
      </trkpt>
      <trkpt lat="46.6607" lon="0.46682">
        <ele>107.2</ele>
        <time>2024-02-18T08:24:33Z</time>
      </trkpt>
      <trkpt lat="46.66066" lon="0.46682">
        <ele>107.4</ele>
        <time>2024-02-18T08:24:34Z</time>
      </trkpt>
      <trkpt lat="46.66048" lon="0.46678">
        <ele>108</ele>
        <time>2024-02-18T08:24:40Z</time>
      </trkpt>
      <trkpt lat="46.6603" lon="0.46674">
        <ele>108.6</ele>
        <time>2024-02-18T08:24:47Z</time>
      </trkpt>
      <trkpt lat="46.66017" lon="0.46667">
        <ele>108.8</ele>
        <time>2024-02-18T08:24:51Z</time>
      </trkpt>
      <trkpt lat="46.66015" lon="0.46664">
        <ele>109</ele>
        <time>2024-02-18T08:24:52Z</time>
      </trkpt>
      <trkpt lat="46.66009" lon="0.46646">
        <ele>108.4</ele>
        <time>2024-02-18T08:24:57Z</time>
      </trkpt>
      <trkpt lat="46.66008" lon="0.46642">
        <ele>108.2</ele>
        <time>2024-02-18T08:24:58Z</time>
      </trkpt>
      <trkpt lat="46.66003" lon="0.46627">
        <ele>107.4</ele>
        <time>2024-02-18T08:25:02Z</time>
      </trkpt>
      <trkpt lat="46.66002" lon="0.46623">
        <ele>107.2</ele>
        <time>2024-02-18T08:25:03Z</time>
      </trkpt>
      <trkpt lat="46.65998" lon="0.46617">
        <ele>107</ele>
        <time>2024-02-18T08:25:05Z</time>
      </trkpt>
      <trkpt lat="46.65995" lon="0.4661">
        <ele>106.8</ele>
        <time>2024-02-18T08:25:07Z</time>
      </trkpt>
      <trkpt lat="46.65991" lon="0.46604">
        <ele>106.2</ele>
        <time>2024-02-18T08:25:09Z</time>
      </trkpt>
      <trkpt lat="46.65989" lon="0.46601">
        <ele>106</ele>
        <time>2024-02-18T08:25:10Z</time>
      </trkpt>
      <trkpt lat="46.65986" lon="0.46595">
        <ele>105.6</ele>
        <time>2024-02-18T08:25:12Z</time>
      </trkpt>
      <trkpt lat="46.65985" lon="0.46591">
        <ele>105.6</ele>
        <time>2024-02-18T08:25:13Z</time>
      </trkpt>
      <trkpt lat="46.65981" lon="0.46581">
        <ele>105.4</ele>
        <time>2024-02-18T08:25:15Z</time>
      </trkpt>
      <trkpt lat="46.65976" lon="0.46572">
        <ele>105.4</ele>
        <time>2024-02-18T08:25:17Z</time>
      </trkpt>
      <trkpt lat="46.65966" lon="0.46559">
        <ele>105.2</ele>
        <time>2024-02-18T08:25:20Z</time>
      </trkpt>
      <trkpt lat="46.65959" lon="0.46549">
        <ele>104.8</ele>
        <time>2024-02-18T08:25:23Z</time>
      </trkpt>
      <trkpt lat="46.65957" lon="0.46546">
        <ele>104.6</ele>
        <time>2024-02-18T08:25:24Z</time>
      </trkpt>
      <trkpt lat="46.65948" lon="0.46539">
        <ele>104.4</ele>
        <time>2024-02-18T08:25:27Z</time>
      </trkpt>
      <trkpt lat="46.65936" lon="0.4653">
        <ele>104</ele>
        <time>2024-02-18T08:25:30Z</time>
      </trkpt>
      <trkpt lat="46.65928" lon="0.46524">
        <ele>103.8</ele>
        <time>2024-02-18T08:25:33Z</time>
      </trkpt>
      <trkpt lat="46.65911" lon="0.46509">
        <ele>104.2</ele>
        <time>2024-02-18T08:25:39Z</time>
      </trkpt>
      <trkpt lat="46.65896" lon="0.46493">
        <ele>105</ele>
        <time>2024-02-18T08:25:44Z</time>
      </trkpt>
      <trkpt lat="46.65894" lon="0.46491">
        <ele>105.2</ele>
        <time>2024-02-18T08:25:45Z</time>
      </trkpt>
      <trkpt lat="46.65882" lon="0.4648">
        <ele>105.6</ele>
        <time>2024-02-18T08:25:49Z</time>
      </trkpt>
      <trkpt lat="46.65879" lon="0.46477">
        <ele>105.8</ele>
        <time>2024-02-18T08:25:50Z</time>
      </trkpt>
      <trkpt lat="46.65877" lon="0.46474">
        <ele>105.8</ele>
        <time>2024-02-18T08:25:51Z</time>
      </trkpt>
      <trkpt lat="46.65871" lon="0.46466">
        <ele>105.8</ele>
        <time>2024-02-18T08:25:53Z</time>
      </trkpt>
      <trkpt lat="46.65865" lon="0.46456">
        <ele>105.6</ele>
        <time>2024-02-18T08:25:55Z</time>
      </trkpt>
      <trkpt lat="46.65852" lon="0.4644">
        <ele>106</ele>
        <time>2024-02-18T08:26:00Z</time>
      </trkpt>
      <trkpt lat="46.65849" lon="0.46437">
        <ele>106</ele>
        <time>2024-02-18T08:26:01Z</time>
      </trkpt>
      <trkpt lat="46.65846" lon="0.46433">
        <ele>106.2</ele>
        <time>2024-02-18T08:26:02Z</time>
      </trkpt>
      <trkpt lat="46.65842" lon="0.46426">
        <ele>106.2</ele>
        <time>2024-02-18T08:26:04Z</time>
      </trkpt>
      <trkpt lat="46.65837" lon="0.46419">
        <ele>106.2</ele>
        <time>2024-02-18T08:26:06Z</time>
      </trkpt>
      <trkpt lat="46.65831" lon="0.46406">
        <ele>106.2</ele>
        <time>2024-02-18T08:26:09Z</time>
      </trkpt>
      <trkpt lat="46.65823" lon="0.4639">
        <ele>106.2</ele>
        <time>2024-02-18T08:26:12Z</time>
      </trkpt>
      <trkpt lat="46.65821" lon="0.46382">
        <ele>106</ele>
        <time>2024-02-18T08:26:13Z</time>
      </trkpt>
      <trkpt lat="46.65812" lon="0.4636">
        <ele>105.4</ele>
        <time>2024-02-18T08:26:17Z</time>
      </trkpt>
      <trkpt lat="46.65804" lon="0.46343">
        <ele>105.2</ele>
        <time>2024-02-18T08:26:21Z</time>
      </trkpt>
      <trkpt lat="46.658" lon="0.46332">
        <ele>104.2</ele>
        <time>2024-02-18T08:26:24Z</time>
      </trkpt>
      <trkpt lat="46.65798" lon="0.46328">
        <ele>104</ele>
        <time>2024-02-18T08:26:25Z</time>
      </trkpt>
      <trkpt lat="46.65793" lon="0.46307">
        <ele>104</ele>
        <time>2024-02-18T08:26:29Z</time>
      </trkpt>
      <trkpt lat="46.65791" lon="0.46302">
        <ele>104</ele>
        <time>2024-02-18T08:26:30Z</time>
      </trkpt>
      <trkpt lat="46.6579" lon="0.46298">
        <ele>104.2</ele>
        <time>2024-02-18T08:26:31Z</time>
      </trkpt>
      <trkpt lat="46.65786" lon="0.46289">
        <ele>104.4</ele>
        <time>2024-02-18T08:26:33Z</time>
      </trkpt>
      <trkpt lat="46.65782" lon="0.46277">
        <ele>104.4</ele>
        <time>2024-02-18T08:26:35Z</time>
      </trkpt>
      <trkpt lat="46.65768" lon="0.46247">
        <ele>104.6</ele>
        <time>2024-02-18T08:26:41Z</time>
      </trkpt>
      <trkpt lat="46.65752" lon="0.46221">
        <ele>104.4</ele>
        <time>2024-02-18T08:26:47Z</time>
      </trkpt>
      <trkpt lat="46.65734" lon="0.46196">
        <ele>104.6</ele>
        <time>2024-02-18T08:26:52Z</time>
      </trkpt>
      <trkpt lat="46.65723" lon="0.46187">
        <ele>105.4</ele>
        <time>2024-02-18T08:26:56Z</time>
      </trkpt>
      <trkpt lat="46.65717" lon="0.4618">
        <ele>105</ele>
        <time>2024-02-18T08:26:58Z</time>
      </trkpt>
      <trkpt lat="46.65715" lon="0.46177">
        <ele>105</ele>
        <time>2024-02-18T08:26:59Z</time>
      </trkpt>
      <trkpt lat="46.65705" lon="0.46162">
        <ele>104.4</ele>
        <time>2024-02-18T08:27:03Z</time>
      </trkpt>
      <trkpt lat="46.65701" lon="0.46159">
        <ele>104.6</ele>
        <time>2024-02-18T08:27:04Z</time>
      </trkpt>
      <trkpt lat="46.65692" lon="0.46152">
        <ele>104.8</ele>
        <time>2024-02-18T08:27:06Z</time>
      </trkpt>
      <trkpt lat="46.65685" lon="0.46146">
        <ele>104.8</ele>
        <time>2024-02-18T08:27:08Z</time>
      </trkpt>
      <trkpt lat="46.65679" lon="0.46136">
        <ele>104.8</ele>
        <time>2024-02-18T08:27:10Z</time>
      </trkpt>
      <trkpt lat="46.65674" lon="0.4613">
        <ele>104.6</ele>
        <time>2024-02-18T08:27:12Z</time>
      </trkpt>
      <trkpt lat="46.65651" lon="0.46111">
        <ele>105.2</ele>
        <time>2024-02-18T08:27:19Z</time>
      </trkpt>
      <trkpt lat="46.65648" lon="0.46108">
        <ele>105.2</ele>
        <time>2024-02-18T08:27:20Z</time>
      </trkpt>
      <trkpt lat="46.65644" lon="0.46098">
        <ele>105.2</ele>
        <time>2024-02-18T08:27:23Z</time>
      </trkpt>
      <trkpt lat="46.65639" lon="0.46089">
        <ele>105.2</ele>
        <time>2024-02-18T08:27:27Z</time>
      </trkpt>
      <trkpt lat="46.65634" lon="0.46083">
        <ele>105.2</ele>
        <time>2024-02-18T08:27:29Z</time>
      </trkpt>
      <trkpt lat="46.65625" lon="0.46073">
        <ele>105.2</ele>
        <time>2024-02-18T08:27:32Z</time>
      </trkpt>
      <trkpt lat="46.6562" lon="0.46063">
        <ele>105.2</ele>
        <time>2024-02-18T08:27:34Z</time>
      </trkpt>
      <trkpt lat="46.65619" lon="0.46052">
        <ele>105.4</ele>
        <time>2024-02-18T08:27:37Z</time>
      </trkpt>
      <trkpt lat="46.65614" lon="0.46043">
        <ele>105.6</ele>
        <time>2024-02-18T08:27:40Z</time>
      </trkpt>
      <trkpt lat="46.6561" lon="0.46036">
        <ele>105.8</ele>
        <time>2024-02-18T08:27:42Z</time>
      </trkpt>
      <trkpt lat="46.65601" lon="0.46032">
        <ele>106.2</ele>
        <time>2024-02-18T08:27:45Z</time>
      </trkpt>
      <trkpt lat="46.65596" lon="0.46029">
        <ele>106.2</ele>
        <time>2024-02-18T08:27:47Z</time>
      </trkpt>
      <trkpt lat="46.65592" lon="0.46029">
        <ele>106.2</ele>
        <time>2024-02-18T08:27:49Z</time>
      </trkpt>
      <trkpt lat="46.65589" lon="0.46027">
        <ele>106.2</ele>
        <time>2024-02-18T08:27:50Z</time>
      </trkpt>
      <trkpt lat="46.65579" lon="0.46023">
        <ele>106</ele>
        <time>2024-02-18T08:27:54Z</time>
      </trkpt>
      <trkpt lat="46.65568" lon="0.4602">
        <ele>106.4</ele>
        <time>2024-02-18T08:27:58Z</time>
      </trkpt>
      <trkpt lat="46.65561" lon="0.46018">
        <ele>106.6</ele>
        <time>2024-02-18T08:28:00Z</time>
      </trkpt>
      <trkpt lat="46.65549" lon="0.46013">
        <ele>106.8</ele>
        <time>2024-02-18T08:28:05Z</time>
      </trkpt>
      <trkpt lat="46.65549" lon="0.4601">
        <ele>106.8</ele>
        <time>2024-02-18T08:28:07Z</time>
      </trkpt>
      <trkpt lat="46.65549" lon="0.46006">
        <ele>106.6</ele>
        <time>2024-02-18T08:28:09Z</time>
      </trkpt>
      <trkpt lat="46.6555" lon="0.46004">
        <ele>106.6</ele>
        <time>2024-02-18T08:28:10Z</time>
      </trkpt>
      <trkpt lat="46.6555" lon="0.45997">
        <ele>106.4</ele>
        <time>2024-02-18T08:28:14Z</time>
      </trkpt>
      <trkpt lat="46.65549" lon="0.45996">
        <ele>106.6</ele>
        <time>2024-02-18T08:28:15Z</time>
      </trkpt>
      <trkpt lat="46.6554" lon="0.45986">
        <ele>106.6</ele>
        <time>2024-02-18T08:28:20Z</time>
      </trkpt>
      <trkpt lat="46.65526" lon="0.4598">
        <ele>106.6</ele>
        <time>2024-02-18T08:28:25Z</time>
      </trkpt>
      <trkpt lat="46.65522" lon="0.45977">
        <ele>106.8</ele>
        <time>2024-02-18T08:28:27Z</time>
      </trkpt>
      <trkpt lat="46.6552" lon="0.45971">
        <ele>107</ele>
        <time>2024-02-18T08:28:29Z</time>
      </trkpt>
      <trkpt lat="46.65518" lon="0.45968">
        <ele>107</ele>
        <time>2024-02-18T08:28:30Z</time>
      </trkpt>
      <trkpt lat="46.65512" lon="0.45965">
        <ele>107</ele>
        <time>2024-02-18T08:28:33Z</time>
      </trkpt>
      <trkpt lat="46.65501" lon="0.45962">
        <ele>107</ele>
        <time>2024-02-18T08:28:38Z</time>
      </trkpt>
      <trkpt lat="46.6549" lon="0.45955">
        <ele>107.4</ele>
        <time>2024-02-18T08:28:42Z</time>
      </trkpt>
      <trkpt lat="46.65487" lon="0.45955">
        <ele>107.4</ele>
        <time>2024-02-18T08:28:43Z</time>
      </trkpt>
      <trkpt lat="46.65475" lon="0.45954">
        <ele>107.8</ele>
        <time>2024-02-18T08:28:47Z</time>
      </trkpt>
      <trkpt lat="46.65465" lon="0.4596">
        <ele>108.4</ele>
        <time>2024-02-18T08:28:52Z</time>
      </trkpt>
      <trkpt lat="46.65463" lon="0.4596">
        <ele>108.6</ele>
        <time>2024-02-18T08:28:53Z</time>
      </trkpt>
      <trkpt lat="46.65448" lon="0.45963">
        <ele>109.4</ele>
        <time>2024-02-18T08:28:58Z</time>
      </trkpt>
      <trkpt lat="46.65446" lon="0.45962">
        <ele>109.2</ele>
        <time>2024-02-18T08:28:59Z</time>
      </trkpt>
      <trkpt lat="46.65437" lon="0.4596">
        <ele>109.6</ele>
        <time>2024-02-18T08:29:03Z</time>
      </trkpt>
      <trkpt lat="46.65433" lon="0.45961">
        <ele>109.6</ele>
        <time>2024-02-18T08:29:04Z</time>
      </trkpt>
      <trkpt lat="46.65409" lon="0.4597">
        <ele>110.2</ele>
        <time>2024-02-18T08:29:10Z</time>
      </trkpt>
      <trkpt lat="46.65402" lon="0.45973">
        <ele>110.8</ele>
        <time>2024-02-18T08:29:12Z</time>
      </trkpt>
      <trkpt lat="46.65399" lon="0.45977">
        <ele>111</ele>
        <time>2024-02-18T08:29:14Z</time>
      </trkpt>
      <trkpt lat="46.65393" lon="0.45987">
        <ele>111.6</ele>
        <time>2024-02-18T08:29:18Z</time>
      </trkpt>
      <trkpt lat="46.65381" lon="0.46005">
        <ele>112.2</ele>
        <time>2024-02-18T08:29:23Z</time>
      </trkpt>
      <trkpt lat="46.65369" lon="0.46022">
        <ele>113.2</ele>
        <time>2024-02-18T08:29:28Z</time>
      </trkpt>
      <trkpt lat="46.65368" lon="0.46024">
        <ele>113.2</ele>
        <time>2024-02-18T08:29:29Z</time>
      </trkpt>
      <trkpt lat="46.65367" lon="0.46031">
        <ele>113.2</ele>
        <time>2024-02-18T08:29:31Z</time>
      </trkpt>
      <trkpt lat="46.65367" lon="0.46043">
        <ele>113.2</ele>
        <time>2024-02-18T08:29:34Z</time>
      </trkpt>
      <trkpt lat="46.65366" lon="0.46048">
        <ele>113.4</ele>
        <time>2024-02-18T08:29:35Z</time>
      </trkpt>
      <trkpt lat="46.65357" lon="0.4607">
        <ele>114</ele>
        <time>2024-02-18T08:29:40Z</time>
      </trkpt>
      <trkpt lat="46.65351" lon="0.46082">
        <ele>114.2</ele>
        <time>2024-02-18T08:29:42Z</time>
      </trkpt>
      <trkpt lat="46.6535" lon="0.46093">
        <ele>114.6</ele>
        <time>2024-02-18T08:29:44Z</time>
      </trkpt>
      <trkpt lat="46.65348" lon="0.46097">
        <ele>114.8</ele>
        <time>2024-02-18T08:29:45Z</time>
      </trkpt>
      <trkpt lat="46.65342" lon="0.46111">
        <ele>115</ele>
        <time>2024-02-18T08:29:48Z</time>
      </trkpt>
      <trkpt lat="46.65334" lon="0.46128">
        <ele>115.2</ele>
        <time>2024-02-18T08:29:51Z</time>
      </trkpt>
      <trkpt lat="46.65332" lon="0.46132">
        <ele>115.6</ele>
        <time>2024-02-18T08:29:52Z</time>
      </trkpt>
      <trkpt lat="46.65328" lon="0.4614">
        <ele>116</ele>
        <time>2024-02-18T08:29:54Z</time>
      </trkpt>
      <trkpt lat="46.65326" lon="0.46145">
        <ele>116.2</ele>
        <time>2024-02-18T08:29:55Z</time>
      </trkpt>
      <trkpt lat="46.65323" lon="0.46151">
        <ele>116.2</ele>
        <time>2024-02-18T08:29:56Z</time>
      </trkpt>
      <trkpt lat="46.65315" lon="0.46164">
        <ele>116.6</ele>
        <time>2024-02-18T08:29:59Z</time>
      </trkpt>
      <trkpt lat="46.65311" lon="0.46168">
        <ele>116.8</ele>
        <time>2024-02-18T08:30:00Z</time>
      </trkpt>
      <trkpt lat="46.65304" lon="0.46177">
        <ele>117.2</ele>
        <time>2024-02-18T08:30:02Z</time>
      </trkpt>
      <trkpt lat="46.65301" lon="0.46181">
        <ele>117.4</ele>
        <time>2024-02-18T08:30:03Z</time>
      </trkpt>
      <trkpt lat="46.65299" lon="0.46185">
        <ele>117.4</ele>
        <time>2024-02-18T08:30:04Z</time>
      </trkpt>
      <trkpt lat="46.65297" lon="0.46194">
        <ele>117.6</ele>
        <time>2024-02-18T08:30:06Z</time>
      </trkpt>
      <trkpt lat="46.65298" lon="0.46201">
        <ele>117.6</ele>
        <time>2024-02-18T08:30:08Z</time>
      </trkpt>
      <trkpt lat="46.65299" lon="0.46203">
        <ele>117.6</ele>
        <time>2024-02-18T08:30:09Z</time>
      </trkpt>
      <trkpt lat="46.65302" lon="0.46206">
        <ele>117.6</ele>
        <time>2024-02-18T08:30:11Z</time>
      </trkpt>
      <trkpt lat="46.65301" lon="0.46213">
        <ele>117.6</ele>
        <time>2024-02-18T08:30:13Z</time>
      </trkpt>
      <trkpt lat="46.65301" lon="0.46236">
        <ele>117.4</ele>
        <time>2024-02-18T08:30:17Z</time>
      </trkpt>
      <trkpt lat="46.65304" lon="0.46249">
        <ele>117</ele>
        <time>2024-02-18T08:30:19Z</time>
      </trkpt>
      <trkpt lat="46.65309" lon="0.46261">
        <ele>116.8</ele>
        <time>2024-02-18T08:30:21Z</time>
      </trkpt>
      <trkpt lat="46.65314" lon="0.46274">
        <ele>116.8</ele>
        <time>2024-02-18T08:30:23Z</time>
      </trkpt>
      <trkpt lat="46.65319" lon="0.46286">
        <ele>116.4</ele>
        <time>2024-02-18T08:30:25Z</time>
      </trkpt>
      <trkpt lat="46.65323" lon="0.46293">
        <ele>116.2</ele>
        <time>2024-02-18T08:30:26Z</time>
      </trkpt>
      <trkpt lat="46.65329" lon="0.46304">
        <ele>116</ele>
        <time>2024-02-18T08:30:28Z</time>
      </trkpt>
      <trkpt lat="46.65338" lon="0.46326">
        <ele>115.8</ele>
        <time>2024-02-18T08:30:31Z</time>
      </trkpt>
      <trkpt lat="46.65345" lon="0.46335">
        <ele>115.6</ele>
        <time>2024-02-18T08:30:33Z</time>
      </trkpt>
      <trkpt lat="46.65356" lon="0.46352">
        <ele>115.4</ele>
        <time>2024-02-18T08:30:36Z</time>
      </trkpt>
      <trkpt lat="46.65365" lon="0.46368">
        <ele>115.2</ele>
        <time>2024-02-18T08:30:39Z</time>
      </trkpt>
      <trkpt lat="46.65367" lon="0.46373">
        <ele>115</ele>
        <time>2024-02-18T08:30:40Z</time>
      </trkpt>
      <trkpt lat="46.65371" lon="0.46383">
        <ele>114.4</ele>
        <time>2024-02-18T08:30:42Z</time>
      </trkpt>
      <trkpt lat="46.65373" lon="0.46388">
        <ele>114.4</ele>
        <time>2024-02-18T08:30:43Z</time>
      </trkpt>
      <trkpt lat="46.65387" lon="0.46411">
        <ele>114</ele>
        <time>2024-02-18T08:30:49Z</time>
      </trkpt>
      <trkpt lat="46.65396" lon="0.4643">
        <ele>113.8</ele>
        <time>2024-02-18T08:30:54Z</time>
      </trkpt>
      <trkpt lat="46.65411" lon="0.46452">
        <ele>113.4</ele>
        <time>2024-02-18T08:30:59Z</time>
      </trkpt>
      <trkpt lat="46.65421" lon="0.46471">
        <ele>113</ele>
        <time>2024-02-18T08:31:03Z</time>
      </trkpt>
      <trkpt lat="46.65428" lon="0.46488">
        <ele>112.6</ele>
        <time>2024-02-18T08:31:06Z</time>
      </trkpt>
      <trkpt lat="46.65446" lon="0.46525">
        <ele>112.2</ele>
        <time>2024-02-18T08:31:12Z</time>
      </trkpt>
      <trkpt lat="46.65458" lon="0.46548">
        <ele>112.2</ele>
        <time>2024-02-18T08:31:16Z</time>
      </trkpt>
      <trkpt lat="46.65467" lon="0.46568">
        <ele>111.6</ele>
        <time>2024-02-18T08:31:19Z</time>
      </trkpt>
      <trkpt lat="46.6548" lon="0.46592">
        <ele>110.8</ele>
        <time>2024-02-18T08:31:24Z</time>
      </trkpt>
      <trkpt lat="46.65481" lon="0.46595">
        <ele>110.6</ele>
        <time>2024-02-18T08:31:25Z</time>
      </trkpt>
      <trkpt lat="46.65491" lon="0.46612">
        <ele>110.4</ele>
        <time>2024-02-18T08:31:30Z</time>
      </trkpt>
      <trkpt lat="46.65502" lon="0.46638">
        <ele>110.4</ele>
        <time>2024-02-18T08:31:36Z</time>
      </trkpt>
      <trkpt lat="46.6551" lon="0.46654">
        <ele>109.6</ele>
        <time>2024-02-18T08:31:40Z</time>
      </trkpt>
      <trkpt lat="46.65513" lon="0.46661">
        <ele>109.2</ele>
        <time>2024-02-18T08:31:42Z</time>
      </trkpt>
      <trkpt lat="46.65523" lon="0.46684">
        <ele>108.8</ele>
        <time>2024-02-18T08:31:48Z</time>
      </trkpt>
      <trkpt lat="46.65536" lon="0.46708">
        <ele>108.4</ele>
        <time>2024-02-18T08:31:53Z</time>
      </trkpt>
      <trkpt lat="46.65541" lon="0.4672">
        <ele>108.6</ele>
        <time>2024-02-18T08:31:55Z</time>
      </trkpt>
      <trkpt lat="46.65551" lon="0.46746">
        <ele>108</ele>
        <time>2024-02-18T08:32:00Z</time>
      </trkpt>
      <trkpt lat="46.65553" lon="0.46751">
        <ele>108</ele>
        <time>2024-02-18T08:32:01Z</time>
      </trkpt>
      <trkpt lat="46.65555" lon="0.46757">
        <ele>107.8</ele>
        <time>2024-02-18T08:32:02Z</time>
      </trkpt>
      <trkpt lat="46.65561" lon="0.46771">
        <ele>107.4</ele>
        <time>2024-02-18T08:32:05Z</time>
      </trkpt>
      <trkpt lat="46.65565" lon="0.46775">
        <ele>107.4</ele>
        <time>2024-02-18T08:32:06Z</time>
      </trkpt>
      <trkpt lat="46.65574" lon="0.46789">
        <ele>107.6</ele>
        <time>2024-02-18T08:32:09Z</time>
      </trkpt>
      <trkpt lat="46.65583" lon="0.46806">
        <ele>108.2</ele>
        <time>2024-02-18T08:32:12Z</time>
      </trkpt>
      <trkpt lat="46.65589" lon="0.46818">
        <ele>108.6</ele>
        <time>2024-02-18T08:32:14Z</time>
      </trkpt>
      <trkpt lat="46.65597" lon="0.46836">
        <ele>109.2</ele>
        <time>2024-02-18T08:32:17Z</time>
      </trkpt>
      <trkpt lat="46.65601" lon="0.46844">
        <ele>109.4</ele>
        <time>2024-02-18T08:32:19Z</time>
      </trkpt>
      <trkpt lat="46.65604" lon="0.46849">
        <ele>109.6</ele>
        <time>2024-02-18T08:32:21Z</time>
      </trkpt>
      <trkpt lat="46.65608" lon="0.46861">
        <ele>109.8</ele>
        <time>2024-02-18T08:32:24Z</time>
      </trkpt>
      <trkpt lat="46.6561" lon="0.46866">
        <ele>110.2</ele>
        <time>2024-02-18T08:32:26Z</time>
      </trkpt>
      <trkpt lat="46.65614" lon="0.46876">
        <ele>110.4</ele>
        <time>2024-02-18T08:32:29Z</time>
      </trkpt>
      <trkpt lat="46.65618" lon="0.46885">
        <ele>110.8</ele>
        <time>2024-02-18T08:32:31Z</time>
      </trkpt>
      <trkpt lat="46.65632" lon="0.4691">
        <ele>111.4</ele>
        <time>2024-02-18T08:32:37Z</time>
      </trkpt>
      <trkpt lat="46.65638" lon="0.46923">
        <ele>111.6</ele>
        <time>2024-02-18T08:32:40Z</time>
      </trkpt>
      <trkpt lat="46.65646" lon="0.4694">
        <ele>112.2</ele>
        <time>2024-02-18T08:32:44Z</time>
      </trkpt>
      <trkpt lat="46.65649" lon="0.46946">
        <ele>112.4</ele>
        <time>2024-02-18T08:32:46Z</time>
      </trkpt>
      <trkpt lat="46.65655" lon="0.46955">
        <ele>112.4</ele>
        <time>2024-02-18T08:32:49Z</time>
      </trkpt>
      <trkpt lat="46.65656" lon="0.46957">
        <ele>112.4</ele>
        <time>2024-02-18T08:32:50Z</time>
      </trkpt>
      <trkpt lat="46.65657" lon="0.4696">
        <ele>112.6</ele>
        <time>2024-02-18T08:32:51Z</time>
      </trkpt>
      <trkpt lat="46.6566" lon="0.46966">
        <ele>112.6</ele>
        <time>2024-02-18T08:32:54Z</time>
      </trkpt>
      <trkpt lat="46.65662" lon="0.46974">
        <ele>112.8</ele>
        <time>2024-02-18T08:32:58Z</time>
      </trkpt>
      <trkpt lat="46.65663" lon="0.46982">
        <ele>112.8</ele>
        <time>2024-02-18T08:33:02Z</time>
      </trkpt>
      <trkpt lat="46.65665" lon="0.46996">
        <ele>113</ele>
        <time>2024-02-18T08:33:07Z</time>
      </trkpt>
      <trkpt lat="46.65665" lon="0.46998">
        <ele>113</ele>
        <time>2024-02-18T08:33:08Z</time>
      </trkpt>
      <trkpt lat="46.65662" lon="0.47012">
        <ele>113.4</ele>
        <time>2024-02-18T08:33:16Z</time>
      </trkpt>
      <trkpt lat="46.65662" lon="0.47015">
        <ele>113.4</ele>
        <time>2024-02-18T08:33:17Z</time>
      </trkpt>
      <trkpt lat="46.65659" lon="0.47022">
        <ele>113.6</ele>
        <time>2024-02-18T08:33:19Z</time>
      </trkpt>
      <trkpt lat="46.65654" lon="0.47031">
        <ele>113.8</ele>
        <time>2024-02-18T08:33:21Z</time>
      </trkpt>
      <trkpt lat="46.65643" lon="0.47054">
        <ele>114.6</ele>
        <time>2024-02-18T08:33:27Z</time>
      </trkpt>
      <trkpt lat="46.65641" lon="0.47057">
        <ele>114.8</ele>
        <time>2024-02-18T08:33:28Z</time>
      </trkpt>
      <trkpt lat="46.65635" lon="0.47068">
        <ele>115.8</ele>
        <time>2024-02-18T08:33:31Z</time>
      </trkpt>
      <trkpt lat="46.65622" lon="0.47093">
        <ele>116.6</ele>
        <time>2024-02-18T08:33:38Z</time>
      </trkpt>
      <trkpt lat="46.6562" lon="0.47096">
        <ele>116.8</ele>
        <time>2024-02-18T08:33:39Z</time>
      </trkpt>
      <trkpt lat="46.65612" lon="0.47111">
        <ele>118</ele>
        <time>2024-02-18T08:33:43Z</time>
      </trkpt>
      <trkpt lat="46.65608" lon="0.47118">
        <ele>118.4</ele>
        <time>2024-02-18T08:33:45Z</time>
      </trkpt>
      <trkpt lat="46.65601" lon="0.47134">
        <ele>119.2</ele>
        <time>2024-02-18T08:33:49Z</time>
      </trkpt>
      <trkpt lat="46.65597" lon="0.47141">
        <ele>119.6</ele>
        <time>2024-02-18T08:33:51Z</time>
      </trkpt>
      <trkpt lat="46.65584" lon="0.47166">
        <ele>120.2</ele>
        <time>2024-02-18T08:33:58Z</time>
      </trkpt>
      <trkpt lat="46.65583" lon="0.47168">
        <ele>120.2</ele>
        <time>2024-02-18T08:33:59Z</time>
      </trkpt>
      <trkpt lat="46.6558" lon="0.47175">
        <ele>121.6</ele>
        <time>2024-02-18T08:34:02Z</time>
      </trkpt>
      <trkpt lat="46.65576" lon="0.47182">
        <ele>122.8</ele>
        <time>2024-02-18T08:34:05Z</time>
      </trkpt>
      <trkpt lat="46.65575" lon="0.47184">
        <ele>123</ele>
        <time>2024-02-18T08:34:06Z</time>
      </trkpt>
      <trkpt lat="46.65572" lon="0.4719">
        <ele>123.8</ele>
        <time>2024-02-18T08:34:08Z</time>
      </trkpt>
      <trkpt lat="46.65565" lon="0.47201">
        <ele>124.6</ele>
        <time>2024-02-18T08:34:12Z</time>
      </trkpt>
      <trkpt lat="46.65563" lon="0.47204">
        <ele>124.8</ele>
        <time>2024-02-18T08:34:13Z</time>
      </trkpt>
      <trkpt lat="46.65555" lon="0.47218">
        <ele>126.2</ele>
        <time>2024-02-18T08:34:18Z</time>
      </trkpt>
      <trkpt lat="46.65553" lon="0.47221">
        <ele>126.4</ele>
        <time>2024-02-18T08:34:19Z</time>
      </trkpt>
      <trkpt lat="46.65543" lon="0.47237">
        <ele>127.2</ele>
        <time>2024-02-18T08:34:24Z</time>
      </trkpt>
      <trkpt lat="46.65541" lon="0.4724">
        <ele>127.4</ele>
        <time>2024-02-18T08:34:25Z</time>
      </trkpt>
      <trkpt lat="46.65537" lon="0.47249">
        <ele>128.2</ele>
        <time>2024-02-18T08:34:28Z</time>
      </trkpt>
      <trkpt lat="46.65533" lon="0.47255">
        <ele>128.4</ele>
        <time>2024-02-18T08:34:30Z</time>
      </trkpt>
      <trkpt lat="46.65522" lon="0.4727">
        <ele>129.4</ele>
        <time>2024-02-18T08:34:35Z</time>
      </trkpt>
      <trkpt lat="46.65521" lon="0.47273">
        <ele>129.6</ele>
        <time>2024-02-18T08:34:36Z</time>
      </trkpt>
      <trkpt lat="46.65515" lon="0.47286">
        <ele>130.8</ele>
        <time>2024-02-18T08:34:41Z</time>
      </trkpt>
      <trkpt lat="46.65506" lon="0.47301">
        <ele>131.4</ele>
        <time>2024-02-18T08:34:46Z</time>
      </trkpt>
      <trkpt lat="46.65503" lon="0.47307">
        <ele>131.8</ele>
        <time>2024-02-18T08:34:48Z</time>
      </trkpt>
      <trkpt lat="46.65494" lon="0.47322">
        <ele>132.4</ele>
        <time>2024-02-18T08:34:52Z</time>
      </trkpt>
      <trkpt lat="46.65487" lon="0.47334">
        <ele>133.2</ele>
        <time>2024-02-18T08:34:56Z</time>
      </trkpt>
      <trkpt lat="46.65484" lon="0.47339">
        <ele>133.8</ele>
        <time>2024-02-18T08:34:58Z</time>
      </trkpt>
      <trkpt lat="46.65475" lon="0.4736">
        <ele>134.2</ele>
        <time>2024-02-18T08:35:05Z</time>
      </trkpt>
      <trkpt lat="46.65474" lon="0.47364">
        <ele>134.2</ele>
        <time>2024-02-18T08:35:06Z</time>
      </trkpt>
      <trkpt lat="46.65469" lon="0.47389">
        <ele>134.8</ele>
        <time>2024-02-18T08:35:12Z</time>
      </trkpt>
      <trkpt lat="46.65471" lon="0.47408">
        <ele>135.4</ele>
        <time>2024-02-18T08:35:16Z</time>
      </trkpt>
      <trkpt lat="46.6547" lon="0.47413">
        <ele>135.6</ele>
        <time>2024-02-18T08:35:17Z</time>
      </trkpt>
      <trkpt lat="46.65467" lon="0.47441">
        <ele>136.4</ele>
        <time>2024-02-18T08:35:22Z</time>
      </trkpt>
      <trkpt lat="46.65466" lon="0.47453">
        <ele>136.6</ele>
        <time>2024-02-18T08:35:24Z</time>
      </trkpt>
      <trkpt lat="46.65461" lon="0.47471">
        <ele>136.6</ele>
        <time>2024-02-18T08:35:27Z</time>
      </trkpt>
      <trkpt lat="46.65458" lon="0.47484">
        <ele>136.6</ele>
        <time>2024-02-18T08:35:29Z</time>
      </trkpt>
      <trkpt lat="46.65456" lon="0.47498">
        <ele>136.8</ele>
        <time>2024-02-18T08:35:31Z</time>
      </trkpt>
      <trkpt lat="46.65452" lon="0.47512">
        <ele>137.2</ele>
        <time>2024-02-18T08:35:33Z</time>
      </trkpt>
      <trkpt lat="46.6545" lon="0.47531">
        <ele>137.4</ele>
        <time>2024-02-18T08:35:36Z</time>
      </trkpt>
      <trkpt lat="46.65448" lon="0.47538">
        <ele>137.2</ele>
        <time>2024-02-18T08:35:37Z</time>
      </trkpt>
      <trkpt lat="46.65443" lon="0.47566">
        <ele>137.2</ele>
        <time>2024-02-18T08:35:41Z</time>
      </trkpt>
      <trkpt lat="46.65441" lon="0.47573">
        <ele>137</ele>
        <time>2024-02-18T08:35:42Z</time>
      </trkpt>
      <trkpt lat="46.6544" lon="0.4758">
        <ele>136.6</ele>
        <time>2024-02-18T08:35:43Z</time>
      </trkpt>
      <trkpt lat="46.65437" lon="0.47594">
        <ele>136</ele>
        <time>2024-02-18T08:35:45Z</time>
      </trkpt>
      <trkpt lat="46.65434" lon="0.4761">
        <ele>135.4</ele>
        <time>2024-02-18T08:35:47Z</time>
      </trkpt>
      <trkpt lat="46.65432" lon="0.47626">
        <ele>135</ele>
        <time>2024-02-18T08:35:49Z</time>
      </trkpt>
      <trkpt lat="46.65426" lon="0.47648">
        <ele>134.6</ele>
        <time>2024-02-18T08:35:52Z</time>
      </trkpt>
      <trkpt lat="46.65425" lon="0.47656">
        <ele>134.2</ele>
        <time>2024-02-18T08:35:53Z</time>
      </trkpt>
      <trkpt lat="46.65424" lon="0.47663">
        <ele>133.6</ele>
        <time>2024-02-18T08:35:54Z</time>
      </trkpt>
      <trkpt lat="46.65424" lon="0.4767">
        <ele>133</ele>
        <time>2024-02-18T08:35:55Z</time>
      </trkpt>
      <trkpt lat="46.65424" lon="0.47678">
        <ele>132.6</ele>
        <time>2024-02-18T08:35:56Z</time>
      </trkpt>
      <trkpt lat="46.65423" lon="0.47693">
        <ele>131.8</ele>
        <time>2024-02-18T08:35:58Z</time>
      </trkpt>
      <trkpt lat="46.65422" lon="0.47699">
        <ele>131.4</ele>
        <time>2024-02-18T08:35:59Z</time>
      </trkpt>
      <trkpt lat="46.65421" lon="0.47709">
        <ele>130.8</ele>
        <time>2024-02-18T08:36:01Z</time>
      </trkpt>
      <trkpt lat="46.65421" lon="0.47712">
        <ele>130.6</ele>
        <time>2024-02-18T08:36:02Z</time>
      </trkpt>
      <trkpt lat="46.65422" lon="0.47733">
        <ele>130</ele>
        <time>2024-02-18T08:36:06Z</time>
      </trkpt>
      <trkpt lat="46.65421" lon="0.4774">
        <ele>129.6</ele>
        <time>2024-02-18T08:36:07Z</time>
      </trkpt>
      <trkpt lat="46.65418" lon="0.47755">
        <ele>128.2</ele>
        <time>2024-02-18T08:36:09Z</time>
      </trkpt>
      <trkpt lat="46.65415" lon="0.47772">
        <ele>127.2</ele>
        <time>2024-02-18T08:36:11Z</time>
      </trkpt>
      <trkpt lat="46.65413" lon="0.47779">
        <ele>126.4</ele>
        <time>2024-02-18T08:36:12Z</time>
      </trkpt>
      <trkpt lat="46.65411" lon="0.47798">
        <ele>125.6</ele>
        <time>2024-02-18T08:36:15Z</time>
      </trkpt>
      <trkpt lat="46.65411" lon="0.47803">
        <ele>125.4</ele>
        <time>2024-02-18T08:36:16Z</time>
      </trkpt>
      <trkpt lat="46.6541" lon="0.47807">
        <ele>125.4</ele>
        <time>2024-02-18T08:36:17Z</time>
      </trkpt>
      <trkpt lat="46.65407" lon="0.47814">
        <ele>124.8</ele>
        <time>2024-02-18T08:36:19Z</time>
      </trkpt>
      <trkpt lat="46.65406" lon="0.47818">
        <ele>124.4</ele>
        <time>2024-02-18T08:36:20Z</time>
      </trkpt>
      <trkpt lat="46.65405" lon="0.47823">
        <ele>124</ele>
        <time>2024-02-18T08:36:21Z</time>
      </trkpt>
      <trkpt lat="46.65399" lon="0.47843">
        <ele>123.6</ele>
        <time>2024-02-18T08:36:24Z</time>
      </trkpt>
      <trkpt lat="46.65396" lon="0.4786">
        <ele>123</ele>
        <time>2024-02-18T08:36:26Z</time>
      </trkpt>
      <trkpt lat="46.65389" lon="0.47889">
        <ele>122</ele>
        <time>2024-02-18T08:36:30Z</time>
      </trkpt>
      <trkpt lat="46.65376" lon="0.47926">
        <ele>121.4</ele>
        <time>2024-02-18T08:36:35Z</time>
      </trkpt>
      <trkpt lat="46.65375" lon="0.47935">
        <ele>121.2</ele>
        <time>2024-02-18T08:36:36Z</time>
      </trkpt>
      <trkpt lat="46.65373" lon="0.47943">
        <ele>121</ele>
        <time>2024-02-18T08:36:37Z</time>
      </trkpt>
      <trkpt lat="46.65372" lon="0.47951">
        <ele>120.8</ele>
        <time>2024-02-18T08:36:38Z</time>
      </trkpt>
      <trkpt lat="46.65367" lon="0.47975">
        <ele>120.8</ele>
        <time>2024-02-18T08:36:41Z</time>
      </trkpt>
      <trkpt lat="46.65361" lon="0.48025">
        <ele>120.2</ele>
        <time>2024-02-18T08:36:46Z</time>
      </trkpt>
      <trkpt lat="46.65361" lon="0.48039">
        <ele>119.8</ele>
        <time>2024-02-18T08:36:48Z</time>
      </trkpt>
      <trkpt lat="46.6536" lon="0.48051">
        <ele>119.8</ele>
        <time>2024-02-18T08:36:50Z</time>
      </trkpt>
      <trkpt lat="46.65355" lon="0.48067">
        <ele>119.4</ele>
        <time>2024-02-18T08:36:53Z</time>
      </trkpt>
      <trkpt lat="46.65352" lon="0.48073">
        <ele>119.4</ele>
        <time>2024-02-18T08:36:54Z</time>
      </trkpt>
      <trkpt lat="46.65349" lon="0.48081">
        <ele>119</ele>
        <time>2024-02-18T08:36:55Z</time>
      </trkpt>
      <trkpt lat="46.65347" lon="0.48088">
        <ele>118.6</ele>
        <time>2024-02-18T08:36:56Z</time>
      </trkpt>
      <trkpt lat="46.65344" lon="0.48096">
        <ele>118.4</ele>
        <time>2024-02-18T08:36:57Z</time>
      </trkpt>
      <trkpt lat="46.65337" lon="0.4811">
        <ele>118.4</ele>
        <time>2024-02-18T08:36:59Z</time>
      </trkpt>
      <trkpt lat="46.65322" lon="0.48153">
        <ele>117.6</ele>
        <time>2024-02-18T08:37:05Z</time>
      </trkpt>
      <trkpt lat="46.65313" lon="0.4818">
        <ele>117.2</ele>
        <time>2024-02-18T08:37:09Z</time>
      </trkpt>
      <trkpt lat="46.6531" lon="0.48185">
        <ele>117</ele>
        <time>2024-02-18T08:37:10Z</time>
      </trkpt>
      <trkpt lat="46.65308" lon="0.4819">
        <ele>116.8</ele>
        <time>2024-02-18T08:37:11Z</time>
      </trkpt>
      <trkpt lat="46.65303" lon="0.48201">
        <ele>116.4</ele>
        <time>2024-02-18T08:37:13Z</time>
      </trkpt>
      <trkpt lat="46.653" lon="0.4821">
        <ele>116.2</ele>
        <time>2024-02-18T08:37:15Z</time>
      </trkpt>
      <trkpt lat="46.65296" lon="0.48225">
        <ele>115.8</ele>
        <time>2024-02-18T08:37:19Z</time>
      </trkpt>
      <trkpt lat="46.65291" lon="0.48231">
        <ele>115.8</ele>
        <time>2024-02-18T08:37:21Z</time>
      </trkpt>
      <trkpt lat="46.65283" lon="0.48245">
        <ele>115.4</ele>
        <time>2024-02-18T08:37:25Z</time>
      </trkpt>
      <trkpt lat="46.65278" lon="0.48256">
        <ele>115.4</ele>
        <time>2024-02-18T08:37:28Z</time>
      </trkpt>
      <trkpt lat="46.6527" lon="0.48283">
        <ele>115</ele>
        <time>2024-02-18T08:37:33Z</time>
      </trkpt>
      <trkpt lat="46.65263" lon="0.48309">
        <ele>115.2</ele>
        <time>2024-02-18T08:37:38Z</time>
      </trkpt>
      <trkpt lat="46.65264" lon="0.48327">
        <ele>114.4</ele>
        <time>2024-02-18T08:37:41Z</time>
      </trkpt>
      <trkpt lat="46.65264" lon="0.48332">
        <ele>114.2</ele>
        <time>2024-02-18T08:37:42Z</time>
      </trkpt>
      <trkpt lat="46.65265" lon="0.48338">
        <ele>114.2</ele>
        <time>2024-02-18T08:37:43Z</time>
      </trkpt>
      <trkpt lat="46.65268" lon="0.48354">
        <ele>114.4</ele>
        <time>2024-02-18T08:37:46Z</time>
      </trkpt>
      <trkpt lat="46.65271" lon="0.48365">
        <ele>115.2</ele>
        <time>2024-02-18T08:37:48Z</time>
      </trkpt>
      <trkpt lat="46.65273" lon="0.4837">
        <ele>115.6</ele>
        <time>2024-02-18T08:37:49Z</time>
      </trkpt>
      <trkpt lat="46.65279" lon="0.48383">
        <ele>115.8</ele>
        <time>2024-02-18T08:37:52Z</time>
      </trkpt>
      <trkpt lat="46.65283" lon="0.48392">
        <ele>116</ele>
        <time>2024-02-18T08:37:54Z</time>
      </trkpt>
      <trkpt lat="46.6529" lon="0.48413">
        <ele>116.2</ele>
        <time>2024-02-18T08:37:58Z</time>
      </trkpt>
      <trkpt lat="46.65292" lon="0.48418">
        <ele>116</ele>
        <time>2024-02-18T08:37:59Z</time>
      </trkpt>
      <trkpt lat="46.65294" lon="0.48424">
        <ele>116</ele>
        <time>2024-02-18T08:38:00Z</time>
      </trkpt>
      <trkpt lat="46.65299" lon="0.48439">
        <ele>116</ele>
        <time>2024-02-18T08:38:03Z</time>
      </trkpt>
      <trkpt lat="46.65302" lon="0.48452">
        <ele>116</ele>
        <time>2024-02-18T08:38:05Z</time>
      </trkpt>
      <trkpt lat="46.65305" lon="0.48462">
        <ele>116</ele>
        <time>2024-02-18T08:38:07Z</time>
      </trkpt>
      <trkpt lat="46.65308" lon="0.48476">
        <ele>116</ele>
        <time>2024-02-18T08:38:09Z</time>
      </trkpt>
      <trkpt lat="46.65309" lon="0.48481">
        <ele>115.8</ele>
        <time>2024-02-18T08:38:10Z</time>
      </trkpt>
      <trkpt lat="46.6531" lon="0.48487">
        <ele>115.6</ele>
        <time>2024-02-18T08:38:11Z</time>
      </trkpt>
      <trkpt lat="46.65314" lon="0.4852">
        <ele>115</ele>
        <time>2024-02-18T08:38:15Z</time>
      </trkpt>
      <trkpt lat="46.65318" lon="0.48554">
        <ele>113.8</ele>
        <time>2024-02-18T08:38:19Z</time>
      </trkpt>
      <trkpt lat="46.65318" lon="0.48568">
        <ele>113</ele>
        <time>2024-02-18T08:38:21Z</time>
      </trkpt>
      <trkpt lat="46.65318" lon="0.48573">
        <ele>112.8</ele>
        <time>2024-02-18T08:38:22Z</time>
      </trkpt>
      <trkpt lat="46.65318" lon="0.48585">
        <ele>112.4</ele>
        <time>2024-02-18T08:38:25Z</time>
      </trkpt>
      <trkpt lat="46.65318" lon="0.48603">
        <ele>112.2</ele>
        <time>2024-02-18T08:38:30Z</time>
      </trkpt>
      <trkpt lat="46.65319" lon="0.48606">
        <ele>112.2</ele>
        <time>2024-02-18T08:38:32Z</time>
      </trkpt>
      <trkpt lat="46.65318" lon="0.4861">
        <ele>112.2</ele>
        <time>2024-02-18T08:38:33Z</time>
      </trkpt>
      <trkpt lat="46.65317" lon="0.48628">
        <ele>112.2</ele>
        <time>2024-02-18T08:38:42Z</time>
      </trkpt>
      <trkpt lat="46.65317" lon="0.48632">
        <ele>112.2</ele>
        <time>2024-02-18T08:38:51Z</time>
      </trkpt>
      <trkpt lat="46.65317" lon="0.48633">
        <ele>112.2</ele>
        <time>2024-02-18T08:39:07Z</time>
      </trkpt>
      <trkpt lat="46.65317" lon="0.48634">
        <ele>112.2</ele>
        <time>2024-02-18T08:39:25Z</time>
      </trkpt>
      <trkpt lat="46.65317" lon="0.48634">
        <ele>112.2</ele>
        <time>2024-02-18T08:39:41Z</time>
      </trkpt>
      <trkpt lat="46.65318" lon="0.48635">
        <ele>112.2</ele>
        <time>2024-02-18T08:39:58Z</time>
      </trkpt>
      <trkpt lat="46.65317" lon="0.48635">
        <ele>112.2</ele>
        <time>2024-02-18T08:40:17Z</time>
      </trkpt>
      <trkpt lat="46.65317" lon="0.48635">
        <ele>112.2</ele>
        <time>2024-02-18T08:40:36Z</time>
      </trkpt>
      <trkpt lat="46.65317" lon="0.48635">
        <ele>112.2</ele>
        <time>2024-02-18T08:40:53Z</time>
      </trkpt>
      <trkpt lat="46.65317" lon="0.48636">
        <ele>112.2</ele>
        <time>2024-02-18T08:41:07Z</time>
      </trkpt>
      <trkpt lat="46.65317" lon="0.48637">
        <ele>112.2</ele>
        <time>2024-02-18T08:41:23Z</time>
      </trkpt>
      <trkpt lat="46.65317" lon="0.48639">
        <ele>112.2</ele>
        <time>2024-02-18T08:41:41Z</time>
      </trkpt>
      <trkpt lat="46.65317" lon="0.48639">
        <ele>112.2</ele>
        <time>2024-02-18T08:42:00Z</time>
      </trkpt>
      <trkpt lat="46.65316" lon="0.48639">
        <ele>112.2</ele>
        <time>2024-02-18T08:42:22Z</time>
      </trkpt>
      <trkpt lat="46.65316" lon="0.48641">
        <ele>112.2</ele>
        <time>2024-02-18T08:42:41Z</time>
      </trkpt>
      <trkpt lat="46.65316" lon="0.48642">
        <ele>112.2</ele>
        <time>2024-02-18T08:43:02Z</time>
      </trkpt>
      <trkpt lat="46.65316" lon="0.48643">
        <ele>112.2</ele>
        <time>2024-02-18T08:43:39Z</time>
      </trkpt>
      <trkpt lat="46.65315" lon="0.48643">
        <ele>112.2</ele>
        <time>2024-02-18T08:44:04Z</time>
      </trkpt>
      <trkpt lat="46.65315" lon="0.48643">
        <ele>112.2</ele>
        <time>2024-02-18T08:44:57Z</time>
      </trkpt>
      <trkpt lat="46.65315" lon="0.48644">
        <ele>112.2</ele>
        <time>2024-02-18T08:45:15Z</time>
      </trkpt>
      <trkpt lat="46.65314" lon="0.48645">
        <ele>112.2</ele>
        <time>2024-02-18T08:46:20Z</time>
      </trkpt>
      <trkpt lat="46.65314" lon="0.48645">
        <ele>112.2</ele>
        <time>2024-02-18T08:46:47Z</time>
      </trkpt>
      <trkpt lat="46.65312" lon="0.4865">
        <ele>112.2</ele>
        <time>2024-02-18T08:47:19Z</time>
      </trkpt>
      <trkpt lat="46.65309" lon="0.48669">
        <ele>112.2</ele>
        <time>2024-02-18T08:47:24Z</time>
      </trkpt>
      <trkpt lat="46.65307" lon="0.4869">
        <ele>114</ele>
        <time>2024-02-18T08:47:29Z</time>
      </trkpt>
      <trkpt lat="46.65304" lon="0.48715">
        <ele>115.2</ele>
        <time>2024-02-18T08:47:35Z</time>
      </trkpt>
      <trkpt lat="46.65298" lon="0.4874">
        <ele>116.2</ele>
        <time>2024-02-18T08:47:41Z</time>
      </trkpt>
      <trkpt lat="46.65295" lon="0.48766">
        <ele>116.8</ele>
        <time>2024-02-18T08:47:48Z</time>
      </trkpt>
      <trkpt lat="46.65292" lon="0.48777">
        <ele>117.4</ele>
        <time>2024-02-18T08:47:51Z</time>
      </trkpt>
      <trkpt lat="46.6529" lon="0.48796">
        <ele>117.6</ele>
        <time>2024-02-18T08:47:55Z</time>
      </trkpt>
      <trkpt lat="46.65288" lon="0.4881">
        <ele>118.4</ele>
        <time>2024-02-18T08:47:58Z</time>
      </trkpt>
      <trkpt lat="46.65283" lon="0.48829">
        <ele>119.4</ele>
        <time>2024-02-18T08:48:02Z</time>
      </trkpt>
      <trkpt lat="46.65282" lon="0.48833">
        <ele>119.6</ele>
        <time>2024-02-18T08:48:03Z</time>
      </trkpt>
      <trkpt lat="46.65281" lon="0.48857">
        <ele>120.4</ele>
        <time>2024-02-18T08:48:08Z</time>
      </trkpt>
      <trkpt lat="46.65281" lon="0.48865">
        <ele>120.6</ele>
        <time>2024-02-18T08:48:10Z</time>
      </trkpt>
      <trkpt lat="46.65283" lon="0.48877">
        <ele>121</ele>
        <time>2024-02-18T08:48:13Z</time>
      </trkpt>
      <trkpt lat="46.65286" lon="0.48892">
        <ele>121.8</ele>
        <time>2024-02-18T08:48:17Z</time>
      </trkpt>
      <trkpt lat="46.6529" lon="0.48904">
        <ele>122.2</ele>
        <time>2024-02-18T08:48:20Z</time>
      </trkpt>
      <trkpt lat="46.65295" lon="0.48934">
        <ele>122.8</ele>
        <time>2024-02-18T08:48:27Z</time>
      </trkpt>
      <trkpt lat="46.65296" lon="0.48966">
        <ele>123.2</ele>
        <time>2024-02-18T08:48:33Z</time>
      </trkpt>
      <trkpt lat="46.65291" lon="0.48989">
        <ele>123.4</ele>
        <time>2024-02-18T08:48:38Z</time>
      </trkpt>
      <trkpt lat="46.65289" lon="0.49014">
        <ele>124</ele>
        <time>2024-02-18T08:48:43Z</time>
      </trkpt>
      <trkpt lat="46.65287" lon="0.49049">
        <ele>125</ele>
        <time>2024-02-18T08:48:49Z</time>
      </trkpt>
      <trkpt lat="46.65287" lon="0.49054">
        <ele>125</ele>
        <time>2024-02-18T08:48:50Z</time>
      </trkpt>
      <trkpt lat="46.65287" lon="0.4908">
        <ele>124.4</ele>
        <time>2024-02-18T08:48:55Z</time>
      </trkpt>
      <trkpt lat="46.65294" lon="0.49113">
        <ele>125.6</ele>
        <time>2024-02-18T08:49:03Z</time>
      </trkpt>
      <trkpt lat="46.65295" lon="0.49122">
        <ele>125.8</ele>
        <time>2024-02-18T08:49:05Z</time>
      </trkpt>
      <trkpt lat="46.65293" lon="0.49134">
        <ele>126</ele>
        <time>2024-02-18T08:49:08Z</time>
      </trkpt>
      <trkpt lat="46.65291" lon="0.4915">
        <ele>125.6</ele>
        <time>2024-02-18T08:49:14Z</time>
      </trkpt>
      <trkpt lat="46.65288" lon="0.49172">
        <ele>125.8</ele>
        <time>2024-02-18T08:49:20Z</time>
      </trkpt>
      <trkpt lat="46.65282" lon="0.49193">
        <ele>125.2</ele>
        <time>2024-02-18T08:49:25Z</time>
      </trkpt>
      <trkpt lat="46.65277" lon="0.49217">
        <ele>125.4</ele>
        <time>2024-02-18T08:49:30Z</time>
      </trkpt>
      <trkpt lat="46.6527" lon="0.49245">
        <ele>125.2</ele>
        <time>2024-02-18T08:49:36Z</time>
      </trkpt>
      <trkpt lat="46.6527" lon="0.49249">
        <ele>125.2</ele>
        <time>2024-02-18T08:49:37Z</time>
      </trkpt>
      <trkpt lat="46.65268" lon="0.49263">
        <ele>125.2</ele>
        <time>2024-02-18T08:49:40Z</time>
      </trkpt>
      <trkpt lat="46.65267" lon="0.49274">
        <ele>125</ele>
        <time>2024-02-18T08:49:42Z</time>
      </trkpt>
      <trkpt lat="46.65267" lon="0.49299">
        <ele>124.8</ele>
        <time>2024-02-18T08:49:47Z</time>
      </trkpt>
      <trkpt lat="46.65265" lon="0.49305">
        <ele>124.8</ele>
        <time>2024-02-18T08:49:48Z</time>
      </trkpt>
      <trkpt lat="46.65262" lon="0.49316">
        <ele>124.8</ele>
        <time>2024-02-18T08:49:51Z</time>
      </trkpt>
      <trkpt lat="46.65261" lon="0.49318">
        <ele>124.8</ele>
        <time>2024-02-18T08:49:52Z</time>
      </trkpt>
      <trkpt lat="46.65257" lon="0.49327">
        <ele>124.6</ele>
        <time>2024-02-18T08:49:55Z</time>
      </trkpt>
      <trkpt lat="46.65256" lon="0.49332">
        <ele>124.4</ele>
        <time>2024-02-18T08:49:57Z</time>
      </trkpt>
      <trkpt lat="46.65256" lon="0.49335">
        <ele>124.4</ele>
        <time>2024-02-18T08:49:58Z</time>
      </trkpt>
      <trkpt lat="46.65254" lon="0.49347">
        <ele>124.4</ele>
        <time>2024-02-18T08:50:02Z</time>
      </trkpt>
      <trkpt lat="46.65253" lon="0.4935">
        <ele>124.4</ele>
        <time>2024-02-18T08:50:03Z</time>
      </trkpt>
      <trkpt lat="46.65246" lon="0.49374">
        <ele>125</ele>
        <time>2024-02-18T08:50:10Z</time>
      </trkpt>
      <trkpt lat="46.65241" lon="0.49398">
        <ele>125.2</ele>
        <time>2024-02-18T08:50:15Z</time>
      </trkpt>
      <trkpt lat="46.65231" lon="0.49428">
        <ele>126</ele>
        <time>2024-02-18T08:50:21Z</time>
      </trkpt>
      <trkpt lat="46.65229" lon="0.49433">
        <ele>126.2</ele>
        <time>2024-02-18T08:50:22Z</time>
      </trkpt>
      <trkpt lat="46.65219" lon="0.49464">
        <ele>127</ele>
        <time>2024-02-18T08:50:29Z</time>
      </trkpt>
      <trkpt lat="46.65217" lon="0.49469">
        <ele>127.2</ele>
        <time>2024-02-18T08:50:30Z</time>
      </trkpt>
      <trkpt lat="46.65212" lon="0.4949">
        <ele>127.4</ele>
        <time>2024-02-18T08:50:35Z</time>
      </trkpt>
      <trkpt lat="46.65212" lon="0.49494">
        <ele>127.4</ele>
        <time>2024-02-18T08:50:36Z</time>
      </trkpt>
      <trkpt lat="46.65214" lon="0.49521">
        <ele>127.6</ele>
        <time>2024-02-18T08:50:42Z</time>
      </trkpt>
      <trkpt lat="46.65223" lon="0.49549">
        <ele>127.8</ele>
        <time>2024-02-18T08:50:49Z</time>
      </trkpt>
      <trkpt lat="46.65232" lon="0.49571">
        <ele>128</ele>
        <time>2024-02-18T08:50:55Z</time>
      </trkpt>
      <trkpt lat="46.65237" lon="0.49581">
        <ele>128.4</ele>
        <time>2024-02-18T08:50:58Z</time>
      </trkpt>
      <trkpt lat="46.65243" lon="0.4959">
        <ele>128.2</ele>
        <time>2024-02-18T08:51:01Z</time>
      </trkpt>
      <trkpt lat="46.65253" lon="0.49613">
        <ele>128.2</ele>
        <time>2024-02-18T08:51:07Z</time>
      </trkpt>
      <trkpt lat="46.65262" lon="0.49639">
        <ele>127.8</ele>
        <time>2024-02-18T08:51:13Z</time>
      </trkpt>
      <trkpt lat="46.65265" lon="0.49648">
        <ele>127.8</ele>
        <time>2024-02-18T08:51:15Z</time>
      </trkpt>
      <trkpt lat="46.65275" lon="0.49669">
        <ele>127.4</ele>
        <time>2024-02-18T08:51:20Z</time>
      </trkpt>
      <trkpt lat="46.65276" lon="0.49673">
        <ele>127.2</ele>
        <time>2024-02-18T08:51:21Z</time>
      </trkpt>
      <trkpt lat="46.65278" lon="0.49678">
        <ele>127.2</ele>
        <time>2024-02-18T08:51:22Z</time>
      </trkpt>
      <trkpt lat="46.6529" lon="0.49698">
        <ele>126.8</ele>
        <time>2024-02-18T08:51:26Z</time>
      </trkpt>
      <trkpt lat="46.65294" lon="0.49702">
        <ele>126.8</ele>
        <time>2024-02-18T08:51:27Z</time>
      </trkpt>
      <trkpt lat="46.65307" lon="0.49714">
        <ele>126.2</ele>
        <time>2024-02-18T08:51:30Z</time>
      </trkpt>
      <trkpt lat="46.65323" lon="0.49736">
        <ele>124.8</ele>
        <time>2024-02-18T08:51:34Z</time>
      </trkpt>
      <trkpt lat="46.65329" lon="0.49747">
        <ele>124.4</ele>
        <time>2024-02-18T08:51:36Z</time>
      </trkpt>
      <trkpt lat="46.65339" lon="0.49768">
        <ele>124</ele>
        <time>2024-02-18T08:51:39Z</time>
      </trkpt>
      <trkpt lat="46.65343" lon="0.49776">
        <ele>123.4</ele>
        <time>2024-02-18T08:51:40Z</time>
      </trkpt>
      <trkpt lat="46.65352" lon="0.49793">
        <ele>122</ele>
        <time>2024-02-18T08:51:42Z</time>
      </trkpt>
      <trkpt lat="46.65362" lon="0.49815">
        <ele>121.2</ele>
        <time>2024-02-18T08:51:44Z</time>
      </trkpt>
      <trkpt lat="46.65368" lon="0.49825">
        <ele>120.8</ele>
        <time>2024-02-18T08:51:45Z</time>
      </trkpt>
      <trkpt lat="46.65382" lon="0.49863">
        <ele>119.6</ele>
        <time>2024-02-18T08:51:48Z</time>
      </trkpt>
      <trkpt lat="46.65392" lon="0.4989">
        <ele>118.8</ele>
        <time>2024-02-18T08:51:50Z</time>
      </trkpt>
      <trkpt lat="46.65397" lon="0.49905">
        <ele>118.2</ele>
        <time>2024-02-18T08:51:51Z</time>
      </trkpt>
      <trkpt lat="46.65416" lon="0.49956">
        <ele>117</ele>
        <time>2024-02-18T08:51:55Z</time>
      </trkpt>
      <trkpt lat="46.65435" lon="0.49996">
        <ele>116</ele>
        <time>2024-02-18T08:51:59Z</time>
      </trkpt>
      <trkpt lat="46.65439" lon="0.50005">
        <ele>115.8</ele>
        <time>2024-02-18T08:52:00Z</time>
      </trkpt>
      <trkpt lat="46.65461" lon="0.5005">
        <ele>115</ele>
        <time>2024-02-18T08:52:06Z</time>
      </trkpt>
      <trkpt lat="46.65468" lon="0.50063">
        <ele>114.8</ele>
        <time>2024-02-18T08:52:08Z</time>
      </trkpt>
      <trkpt lat="46.65482" lon="0.50093">
        <ele>114.4</ele>
        <time>2024-02-18T08:52:12Z</time>
      </trkpt>
      <trkpt lat="46.65491" lon="0.50108">
        <ele>113.6</ele>
        <time>2024-02-18T08:52:14Z</time>
      </trkpt>
      <trkpt lat="46.655" lon="0.50123">
        <ele>112.8</ele>
        <time>2024-02-18T08:52:16Z</time>
      </trkpt>
      <trkpt lat="46.65505" lon="0.50132">
        <ele>112.4</ele>
        <time>2024-02-18T08:52:17Z</time>
      </trkpt>
      <trkpt lat="46.65523" lon="0.50167">
        <ele>111.2</ele>
        <time>2024-02-18T08:52:21Z</time>
      </trkpt>
      <trkpt lat="46.65528" lon="0.50175">
        <ele>111</ele>
        <time>2024-02-18T08:52:22Z</time>
      </trkpt>
      <trkpt lat="46.65534" lon="0.50184">
        <ele>110.4</ele>
        <time>2024-02-18T08:52:23Z</time>
      </trkpt>
      <trkpt lat="46.65539" lon="0.50192">
        <ele>110.2</ele>
        <time>2024-02-18T08:52:24Z</time>
      </trkpt>
      <trkpt lat="46.65548" lon="0.50208">
        <ele>109.4</ele>
        <time>2024-02-18T08:52:26Z</time>
      </trkpt>
      <trkpt lat="46.65558" lon="0.50225">
        <ele>109</ele>
        <time>2024-02-18T08:52:28Z</time>
      </trkpt>
      <trkpt lat="46.65566" lon="0.50243">
        <ele>108.8</ele>
        <time>2024-02-18T08:52:30Z</time>
      </trkpt>
      <trkpt lat="46.65575" lon="0.50259">
        <ele>108.6</ele>
        <time>2024-02-18T08:52:32Z</time>
      </trkpt>
      <trkpt lat="46.65579" lon="0.50267">
        <ele>108.2</ele>
        <time>2024-02-18T08:52:33Z</time>
      </trkpt>
      <trkpt lat="46.65582" lon="0.50275">
        <ele>108</ele>
        <time>2024-02-18T08:52:34Z</time>
      </trkpt>
      <trkpt lat="46.65591" lon="0.5029">
        <ele>107.6</ele>
        <time>2024-02-18T08:52:36Z</time>
      </trkpt>
      <trkpt lat="46.65599" lon="0.50304">
        <ele>107.6</ele>
        <time>2024-02-18T08:52:38Z</time>
      </trkpt>
      <trkpt lat="46.65608" lon="0.50317">
        <ele>107.4</ele>
        <time>2024-02-18T08:52:40Z</time>
      </trkpt>
      <trkpt lat="46.65614" lon="0.50332">
        <ele>107.2</ele>
        <time>2024-02-18T08:52:42Z</time>
      </trkpt>
      <trkpt lat="46.65619" lon="0.50339">
        <ele>106.8</ele>
        <time>2024-02-18T08:52:43Z</time>
      </trkpt>
      <trkpt lat="46.65623" lon="0.50346">
        <ele>106.4</ele>
        <time>2024-02-18T08:52:44Z</time>
      </trkpt>
      <trkpt lat="46.6563" lon="0.50363">
        <ele>105.8</ele>
        <time>2024-02-18T08:52:46Z</time>
      </trkpt>
      <trkpt lat="46.65643" lon="0.50386">
        <ele>104.8</ele>
        <time>2024-02-18T08:52:49Z</time>
      </trkpt>
      <trkpt lat="46.65647" lon="0.50394">
        <ele>104.6</ele>
        <time>2024-02-18T08:52:50Z</time>
      </trkpt>
      <trkpt lat="46.65662" lon="0.50423">
        <ele>104</ele>
        <time>2024-02-18T08:52:54Z</time>
      </trkpt>
      <trkpt lat="46.65685" lon="0.50472">
        <ele>105.8</ele>
        <time>2024-02-18T08:53:00Z</time>
      </trkpt>
      <trkpt lat="46.65696" lon="0.50498">
        <ele>107.2</ele>
        <time>2024-02-18T08:53:03Z</time>
      </trkpt>
      <trkpt lat="46.65711" lon="0.50535">
        <ele>108.4</ele>
        <time>2024-02-18T08:53:07Z</time>
      </trkpt>
      <trkpt lat="46.65719" lon="0.50553">
        <ele>109.6</ele>
        <time>2024-02-18T08:53:09Z</time>
      </trkpt>
      <trkpt lat="46.65732" lon="0.50581">
        <ele>109.8</ele>
        <time>2024-02-18T08:53:13Z</time>
      </trkpt>
      <trkpt lat="46.65751" lon="0.50624">
        <ele>109</ele>
        <time>2024-02-18T08:53:20Z</time>
      </trkpt>
      <trkpt lat="46.65767" lon="0.50657">
        <ele>108.4</ele>
        <time>2024-02-18T08:53:26Z</time>
      </trkpt>
      <trkpt lat="46.6579" lon="0.50696">
        <ele>108.4</ele>
        <time>2024-02-18T08:53:34Z</time>
      </trkpt>
      <trkpt lat="46.65799" lon="0.5071">
        <ele>108.2</ele>
        <time>2024-02-18T08:53:37Z</time>
      </trkpt>
      <trkpt lat="46.65805" lon="0.5072">
        <ele>108</ele>
        <time>2024-02-18T08:53:39Z</time>
      </trkpt>
      <trkpt lat="46.65819" lon="0.50749">
        <ele>107.2</ele>
        <time>2024-02-18T08:53:44Z</time>
      </trkpt>
      <trkpt lat="46.65824" lon="0.50761">
        <ele>107</ele>
        <time>2024-02-18T08:53:46Z</time>
      </trkpt>
      <trkpt lat="46.65843" lon="0.50799">
        <ele>106.2</ele>
        <time>2024-02-18T08:53:52Z</time>
      </trkpt>
      <trkpt lat="46.65849" lon="0.50812">
        <ele>105.4</ele>
        <time>2024-02-18T08:53:54Z</time>
      </trkpt>
      <trkpt lat="46.65856" lon="0.50828">
        <ele>105.2</ele>
        <time>2024-02-18T08:53:56Z</time>
      </trkpt>
      <trkpt lat="46.65869" lon="0.50853">
        <ele>104.2</ele>
        <time>2024-02-18T08:53:59Z</time>
      </trkpt>
      <trkpt lat="46.65869" lon="0.50853">
        <ele>103</ele>
        <time>2024-02-18T08:54:02Z</time>
      </trkpt>
      <trkpt lat="46.65899" lon="0.50915">
        <ele>101.8</ele>
        <time>2024-02-18T08:54:06Z</time>
      </trkpt>
      <trkpt lat="46.65913" lon="0.50941">
        <ele>101</ele>
        <time>2024-02-18T08:54:09Z</time>
      </trkpt>
      <trkpt lat="46.65918" lon="0.5095">
        <ele>100.6</ele>
        <time>2024-02-18T08:54:10Z</time>
      </trkpt>
      <trkpt lat="46.65927" lon="0.5097">
        <ele>100</ele>
        <time>2024-02-18T08:54:12Z</time>
      </trkpt>
      <trkpt lat="46.65935" lon="0.50987">
        <ele>99.6</ele>
        <time>2024-02-18T08:54:14Z</time>
      </trkpt>
      <trkpt lat="46.65939" lon="0.50996">
        <ele>99.4</ele>
        <time>2024-02-18T08:54:15Z</time>
      </trkpt>
      <trkpt lat="46.65951" lon="0.51018">
        <ele>98.8</ele>
        <time>2024-02-18T08:54:18Z</time>
      </trkpt>
      <trkpt lat="46.65955" lon="0.51024">
        <ele>98.6</ele>
        <time>2024-02-18T08:54:19Z</time>
      </trkpt>
      <trkpt lat="46.65959" lon="0.51031">
        <ele>98</ele>
        <time>2024-02-18T08:54:20Z</time>
      </trkpt>
      <trkpt lat="46.65963" lon="0.51039">
        <ele>97.8</ele>
        <time>2024-02-18T08:54:21Z</time>
      </trkpt>
      <trkpt lat="46.65977" lon="0.5107">
        <ele>96.8</ele>
        <time>2024-02-18T08:54:25Z</time>
      </trkpt>
      <trkpt lat="46.65993" lon="0.51097">
        <ele>95.4</ele>
        <time>2024-02-18T08:54:29Z</time>
      </trkpt>
      <trkpt lat="46.66" lon="0.51109">
        <ele>95</ele>
        <time>2024-02-18T08:54:31Z</time>
      </trkpt>
      <trkpt lat="46.66006" lon="0.5112">
        <ele>94.4</ele>
        <time>2024-02-18T08:54:33Z</time>
      </trkpt>
      <trkpt lat="46.66013" lon="0.51135">
        <ele>93.8</ele>
        <time>2024-02-18T08:54:36Z</time>
      </trkpt>
      <trkpt lat="46.6603" lon="0.51167">
        <ele>93.2</ele>
        <time>2024-02-18T08:54:43Z</time>
      </trkpt>
      <trkpt lat="46.66032" lon="0.51173">
        <ele>92.8</ele>
        <time>2024-02-18T08:54:44Z</time>
      </trkpt>
      <trkpt lat="46.66039" lon="0.51187">
        <ele>92</ele>
        <time>2024-02-18T08:54:47Z</time>
      </trkpt>
      <trkpt lat="46.66048" lon="0.51205">
        <ele>91.8</ele>
        <time>2024-02-18T08:54:51Z</time>
      </trkpt>
      <trkpt lat="46.66058" lon="0.51218">
        <ele>92.2</ele>
        <time>2024-02-18T08:54:55Z</time>
      </trkpt>
      <trkpt lat="46.66061" lon="0.51231">
        <ele>92.8</ele>
        <time>2024-02-18T08:54:57Z</time>
      </trkpt>
      <trkpt lat="46.66063" lon="0.51237">
        <ele>93</ele>
        <time>2024-02-18T08:54:58Z</time>
      </trkpt>
      <trkpt lat="46.66067" lon="0.51248">
        <ele>93.4</ele>
        <time>2024-02-18T08:55:00Z</time>
      </trkpt>
      <trkpt lat="46.66073" lon="0.51258">
        <ele>93.4</ele>
        <time>2024-02-18T08:55:02Z</time>
      </trkpt>
      <trkpt lat="46.66078" lon="0.51268">
        <ele>93.4</ele>
        <time>2024-02-18T08:55:04Z</time>
      </trkpt>
      <trkpt lat="46.6609" lon="0.51287">
        <ele>93.2</ele>
        <time>2024-02-18T08:55:08Z</time>
      </trkpt>
      <trkpt lat="46.66093" lon="0.513">
        <ele>93</ele>
        <time>2024-02-18T08:55:10Z</time>
      </trkpt>
      <trkpt lat="46.66096" lon="0.51304">
        <ele>92.8</ele>
        <time>2024-02-18T08:55:11Z</time>
      </trkpt>
      <trkpt lat="46.66105" lon="0.51322">
        <ele>92</ele>
        <time>2024-02-18T08:55:14Z</time>
      </trkpt>
      <trkpt lat="46.66115" lon="0.51341">
        <ele>91.4</ele>
        <time>2024-02-18T08:55:17Z</time>
      </trkpt>
      <trkpt lat="46.66122" lon="0.51354">
        <ele>91</ele>
        <time>2024-02-18T08:55:19Z</time>
      </trkpt>
      <trkpt lat="46.6613" lon="0.51374">
        <ele>90.2</ele>
        <time>2024-02-18T08:55:22Z</time>
      </trkpt>
      <trkpt lat="46.66134" lon="0.51381">
        <ele>89.6</ele>
        <time>2024-02-18T08:55:23Z</time>
      </trkpt>
      <trkpt lat="46.66136" lon="0.5139">
        <ele>89</ele>
        <time>2024-02-18T08:55:24Z</time>
      </trkpt>
      <trkpt lat="46.66138" lon="0.51402">
        <ele>88.4</ele>
        <time>2024-02-18T08:55:26Z</time>
      </trkpt>
      <trkpt lat="46.66147" lon="0.51413">
        <ele>88</ele>
        <time>2024-02-18T08:55:31Z</time>
      </trkpt>
      <trkpt lat="46.66151" lon="0.51414">
        <ele>88</ele>
        <time>2024-02-18T08:55:33Z</time>
      </trkpt>
      <trkpt lat="46.66168" lon="0.51409">
        <ele>88.6</ele>
        <time>2024-02-18T08:55:40Z</time>
      </trkpt>
      <trkpt lat="46.66184" lon="0.51398">
        <ele>89.6</ele>
        <time>2024-02-18T08:55:46Z</time>
      </trkpt>
      <trkpt lat="46.66194" lon="0.51388">
        <ele>91</ele>
        <time>2024-02-18T08:55:50Z</time>
      </trkpt>
      <trkpt lat="46.66198" lon="0.51383">
        <ele>92.2</ele>
        <time>2024-02-18T08:55:52Z</time>
      </trkpt>
      <trkpt lat="46.66208" lon="0.51376">
        <ele>93.2</ele>
        <time>2024-02-18T08:55:56Z</time>
      </trkpt>
      <trkpt lat="46.66211" lon="0.51373">
        <ele>93.6</ele>
        <time>2024-02-18T08:55:58Z</time>
      </trkpt>
      <trkpt lat="46.66225" lon="0.5136">
        <ele>94.2</ele>
        <time>2024-02-18T08:56:04Z</time>
      </trkpt>
      <trkpt lat="46.66227" lon="0.51358">
        <ele>94.4</ele>
        <time>2024-02-18T08:56:05Z</time>
      </trkpt>
      <trkpt lat="46.66241" lon="0.51343">
        <ele>94.8</ele>
        <time>2024-02-18T08:56:11Z</time>
      </trkpt>
      <trkpt lat="46.66252" lon="0.5133">
        <ele>95.4</ele>
        <time>2024-02-18T08:56:16Z</time>
      </trkpt>
      <trkpt lat="46.6626" lon="0.51323">
        <ele>95.6</ele>
        <time>2024-02-18T08:56:19Z</time>
      </trkpt>
      <trkpt lat="46.66278" lon="0.51305">
        <ele>96</ele>
        <time>2024-02-18T08:56:26Z</time>
      </trkpt>
      <trkpt lat="46.66283" lon="0.513">
        <ele>96.4</ele>
        <time>2024-02-18T08:56:28Z</time>
      </trkpt>
      <trkpt lat="46.66293" lon="0.5129">
        <ele>97.4</ele>
        <time>2024-02-18T08:56:32Z</time>
      </trkpt>
      <trkpt lat="46.66297" lon="0.51287">
        <ele>97.8</ele>
        <time>2024-02-18T08:56:33Z</time>
      </trkpt>
      <trkpt lat="46.66305" lon="0.5128">
        <ele>98.4</ele>
        <time>2024-02-18T08:56:36Z</time>
      </trkpt>
      <trkpt lat="46.66312" lon="0.51273">
        <ele>98.8</ele>
        <time>2024-02-18T08:56:39Z</time>
      </trkpt>
      <trkpt lat="46.66318" lon="0.51267">
        <ele>99.6</ele>
        <time>2024-02-18T08:56:41Z</time>
      </trkpt>
      <trkpt lat="46.66324" lon="0.51261">
        <ele>100.6</ele>
        <time>2024-02-18T08:56:44Z</time>
      </trkpt>
      <trkpt lat="46.6633" lon="0.51255">
        <ele>101.2</ele>
        <time>2024-02-18T08:56:46Z</time>
      </trkpt>
      <trkpt lat="46.66337" lon="0.51249">
        <ele>101.8</ele>
        <time>2024-02-18T08:56:49Z</time>
      </trkpt>
      <trkpt lat="46.66342" lon="0.51245">
        <ele>102.2</ele>
        <time>2024-02-18T08:56:51Z</time>
      </trkpt>
      <trkpt lat="46.66353" lon="0.5123">
        <ele>101.6</ele>
        <time>2024-02-18T08:56:57Z</time>
      </trkpt>
      <trkpt lat="46.66362" lon="0.5122">
        <ele>101.8</ele>
        <time>2024-02-18T08:57:01Z</time>
      </trkpt>
      <trkpt lat="46.66367" lon="0.51221">
        <ele>102.6</ele>
        <time>2024-02-18T08:57:04Z</time>
      </trkpt>
      <trkpt lat="46.66371" lon="0.51222">
        <ele>102.8</ele>
        <time>2024-02-18T08:57:06Z</time>
      </trkpt>
      <trkpt lat="46.66375" lon="0.51227">
        <ele>103.2</ele>
        <time>2024-02-18T08:57:09Z</time>
      </trkpt>
      <trkpt lat="46.66378" lon="0.51231">
        <ele>103.4</ele>
        <time>2024-02-18T08:57:11Z</time>
      </trkpt>
      <trkpt lat="46.66389" lon="0.51242">
        <ele>103.4</ele>
        <time>2024-02-18T08:57:17Z</time>
      </trkpt>
      <trkpt lat="46.664" lon="0.51241">
        <ele>103.4</ele>
        <time>2024-02-18T08:57:22Z</time>
      </trkpt>
      <trkpt lat="46.664" lon="0.5124">
        <ele>103.4</ele>
        <time>2024-02-18T08:57:23Z</time>
      </trkpt>
      <trkpt lat="46.66404" lon="0.51238">
        <ele>103.6</ele>
        <time>2024-02-18T08:57:26Z</time>
      </trkpt>
      <trkpt lat="46.66406" lon="0.51239">
        <ele>103.6</ele>
        <time>2024-02-18T08:57:27Z</time>
      </trkpt>
      <trkpt lat="46.66408" lon="0.51239">
        <ele>104</ele>
        <time>2024-02-18T08:57:28Z</time>
      </trkpt>
      <trkpt lat="46.66417" lon="0.51246">
        <ele>104.4</ele>
        <time>2024-02-18T08:57:33Z</time>
      </trkpt>
      <trkpt lat="46.66425" lon="0.51247">
        <ele>104.2</ele>
        <time>2024-02-18T08:57:36Z</time>
      </trkpt>
      <trkpt lat="46.66428" lon="0.51248">
        <ele>103.6</ele>
        <time>2024-02-18T08:57:37Z</time>
      </trkpt>
      <trkpt lat="46.6643" lon="0.51249">
        <ele>103.4</ele>
        <time>2024-02-18T08:57:38Z</time>
      </trkpt>
      <trkpt lat="46.66435" lon="0.5125">
        <ele>103.2</ele>
        <time>2024-02-18T08:57:40Z</time>
      </trkpt>
      <trkpt lat="46.66436" lon="0.51251">
        <ele>103.2</ele>
        <time>2024-02-18T08:57:41Z</time>
      </trkpt>
      <trkpt lat="46.66446" lon="0.51254">
        <ele>103.2</ele>
        <time>2024-02-18T08:57:45Z</time>
      </trkpt>
      <trkpt lat="46.66447" lon="0.51256">
        <ele>103.2</ele>
        <time>2024-02-18T08:57:46Z</time>
      </trkpt>
      <trkpt lat="46.66449" lon="0.51258">
        <ele>103.2</ele>
        <time>2024-02-18T08:57:47Z</time>
      </trkpt>
      <trkpt lat="46.66457" lon="0.5126">
        <ele>103</ele>
        <time>2024-02-18T08:57:50Z</time>
      </trkpt>
      <trkpt lat="46.66459" lon="0.5126">
        <ele>102.8</ele>
        <time>2024-02-18T08:57:51Z</time>
      </trkpt>
      <trkpt lat="46.6646" lon="0.51259">
        <ele>102.6</ele>
        <time>2024-02-18T08:57:53Z</time>
      </trkpt>
      <trkpt lat="46.66462" lon="0.51257">
        <ele>102.6</ele>
        <time>2024-02-18T08:57:55Z</time>
      </trkpt>
      <trkpt lat="46.66463" lon="0.51257">
        <ele>102.8</ele>
        <time>2024-02-18T08:57:56Z</time>
      </trkpt>
      <trkpt lat="46.66464" lon="0.51256">
        <ele>103.2</ele>
        <time>2024-02-18T08:57:58Z</time>
      </trkpt>
      <trkpt lat="46.66465" lon="0.51253">
        <ele>103.6</ele>
        <time>2024-02-18T08:58:00Z</time>
      </trkpt>
      <trkpt lat="46.66466" lon="0.51251">
        <ele>104</ele>
        <time>2024-02-18T08:58:01Z</time>
      </trkpt>
      <trkpt lat="46.66467" lon="0.51248">
        <ele>104.2</ele>
        <time>2024-02-18T08:58:03Z</time>
      </trkpt>
      <trkpt lat="46.66468" lon="0.51246">
        <ele>104.4</ele>
        <time>2024-02-18T08:58:04Z</time>
      </trkpt>
      <trkpt lat="46.66477" lon="0.51244">
        <ele>104.6</ele>
        <time>2024-02-18T08:58:09Z</time>
      </trkpt>
      <trkpt lat="46.66478" lon="0.51245">
        <ele>104.4</ele>
        <time>2024-02-18T08:58:10Z</time>
      </trkpt>
      <trkpt lat="46.6648" lon="0.51254">
        <ele>103.4</ele>
        <time>2024-02-18T08:58:13Z</time>
      </trkpt>
      <trkpt lat="46.6648" lon="0.51258">
        <ele>103</ele>
        <time>2024-02-18T08:58:14Z</time>
      </trkpt>
      <trkpt lat="46.6648" lon="0.51266">
        <ele>102.4</ele>
        <time>2024-02-18T08:58:17Z</time>
      </trkpt>
      <trkpt lat="46.66479" lon="0.51268">
        <ele>102.4</ele>
        <time>2024-02-18T08:58:18Z</time>
      </trkpt>
      <trkpt lat="46.66472" lon="0.51275">
        <ele>102.8</ele>
        <time>2024-02-18T08:58:23Z</time>
      </trkpt>
      <trkpt lat="46.66464" lon="0.5128">
        <ele>103</ele>
        <time>2024-02-18T08:58:27Z</time>
      </trkpt>
      <trkpt lat="46.66462" lon="0.51281">
        <ele>103</ele>
        <time>2024-02-18T08:58:28Z</time>
      </trkpt>
      <trkpt lat="46.66461" lon="0.51288">
        <ele>102.8</ele>
        <time>2024-02-18T08:58:31Z</time>
      </trkpt>
      <trkpt lat="46.66462" lon="0.51296">
        <ele>102.6</ele>
        <time>2024-02-18T08:58:34Z</time>
      </trkpt>
      <trkpt lat="46.66462" lon="0.513">
        <ele>102.2</ele>
        <time>2024-02-18T08:58:35Z</time>
      </trkpt>
      <trkpt lat="46.6646" lon="0.51303">
        <ele>101.8</ele>
        <time>2024-02-18T08:58:36Z</time>
      </trkpt>
      <trkpt lat="46.66459" lon="0.5131">
        <ele>101.4</ele>
        <time>2024-02-18T08:58:38Z</time>
      </trkpt>
      <trkpt lat="46.66461" lon="0.51317">
        <ele>101</ele>
        <time>2024-02-18T08:58:40Z</time>
      </trkpt>
      <trkpt lat="46.66462" lon="0.5132">
        <ele>100.6</ele>
        <time>2024-02-18T08:58:41Z</time>
      </trkpt>
      <trkpt lat="46.66462" lon="0.51324">
        <ele>100.2</ele>
        <time>2024-02-18T08:58:42Z</time>
      </trkpt>
      <trkpt lat="46.66459" lon="0.51333">
        <ele>99.4</ele>
        <time>2024-02-18T08:58:44Z</time>
      </trkpt>
      <trkpt lat="46.66444" lon="0.51353">
        <ele>99</ele>
        <time>2024-02-18T08:58:49Z</time>
      </trkpt>
      <trkpt lat="46.66441" lon="0.51356">
        <ele>99</ele>
        <time>2024-02-18T08:58:50Z</time>
      </trkpt>
      <trkpt lat="46.66436" lon="0.51359">
        <ele>99</ele>
        <time>2024-02-18T08:58:52Z</time>
      </trkpt>
      <trkpt lat="46.66423" lon="0.51364">
        <ele>99.6</ele>
        <time>2024-02-18T08:58:58Z</time>
      </trkpt>
      <trkpt lat="46.66409" lon="0.51369">
        <ele>99.2</ele>
        <time>2024-02-18T08:59:04Z</time>
      </trkpt>
      <trkpt lat="46.664" lon="0.51368">
        <ele>99</ele>
        <time>2024-02-18T08:59:07Z</time>
      </trkpt>
      <trkpt lat="46.66398" lon="0.51367">
        <ele>98.8</ele>
        <time>2024-02-18T08:59:08Z</time>
      </trkpt>
      <trkpt lat="46.66396" lon="0.51365">
        <ele>98.8</ele>
        <time>2024-02-18T08:59:09Z</time>
      </trkpt>
      <trkpt lat="46.66393" lon="0.51358">
        <ele>99</ele>
        <time>2024-02-18T08:59:12Z</time>
      </trkpt>
      <trkpt lat="46.66389" lon="0.51357">
        <ele>99.6</ele>
        <time>2024-02-18T08:59:14Z</time>
      </trkpt>
      <trkpt lat="46.66384" lon="0.51356">
        <ele>99.8</ele>
        <time>2024-02-18T08:59:16Z</time>
      </trkpt>
      <trkpt lat="46.66383" lon="0.51355">
        <ele>99.8</ele>
        <time>2024-02-18T08:59:17Z</time>
      </trkpt>
      <trkpt lat="46.6638" lon="0.5135">
        <ele>100.2</ele>
        <time>2024-02-18T08:59:20Z</time>
      </trkpt>
      <trkpt lat="46.66379" lon="0.51349">
        <ele>100.6</ele>
        <time>2024-02-18T08:59:21Z</time>
      </trkpt>
      <trkpt lat="46.66376" lon="0.51349">
        <ele>100.6</ele>
        <time>2024-02-18T08:59:23Z</time>
      </trkpt>
      <trkpt lat="46.66375" lon="0.5135">
        <ele>100.8</ele>
        <time>2024-02-18T08:59:25Z</time>
      </trkpt>
      <trkpt lat="46.66376" lon="0.51352">
        <ele>100.2</ele>
        <time>2024-02-18T08:59:28Z</time>
      </trkpt>
      <trkpt lat="46.66377" lon="0.51354">
        <ele>100.2</ele>
        <time>2024-02-18T08:59:30Z</time>
      </trkpt>
      <trkpt lat="46.66377" lon="0.51355">
        <ele>100.2</ele>
        <time>2024-02-18T08:59:31Z</time>
      </trkpt>
      <trkpt lat="46.66377" lon="0.51367">
        <ele>100.2</ele>
        <time>2024-02-18T08:59:35Z</time>
      </trkpt>
      <trkpt lat="46.66377" lon="0.51371">
        <ele>99.6</ele>
        <time>2024-02-18T08:59:37Z</time>
      </trkpt>
      <trkpt lat="46.66377" lon="0.51372">
        <ele>99.6</ele>
        <time>2024-02-18T08:59:38Z</time>
      </trkpt>
      <trkpt lat="46.66377" lon="0.51373">
        <ele>99.4</ele>
        <time>2024-02-18T08:59:39Z</time>
      </trkpt>
      <trkpt lat="46.66379" lon="0.51372">
        <ele>99.4</ele>
        <time>2024-02-18T08:59:41Z</time>
      </trkpt>
      <trkpt lat="46.66381" lon="0.51373">
        <ele>99.4</ele>
        <time>2024-02-18T08:59:43Z</time>
      </trkpt>
      <trkpt lat="46.66383" lon="0.51374">
        <ele>99.2</ele>
        <time>2024-02-18T08:59:45Z</time>
      </trkpt>
      <trkpt lat="46.66396" lon="0.51377">
        <ele>99.2</ele>
        <time>2024-02-18T08:59:52Z</time>
      </trkpt>
      <trkpt lat="46.66406" lon="0.51376">
        <ele>99.6</ele>
        <time>2024-02-18T08:59:57Z</time>
      </trkpt>
      <trkpt lat="46.66416" lon="0.51378">
        <ele>99.6</ele>
        <time>2024-02-18T09:00:01Z</time>
      </trkpt>
      <trkpt lat="46.66418" lon="0.5138">
        <ele>99.4</ele>
        <time>2024-02-18T09:00:02Z</time>
      </trkpt>
      <trkpt lat="46.66421" lon="0.51383">
        <ele>99.2</ele>
        <time>2024-02-18T09:00:04Z</time>
      </trkpt>
      <trkpt lat="46.66423" lon="0.51386">
        <ele>99.2</ele>
        <time>2024-02-18T09:00:06Z</time>
      </trkpt>
      <trkpt lat="46.66425" lon="0.51387">
        <ele>99</ele>
        <time>2024-02-18T09:00:07Z</time>
      </trkpt>
      <trkpt lat="46.66431" lon="0.51392">
        <ele>98.6</ele>
        <time>2024-02-18T09:00:10Z</time>
      </trkpt>
      <trkpt lat="46.66432" lon="0.51393">
        <ele>98.4</ele>
        <time>2024-02-18T09:00:11Z</time>
      </trkpt>
      <trkpt lat="46.66434" lon="0.51395">
        <ele>98.4</ele>
        <time>2024-02-18T09:00:12Z</time>
      </trkpt>
      <trkpt lat="46.66436" lon="0.51403">
        <ele>97.4</ele>
        <time>2024-02-18T09:00:15Z</time>
      </trkpt>
      <trkpt lat="46.66437" lon="0.51409">
        <ele>97.2</ele>
        <time>2024-02-18T09:00:17Z</time>
      </trkpt>
      <trkpt lat="46.66437" lon="0.51416">
        <ele>96.8</ele>
        <time>2024-02-18T09:00:19Z</time>
      </trkpt>
      <trkpt lat="46.66436" lon="0.51425">
        <ele>96</ele>
        <time>2024-02-18T09:00:21Z</time>
      </trkpt>
      <trkpt lat="46.66438" lon="0.51434">
        <ele>94.8</ele>
        <time>2024-02-18T09:00:23Z</time>
      </trkpt>
      <trkpt lat="46.66437" lon="0.51442">
        <ele>94.2</ele>
        <time>2024-02-18T09:00:25Z</time>
      </trkpt>
      <trkpt lat="46.66436" lon="0.51444">
        <ele>93.8</ele>
        <time>2024-02-18T09:00:26Z</time>
      </trkpt>
      <trkpt lat="46.66435" lon="0.51445">
        <ele>93.6</ele>
        <time>2024-02-18T09:00:27Z</time>
      </trkpt>
      <trkpt lat="46.6643" lon="0.51447">
        <ele>94.2</ele>
        <time>2024-02-18T09:00:31Z</time>
      </trkpt>
      <trkpt lat="46.66429" lon="0.51448">
        <ele>94.6</ele>
        <time>2024-02-18T09:00:33Z</time>
      </trkpt>
      <trkpt lat="46.66427" lon="0.5145">
        <ele>95.4</ele>
        <time>2024-02-18T09:00:36Z</time>
      </trkpt>
      <trkpt lat="46.66427" lon="0.51453">
        <ele>95.6</ele>
        <time>2024-02-18T09:00:38Z</time>
      </trkpt>
      <trkpt lat="46.66428" lon="0.51453">
        <ele>95.8</ele>
        <time>2024-02-18T09:00:39Z</time>
      </trkpt>
      <trkpt lat="46.66429" lon="0.51462">
        <ele>95.8</ele>
        <time>2024-02-18T09:00:43Z</time>
      </trkpt>
      <trkpt lat="46.66429" lon="0.51465">
        <ele>95.4</ele>
        <time>2024-02-18T09:00:44Z</time>
      </trkpt>
      <trkpt lat="46.6643" lon="0.51471">
        <ele>94</ele>
        <time>2024-02-18T09:00:46Z</time>
      </trkpt>
      <trkpt lat="46.66432" lon="0.51475">
        <ele>93.6</ele>
        <time>2024-02-18T09:00:48Z</time>
      </trkpt>
      <trkpt lat="46.66435" lon="0.51479">
        <ele>93.6</ele>
        <time>2024-02-18T09:00:50Z</time>
      </trkpt>
      <trkpt lat="46.66436" lon="0.51486">
        <ele>93.2</ele>
        <time>2024-02-18T09:00:52Z</time>
      </trkpt>
      <trkpt lat="46.66437" lon="0.5149">
        <ele>92.6</ele>
        <time>2024-02-18T09:00:53Z</time>
      </trkpt>
      <trkpt lat="46.6644" lon="0.51497">
        <ele>92.2</ele>
        <time>2024-02-18T09:00:55Z</time>
      </trkpt>
      <trkpt lat="46.66442" lon="0.51504">
        <ele>91.8</ele>
        <time>2024-02-18T09:00:57Z</time>
      </trkpt>
      <trkpt lat="46.66443" lon="0.51508">
        <ele>91.6</ele>
        <time>2024-02-18T09:00:59Z</time>
      </trkpt>
      <trkpt lat="46.66441" lon="0.51513">
        <ele>91.4</ele>
        <time>2024-02-18T09:01:01Z</time>
      </trkpt>
      <trkpt lat="46.66439" lon="0.51515">
        <ele>91.2</ele>
        <time>2024-02-18T09:01:04Z</time>
      </trkpt>
      <trkpt lat="46.66438" lon="0.51515">
        <ele>91.2</ele>
        <time>2024-02-18T09:01:05Z</time>
      </trkpt>
      <trkpt lat="46.66436" lon="0.51516">
        <ele>91.2</ele>
        <time>2024-02-18T09:01:06Z</time>
      </trkpt>
      <trkpt lat="46.66431" lon="0.51524">
        <ele>91.8</ele>
        <time>2024-02-18T09:01:09Z</time>
      </trkpt>
      <trkpt lat="46.6643" lon="0.51527">
        <ele>92.2</ele>
        <time>2024-02-18T09:01:10Z</time>
      </trkpt>
      <trkpt lat="46.66428" lon="0.51539">
        <ele>91.2</ele>
        <time>2024-02-18T09:01:15Z</time>
      </trkpt>
      <trkpt lat="46.66428" lon="0.5154">
        <ele>90.6</ele>
        <time>2024-02-18T09:01:17Z</time>
      </trkpt>
      <trkpt lat="46.6643" lon="0.5154">
        <ele>90.2</ele>
        <time>2024-02-18T09:01:19Z</time>
      </trkpt>
      <trkpt lat="46.66432" lon="0.51541">
        <ele>90.2</ele>
        <time>2024-02-18T09:01:22Z</time>
      </trkpt>
      <trkpt lat="46.66434" lon="0.51543">
        <ele>90.4</ele>
        <time>2024-02-18T09:01:23Z</time>
      </trkpt>
      <trkpt lat="46.66441" lon="0.51553">
        <ele>90.4</ele>
        <time>2024-02-18T09:01:30Z</time>
      </trkpt>
      <trkpt lat="46.66449" lon="0.51566">
        <ele>89.6</ele>
        <time>2024-02-18T09:01:35Z</time>
      </trkpt>
      <trkpt lat="46.6645" lon="0.51568">
        <ele>89.4</ele>
        <time>2024-02-18T09:01:36Z</time>
      </trkpt>
      <trkpt lat="46.66451" lon="0.5157">
        <ele>89.2</ele>
        <time>2024-02-18T09:01:37Z</time>
      </trkpt>
      <trkpt lat="46.66455" lon="0.5158">
        <ele>89</ele>
        <time>2024-02-18T09:01:43Z</time>
      </trkpt>
      <trkpt lat="46.66458" lon="0.51583">
        <ele>88.8</ele>
        <time>2024-02-18T09:01:59Z</time>
      </trkpt>
      <trkpt lat="46.66459" lon="0.51589">
        <ele>89</ele>
        <time>2024-02-18T09:02:10Z</time>
      </trkpt>
      <trkpt lat="46.6646" lon="0.5159">
        <ele>89</ele>
        <time>2024-02-18T09:02:11Z</time>
      </trkpt>
      <trkpt lat="46.6647" lon="0.51603">
        <ele>89</ele>
        <time>2024-02-18T09:02:20Z</time>
      </trkpt>
      <trkpt lat="46.66472" lon="0.51603">
        <ele>89.4</ele>
        <time>2024-02-18T09:02:21Z</time>
      </trkpt>
      <trkpt lat="46.66475" lon="0.51603">
        <ele>90</ele>
        <time>2024-02-18T09:02:23Z</time>
      </trkpt>
      <trkpt lat="46.66479" lon="0.51602">
        <ele>90.8</ele>
        <time>2024-02-18T09:02:26Z</time>
      </trkpt>
      <trkpt lat="46.66482" lon="0.516">
        <ele>91</ele>
        <time>2024-02-18T09:02:28Z</time>
      </trkpt>
      <trkpt lat="46.66488" lon="0.51595">
        <ele>91.8</ele>
        <time>2024-02-18T09:02:33Z</time>
      </trkpt>
      <trkpt lat="46.665" lon="0.51589">
        <ele>92.8</ele>
        <time>2024-02-18T09:02:40Z</time>
      </trkpt>
      <trkpt lat="46.66502" lon="0.51587">
        <ele>93</ele>
        <time>2024-02-18T09:02:41Z</time>
      </trkpt>
      <trkpt lat="46.66515" lon="0.5158">
        <ele>94</ele>
        <time>2024-02-18T09:02:50Z</time>
      </trkpt>
      <trkpt lat="46.66516" lon="0.51579">
        <ele>94</ele>
        <time>2024-02-18T09:02:51Z</time>
      </trkpt>
      <trkpt lat="46.66524" lon="0.5157">
        <ele>94.2</ele>
        <time>2024-02-18T09:02:59Z</time>
      </trkpt>
      <trkpt lat="46.66534" lon="0.51572">
        <ele>94.8</ele>
        <time>2024-02-18T09:03:05Z</time>
      </trkpt>
      <trkpt lat="46.66554" lon="0.51576">
        <ele>93.4</ele>
        <time>2024-02-18T09:03:17Z</time>
      </trkpt>
      <trkpt lat="46.66569" lon="0.5158">
        <ele>92.8</ele>
        <time>2024-02-18T09:03:23Z</time>
      </trkpt>
      <trkpt lat="46.66572" lon="0.51581">
        <ele>92.6</ele>
        <time>2024-02-18T09:03:24Z</time>
      </trkpt>
      <trkpt lat="46.66576" lon="0.51582">
        <ele>90.8</ele>
        <time>2024-02-18T09:03:25Z</time>
      </trkpt>
      <trkpt lat="46.6658" lon="0.51583">
        <ele>89.8</ele>
        <time>2024-02-18T09:03:26Z</time>
      </trkpt>
      <trkpt lat="46.66584" lon="0.51584">
        <ele>89</ele>
        <time>2024-02-18T09:03:27Z</time>
      </trkpt>
      <trkpt lat="46.66587" lon="0.51585">
        <ele>88.8</ele>
        <time>2024-02-18T09:03:28Z</time>
      </trkpt>
      <trkpt lat="46.66594" lon="0.51586">
        <ele>87.4</ele>
        <time>2024-02-18T09:03:30Z</time>
      </trkpt>
      <trkpt lat="46.66608" lon="0.51588">
        <ele>86.2</ele>
        <time>2024-02-18T09:03:34Z</time>
      </trkpt>
      <trkpt lat="46.6661" lon="0.51588">
        <ele>86.4</ele>
        <time>2024-02-18T09:03:35Z</time>
      </trkpt>
      <trkpt lat="46.66629" lon="0.51586">
        <ele>86.6</ele>
        <time>2024-02-18T09:03:42Z</time>
      </trkpt>
      <trkpt lat="46.66632" lon="0.51587">
        <ele>86.6</ele>
        <time>2024-02-18T09:03:44Z</time>
      </trkpt>
      <trkpt lat="46.66638" lon="0.51589">
        <ele>85.8</ele>
        <time>2024-02-18T09:03:46Z</time>
      </trkpt>
      <trkpt lat="46.66644" lon="0.5159">
        <ele>85.2</ele>
        <time>2024-02-18T09:03:48Z</time>
      </trkpt>
      <trkpt lat="46.66653" lon="0.5159">
        <ele>84.8</ele>
        <time>2024-02-18T09:03:51Z</time>
      </trkpt>
      <trkpt lat="46.66663" lon="0.51589">
        <ele>84.8</ele>
        <time>2024-02-18T09:03:54Z</time>
      </trkpt>
      <trkpt lat="46.6667" lon="0.51594">
        <ele>85.2</ele>
        <time>2024-02-18T09:03:57Z</time>
      </trkpt>
      <trkpt lat="46.66681" lon="0.516">
        <ele>86.4</ele>
        <time>2024-02-18T09:04:01Z</time>
      </trkpt>
      <trkpt lat="46.66683" lon="0.51603">
        <ele>86.8</ele>
        <time>2024-02-18T09:04:03Z</time>
      </trkpt>
      <trkpt lat="46.66687" lon="0.51606">
        <ele>87.4</ele>
        <time>2024-02-18T09:04:05Z</time>
      </trkpt>
      <trkpt lat="46.66689" lon="0.5161">
        <ele>88</ele>
        <time>2024-02-18T09:04:07Z</time>
      </trkpt>
      <trkpt lat="46.66691" lon="0.51614">
        <ele>88.4</ele>
        <time>2024-02-18T09:04:09Z</time>
      </trkpt>
      <trkpt lat="46.66691" lon="0.51617">
        <ele>88.6</ele>
        <time>2024-02-18T09:04:10Z</time>
      </trkpt>
      <trkpt lat="46.66696" lon="0.5163">
        <ele>89.6</ele>
        <time>2024-02-18T09:04:15Z</time>
      </trkpt>
      <trkpt lat="46.66697" lon="0.51632">
        <ele>89.8</ele>
        <time>2024-02-18T09:04:16Z</time>
      </trkpt>
      <trkpt lat="46.66699" lon="0.51643">
        <ele>90.8</ele>
        <time>2024-02-18T09:04:21Z</time>
      </trkpt>
      <trkpt lat="46.667" lon="0.51651">
        <ele>91.2</ele>
        <time>2024-02-18T09:04:24Z</time>
      </trkpt>
      <trkpt lat="46.667" lon="0.51658">
        <ele>91.4</ele>
        <time>2024-02-18T09:04:27Z</time>
      </trkpt>
      <trkpt lat="46.667" lon="0.51663">
        <ele>92</ele>
        <time>2024-02-18T09:04:29Z</time>
      </trkpt>
      <trkpt lat="46.66699" lon="0.51674">
        <ele>93</ele>
        <time>2024-02-18T09:04:33Z</time>
      </trkpt>
      <trkpt lat="46.66698" lon="0.5168">
        <ele>93.6</ele>
        <time>2024-02-18T09:04:36Z</time>
      </trkpt>
      <trkpt lat="46.66697" lon="0.51686">
        <ele>94.2</ele>
        <time>2024-02-18T09:04:39Z</time>
      </trkpt>
      <trkpt lat="46.66696" lon="0.51696">
        <ele>95.4</ele>
        <time>2024-02-18T09:04:44Z</time>
      </trkpt>
      <trkpt lat="46.66695" lon="0.51703">
        <ele>96.6</ele>
        <time>2024-02-18T09:04:48Z</time>
      </trkpt>
      <trkpt lat="46.66695" lon="0.51705">
        <ele>97</ele>
        <time>2024-02-18T09:04:49Z</time>
      </trkpt>
      <trkpt lat="46.66695" lon="0.5171">
        <ele>97.8</ele>
        <time>2024-02-18T09:04:52Z</time>
      </trkpt>
      <trkpt lat="46.66695" lon="0.51712">
        <ele>98.2</ele>
        <time>2024-02-18T09:04:53Z</time>
      </trkpt>
      <trkpt lat="46.66695" lon="0.51712">
        <ele>99.2</ele>
        <time>2024-02-18T09:04:56Z</time>
      </trkpt>
      <trkpt lat="46.66696" lon="0.51729">
        <ele>100.2</ele>
        <time>2024-02-18T09:05:01Z</time>
      </trkpt>
      <trkpt lat="46.66696" lon="0.51731">
        <ele>100.4</ele>
        <time>2024-02-18T09:05:02Z</time>
      </trkpt>
      <trkpt lat="46.66697" lon="0.51741">
        <ele>101.6</ele>
        <time>2024-02-18T09:05:07Z</time>
      </trkpt>
      <trkpt lat="46.66697" lon="0.51751">
        <ele>102.6</ele>
        <time>2024-02-18T09:05:12Z</time>
      </trkpt>
      <trkpt lat="46.66697" lon="0.51754">
        <ele>102.8</ele>
        <time>2024-02-18T09:05:13Z</time>
      </trkpt>
      <trkpt lat="46.66695" lon="0.51762">
        <ele>103.6</ele>
        <time>2024-02-18T09:05:16Z</time>
      </trkpt>
      <trkpt lat="46.66687" lon="0.51776">
        <ele>104.4</ele>
        <time>2024-02-18T09:05:22Z</time>
      </trkpt>
      <trkpt lat="46.66673" lon="0.51776">
        <ele>104.4</ele>
        <time>2024-02-18T09:05:28Z</time>
      </trkpt>
      <trkpt lat="46.66662" lon="0.5177">
        <ele>103.8</ele>
        <time>2024-02-18T09:05:31Z</time>
      </trkpt>
      <trkpt lat="46.66656" lon="0.51764">
        <ele>103.2</ele>
        <time>2024-02-18T09:05:33Z</time>
      </trkpt>
      <trkpt lat="46.66653" lon="0.5176">
        <ele>102.6</ele>
        <time>2024-02-18T09:05:34Z</time>
      </trkpt>
      <trkpt lat="46.66651" lon="0.51759">
        <ele>101.4</ele>
        <time>2024-02-18T09:05:35Z</time>
      </trkpt>
      <trkpt lat="46.66646" lon="0.51759">
        <ele>99.8</ele>
        <time>2024-02-18T09:05:37Z</time>
      </trkpt>
      <trkpt lat="46.66632" lon="0.51758">
        <ele>98.6</ele>
        <time>2024-02-18T09:05:42Z</time>
      </trkpt>
      <trkpt lat="46.66626" lon="0.51757">
        <ele>99</ele>
        <time>2024-02-18T09:05:44Z</time>
      </trkpt>
      <trkpt lat="46.66619" lon="0.51751">
        <ele>98.4</ele>
        <time>2024-02-18T09:05:48Z</time>
      </trkpt>
      <trkpt lat="46.66613" lon="0.51743">
        <ele>97.6</ele>
        <time>2024-02-18T09:05:51Z</time>
      </trkpt>
      <trkpt lat="46.66608" lon="0.5174">
        <ele>96.8</ele>
        <time>2024-02-18T09:05:53Z</time>
      </trkpt>
      <trkpt lat="46.66604" lon="0.51738">
        <ele>96.2</ele>
        <time>2024-02-18T09:05:54Z</time>
      </trkpt>
      <trkpt lat="46.66602" lon="0.51736">
        <ele>95.6</ele>
        <time>2024-02-18T09:05:55Z</time>
      </trkpt>
      <trkpt lat="46.66598" lon="0.51732">
        <ele>94.4</ele>
        <time>2024-02-18T09:05:57Z</time>
      </trkpt>
      <trkpt lat="46.66596" lon="0.51729">
        <ele>93.6</ele>
        <time>2024-02-18T09:05:58Z</time>
      </trkpt>
      <trkpt lat="46.66595" lon="0.51727">
        <ele>93</ele>
        <time>2024-02-18T09:05:59Z</time>
      </trkpt>
      <trkpt lat="46.66592" lon="0.5172">
        <ele>92.6</ele>
        <time>2024-02-18T09:06:02Z</time>
      </trkpt>
      <trkpt lat="46.66591" lon="0.51716">
        <ele>92.6</ele>
        <time>2024-02-18T09:06:03Z</time>
      </trkpt>
      <trkpt lat="46.66592" lon="0.51712">
        <ele>92</ele>
        <time>2024-02-18T09:06:05Z</time>
      </trkpt>
      <trkpt lat="46.66591" lon="0.51709">
        <ele>91</ele>
        <time>2024-02-18T09:06:06Z</time>
      </trkpt>
      <trkpt lat="46.66591" lon="0.51706">
        <ele>90.4</ele>
        <time>2024-02-18T09:06:07Z</time>
      </trkpt>
      <trkpt lat="46.66589" lon="0.517">
        <ele>89.6</ele>
        <time>2024-02-18T09:06:09Z</time>
      </trkpt>
      <trkpt lat="46.66589" lon="0.51698">
        <ele>89.2</ele>
        <time>2024-02-18T09:06:10Z</time>
      </trkpt>
      <trkpt lat="46.66586" lon="0.51694">
        <ele>89.2</ele>
        <time>2024-02-18T09:06:13Z</time>
      </trkpt>
      <trkpt lat="46.66585" lon="0.51694">
        <ele>89.2</ele>
        <time>2024-02-18T09:06:14Z</time>
      </trkpt>
      <trkpt lat="46.66575" lon="0.51693">
        <ele>89</ele>
        <time>2024-02-18T09:06:20Z</time>
      </trkpt>
      <trkpt lat="46.66566" lon="0.51693">
        <ele>89.8</ele>
        <time>2024-02-18T09:06:27Z</time>
      </trkpt>
      <trkpt lat="46.66563" lon="0.51696">
        <ele>90.2</ele>
        <time>2024-02-18T09:06:29Z</time>
      </trkpt>
      <trkpt lat="46.66562" lon="0.51697">
        <ele>90.4</ele>
        <time>2024-02-18T09:06:30Z</time>
      </trkpt>
      <trkpt lat="46.66561" lon="0.51699">
        <ele>90.8</ele>
        <time>2024-02-18T09:06:32Z</time>
      </trkpt>
      <trkpt lat="46.66558" lon="0.51704">
        <ele>91.2</ele>
        <time>2024-02-18T09:06:35Z</time>
      </trkpt>
      <trkpt lat="46.66551" lon="0.51706">
        <ele>91.2</ele>
        <time>2024-02-18T09:06:37Z</time>
      </trkpt>
      <trkpt lat="46.66545" lon="0.5171">
        <ele>90.8</ele>
        <time>2024-02-18T09:06:39Z</time>
      </trkpt>
      <trkpt lat="46.66542" lon="0.51713">
        <ele>90.6</ele>
        <time>2024-02-18T09:06:41Z</time>
      </trkpt>
      <trkpt lat="46.66542" lon="0.51714">
        <ele>90.4</ele>
        <time>2024-02-18T09:06:42Z</time>
      </trkpt>
      <trkpt lat="46.6654" lon="0.51716">
        <ele>90.6</ele>
        <time>2024-02-18T09:06:44Z</time>
      </trkpt>
      <trkpt lat="46.66535" lon="0.51723">
        <ele>90.4</ele>
        <time>2024-02-18T09:06:47Z</time>
      </trkpt>
      <trkpt lat="46.66534" lon="0.51725">
        <ele>90.4</ele>
        <time>2024-02-18T09:06:48Z</time>
      </trkpt>
      <trkpt lat="46.6653" lon="0.51735">
        <ele>90.2</ele>
        <time>2024-02-18T09:06:52Z</time>
      </trkpt>
      <trkpt lat="46.66527" lon="0.51745">
        <ele>90.8</ele>
        <time>2024-02-18T09:06:56Z</time>
      </trkpt>
      <trkpt lat="46.66526" lon="0.51756">
        <ele>91.2</ele>
        <time>2024-02-18T09:07:00Z</time>
      </trkpt>
      <trkpt lat="46.66526" lon="0.51759">
        <ele>91.4</ele>
        <time>2024-02-18T09:07:02Z</time>
      </trkpt>
      <trkpt lat="46.66527" lon="0.51766">
        <ele>92.6</ele>
        <time>2024-02-18T09:07:06Z</time>
      </trkpt>
      <trkpt lat="46.66528" lon="0.5177">
        <ele>93.6</ele>
        <time>2024-02-18T09:07:08Z</time>
      </trkpt>
      <trkpt lat="46.66531" lon="0.51776">
        <ele>94.6</ele>
        <time>2024-02-18T09:07:12Z</time>
      </trkpt>
      <trkpt lat="46.66531" lon="0.51777">
        <ele>94.8</ele>
        <time>2024-02-18T09:07:13Z</time>
      </trkpt>
      <trkpt lat="46.66535" lon="0.51784">
        <ele>95.4</ele>
        <time>2024-02-18T09:07:17Z</time>
      </trkpt>
      <trkpt lat="46.66536" lon="0.51786">
        <ele>96</ele>
        <time>2024-02-18T09:07:18Z</time>
      </trkpt>
      <trkpt lat="46.66543" lon="0.51791">
        <ele>97</ele>
        <time>2024-02-18T09:07:22Z</time>
      </trkpt>
      <trkpt lat="46.66546" lon="0.51794">
        <ele>97.4</ele>
        <time>2024-02-18T09:07:25Z</time>
      </trkpt>
      <trkpt lat="46.6655" lon="0.51798">
        <ele>98.2</ele>
        <time>2024-02-18T09:07:28Z</time>
      </trkpt>
      <trkpt lat="46.66555" lon="0.51803">
        <ele>99.4</ele>
        <time>2024-02-18T09:07:32Z</time>
      </trkpt>
      <trkpt lat="46.66559" lon="0.51806">
        <ele>100</ele>
        <time>2024-02-18T09:07:36Z</time>
      </trkpt>
      <trkpt lat="46.66561" lon="0.51808">
        <ele>100.6</ele>
        <time>2024-02-18T09:07:38Z</time>
      </trkpt>
      <trkpt lat="46.66569" lon="0.51813">
        <ele>101.6</ele>
        <time>2024-02-18T09:07:44Z</time>
      </trkpt>
      <trkpt lat="46.66576" lon="0.51817">
        <ele>102.6</ele>
        <time>2024-02-18T09:07:47Z</time>
      </trkpt>
      <trkpt lat="46.6658" lon="0.51818">
        <ele>103.2</ele>
        <time>2024-02-18T09:07:49Z</time>
      </trkpt>
      <trkpt lat="46.66584" lon="0.51819">
        <ele>103.6</ele>
        <time>2024-02-18T09:07:51Z</time>
      </trkpt>
      <trkpt lat="46.66602" lon="0.51829">
        <ele>104.8</ele>
        <time>2024-02-18T09:08:01Z</time>
      </trkpt>
      <trkpt lat="46.66605" lon="0.51831">
        <ele>105.2</ele>
        <time>2024-02-18T09:08:03Z</time>
      </trkpt>
      <trkpt lat="46.6661" lon="0.51835">
        <ele>106</ele>
        <time>2024-02-18T09:08:06Z</time>
      </trkpt>
      <trkpt lat="46.66609" lon="0.51844">
        <ele>106.4</ele>
        <time>2024-02-18T09:08:09Z</time>
      </trkpt>
      <trkpt lat="46.66609" lon="0.51847">
        <ele>106.4</ele>
        <time>2024-02-18T09:08:10Z</time>
      </trkpt>
      <trkpt lat="46.66606" lon="0.51865">
        <ele>106.6</ele>
        <time>2024-02-18T09:08:18Z</time>
      </trkpt>
      <trkpt lat="46.66608" lon="0.51868">
        <ele>107</ele>
        <time>2024-02-18T09:08:20Z</time>
      </trkpt>
      <trkpt lat="46.66609" lon="0.51875">
        <ele>107.6</ele>
        <time>2024-02-18T09:08:23Z</time>
      </trkpt>
      <trkpt lat="46.6661" lon="0.5188">
        <ele>108.4</ele>
        <time>2024-02-18T09:08:25Z</time>
      </trkpt>
      <trkpt lat="46.6661" lon="0.51882">
        <ele>108.6</ele>
        <time>2024-02-18T09:08:26Z</time>
      </trkpt>
      <trkpt lat="46.66612" lon="0.51893">
        <ele>109.2</ele>
        <time>2024-02-18T09:08:30Z</time>
      </trkpt>
      <trkpt lat="46.66612" lon="0.51899">
        <ele>109.4</ele>
        <time>2024-02-18T09:08:32Z</time>
      </trkpt>
      <trkpt lat="46.6661" lon="0.5191">
        <ele>109.8</ele>
        <time>2024-02-18T09:08:35Z</time>
      </trkpt>
      <trkpt lat="46.66605" lon="0.51911">
        <ele>109.8</ele>
        <time>2024-02-18T09:08:38Z</time>
      </trkpt>
      <trkpt lat="46.66604" lon="0.5191">
        <ele>109.6</ele>
        <time>2024-02-18T09:08:39Z</time>
      </trkpt>
      <trkpt lat="46.66602" lon="0.51907">
        <ele>109.4</ele>
        <time>2024-02-18T09:08:42Z</time>
      </trkpt>
      <trkpt lat="46.66599" lon="0.5191">
        <ele>109.2</ele>
        <time>2024-02-18T09:08:44Z</time>
      </trkpt>
      <trkpt lat="46.66597" lon="0.51914">
        <ele>109</ele>
        <time>2024-02-18T09:08:46Z</time>
      </trkpt>
      <trkpt lat="46.66592" lon="0.51934">
        <ele>108.8</ele>
        <time>2024-02-18T09:08:52Z</time>
      </trkpt>
      <trkpt lat="46.6659" lon="0.51939">
        <ele>108.6</ele>
        <time>2024-02-18T09:08:54Z</time>
      </trkpt>
      <trkpt lat="46.66591" lon="0.51945">
        <ele>108.4</ele>
        <time>2024-02-18T09:08:56Z</time>
      </trkpt>
      <trkpt lat="46.66589" lon="0.51957">
        <ele>108.6</ele>
        <time>2024-02-18T09:09:00Z</time>
      </trkpt>
      <trkpt lat="46.66579" lon="0.51971">
        <ele>108.6</ele>
        <time>2024-02-18T09:09:05Z</time>
      </trkpt>
      <trkpt lat="46.66575" lon="0.51977">
        <ele>108.2</ele>
        <time>2024-02-18T09:09:07Z</time>
      </trkpt>
      <trkpt lat="46.66575" lon="0.51984">
        <ele>108.2</ele>
        <time>2024-02-18T09:09:09Z</time>
      </trkpt>
      <trkpt lat="46.66575" lon="0.51988">
        <ele>108.2</ele>
        <time>2024-02-18T09:09:11Z</time>
      </trkpt>
      <trkpt lat="46.66577" lon="0.51991">
        <ele>108.8</ele>
        <time>2024-02-18T09:09:14Z</time>
      </trkpt>
      <trkpt lat="46.66578" lon="0.51993">
        <ele>109</ele>
        <time>2024-02-18T09:09:15Z</time>
      </trkpt>
      <trkpt lat="46.66577" lon="0.52">
        <ele>109.4</ele>
        <time>2024-02-18T09:09:18Z</time>
      </trkpt>
      <trkpt lat="46.66578" lon="0.52004">
        <ele>109.4</ele>
        <time>2024-02-18T09:09:20Z</time>
      </trkpt>
      <trkpt lat="46.66579" lon="0.52015">
        <ele>109.2</ele>
        <time>2024-02-18T09:09:24Z</time>
      </trkpt>
      <trkpt lat="46.66578" lon="0.52019">
        <ele>109.2</ele>
        <time>2024-02-18T09:09:25Z</time>
      </trkpt>
      <trkpt lat="46.66575" lon="0.52033">
        <ele>109</ele>
        <time>2024-02-18T09:09:29Z</time>
      </trkpt>
      <trkpt lat="46.66574" lon="0.52033">
        <ele>108.8</ele>
        <time>2024-02-18T09:09:30Z</time>
      </trkpt>
      <trkpt lat="46.66571" lon="0.52033">
        <ele>108</ele>
        <time>2024-02-18T09:09:33Z</time>
      </trkpt>
      <trkpt lat="46.6657" lon="0.52031">
        <ele>107.8</ele>
        <time>2024-02-18T09:09:35Z</time>
      </trkpt>
      <trkpt lat="46.66568" lon="0.52029">
        <ele>107.4</ele>
        <time>2024-02-18T09:09:38Z</time>
      </trkpt>
      <trkpt lat="46.66566" lon="0.52029">
        <ele>107.2</ele>
        <time>2024-02-18T09:09:39Z</time>
      </trkpt>
      <trkpt lat="46.66559" lon="0.52028">
        <ele>106.2</ele>
        <time>2024-02-18T09:09:44Z</time>
      </trkpt>
      <trkpt lat="46.66559" lon="0.52027">
        <ele>106</ele>
        <time>2024-02-18T09:09:45Z</time>
      </trkpt>
      <trkpt lat="46.66556" lon="0.52019">
        <ele>105.6</ele>
        <time>2024-02-18T09:09:49Z</time>
      </trkpt>
      <trkpt lat="46.66554" lon="0.52013">
        <ele>105.8</ele>
        <time>2024-02-18T09:09:52Z</time>
      </trkpt>
      <trkpt lat="46.6655" lon="0.52011">
        <ele>105.8</ele>
        <time>2024-02-18T09:09:54Z</time>
      </trkpt>
      <trkpt lat="46.66547" lon="0.52008">
        <ele>105</ele>
        <time>2024-02-18T09:09:57Z</time>
      </trkpt>
      <trkpt lat="46.66547" lon="0.52008">
        <ele>104.6</ele>
        <time>2024-02-18T09:09:59Z</time>
      </trkpt>
      <trkpt lat="46.66547" lon="0.52007">
        <ele>104.2</ele>
        <time>2024-02-18T09:10:14Z</time>
      </trkpt>
      <trkpt lat="46.66542" lon="0.52003">
        <ele>104</ele>
        <time>2024-02-18T09:10:24Z</time>
      </trkpt>
      <trkpt lat="46.66541" lon="0.52002">
        <ele>103.8</ele>
        <time>2024-02-18T09:10:25Z</time>
      </trkpt>
      <trkpt lat="46.66539" lon="0.52001">
        <ele>103.4</ele>
        <time>2024-02-18T09:10:26Z</time>
      </trkpt>
      <trkpt lat="46.66535" lon="0.52002">
        <ele>102.8</ele>
        <time>2024-02-18T09:10:28Z</time>
      </trkpt>
      <trkpt lat="46.66533" lon="0.52007">
        <ele>101.8</ele>
        <time>2024-02-18T09:10:30Z</time>
      </trkpt>
      <trkpt lat="46.66532" lon="0.52009">
        <ele>101.4</ele>
        <time>2024-02-18T09:10:31Z</time>
      </trkpt>
      <trkpt lat="46.66532" lon="0.52011">
        <ele>101</ele>
        <time>2024-02-18T09:10:32Z</time>
      </trkpt>
      <trkpt lat="46.66531" lon="0.52014">
        <ele>101</ele>
        <time>2024-02-18T09:10:34Z</time>
      </trkpt>
      <trkpt lat="46.66528" lon="0.52023">
        <ele>101.4</ele>
        <time>2024-02-18T09:10:38Z</time>
      </trkpt>
      <trkpt lat="46.66519" lon="0.52033">
        <ele>102</ele>
        <time>2024-02-18T09:10:45Z</time>
      </trkpt>
      <trkpt lat="46.66517" lon="0.52034">
        <ele>102</ele>
        <time>2024-02-18T09:11:07Z</time>
      </trkpt>
      <trkpt lat="46.6651" lon="0.5204">
        <ele>101.2</ele>
        <time>2024-02-18T09:11:14Z</time>
      </trkpt>
      <trkpt lat="46.66505" lon="0.52045">
        <ele>100.4</ele>
        <time>2024-02-18T09:11:17Z</time>
      </trkpt>
      <trkpt lat="46.66509" lon="0.52049">
        <ele>100.2</ele>
        <time>2024-02-18T09:11:20Z</time>
      </trkpt>
      <trkpt lat="46.66513" lon="0.52052">
        <ele>101.2</ele>
        <time>2024-02-18T09:11:25Z</time>
      </trkpt>
      <trkpt lat="46.66516" lon="0.52054">
        <ele>101.2</ele>
        <time>2024-02-18T09:11:27Z</time>
      </trkpt>
      <trkpt lat="46.66519" lon="0.52062">
        <ele>101.8</ele>
        <time>2024-02-18T09:11:31Z</time>
      </trkpt>
      <trkpt lat="46.66522" lon="0.52068">
        <ele>102.8</ele>
        <time>2024-02-18T09:11:35Z</time>
      </trkpt>
      <trkpt lat="46.66523" lon="0.52068">
        <ele>102.8</ele>
        <time>2024-02-18T09:11:37Z</time>
      </trkpt>
      <trkpt lat="46.66523" lon="0.52066">
        <ele>102.6</ele>
        <time>2024-02-18T09:11:40Z</time>
      </trkpt>
      <trkpt lat="46.66522" lon="0.52063">
        <ele>102.8</ele>
        <time>2024-02-18T09:11:43Z</time>
      </trkpt>
      <trkpt lat="46.66525" lon="0.5206">
        <ele>101.6</ele>
        <time>2024-02-18T09:11:47Z</time>
      </trkpt>
      <trkpt lat="46.66526" lon="0.52061">
        <ele>101.2</ele>
        <time>2024-02-18T09:11:48Z</time>
      </trkpt>
      <trkpt lat="46.66532" lon="0.52061">
        <ele>100.8</ele>
        <time>2024-02-18T09:11:52Z</time>
      </trkpt>
      <trkpt lat="46.66534" lon="0.52067">
        <ele>101</ele>
        <time>2024-02-18T09:11:55Z</time>
      </trkpt>
      <trkpt lat="46.66535" lon="0.52082">
        <ele>101.8</ele>
        <time>2024-02-18T09:12:01Z</time>
      </trkpt>
      <trkpt lat="46.66536" lon="0.52085">
        <ele>102.2</ele>
        <time>2024-02-18T09:12:03Z</time>
      </trkpt>
      <trkpt lat="46.66537" lon="0.5209">
        <ele>102.6</ele>
        <time>2024-02-18T09:12:06Z</time>
      </trkpt>
      <trkpt lat="46.66535" lon="0.52091">
        <ele>103</ele>
        <time>2024-02-18T09:12:08Z</time>
      </trkpt>
      <trkpt lat="46.66529" lon="0.5209">
        <ele>102.4</ele>
        <time>2024-02-18T09:12:11Z</time>
      </trkpt>
      <trkpt lat="46.66524" lon="0.52093">
        <ele>101.6</ele>
        <time>2024-02-18T09:12:13Z</time>
      </trkpt>
      <trkpt lat="46.66521" lon="0.52096">
        <ele>101.2</ele>
        <time>2024-02-18T09:12:15Z</time>
      </trkpt>
      <trkpt lat="46.66517" lon="0.52108">
        <ele>101.4</ele>
        <time>2024-02-18T09:12:20Z</time>
      </trkpt>
      <trkpt lat="46.66517" lon="0.52129">
        <ele>100.2</ele>
        <time>2024-02-18T09:12:26Z</time>
      </trkpt>
      <trkpt lat="46.66519" lon="0.52133">
        <ele>99.6</ele>
        <time>2024-02-18T09:12:29Z</time>
      </trkpt>
      <trkpt lat="46.66519" lon="0.52134">
        <ele>99.8</ele>
        <time>2024-02-18T09:12:30Z</time>
      </trkpt>
      <trkpt lat="46.66523" lon="0.52142">
        <ele>101.4</ele>
        <time>2024-02-18T09:12:36Z</time>
      </trkpt>
      <trkpt lat="46.6653" lon="0.52148">
        <ele>101.4</ele>
        <time>2024-02-18T09:12:42Z</time>
      </trkpt>
      <trkpt lat="46.66532" lon="0.52148">
        <ele>101.4</ele>
        <time>2024-02-18T09:12:44Z</time>
      </trkpt>
      <trkpt lat="46.66532" lon="0.52149">
        <ele>101.4</ele>
        <time>2024-02-18T09:12:45Z</time>
      </trkpt>
      <trkpt lat="46.66535" lon="0.52149">
        <ele>102.2</ele>
        <time>2024-02-18T09:12:48Z</time>
      </trkpt>
      <trkpt lat="46.66537" lon="0.52149">
        <ele>102.6</ele>
        <time>2024-02-18T09:12:49Z</time>
      </trkpt>
      <trkpt lat="46.66541" lon="0.52151">
        <ele>103.8</ele>
        <time>2024-02-18T09:12:53Z</time>
      </trkpt>
      <trkpt lat="46.66545" lon="0.5216">
        <ele>104</ele>
        <time>2024-02-18T09:12:58Z</time>
      </trkpt>
      <trkpt lat="46.66543" lon="0.52165">
        <ele>103.8</ele>
        <time>2024-02-18T09:13:00Z</time>
      </trkpt>
      <trkpt lat="46.66541" lon="0.52168">
        <ele>102.8</ele>
        <time>2024-02-18T09:13:03Z</time>
      </trkpt>
      <trkpt lat="46.6654" lon="0.52168">
        <ele>102.4</ele>
        <time>2024-02-18T09:13:04Z</time>
      </trkpt>
      <trkpt lat="46.66539" lon="0.52168">
        <ele>101.8</ele>
        <time>2024-02-18T09:13:05Z</time>
      </trkpt>
      <trkpt lat="46.66538" lon="0.52168">
        <ele>101.6</ele>
        <time>2024-02-18T09:13:06Z</time>
      </trkpt>
      <trkpt lat="46.66533" lon="0.52169">
        <ele>100.8</ele>
        <time>2024-02-18T09:13:09Z</time>
      </trkpt>
      <trkpt lat="46.66531" lon="0.52171">
        <ele>100.4</ele>
        <time>2024-02-18T09:13:10Z</time>
      </trkpt>
      <trkpt lat="46.66529" lon="0.52172">
        <ele>100.2</ele>
        <time>2024-02-18T09:13:11Z</time>
      </trkpt>
      <trkpt lat="46.66522" lon="0.52173">
        <ele>98.4</ele>
        <time>2024-02-18T09:13:13Z</time>
      </trkpt>
      <trkpt lat="46.6652" lon="0.52172">
        <ele>97.4</ele>
        <time>2024-02-18T09:13:14Z</time>
      </trkpt>
      <trkpt lat="46.66517" lon="0.5217">
        <ele>96.8</ele>
        <time>2024-02-18T09:13:15Z</time>
      </trkpt>
      <trkpt lat="46.66516" lon="0.52169">
        <ele>96.4</ele>
        <time>2024-02-18T09:13:16Z</time>
      </trkpt>
      <trkpt lat="46.66516" lon="0.52166">
        <ele>96</ele>
        <time>2024-02-18T09:13:18Z</time>
      </trkpt>
      <trkpt lat="46.66515" lon="0.52165">
        <ele>95.8</ele>
        <time>2024-02-18T09:13:19Z</time>
      </trkpt>
      <trkpt lat="46.66513" lon="0.52163">
        <ele>95.6</ele>
        <time>2024-02-18T09:13:20Z</time>
      </trkpt>
      <trkpt lat="46.66507" lon="0.52159">
        <ele>95.4</ele>
        <time>2024-02-18T09:13:23Z</time>
      </trkpt>
      <trkpt lat="46.66505" lon="0.52158">
        <ele>95.4</ele>
        <time>2024-02-18T09:13:24Z</time>
      </trkpt>
      <trkpt lat="46.66495" lon="0.52156">
        <ele>94.8</ele>
        <time>2024-02-18T09:13:28Z</time>
      </trkpt>
      <trkpt lat="46.66491" lon="0.52153">
        <ele>94.6</ele>
        <time>2024-02-18T09:13:31Z</time>
      </trkpt>
      <trkpt lat="46.66487" lon="0.52145">
        <ele>94.6</ele>
        <time>2024-02-18T09:13:35Z</time>
      </trkpt>
      <trkpt lat="46.66486" lon="0.52144">
        <ele>94.4</ele>
        <time>2024-02-18T09:13:36Z</time>
      </trkpt>
      <trkpt lat="46.66479" lon="0.52134">
        <ele>94.2</ele>
        <time>2024-02-18T09:13:44Z</time>
      </trkpt>
      <trkpt lat="46.66471" lon="0.52126">
        <ele>94.6</ele>
        <time>2024-02-18T09:13:56Z</time>
      </trkpt>
      <trkpt lat="46.6647" lon="0.52124">
        <ele>94.6</ele>
        <time>2024-02-18T09:13:57Z</time>
      </trkpt>
      <trkpt lat="46.66469" lon="0.52121">
        <ele>94.8</ele>
        <time>2024-02-18T09:13:59Z</time>
      </trkpt>
      <trkpt lat="46.66464" lon="0.52109">
        <ele>95.2</ele>
        <time>2024-02-18T09:14:04Z</time>
      </trkpt>
      <trkpt lat="46.66462" lon="0.52107">
        <ele>95.2</ele>
        <time>2024-02-18T09:14:07Z</time>
      </trkpt>
      <trkpt lat="46.66461" lon="0.52107">
        <ele>95.6</ele>
        <time>2024-02-18T09:14:09Z</time>
      </trkpt>
      <trkpt lat="46.66462" lon="0.52107">
        <ele>96.2</ele>
        <time>2024-02-18T09:14:10Z</time>
      </trkpt>
      <trkpt lat="46.6646" lon="0.52112">
        <ele>96.2</ele>
        <time>2024-02-18T09:14:15Z</time>
      </trkpt>
      <trkpt lat="46.66461" lon="0.52114">
        <ele>96.2</ele>
        <time>2024-02-18T09:14:17Z</time>
      </trkpt>
      <trkpt lat="46.66461" lon="0.52115">
        <ele>96.2</ele>
        <time>2024-02-18T09:14:18Z</time>
      </trkpt>
      <trkpt lat="46.66459" lon="0.52118">
        <ele>96.2</ele>
        <time>2024-02-18T09:14:21Z</time>
      </trkpt>
      <trkpt lat="46.66457" lon="0.52121">
        <ele>96.4</ele>
        <time>2024-02-18T09:14:23Z</time>
      </trkpt>
      <trkpt lat="46.66457" lon="0.52123">
        <ele>96.8</ele>
        <time>2024-02-18T09:14:24Z</time>
      </trkpt>
      <trkpt lat="46.66456" lon="0.52125">
        <ele>97</ele>
        <time>2024-02-18T09:14:26Z</time>
      </trkpt>
      <trkpt lat="46.66455" lon="0.52128">
        <ele>97.8</ele>
        <time>2024-02-18T09:14:28Z</time>
      </trkpt>
      <trkpt lat="46.6645" lon="0.52135">
        <ele>98.6</ele>
        <time>2024-02-18T09:14:36Z</time>
      </trkpt>
      <trkpt lat="46.66449" lon="0.52133">
        <ele>98.4</ele>
        <time>2024-02-18T09:14:53Z</time>
      </trkpt>
      <trkpt lat="46.66446" lon="0.52137">
        <ele>98</ele>
        <time>2024-02-18T09:15:03Z</time>
      </trkpt>
      <trkpt lat="46.66444" lon="0.5214">
        <ele>98</ele>
        <time>2024-02-18T09:15:20Z</time>
      </trkpt>
      <trkpt lat="46.6644" lon="0.52142">
        <ele>98.6</ele>
        <time>2024-02-18T09:15:26Z</time>
      </trkpt>
      <trkpt lat="46.66439" lon="0.52145">
        <ele>98.6</ele>
        <time>2024-02-18T09:15:28Z</time>
      </trkpt>
      <trkpt lat="46.66438" lon="0.52146">
        <ele>98.6</ele>
        <time>2024-02-18T09:15:29Z</time>
      </trkpt>
      <trkpt lat="46.66436" lon="0.52148">
        <ele>99</ele>
        <time>2024-02-18T09:15:31Z</time>
      </trkpt>
      <trkpt lat="46.66435" lon="0.5215">
        <ele>100</ele>
        <time>2024-02-18T09:15:33Z</time>
      </trkpt>
      <trkpt lat="46.66435" lon="0.52152">
        <ele>100.2</ele>
        <time>2024-02-18T09:15:34Z</time>
      </trkpt>
      <trkpt lat="46.66432" lon="0.52157">
        <ele>100.2</ele>
        <time>2024-02-18T09:15:37Z</time>
      </trkpt>
      <trkpt lat="46.66431" lon="0.52159">
        <ele>100.2</ele>
        <time>2024-02-18T09:15:38Z</time>
      </trkpt>
      <trkpt lat="46.66426" lon="0.52172">
        <ele>100.4</ele>
        <time>2024-02-18T09:15:43Z</time>
      </trkpt>
      <trkpt lat="46.66426" lon="0.52177">
        <ele>100.2</ele>
        <time>2024-02-18T09:15:45Z</time>
      </trkpt>
      <trkpt lat="46.66425" lon="0.5218">
        <ele>100.2</ele>
        <time>2024-02-18T09:15:46Z</time>
      </trkpt>
      <trkpt lat="46.66418" lon="0.52188">
        <ele>100.4</ele>
        <time>2024-02-18T09:15:49Z</time>
      </trkpt>
      <trkpt lat="46.66405" lon="0.52195">
        <ele>100.6</ele>
        <time>2024-02-18T09:15:54Z</time>
      </trkpt>
      <trkpt lat="46.66401" lon="0.52195">
        <ele>101</ele>
        <time>2024-02-18T09:15:56Z</time>
      </trkpt>
      <trkpt lat="46.664" lon="0.52194">
        <ele>101</ele>
        <time>2024-02-18T09:15:57Z</time>
      </trkpt>
      <trkpt lat="46.664" lon="0.52191">
        <ele>100.6</ele>
        <time>2024-02-18T09:15:59Z</time>
      </trkpt>
      <trkpt lat="46.66399" lon="0.5219">
        <ele>100.4</ele>
        <time>2024-02-18T09:16:00Z</time>
      </trkpt>
      <trkpt lat="46.66397" lon="0.52188">
        <ele>100.2</ele>
        <time>2024-02-18T09:16:02Z</time>
      </trkpt>
      <trkpt lat="46.66394" lon="0.52187">
        <ele>100</ele>
        <time>2024-02-18T09:16:03Z</time>
      </trkpt>
      <trkpt lat="46.6639" lon="0.52187">
        <ele>100</ele>
        <time>2024-02-18T09:16:05Z</time>
      </trkpt>
      <trkpt lat="46.66385" lon="0.52185">
        <ele>101</ele>
        <time>2024-02-18T09:16:08Z</time>
      </trkpt>
      <trkpt lat="46.66378" lon="0.52172">
        <ele>102</ele>
        <time>2024-02-18T09:16:14Z</time>
      </trkpt>
      <trkpt lat="46.66377" lon="0.52171">
        <ele>102</ele>
        <time>2024-02-18T09:16:15Z</time>
      </trkpt>
      <trkpt lat="46.66375" lon="0.5217">
        <ele>102</ele>
        <time>2024-02-18T09:16:16Z</time>
      </trkpt>
      <trkpt lat="46.6637" lon="0.52169">
        <ele>102.2</ele>
        <time>2024-02-18T09:16:19Z</time>
      </trkpt>
      <trkpt lat="46.66368" lon="0.52167">
        <ele>102.2</ele>
        <time>2024-02-18T09:16:20Z</time>
      </trkpt>
      <trkpt lat="46.6636" lon="0.52162">
        <ele>102.2</ele>
        <time>2024-02-18T09:16:24Z</time>
      </trkpt>
      <trkpt lat="46.66359" lon="0.5216">
        <ele>102.2</ele>
        <time>2024-02-18T09:16:25Z</time>
      </trkpt>
      <trkpt lat="46.66356" lon="0.52155">
        <ele>102.2</ele>
        <time>2024-02-18T09:16:27Z</time>
      </trkpt>
      <trkpt lat="46.66355" lon="0.52148">
        <ele>102.2</ele>
        <time>2024-02-18T09:16:29Z</time>
      </trkpt>
      <trkpt lat="46.66354" lon="0.52144">
        <ele>102.2</ele>
        <time>2024-02-18T09:16:30Z</time>
      </trkpt>
      <trkpt lat="46.66352" lon="0.52132">
        <ele>102.2</ele>
        <time>2024-02-18T09:16:33Z</time>
      </trkpt>
      <trkpt lat="46.66352" lon="0.52128">
        <ele>102</ele>
        <time>2024-02-18T09:16:35Z</time>
      </trkpt>
      <trkpt lat="46.66352" lon="0.52125">
        <ele>102</ele>
        <time>2024-02-18T09:16:37Z</time>
      </trkpt>
      <trkpt lat="46.66351" lon="0.52121">
        <ele>102</ele>
        <time>2024-02-18T09:16:39Z</time>
      </trkpt>
      <trkpt lat="46.6635" lon="0.52119">
        <ele>102</ele>
        <time>2024-02-18T09:16:40Z</time>
      </trkpt>
      <trkpt lat="46.66352" lon="0.52099">
        <ele>102</ele>
        <time>2024-02-18T09:16:47Z</time>
      </trkpt>
      <trkpt lat="46.66346" lon="0.52095">
        <ele>101.8</ele>
        <time>2024-02-18T09:16:52Z</time>
      </trkpt>
      <trkpt lat="46.66344" lon="0.52095">
        <ele>101.8</ele>
        <time>2024-02-18T09:16:53Z</time>
      </trkpt>
      <trkpt lat="46.66337" lon="0.52092">
        <ele>102.2</ele>
        <time>2024-02-18T09:16:57Z</time>
      </trkpt>
      <trkpt lat="46.66334" lon="0.52094">
        <ele>102.8</ele>
        <time>2024-02-18T09:17:00Z</time>
      </trkpt>
      <trkpt lat="46.66334" lon="0.52095">
        <ele>102.8</ele>
        <time>2024-02-18T09:17:01Z</time>
      </trkpt>
      <trkpt lat="46.66328" lon="0.52092">
        <ele>103</ele>
        <time>2024-02-18T09:17:05Z</time>
      </trkpt>
      <trkpt lat="46.6632" lon="0.52091">
        <ele>102.8</ele>
        <time>2024-02-18T09:17:09Z</time>
      </trkpt>
      <trkpt lat="46.66318" lon="0.52094">
        <ele>102.6</ele>
        <time>2024-02-18T09:17:11Z</time>
      </trkpt>
      <trkpt lat="46.66313" lon="0.521">
        <ele>103.2</ele>
        <time>2024-02-18T09:17:16Z</time>
      </trkpt>
      <trkpt lat="46.66311" lon="0.52104">
        <ele>103.8</ele>
        <time>2024-02-18T09:17:19Z</time>
      </trkpt>
      <trkpt lat="46.66309" lon="0.52107">
        <ele>104.6</ele>
        <time>2024-02-18T09:17:21Z</time>
      </trkpt>
      <trkpt lat="46.66306" lon="0.52107">
        <ele>104.8</ele>
        <time>2024-02-18T09:17:23Z</time>
      </trkpt>
      <trkpt lat="46.66306" lon="0.52105">
        <ele>105</ele>
        <time>2024-02-18T09:17:24Z</time>
      </trkpt>
      <trkpt lat="46.663" lon="0.52092">
        <ele>104.2</ele>
        <time>2024-02-18T09:17:32Z</time>
      </trkpt>
      <trkpt lat="46.66304" lon="0.52083">
        <ele>104.6</ele>
        <time>2024-02-18T09:17:38Z</time>
      </trkpt>
      <trkpt lat="46.66306" lon="0.52083">
        <ele>104.4</ele>
        <time>2024-02-18T09:17:39Z</time>
      </trkpt>
      <trkpt lat="46.6631" lon="0.52081">
        <ele>104.4</ele>
        <time>2024-02-18T09:17:42Z</time>
      </trkpt>
      <trkpt lat="46.66312" lon="0.52075">
        <ele>103.6</ele>
        <time>2024-02-18T09:17:45Z</time>
      </trkpt>
      <trkpt lat="46.66314" lon="0.52072">
        <ele>103.4</ele>
        <time>2024-02-18T09:17:46Z</time>
      </trkpt>
      <trkpt lat="46.66316" lon="0.5207">
        <ele>103.2</ele>
        <time>2024-02-18T09:17:47Z</time>
      </trkpt>
      <trkpt lat="46.6632" lon="0.52068">
        <ele>103</ele>
        <time>2024-02-18T09:17:49Z</time>
      </trkpt>
      <trkpt lat="46.66331" lon="0.52072">
        <ele>102.8</ele>
        <time>2024-02-18T09:17:54Z</time>
      </trkpt>
      <trkpt lat="46.66333" lon="0.52069">
        <ele>102.4</ele>
        <time>2024-02-18T09:17:56Z</time>
      </trkpt>
      <trkpt lat="46.66334" lon="0.52067">
        <ele>102.2</ele>
        <time>2024-02-18T09:17:57Z</time>
      </trkpt>
      <trkpt lat="46.66335" lon="0.52064">
        <ele>102.4</ele>
        <time>2024-02-18T09:17:58Z</time>
      </trkpt>
      <trkpt lat="46.66331" lon="0.52055">
        <ele>102.4</ele>
        <time>2024-02-18T09:18:02Z</time>
      </trkpt>
      <trkpt lat="46.66329" lon="0.52054">
        <ele>102.6</ele>
        <time>2024-02-18T09:18:03Z</time>
      </trkpt>
      <trkpt lat="46.66324" lon="0.52049">
        <ele>102.8</ele>
        <time>2024-02-18T09:18:07Z</time>
      </trkpt>
      <trkpt lat="46.66316" lon="0.52028">
        <ele>102.8</ele>
        <time>2024-02-18T09:18:13Z</time>
      </trkpt>
      <trkpt lat="46.66303" lon="0.5201">
        <ele>102.2</ele>
        <time>2024-02-18T09:18:19Z</time>
      </trkpt>
      <trkpt lat="46.66294" lon="0.52002">
        <ele>101.2</ele>
        <time>2024-02-18T09:18:24Z</time>
      </trkpt>
      <trkpt lat="46.66289" lon="0.51986">
        <ele>101.4</ele>
        <time>2024-02-18T09:18:29Z</time>
      </trkpt>
      <trkpt lat="46.66287" lon="0.51969">
        <ele>101.4</ele>
        <time>2024-02-18T09:18:34Z</time>
      </trkpt>
      <trkpt lat="46.66285" lon="0.51964">
        <ele>101.6</ele>
        <time>2024-02-18T09:18:36Z</time>
      </trkpt>
      <trkpt lat="46.66281" lon="0.5196">
        <ele>101.8</ele>
        <time>2024-02-18T09:18:39Z</time>
      </trkpt>
      <trkpt lat="46.66279" lon="0.51952">
        <ele>101.8</ele>
        <time>2024-02-18T09:18:43Z</time>
      </trkpt>
      <trkpt lat="46.66279" lon="0.51949">
        <ele>101.8</ele>
        <time>2024-02-18T09:18:44Z</time>
      </trkpt>
      <trkpt lat="46.66277" lon="0.51934">
        <ele>101.8</ele>
        <time>2024-02-18T09:18:50Z</time>
      </trkpt>
      <trkpt lat="46.66275" lon="0.51931">
        <ele>101.6</ele>
        <time>2024-02-18T09:18:51Z</time>
      </trkpt>
      <trkpt lat="46.66274" lon="0.51922">
        <ele>101.6</ele>
        <time>2024-02-18T09:18:54Z</time>
      </trkpt>
      <trkpt lat="46.66274" lon="0.51913">
        <ele>101.8</ele>
        <time>2024-02-18T09:18:57Z</time>
      </trkpt>
      <trkpt lat="46.66275" lon="0.51909">
        <ele>102.2</ele>
        <time>2024-02-18T09:18:59Z</time>
      </trkpt>
      <trkpt lat="46.66272" lon="0.51904">
        <ele>102.4</ele>
        <time>2024-02-18T09:19:01Z</time>
      </trkpt>
      <trkpt lat="46.6627" lon="0.51903">
        <ele>101.4</ele>
        <time>2024-02-18T09:19:03Z</time>
      </trkpt>
      <trkpt lat="46.66269" lon="0.51902">
        <ele>101</ele>
        <time>2024-02-18T09:19:04Z</time>
      </trkpt>
      <trkpt lat="46.66268" lon="0.51901">
        <ele>101</ele>
        <time>2024-02-18T09:19:05Z</time>
      </trkpt>
      <trkpt lat="46.6626" lon="0.51891">
        <ele>102</ele>
        <time>2024-02-18T09:19:10Z</time>
      </trkpt>
      <trkpt lat="46.66259" lon="0.51891">
        <ele>102</ele>
        <time>2024-02-18T09:19:11Z</time>
      </trkpt>
      <trkpt lat="46.66258" lon="0.51891">
        <ele>102.2</ele>
        <time>2024-02-18T09:19:12Z</time>
      </trkpt>
      <trkpt lat="46.66256" lon="0.51895">
        <ele>102.2</ele>
        <time>2024-02-18T09:19:15Z</time>
      </trkpt>
      <trkpt lat="46.66251" lon="0.519">
        <ele>102</ele>
        <time>2024-02-18T09:19:20Z</time>
      </trkpt>
      <trkpt lat="46.66249" lon="0.51901">
        <ele>102</ele>
        <time>2024-02-18T09:19:21Z</time>
      </trkpt>
      <trkpt lat="46.66247" lon="0.51902">
        <ele>101.4</ele>
        <time>2024-02-18T09:19:23Z</time>
      </trkpt>
      <trkpt lat="46.66248" lon="0.51906">
        <ele>101</ele>
        <time>2024-02-18T09:19:25Z</time>
      </trkpt>
      <trkpt lat="46.6625" lon="0.51907">
        <ele>100.4</ele>
        <time>2024-02-18T09:19:27Z</time>
      </trkpt>
      <trkpt lat="46.6625" lon="0.51909">
        <ele>100.4</ele>
        <time>2024-02-18T09:19:29Z</time>
      </trkpt>
      <trkpt lat="46.6625" lon="0.5191">
        <ele>100.6</ele>
        <time>2024-02-18T09:19:30Z</time>
      </trkpt>
      <trkpt lat="46.6625" lon="0.51914">
        <ele>101.2</ele>
        <time>2024-02-18T09:19:33Z</time>
      </trkpt>
      <trkpt lat="46.66247" lon="0.51918">
        <ele>102</ele>
        <time>2024-02-18T09:19:36Z</time>
      </trkpt>
      <trkpt lat="46.66244" lon="0.51919">
        <ele>103</ele>
        <time>2024-02-18T09:19:38Z</time>
      </trkpt>
      <trkpt lat="46.66238" lon="0.51916">
        <ele>103.2</ele>
        <time>2024-02-18T09:19:43Z</time>
      </trkpt>
      <trkpt lat="46.66234" lon="0.51912">
        <ele>102.2</ele>
        <time>2024-02-18T09:19:48Z</time>
      </trkpt>
      <trkpt lat="46.66231" lon="0.51914">
        <ele>102.2</ele>
        <time>2024-02-18T09:19:53Z</time>
      </trkpt>
      <trkpt lat="46.66229" lon="0.51917">
        <ele>102.4</ele>
        <time>2024-02-18T09:19:55Z</time>
      </trkpt>
      <trkpt lat="46.66228" lon="0.51921">
        <ele>102.8</ele>
        <time>2024-02-18T09:19:57Z</time>
      </trkpt>
      <trkpt lat="46.66228" lon="0.51922">
        <ele>103</ele>
        <time>2024-02-18T09:19:58Z</time>
      </trkpt>
      <trkpt lat="46.66221" lon="0.51929">
        <ele>103.2</ele>
        <time>2024-02-18T09:20:03Z</time>
      </trkpt>
      <trkpt lat="46.66219" lon="0.51929">
        <ele>103.2</ele>
        <time>2024-02-18T09:20:04Z</time>
      </trkpt>
      <trkpt lat="46.66209" lon="0.51932">
        <ele>102.4</ele>
        <time>2024-02-18T09:20:09Z</time>
      </trkpt>
      <trkpt lat="46.6621" lon="0.51929">
        <ele>101.8</ele>
        <time>2024-02-18T09:20:10Z</time>
      </trkpt>
      <trkpt lat="46.66211" lon="0.51928">
        <ele>101.8</ele>
        <time>2024-02-18T09:20:12Z</time>
      </trkpt>
      <trkpt lat="46.66211" lon="0.51926">
        <ele>101.6</ele>
        <time>2024-02-18T09:20:13Z</time>
      </trkpt>
      <trkpt lat="46.66211" lon="0.51921">
        <ele>101.6</ele>
        <time>2024-02-18T09:20:16Z</time>
      </trkpt>
      <trkpt lat="46.66209" lon="0.51917">
        <ele>101.4</ele>
        <time>2024-02-18T09:20:18Z</time>
      </trkpt>
      <trkpt lat="46.66206" lon="0.51914">
        <ele>101.4</ele>
        <time>2024-02-18T09:20:21Z</time>
      </trkpt>
      <trkpt lat="46.66205" lon="0.5191">
        <ele>101.4</ele>
        <time>2024-02-18T09:20:24Z</time>
      </trkpt>
      <trkpt lat="46.66205" lon="0.51907">
        <ele>101.6</ele>
        <time>2024-02-18T09:20:26Z</time>
      </trkpt>
      <trkpt lat="46.66208" lon="0.51902">
        <ele>100.6</ele>
        <time>2024-02-18T09:20:32Z</time>
      </trkpt>
      <trkpt lat="46.66209" lon="0.51902">
        <ele>100.4</ele>
        <time>2024-02-18T09:20:33Z</time>
      </trkpt>
      <trkpt lat="46.66209" lon="0.51901">
        <ele>100.4</ele>
        <time>2024-02-18T09:20:35Z</time>
      </trkpt>
      <trkpt lat="46.66206" lon="0.51892">
        <ele>100.8</ele>
        <time>2024-02-18T09:20:43Z</time>
      </trkpt>
      <trkpt lat="46.66204" lon="0.51886">
        <ele>100.8</ele>
        <time>2024-02-18T09:20:46Z</time>
      </trkpt>
      <trkpt lat="46.66205" lon="0.51883">
        <ele>100.8</ele>
        <time>2024-02-18T09:20:49Z</time>
      </trkpt>
      <trkpt lat="46.66207" lon="0.51884">
        <ele>100.8</ele>
        <time>2024-02-18T09:20:51Z</time>
      </trkpt>
      <trkpt lat="46.6621" lon="0.51886">
        <ele>100.4</ele>
        <time>2024-02-18T09:20:54Z</time>
      </trkpt>
      <trkpt lat="46.66211" lon="0.51887">
        <ele>100.4</ele>
        <time>2024-02-18T09:20:56Z</time>
      </trkpt>
      <trkpt lat="46.66212" lon="0.51889">
        <ele>100.6</ele>
        <time>2024-02-18T09:20:58Z</time>
      </trkpt>
      <trkpt lat="46.66212" lon="0.5189">
        <ele>100.6</ele>
        <time>2024-02-18T09:20:59Z</time>
      </trkpt>
      <trkpt lat="46.66213" lon="0.51891">
        <ele>100.6</ele>
        <time>2024-02-18T09:21:00Z</time>
      </trkpt>
      <trkpt lat="46.66213" lon="0.51895">
        <ele>100.4</ele>
        <time>2024-02-18T09:21:03Z</time>
      </trkpt>
      <trkpt lat="46.66214" lon="0.51897">
        <ele>100.2</ele>
        <time>2024-02-18T09:21:05Z</time>
      </trkpt>
      <trkpt lat="46.66216" lon="0.51897">
        <ele>100</ele>
        <time>2024-02-18T09:21:07Z</time>
      </trkpt>
      <trkpt lat="46.66218" lon="0.51898">
        <ele>100.6</ele>
        <time>2024-02-18T09:21:09Z</time>
      </trkpt>
      <trkpt lat="46.66223" lon="0.5189">
        <ele>101</ele>
        <time>2024-02-18T09:21:14Z</time>
      </trkpt>
      <trkpt lat="46.66225" lon="0.51883">
        <ele>100.8</ele>
        <time>2024-02-18T09:21:17Z</time>
      </trkpt>
      <trkpt lat="46.66224" lon="0.51878">
        <ele>100.4</ele>
        <time>2024-02-18T09:21:19Z</time>
      </trkpt>
      <trkpt lat="46.66224" lon="0.51876">
        <ele>100</ele>
        <time>2024-02-18T09:21:20Z</time>
      </trkpt>
      <trkpt lat="46.66223" lon="0.51874">
        <ele>100</ele>
        <time>2024-02-18T09:21:21Z</time>
      </trkpt>
      <trkpt lat="46.66225" lon="0.51865">
        <ele>99.8</ele>
        <time>2024-02-18T09:21:25Z</time>
      </trkpt>
      <trkpt lat="46.66227" lon="0.51854">
        <ele>100.4</ele>
        <time>2024-02-18T09:21:30Z</time>
      </trkpt>
      <trkpt lat="46.66225" lon="0.5185">
        <ele>100.6</ele>
        <time>2024-02-18T09:21:32Z</time>
      </trkpt>
      <trkpt lat="46.66223" lon="0.51848">
        <ele>100.6</ele>
        <time>2024-02-18T09:21:35Z</time>
      </trkpt>
      <trkpt lat="46.66222" lon="0.51847">
        <ele>100.2</ele>
        <time>2024-02-18T09:21:37Z</time>
      </trkpt>
      <trkpt lat="46.66221" lon="0.51846">
        <ele>100</ele>
        <time>2024-02-18T09:21:38Z</time>
      </trkpt>
      <trkpt lat="46.66215" lon="0.51846">
        <ele>99.6</ele>
        <time>2024-02-18T09:21:41Z</time>
      </trkpt>
      <trkpt lat="46.66214" lon="0.51846">
        <ele>99.8</ele>
        <time>2024-02-18T09:21:42Z</time>
      </trkpt>
      <trkpt lat="46.66213" lon="0.51839">
        <ele>100</ele>
        <time>2024-02-18T09:21:46Z</time>
      </trkpt>
      <trkpt lat="46.66213" lon="0.51836">
        <ele>100</ele>
        <time>2024-02-18T09:21:47Z</time>
      </trkpt>
      <trkpt lat="46.66211" lon="0.51815">
        <ele>98.8</ele>
        <time>2024-02-18T09:21:53Z</time>
      </trkpt>
      <trkpt lat="46.66211" lon="0.51814">
        <ele>98.4</ele>
        <time>2024-02-18T09:21:54Z</time>
      </trkpt>
      <trkpt lat="46.66211" lon="0.51813">
        <ele>98.2</ele>
        <time>2024-02-18T09:21:56Z</time>
      </trkpt>
      <trkpt lat="46.66217" lon="0.51817">
        <ele>99.2</ele>
        <time>2024-02-18T09:22:03Z</time>
      </trkpt>
      <trkpt lat="46.6622" lon="0.51814">
        <ele>99.4</ele>
        <time>2024-02-18T09:22:07Z</time>
      </trkpt>
      <trkpt lat="46.66221" lon="0.51814">
        <ele>99.6</ele>
        <time>2024-02-18T09:22:08Z</time>
      </trkpt>
      <trkpt lat="46.66223" lon="0.51814">
        <ele>99.8</ele>
        <time>2024-02-18T09:22:09Z</time>
      </trkpt>
      <trkpt lat="46.66229" lon="0.51824">
        <ele>99.8</ele>
        <time>2024-02-18T09:22:16Z</time>
      </trkpt>
      <trkpt lat="46.66238" lon="0.51834">
        <ele>100.6</ele>
        <time>2024-02-18T09:22:24Z</time>
      </trkpt>
      <trkpt lat="46.66238" lon="0.51836">
        <ele>100.6</ele>
        <time>2024-02-18T09:22:25Z</time>
      </trkpt>
      <trkpt lat="46.66236" lon="0.5184">
        <ele>100.2</ele>
        <time>2024-02-18T09:22:27Z</time>
      </trkpt>
      <trkpt lat="46.66236" lon="0.51843">
        <ele>99.6</ele>
        <time>2024-02-18T09:22:29Z</time>
      </trkpt>
      <trkpt lat="46.66236" lon="0.51844">
        <ele>99.4</ele>
        <time>2024-02-18T09:22:30Z</time>
      </trkpt>
      <trkpt lat="46.66243" lon="0.51853">
        <ele>100.2</ele>
        <time>2024-02-18T09:22:37Z</time>
      </trkpt>
      <trkpt lat="46.66243" lon="0.51854">
        <ele>100.6</ele>
        <time>2024-02-18T09:22:38Z</time>
      </trkpt>
      <trkpt lat="46.66247" lon="0.51857">
        <ele>101.2</ele>
        <time>2024-02-18T09:22:41Z</time>
      </trkpt>
      <trkpt lat="46.66255" lon="0.51863">
        <ele>101.4</ele>
        <time>2024-02-18T09:22:46Z</time>
      </trkpt>
      <trkpt lat="46.66264" lon="0.51862">
        <ele>100.4</ele>
        <time>2024-02-18T09:22:52Z</time>
      </trkpt>
      <trkpt lat="46.66266" lon="0.51856">
        <ele>99.8</ele>
        <time>2024-02-18T09:22:54Z</time>
      </trkpt>
      <trkpt lat="46.66269" lon="0.51851">
        <ele>99.2</ele>
        <time>2024-02-18T09:22:56Z</time>
      </trkpt>
      <trkpt lat="46.66271" lon="0.51845">
        <ele>99.4</ele>
        <time>2024-02-18T09:22:58Z</time>
      </trkpt>
      <trkpt lat="46.66274" lon="0.51843">
        <ele>99.4</ele>
        <time>2024-02-18T09:22:59Z</time>
      </trkpt>
      <trkpt lat="46.6628" lon="0.51844">
        <ele>99.6</ele>
        <time>2024-02-18T09:23:03Z</time>
      </trkpt>
      <trkpt lat="46.66283" lon="0.51846">
        <ele>99.8</ele>
        <time>2024-02-18T09:23:06Z</time>
      </trkpt>
      <trkpt lat="46.66289" lon="0.51847">
        <ele>100.2</ele>
        <time>2024-02-18T09:23:10Z</time>
      </trkpt>
      <trkpt lat="46.6629" lon="0.51846">
        <ele>100.4</ele>
        <time>2024-02-18T09:23:11Z</time>
      </trkpt>
      <trkpt lat="46.66291" lon="0.51842">
        <ele>100.8</ele>
        <time>2024-02-18T09:23:13Z</time>
      </trkpt>
      <trkpt lat="46.6629" lon="0.51836">
        <ele>101</ele>
        <time>2024-02-18T09:23:16Z</time>
      </trkpt>
      <trkpt lat="46.66288" lon="0.51835">
        <ele>101.2</ele>
        <time>2024-02-18T09:23:17Z</time>
      </trkpt>
      <trkpt lat="46.66289" lon="0.51833">
        <ele>101</ele>
        <time>2024-02-18T09:23:18Z</time>
      </trkpt>
      <trkpt lat="46.66291" lon="0.51828">
        <ele>100.6</ele>
        <time>2024-02-18T09:23:20Z</time>
      </trkpt>
      <trkpt lat="46.66293" lon="0.51825">
        <ele>100.4</ele>
        <time>2024-02-18T09:23:21Z</time>
      </trkpt>
      <trkpt lat="46.66302" lon="0.51811">
        <ele>100.2</ele>
        <time>2024-02-18T09:23:27Z</time>
      </trkpt>
      <trkpt lat="46.66312" lon="0.51797">
        <ele>99.2</ele>
        <time>2024-02-18T09:23:32Z</time>
      </trkpt>
      <trkpt lat="46.66314" lon="0.51796">
        <ele>99</ele>
        <time>2024-02-18T09:23:33Z</time>
      </trkpt>
      <trkpt lat="46.66328" lon="0.51784">
        <ele>98.4</ele>
        <time>2024-02-18T09:23:40Z</time>
      </trkpt>
      <trkpt lat="46.66339" lon="0.51778">
        <ele>98.4</ele>
        <time>2024-02-18T09:23:44Z</time>
      </trkpt>
      <trkpt lat="46.66342" lon="0.51774">
        <ele>98.4</ele>
        <time>2024-02-18T09:23:45Z</time>
      </trkpt>
      <trkpt lat="46.66343" lon="0.5177">
        <ele>98.2</ele>
        <time>2024-02-18T09:23:46Z</time>
      </trkpt>
      <trkpt lat="46.66349" lon="0.51756">
        <ele>97.6</ele>
        <time>2024-02-18T09:23:50Z</time>
      </trkpt>
      <trkpt lat="46.66355" lon="0.51746">
        <ele>96.4</ele>
        <time>2024-02-18T09:23:52Z</time>
      </trkpt>
      <trkpt lat="46.66358" lon="0.51738">
        <ele>95.4</ele>
        <time>2024-02-18T09:23:54Z</time>
      </trkpt>
      <trkpt lat="46.66358" lon="0.51737">
        <ele>95</ele>
        <time>2024-02-18T09:23:55Z</time>
      </trkpt>
      <trkpt lat="46.66363" lon="0.51731">
        <ele>94.4</ele>
        <time>2024-02-18T09:23:58Z</time>
      </trkpt>
      <trkpt lat="46.66365" lon="0.5173">
        <ele>94.2</ele>
        <time>2024-02-18T09:23:59Z</time>
      </trkpt>
      <trkpt lat="46.66368" lon="0.51728">
        <ele>94.2</ele>
        <time>2024-02-18T09:24:01Z</time>
      </trkpt>
      <trkpt lat="46.6637" lon="0.51724">
        <ele>94</ele>
        <time>2024-02-18T09:24:03Z</time>
      </trkpt>
      <trkpt lat="46.66374" lon="0.51718">
        <ele>93.4</ele>
        <time>2024-02-18T09:24:06Z</time>
      </trkpt>
      <trkpt lat="46.66378" lon="0.51711">
        <ele>92.6</ele>
        <time>2024-02-18T09:24:09Z</time>
      </trkpt>
      <trkpt lat="46.66379" lon="0.51709">
        <ele>92.2</ele>
        <time>2024-02-18T09:24:10Z</time>
      </trkpt>
      <trkpt lat="46.66379" lon="0.51706">
        <ele>92</ele>
        <time>2024-02-18T09:24:11Z</time>
      </trkpt>
      <trkpt lat="46.66379" lon="0.51698">
        <ele>91.8</ele>
        <time>2024-02-18T09:24:14Z</time>
      </trkpt>
      <trkpt lat="46.66375" lon="0.51683">
        <ele>92</ele>
        <time>2024-02-18T09:24:21Z</time>
      </trkpt>
      <trkpt lat="46.6637" lon="0.51668">
        <ele>92.4</ele>
        <time>2024-02-18T09:24:26Z</time>
      </trkpt>
      <trkpt lat="46.66358" lon="0.51649">
        <ele>92.2</ele>
        <time>2024-02-18T09:24:32Z</time>
      </trkpt>
      <trkpt lat="46.66352" lon="0.51637">
        <ele>92</ele>
        <time>2024-02-18T09:24:38Z</time>
      </trkpt>
      <trkpt lat="46.66352" lon="0.51633">
        <ele>91.8</ele>
        <time>2024-02-18T09:24:41Z</time>
      </trkpt>
      <trkpt lat="46.66352" lon="0.51631">
        <ele>91.4</ele>
        <time>2024-02-18T09:24:43Z</time>
      </trkpt>
      <trkpt lat="46.66352" lon="0.51629">
        <ele>91.2</ele>
        <time>2024-02-18T09:24:45Z</time>
      </trkpt>
      <trkpt lat="46.66353" lon="0.5162">
        <ele>90.8</ele>
        <time>2024-02-18T09:24:50Z</time>
      </trkpt>
      <trkpt lat="46.66353" lon="0.51618">
        <ele>90</ele>
        <time>2024-02-18T09:24:53Z</time>
      </trkpt>
      <trkpt lat="46.66353" lon="0.51617">
        <ele>90</ele>
        <time>2024-02-18T09:24:54Z</time>
      </trkpt>
      <trkpt lat="46.66354" lon="0.51615">
        <ele>90</ele>
        <time>2024-02-18T09:24:58Z</time>
      </trkpt>
      <trkpt lat="46.66358" lon="0.51617">
        <ele>89.4</ele>
        <time>2024-02-18T09:25:02Z</time>
      </trkpt>
      <trkpt lat="46.6636" lon="0.51617">
        <ele>89.2</ele>
        <time>2024-02-18T09:25:03Z</time>
      </trkpt>
      <trkpt lat="46.66366" lon="0.51618">
        <ele>89.4</ele>
        <time>2024-02-18T09:25:06Z</time>
      </trkpt>
      <trkpt lat="46.66372" lon="0.51622">
        <ele>89.4</ele>
        <time>2024-02-18T09:25:11Z</time>
      </trkpt>
      <trkpt lat="46.66385" lon="0.51632">
        <ele>89</ele>
        <time>2024-02-18T09:25:20Z</time>
      </trkpt>
      <trkpt lat="46.66394" lon="0.51639">
        <ele>88.6</ele>
        <time>2024-02-18T09:25:25Z</time>
      </trkpt>
      <trkpt lat="46.66395" lon="0.51641">
        <ele>88.4</ele>
        <time>2024-02-18T09:25:26Z</time>
      </trkpt>
      <trkpt lat="46.66402" lon="0.51655">
        <ele>89</ele>
        <time>2024-02-18T09:25:32Z</time>
      </trkpt>
      <trkpt lat="46.66401" lon="0.51662">
        <ele>89</ele>
        <time>2024-02-18T09:25:35Z</time>
      </trkpt>
      <trkpt lat="46.66401" lon="0.51666">
        <ele>90</ele>
        <time>2024-02-18T09:25:38Z</time>
      </trkpt>
      <trkpt lat="46.66402" lon="0.51668">
        <ele>90.4</ele>
        <time>2024-02-18T09:25:39Z</time>
      </trkpt>
      <trkpt lat="46.66402" lon="0.51669">
        <ele>90.8</ele>
        <time>2024-02-18T09:25:40Z</time>
      </trkpt>
      <trkpt lat="46.66403" lon="0.51672">
        <ele>91.2</ele>
        <time>2024-02-18T09:25:42Z</time>
      </trkpt>
      <trkpt lat="46.66404" lon="0.51678">
        <ele>91.2</ele>
        <time>2024-02-18T09:25:44Z</time>
      </trkpt>
      <trkpt lat="46.66406" lon="0.51681">
        <ele>91.4</ele>
        <time>2024-02-18T09:25:46Z</time>
      </trkpt>
      <trkpt lat="46.66408" lon="0.51683">
        <ele>91.4</ele>
        <time>2024-02-18T09:25:48Z</time>
      </trkpt>
      <trkpt lat="46.66416" lon="0.51686">
        <ele>91</ele>
        <time>2024-02-18T09:25:55Z</time>
      </trkpt>
      <trkpt lat="46.66416" lon="0.51686">
        <ele>90.8</ele>
        <time>2024-02-18T09:25:56Z</time>
      </trkpt>
      <trkpt lat="46.66413" lon="0.51685">
        <ele>89.8</ele>
        <time>2024-02-18T09:26:00Z</time>
      </trkpt>
      <trkpt lat="46.66413" lon="0.51682">
        <ele>89.2</ele>
        <time>2024-02-18T09:26:02Z</time>
      </trkpt>
      <trkpt lat="46.66415" lon="0.51678">
        <ele>88.4</ele>
        <time>2024-02-18T09:26:07Z</time>
      </trkpt>
      <trkpt lat="46.66417" lon="0.51678">
        <ele>88.6</ele>
        <time>2024-02-18T09:26:09Z</time>
      </trkpt>
      <trkpt lat="46.66418" lon="0.51678">
        <ele>88.8</ele>
        <time>2024-02-18T09:26:10Z</time>
      </trkpt>
      <trkpt lat="46.66426" lon="0.51675">
        <ele>89</ele>
        <time>2024-02-18T09:26:17Z</time>
      </trkpt>
      <trkpt lat="46.66428" lon="0.51674">
        <ele>88.2</ele>
        <time>2024-02-18T09:26:18Z</time>
      </trkpt>
      <trkpt lat="46.6643" lon="0.51672">
        <ele>87.8</ele>
        <time>2024-02-18T09:26:19Z</time>
      </trkpt>
      <trkpt lat="46.66433" lon="0.5167">
        <ele>87</ele>
        <time>2024-02-18T09:26:21Z</time>
      </trkpt>
      <trkpt lat="46.66436" lon="0.5167">
        <ele>86.8</ele>
        <time>2024-02-18T09:26:23Z</time>
      </trkpt>
      <trkpt lat="46.66445" lon="0.5167">
        <ele>85.8</ele>
        <time>2024-02-18T09:26:27Z</time>
      </trkpt>
      <trkpt lat="46.66449" lon="0.5167">
        <ele>85.8</ele>
        <time>2024-02-18T09:26:28Z</time>
      </trkpt>
      <trkpt lat="46.6646" lon="0.51672">
        <ele>85.4</ele>
        <time>2024-02-18T09:26:32Z</time>
      </trkpt>
      <trkpt lat="46.66477" lon="0.51683">
        <ele>85.8</ele>
        <time>2024-02-18T09:26:39Z</time>
      </trkpt>
      <trkpt lat="46.66488" lon="0.51701">
        <ele>85.8</ele>
        <time>2024-02-18T09:26:45Z</time>
      </trkpt>
      <trkpt lat="46.66493" lon="0.51712">
        <ele>86.4</ele>
        <time>2024-02-18T09:26:49Z</time>
      </trkpt>
      <trkpt lat="46.66494" lon="0.51715">
        <ele>86.4</ele>
        <time>2024-02-18T09:26:50Z</time>
      </trkpt>
      <trkpt lat="46.665" lon="0.51728">
        <ele>86.8</ele>
        <time>2024-02-18T09:26:56Z</time>
      </trkpt>
      <trkpt lat="46.665" lon="0.5173">
        <ele>86.8</ele>
        <time>2024-02-18T09:26:57Z</time>
      </trkpt>
      <trkpt lat="46.66504" lon="0.51734">
        <ele>87</ele>
        <time>2024-02-18T09:27:02Z</time>
      </trkpt>
      <trkpt lat="46.66505" lon="0.51732">
        <ele>87.4</ele>
        <time>2024-02-18T09:27:05Z</time>
      </trkpt>
      <trkpt lat="46.66505" lon="0.51733">
        <ele>87.6</ele>
        <time>2024-02-18T09:27:06Z</time>
      </trkpt>
      <trkpt lat="46.66508" lon="0.51732">
        <ele>87.8</ele>
        <time>2024-02-18T09:27:08Z</time>
      </trkpt>
      <trkpt lat="46.6651" lon="0.51731">
        <ele>88.2</ele>
        <time>2024-02-18T09:27:11Z</time>
      </trkpt>
      <trkpt lat="46.66514" lon="0.51728">
        <ele>88.8</ele>
        <time>2024-02-18T09:27:15Z</time>
      </trkpt>
      <trkpt lat="46.66515" lon="0.51727">
        <ele>88.8</ele>
        <time>2024-02-18T09:27:16Z</time>
      </trkpt>
      <trkpt lat="46.66525" lon="0.51725">
        <ele>89</ele>
        <time>2024-02-18T09:27:23Z</time>
      </trkpt>
      <trkpt lat="46.66529" lon="0.5172">
        <ele>89.8</ele>
        <time>2024-02-18T09:27:27Z</time>
      </trkpt>
      <trkpt lat="46.66532" lon="0.51714">
        <ele>89.4</ele>
        <time>2024-02-18T09:27:30Z</time>
      </trkpt>
      <trkpt lat="46.66544" lon="0.51713">
        <ele>90</ele>
        <time>2024-02-18T09:27:37Z</time>
      </trkpt>
      <trkpt lat="46.66548" lon="0.51717">
        <ele>91.6</ele>
        <time>2024-02-18T09:27:41Z</time>
      </trkpt>
      <trkpt lat="46.66561" lon="0.51724">
        <ele>92.4</ele>
        <time>2024-02-18T09:27:49Z</time>
      </trkpt>
      <trkpt lat="46.66564" lon="0.51727">
        <ele>92.6</ele>
        <time>2024-02-18T09:27:51Z</time>
      </trkpt>
      <trkpt lat="46.66567" lon="0.51729">
        <ele>93.4</ele>
        <time>2024-02-18T09:27:53Z</time>
      </trkpt>
      <trkpt lat="46.66569" lon="0.5173">
        <ele>94</ele>
        <time>2024-02-18T09:27:54Z</time>
      </trkpt>
      <trkpt lat="46.6657" lon="0.51731">
        <ele>94.2</ele>
        <time>2024-02-18T09:27:55Z</time>
      </trkpt>
      <trkpt lat="46.66572" lon="0.51735">
        <ele>94.8</ele>
        <time>2024-02-18T09:27:57Z</time>
      </trkpt>
      <trkpt lat="46.66572" lon="0.51736">
        <ele>95</ele>
        <time>2024-02-18T09:27:58Z</time>
      </trkpt>
      <trkpt lat="46.66572" lon="0.51737">
        <ele>95.4</ele>
        <time>2024-02-18T09:28:00Z</time>
      </trkpt>
      <trkpt lat="46.66569" lon="0.5174">
        <ele>95.6</ele>
        <time>2024-02-18T09:28:03Z</time>
      </trkpt>
      <trkpt lat="46.66569" lon="0.51746">
        <ele>94.8</ele>
        <time>2024-02-18T09:28:07Z</time>
      </trkpt>
      <trkpt lat="46.66569" lon="0.51751">
        <ele>94.4</ele>
        <time>2024-02-18T09:28:09Z</time>
      </trkpt>
      <trkpt lat="46.6657" lon="0.51755">
        <ele>94.4</ele>
        <time>2024-02-18T09:28:11Z</time>
      </trkpt>
      <trkpt lat="46.6657" lon="0.51765">
        <ele>96</ele>
        <time>2024-02-18T09:28:18Z</time>
      </trkpt>
      <trkpt lat="46.6657" lon="0.51774">
        <ele>97</ele>
        <time>2024-02-18T09:28:22Z</time>
      </trkpt>
      <trkpt lat="46.66569" lon="0.51776">
        <ele>97.2</ele>
        <time>2024-02-18T09:28:23Z</time>
      </trkpt>
      <trkpt lat="46.66572" lon="0.51784">
        <ele>97.4</ele>
        <time>2024-02-18T09:28:29Z</time>
      </trkpt>
      <trkpt lat="46.66573" lon="0.51783">
        <ele>97.4</ele>
        <time>2024-02-18T09:28:31Z</time>
      </trkpt>
      <trkpt lat="46.66575" lon="0.51781">
        <ele>97.4</ele>
        <time>2024-02-18T09:28:33Z</time>
      </trkpt>
      <trkpt lat="46.66576" lon="0.51781">
        <ele>97.2</ele>
        <time>2024-02-18T09:28:34Z</time>
      </trkpt>
      <trkpt lat="46.66577" lon="0.51774">
        <ele>96.8</ele>
        <time>2024-02-18T09:28:39Z</time>
      </trkpt>
      <trkpt lat="46.66578" lon="0.51767">
        <ele>96.6</ele>
        <time>2024-02-18T09:28:43Z</time>
      </trkpt>
      <trkpt lat="46.66579" lon="0.51761">
        <ele>96.6</ele>
        <time>2024-02-18T09:28:45Z</time>
      </trkpt>
      <trkpt lat="46.66583" lon="0.51751">
        <ele>96</ele>
        <time>2024-02-18T09:28:49Z</time>
      </trkpt>
      <trkpt lat="46.66584" lon="0.51751">
        <ele>95.8</ele>
        <time>2024-02-18T09:28:50Z</time>
      </trkpt>
      <trkpt lat="46.66595" lon="0.51753">
        <ele>95.8</ele>
        <time>2024-02-18T09:28:55Z</time>
      </trkpt>
      <trkpt lat="46.66603" lon="0.51758">
        <ele>97.2</ele>
        <time>2024-02-18T09:29:01Z</time>
      </trkpt>
      <trkpt lat="46.66613" lon="0.51757">
        <ele>97.8</ele>
        <time>2024-02-18T09:29:06Z</time>
      </trkpt>
      <trkpt lat="46.66619" lon="0.51737">
        <ele>95.6</ele>
        <time>2024-02-18T09:29:12Z</time>
      </trkpt>
      <trkpt lat="46.6662" lon="0.51731">
        <ele>94.6</ele>
        <time>2024-02-18T09:29:13Z</time>
      </trkpt>
      <trkpt lat="46.66621" lon="0.51728">
        <ele>93.4</ele>
        <time>2024-02-18T09:29:14Z</time>
      </trkpt>
      <trkpt lat="46.66624" lon="0.51721">
        <ele>93</ele>
        <time>2024-02-18T09:29:17Z</time>
      </trkpt>
      <trkpt lat="46.6663" lon="0.51707">
        <ele>92.4</ele>
        <time>2024-02-18T09:29:21Z</time>
      </trkpt>
      <trkpt lat="46.66633" lon="0.51705">
        <ele>92.2</ele>
        <time>2024-02-18T09:29:22Z</time>
      </trkpt>
      <trkpt lat="46.66638" lon="0.51701">
        <ele>92.2</ele>
        <time>2024-02-18T09:29:26Z</time>
      </trkpt>
      <trkpt lat="46.66649" lon="0.51685">
        <ele>92.4</ele>
        <time>2024-02-18T09:29:31Z</time>
      </trkpt>
      <trkpt lat="46.66651" lon="0.51677">
        <ele>91.6</ele>
        <time>2024-02-18T09:29:34Z</time>
      </trkpt>
      <trkpt lat="46.66652" lon="0.51675">
        <ele>91.4</ele>
        <time>2024-02-18T09:29:35Z</time>
      </trkpt>
      <trkpt lat="46.66651" lon="0.51673">
        <ele>91</ele>
        <time>2024-02-18T09:29:36Z</time>
      </trkpt>
      <trkpt lat="46.66652" lon="0.51662">
        <ele>89</ele>
        <time>2024-02-18T09:29:40Z</time>
      </trkpt>
      <trkpt lat="46.66653" lon="0.51659">
        <ele>87.4</ele>
        <time>2024-02-18T09:29:41Z</time>
      </trkpt>
      <trkpt lat="46.66656" lon="0.51653">
        <ele>86</ele>
        <time>2024-02-18T09:29:43Z</time>
      </trkpt>
      <trkpt lat="46.66659" lon="0.51646">
        <ele>85</ele>
        <time>2024-02-18T09:29:46Z</time>
      </trkpt>
      <trkpt lat="46.66658" lon="0.51642">
        <ele>84.8</ele>
        <time>2024-02-18T09:29:47Z</time>
      </trkpt>
      <trkpt lat="46.66662" lon="0.51629">
        <ele>83.6</ele>
        <time>2024-02-18T09:29:50Z</time>
      </trkpt>
      <trkpt lat="46.66661" lon="0.51627">
        <ele>83.4</ele>
        <time>2024-02-18T09:29:51Z</time>
      </trkpt>
      <trkpt lat="46.6666" lon="0.51617">
        <ele>82.8</ele>
        <time>2024-02-18T09:30:04Z</time>
      </trkpt>
      <trkpt lat="46.66661" lon="0.51609">
        <ele>83</ele>
        <time>2024-02-18T09:30:21Z</time>
      </trkpt>
      <trkpt lat="46.66659" lon="0.51609">
        <ele>83.2</ele>
        <time>2024-02-18T09:30:35Z</time>
      </trkpt>
      <trkpt lat="46.6666" lon="0.51608">
        <ele>83.2</ele>
        <time>2024-02-18T09:30:54Z</time>
      </trkpt>
      <trkpt lat="46.66662" lon="0.51602">
        <ele>83.6</ele>
        <time>2024-02-18T09:31:08Z</time>
      </trkpt>
      <trkpt lat="46.66665" lon="0.51593">
        <ele>83.6</ele>
        <time>2024-02-18T09:31:20Z</time>
      </trkpt>
      <trkpt lat="46.66665" lon="0.51592">
        <ele>83.6</ele>
        <time>2024-02-18T09:31:35Z</time>
      </trkpt>
      <trkpt lat="46.66666" lon="0.51592">
        <ele>83.6</ele>
        <time>2024-02-18T09:31:56Z</time>
      </trkpt>
      <trkpt lat="46.66665" lon="0.51592">
        <ele>83.6</ele>
        <time>2024-02-18T09:32:16Z</time>
      </trkpt>
      <trkpt lat="46.66662" lon="0.51596">
        <ele>83.6</ele>
        <time>2024-02-18T09:32:34Z</time>
      </trkpt>
      <trkpt lat="46.66657" lon="0.51601">
        <ele>83.6</ele>
        <time>2024-02-18T09:32:51Z</time>
      </trkpt>
      <trkpt lat="46.66659" lon="0.51602">
        <ele>83.6</ele>
        <time>2024-02-18T09:33:08Z</time>
      </trkpt>
      <trkpt lat="46.6666" lon="0.516">
        <ele>83.6</ele>
        <time>2024-02-18T09:33:26Z</time>
      </trkpt>
      <trkpt lat="46.66659" lon="0.516">
        <ele>83.6</ele>
        <time>2024-02-18T09:33:43Z</time>
      </trkpt>
      <trkpt lat="46.66659" lon="0.51598">
        <ele>83.6</ele>
        <time>2024-02-18T09:34:03Z</time>
      </trkpt>
      <trkpt lat="46.6666" lon="0.51598">
        <ele>83.6</ele>
        <time>2024-02-18T09:34:19Z</time>
      </trkpt>
      <trkpt lat="46.6666" lon="0.51599">
        <ele>83.6</ele>
        <time>2024-02-18T09:34:33Z</time>
      </trkpt>
      <trkpt lat="46.6666" lon="0.51598">
        <ele>83.6</ele>
        <time>2024-02-18T09:34:49Z</time>
      </trkpt>
      <trkpt lat="46.66655" lon="0.51605">
        <ele>83.6</ele>
        <time>2024-02-18T09:35:07Z</time>
      </trkpt>
      <trkpt lat="46.66655" lon="0.51607">
        <ele>83.6</ele>
        <time>2024-02-18T09:35:23Z</time>
      </trkpt>
      <trkpt lat="46.66656" lon="0.51608">
        <ele>83.6</ele>
        <time>2024-02-18T09:35:43Z</time>
      </trkpt>
      <trkpt lat="46.66656" lon="0.51609">
        <ele>83.6</ele>
        <time>2024-02-18T09:35:51Z</time>
      </trkpt>
      <trkpt lat="46.66658" lon="0.51608">
        <ele>83.6</ele>
        <time>2024-02-18T09:35:58Z</time>
      </trkpt>
      <trkpt lat="46.6667" lon="0.51602">
        <ele>83.6</ele>
        <time>2024-02-18T09:36:06Z</time>
      </trkpt>
      <trkpt lat="46.66686" lon="0.51591">
        <ele>83.2</ele>
        <time>2024-02-18T09:36:17Z</time>
      </trkpt>
      <trkpt lat="46.66689" lon="0.51585">
        <ele>84.8</ele>
        <time>2024-02-18T09:36:21Z</time>
      </trkpt>
      <trkpt lat="46.66691" lon="0.51578">
        <ele>86.2</ele>
        <time>2024-02-18T09:36:25Z</time>
      </trkpt>
      <trkpt lat="46.66692" lon="0.51574">
        <ele>87.2</ele>
        <time>2024-02-18T09:36:27Z</time>
      </trkpt>
      <trkpt lat="46.66693" lon="0.51572">
        <ele>87.4</ele>
        <time>2024-02-18T09:36:28Z</time>
      </trkpt>
      <trkpt lat="46.66694" lon="0.51567">
        <ele>88.4</ele>
        <time>2024-02-18T09:36:31Z</time>
      </trkpt>
      <trkpt lat="46.66695" lon="0.51562">
        <ele>89.8</ele>
        <time>2024-02-18T09:36:34Z</time>
      </trkpt>
      <trkpt lat="46.66697" lon="0.51556">
        <ele>91.2</ele>
        <time>2024-02-18T09:36:38Z</time>
      </trkpt>
      <trkpt lat="46.66699" lon="0.51553">
        <ele>92</ele>
        <time>2024-02-18T09:36:40Z</time>
      </trkpt>
      <trkpt lat="46.66701" lon="0.51551">
        <ele>92.2</ele>
        <time>2024-02-18T09:36:41Z</time>
      </trkpt>
      <trkpt lat="46.66708" lon="0.51546">
        <ele>92.8</ele>
        <time>2024-02-18T09:36:46Z</time>
      </trkpt>
      <trkpt lat="46.66711" lon="0.51544">
        <ele>93.2</ele>
        <time>2024-02-18T09:36:48Z</time>
      </trkpt>
      <trkpt lat="46.66713" lon="0.51543">
        <ele>93.4</ele>
        <time>2024-02-18T09:36:49Z</time>
      </trkpt>
      <trkpt lat="46.66732" lon="0.51536">
        <ele>93.2</ele>
        <time>2024-02-18T09:36:58Z</time>
      </trkpt>
      <trkpt lat="46.66746" lon="0.51533">
        <ele>92.8</ele>
        <time>2024-02-18T09:37:04Z</time>
      </trkpt>
      <trkpt lat="46.66749" lon="0.51532">
        <ele>92.8</ele>
        <time>2024-02-18T09:37:05Z</time>
      </trkpt>
      <trkpt lat="46.66773" lon="0.51525">
        <ele>92.6</ele>
        <time>2024-02-18T09:37:12Z</time>
      </trkpt>
      <trkpt lat="46.66788" lon="0.51523">
        <ele>92.6</ele>
        <time>2024-02-18T09:37:17Z</time>
      </trkpt>
      <trkpt lat="46.66793" lon="0.51522">
        <ele>92.2</ele>
        <time>2024-02-18T09:37:18Z</time>
      </trkpt>
      <trkpt lat="46.66796" lon="0.51522">
        <ele>92</ele>
        <time>2024-02-18T09:37:19Z</time>
      </trkpt>
      <trkpt lat="46.66818" lon="0.51518">
        <ele>92.8</ele>
        <time>2024-02-18T09:37:25Z</time>
      </trkpt>
      <trkpt lat="46.66823" lon="0.51519">
        <ele>93</ele>
        <time>2024-02-18T09:37:27Z</time>
      </trkpt>
      <trkpt lat="46.6683" lon="0.51518">
        <ele>94.2</ele>
        <time>2024-02-18T09:37:29Z</time>
      </trkpt>
      <trkpt lat="46.66836" lon="0.51519">
        <ele>94.8</ele>
        <time>2024-02-18T09:37:31Z</time>
      </trkpt>
      <trkpt lat="46.66841" lon="0.5152">
        <ele>95.4</ele>
        <time>2024-02-18T09:37:33Z</time>
      </trkpt>
      <trkpt lat="46.6685" lon="0.51522">
        <ele>96</ele>
        <time>2024-02-18T09:37:37Z</time>
      </trkpt>
      <trkpt lat="46.66858" lon="0.51521">
        <ele>96.4</ele>
        <time>2024-02-18T09:37:40Z</time>
      </trkpt>
      <trkpt lat="46.66863" lon="0.51521">
        <ele>96.6</ele>
        <time>2024-02-18T09:37:42Z</time>
      </trkpt>
      <trkpt lat="46.66879" lon="0.51521">
        <ele>97.4</ele>
        <time>2024-02-18T09:37:47Z</time>
      </trkpt>
      <trkpt lat="46.6689" lon="0.51517">
        <ele>98</ele>
        <time>2024-02-18T09:37:49Z</time>
      </trkpt>
      <trkpt lat="46.66893" lon="0.51516">
        <ele>98.6</ele>
        <time>2024-02-18T09:37:51Z</time>
      </trkpt>
      <trkpt lat="46.66901" lon="0.51513">
        <ele>99.8</ele>
        <time>2024-02-18T09:37:55Z</time>
      </trkpt>
      <trkpt lat="46.66907" lon="0.51511">
        <ele>101</ele>
        <time>2024-02-18T09:37:58Z</time>
      </trkpt>
      <trkpt lat="46.66922" lon="0.51509">
        <ele>102</ele>
        <time>2024-02-18T09:38:02Z</time>
      </trkpt>
      <trkpt lat="46.66932" lon="0.51509">
        <ele>103</ele>
        <time>2024-02-18T09:38:06Z</time>
      </trkpt>
      <trkpt lat="46.66946" lon="0.51511">
        <ele>104.2</ele>
        <time>2024-02-18T09:38:12Z</time>
      </trkpt>
      <trkpt lat="46.6695" lon="0.51511">
        <ele>104.8</ele>
        <time>2024-02-18T09:38:14Z</time>
      </trkpt>
      <trkpt lat="46.66969" lon="0.51507">
        <ele>105</ele>
        <time>2024-02-18T09:38:20Z</time>
      </trkpt>
      <trkpt lat="46.66991" lon="0.51503">
        <ele>104.8</ele>
        <time>2024-02-18T09:38:26Z</time>
      </trkpt>
      <trkpt lat="46.66993" lon="0.51502">
        <ele>104.8</ele>
        <time>2024-02-18T09:38:27Z</time>
      </trkpt>
      <trkpt lat="46.67008" lon="0.515">
        <ele>104.8</ele>
        <time>2024-02-18T09:38:32Z</time>
      </trkpt>
      <trkpt lat="46.67017" lon="0.51498">
        <ele>105.4</ele>
        <time>2024-02-18T09:38:35Z</time>
      </trkpt>
      <trkpt lat="46.67026" lon="0.51499">
        <ele>105.4</ele>
        <time>2024-02-18T09:38:38Z</time>
      </trkpt>
      <trkpt lat="46.67029" lon="0.51498">
        <ele>105.4</ele>
        <time>2024-02-18T09:38:39Z</time>
      </trkpt>
      <trkpt lat="46.67037" lon="0.51491">
        <ele>105.4</ele>
        <time>2024-02-18T09:38:42Z</time>
      </trkpt>
      <trkpt lat="46.6704" lon="0.5149">
        <ele>105.4</ele>
        <time>2024-02-18T09:38:43Z</time>
      </trkpt>
      <trkpt lat="46.67046" lon="0.51492">
        <ele>104.6</ele>
        <time>2024-02-18T09:38:45Z</time>
      </trkpt>
      <trkpt lat="46.67049" lon="0.51492">
        <ele>104.4</ele>
        <time>2024-02-18T09:38:46Z</time>
      </trkpt>
      <trkpt lat="46.67058" lon="0.51483">
        <ele>104.6</ele>
        <time>2024-02-18T09:38:48Z</time>
      </trkpt>
      <trkpt lat="46.67063" lon="0.51462">
        <ele>106.2</ele>
        <time>2024-02-18T09:38:54Z</time>
      </trkpt>
      <trkpt lat="46.67062" lon="0.51458">
        <ele>106.4</ele>
        <time>2024-02-18T09:38:55Z</time>
      </trkpt>
      <trkpt lat="46.6706" lon="0.51444">
        <ele>107.6</ele>
        <time>2024-02-18T09:38:59Z</time>
      </trkpt>
      <trkpt lat="46.67058" lon="0.51436">
        <ele>108.2</ele>
        <time>2024-02-18T09:39:02Z</time>
      </trkpt>
      <trkpt lat="46.67055" lon="0.5143">
        <ele>108.8</ele>
        <time>2024-02-18T09:39:04Z</time>
      </trkpt>
      <trkpt lat="46.67051" lon="0.51417">
        <ele>109.6</ele>
        <time>2024-02-18T09:39:08Z</time>
      </trkpt>
      <trkpt lat="46.6705" lon="0.51414">
        <ele>110</ele>
        <time>2024-02-18T09:39:09Z</time>
      </trkpt>
      <trkpt lat="46.67044" lon="0.514">
        <ele>111.2</ele>
        <time>2024-02-18T09:39:14Z</time>
      </trkpt>
      <trkpt lat="46.67041" lon="0.51394">
        <ele>111.6</ele>
        <time>2024-02-18T09:39:16Z</time>
      </trkpt>
      <trkpt lat="46.67036" lon="0.51382">
        <ele>112.2</ele>
        <time>2024-02-18T09:39:20Z</time>
      </trkpt>
      <trkpt lat="46.67031" lon="0.51371">
        <ele>113</ele>
        <time>2024-02-18T09:39:24Z</time>
      </trkpt>
      <trkpt lat="46.67028" lon="0.51366">
        <ele>113.4</ele>
        <time>2024-02-18T09:39:26Z</time>
      </trkpt>
      <trkpt lat="46.67023" lon="0.51356">
        <ele>114.4</ele>
        <time>2024-02-18T09:39:31Z</time>
      </trkpt>
      <trkpt lat="46.67021" lon="0.51354">
        <ele>114.8</ele>
        <time>2024-02-18T09:39:32Z</time>
      </trkpt>
      <trkpt lat="46.67015" lon="0.51341">
        <ele>116</ele>
        <time>2024-02-18T09:39:37Z</time>
      </trkpt>
      <trkpt lat="46.67011" lon="0.51333">
        <ele>116.8</ele>
        <time>2024-02-18T09:39:40Z</time>
      </trkpt>
      <trkpt lat="46.67008" lon="0.51326">
        <ele>117.2</ele>
        <time>2024-02-18T09:39:42Z</time>
      </trkpt>
      <trkpt lat="46.67002" lon="0.51316">
        <ele>118.2</ele>
        <time>2024-02-18T09:39:46Z</time>
      </trkpt>
      <trkpt lat="46.66996" lon="0.51305">
        <ele>119.4</ele>
        <time>2024-02-18T09:39:50Z</time>
      </trkpt>
      <trkpt lat="46.66992" lon="0.51297">
        <ele>120.4</ele>
        <time>2024-02-18T09:39:53Z</time>
      </trkpt>
      <trkpt lat="46.66991" lon="0.51295">
        <ele>120.4</ele>
        <time>2024-02-18T09:39:54Z</time>
      </trkpt>
      <trkpt lat="46.66985" lon="0.51285">
        <ele>121.6</ele>
        <time>2024-02-18T09:39:58Z</time>
      </trkpt>
      <trkpt lat="46.66982" lon="0.51278">
        <ele>121.8</ele>
        <time>2024-02-18T09:40:00Z</time>
      </trkpt>
      <trkpt lat="46.66972" lon="0.51257">
        <ele>122.6</ele>
        <time>2024-02-18T09:40:06Z</time>
      </trkpt>
      <trkpt lat="46.6696" lon="0.51234">
        <ele>123</ele>
        <time>2024-02-18T09:40:12Z</time>
      </trkpt>
      <trkpt lat="46.6694" lon="0.51199">
        <ele>123.2</ele>
        <time>2024-02-18T09:40:20Z</time>
      </trkpt>
      <trkpt lat="46.66929" lon="0.51179">
        <ele>123.6</ele>
        <time>2024-02-18T09:40:25Z</time>
      </trkpt>
      <trkpt lat="46.66925" lon="0.51171">
        <ele>123.6</ele>
        <time>2024-02-18T09:40:27Z</time>
      </trkpt>
      <trkpt lat="46.66913" lon="0.51151">
        <ele>123.6</ele>
        <time>2024-02-18T09:40:32Z</time>
      </trkpt>
      <trkpt lat="46.6691" lon="0.51151">
        <ele>123.6</ele>
        <time>2024-02-18T09:40:33Z</time>
      </trkpt>
      <trkpt lat="46.66904" lon="0.51153">
        <ele>123.4</ele>
        <time>2024-02-18T09:40:35Z</time>
      </trkpt>
      <trkpt lat="46.66895" lon="0.51158">
        <ele>122.8</ele>
        <time>2024-02-18T09:40:38Z</time>
      </trkpt>
      <trkpt lat="46.66892" lon="0.51159">
        <ele>122.4</ele>
        <time>2024-02-18T09:40:39Z</time>
      </trkpt>
      <trkpt lat="46.6689" lon="0.51161">
        <ele>122</ele>
        <time>2024-02-18T09:40:40Z</time>
      </trkpt>
      <trkpt lat="46.66882" lon="0.5117">
        <ele>121.4</ele>
        <time>2024-02-18T09:40:44Z</time>
      </trkpt>
      <trkpt lat="46.66874" lon="0.51176">
        <ele>121</ele>
        <time>2024-02-18T09:40:46Z</time>
      </trkpt>
      <trkpt lat="46.66858" lon="0.51192">
        <ele>120.8</ele>
        <time>2024-02-18T09:40:50Z</time>
      </trkpt>
      <trkpt lat="46.66852" lon="0.51194">
        <ele>120.2</ele>
        <time>2024-02-18T09:40:52Z</time>
      </trkpt>
      <trkpt lat="46.66844" lon="0.5119">
        <ele>120</ele>
        <time>2024-02-18T09:40:56Z</time>
      </trkpt>
      <trkpt lat="46.66831" lon="0.51176">
        <ele>120.6</ele>
        <time>2024-02-18T09:41:02Z</time>
      </trkpt>
      <trkpt lat="46.66819" lon="0.51159">
        <ele>121</ele>
        <time>2024-02-18T09:41:08Z</time>
      </trkpt>
      <trkpt lat="46.66813" lon="0.5115">
        <ele>121</ele>
        <time>2024-02-18T09:41:11Z</time>
      </trkpt>
      <trkpt lat="46.66811" lon="0.51148">
        <ele>121.2</ele>
        <time>2024-02-18T09:41:12Z</time>
      </trkpt>
      <trkpt lat="46.66808" lon="0.51146">
        <ele>121.4</ele>
        <time>2024-02-18T09:41:13Z</time>
      </trkpt>
      <trkpt lat="46.66801" lon="0.5114">
        <ele>121.6</ele>
        <time>2024-02-18T09:41:17Z</time>
      </trkpt>
      <trkpt lat="46.66798" lon="0.51138">
        <ele>121.8</ele>
        <time>2024-02-18T09:41:18Z</time>
      </trkpt>
      <trkpt lat="46.66786" lon="0.51127">
        <ele>121.6</ele>
        <time>2024-02-18T09:41:22Z</time>
      </trkpt>
      <trkpt lat="46.66766" lon="0.51117">
        <ele>121</ele>
        <time>2024-02-18T09:41:27Z</time>
      </trkpt>
      <trkpt lat="46.66763" lon="0.51116">
        <ele>121</ele>
        <time>2024-02-18T09:41:28Z</time>
      </trkpt>
      <trkpt lat="46.66755" lon="0.5111">
        <ele>121</ele>
        <time>2024-02-18T09:41:30Z</time>
      </trkpt>
      <trkpt lat="46.66749" lon="0.51106">
        <ele>120.4</ele>
        <time>2024-02-18T09:41:32Z</time>
      </trkpt>
      <trkpt lat="46.66743" lon="0.51101">
        <ele>120.2</ele>
        <time>2024-02-18T09:41:34Z</time>
      </trkpt>
      <trkpt lat="46.66736" lon="0.51097">
        <ele>119.8</ele>
        <time>2024-02-18T09:41:37Z</time>
      </trkpt>
      <trkpt lat="46.66733" lon="0.51092">
        <ele>119.2</ele>
        <time>2024-02-18T09:41:39Z</time>
      </trkpt>
      <trkpt lat="46.66731" lon="0.51089">
        <ele>119</ele>
        <time>2024-02-18T09:41:40Z</time>
      </trkpt>
      <trkpt lat="46.6673" lon="0.51088">
        <ele>119</ele>
        <time>2024-02-18T09:41:41Z</time>
      </trkpt>
      <trkpt lat="46.66729" lon="0.51086">
        <ele>118.8</ele>
        <time>2024-02-18T09:41:42Z</time>
      </trkpt>
      <trkpt lat="46.66726" lon="0.5108">
        <ele>118.8</ele>
        <time>2024-02-18T09:41:44Z</time>
      </trkpt>
      <trkpt lat="46.66725" lon="0.51077">
        <ele>119</ele>
        <time>2024-02-18T09:41:45Z</time>
      </trkpt>
      <trkpt lat="46.66725" lon="0.51074">
        <ele>118.8</ele>
        <time>2024-02-18T09:41:46Z</time>
      </trkpt>
      <trkpt lat="46.66724" lon="0.51064">
        <ele>119</ele>
        <time>2024-02-18T09:41:50Z</time>
      </trkpt>
      <trkpt lat="46.66722" lon="0.51063">
        <ele>119</ele>
        <time>2024-02-18T09:41:51Z</time>
      </trkpt>
      <trkpt lat="46.66716" lon="0.51062">
        <ele>119</ele>
        <time>2024-02-18T09:41:54Z</time>
      </trkpt>
      <trkpt lat="46.66716" lon="0.51059">
        <ele>118.8</ele>
        <time>2024-02-18T09:41:55Z</time>
      </trkpt>
      <trkpt lat="46.66712" lon="0.5105">
        <ele>118.6</ele>
        <time>2024-02-18T09:41:58Z</time>
      </trkpt>
      <trkpt lat="46.66709" lon="0.51049">
        <ele>118.4</ele>
        <time>2024-02-18T09:41:59Z</time>
      </trkpt>
      <trkpt lat="46.66703" lon="0.51051">
        <ele>118.4</ele>
        <time>2024-02-18T09:42:03Z</time>
      </trkpt>
      <trkpt lat="46.66701" lon="0.51054">
        <ele>118.4</ele>
        <time>2024-02-18T09:42:06Z</time>
      </trkpt>
      <trkpt lat="46.66702" lon="0.51054">
        <ele>118.4</ele>
        <time>2024-02-18T09:42:08Z</time>
      </trkpt>
      <trkpt lat="46.66701" lon="0.51054">
        <ele>118.2</ele>
        <time>2024-02-18T09:42:09Z</time>
      </trkpt>
      <trkpt lat="46.66701" lon="0.51055">
        <ele>118.2</ele>
        <time>2024-02-18T09:42:10Z</time>
      </trkpt>
      <trkpt lat="46.66699" lon="0.51054">
        <ele>118.2</ele>
        <time>2024-02-18T09:42:12Z</time>
      </trkpt>
      <trkpt lat="46.66695" lon="0.51054">
        <ele>118</ele>
        <time>2024-02-18T09:42:15Z</time>
      </trkpt>
      <trkpt lat="46.66693" lon="0.51055">
        <ele>118</ele>
        <time>2024-02-18T09:42:16Z</time>
      </trkpt>
      <trkpt lat="46.66688" lon="0.51053">
        <ele>118</ele>
        <time>2024-02-18T09:42:18Z</time>
      </trkpt>
      <trkpt lat="46.66687" lon="0.51051">
        <ele>118</ele>
        <time>2024-02-18T09:42:19Z</time>
      </trkpt>
      <trkpt lat="46.66681" lon="0.51037">
        <ele>117.4</ele>
        <time>2024-02-18T09:42:24Z</time>
      </trkpt>
      <trkpt lat="46.66675" lon="0.51019">
        <ele>117.4</ele>
        <time>2024-02-18T09:42:30Z</time>
      </trkpt>
      <trkpt lat="46.66672" lon="0.51005">
        <ele>117.2</ele>
        <time>2024-02-18T09:42:34Z</time>
      </trkpt>
      <trkpt lat="46.66674" lon="0.50997">
        <ele>117.2</ele>
        <time>2024-02-18T09:42:36Z</time>
      </trkpt>
      <trkpt lat="46.66674" lon="0.50992">
        <ele>117</ele>
        <time>2024-02-18T09:42:37Z</time>
      </trkpt>
      <trkpt lat="46.66677" lon="0.50969">
        <ele>116.8</ele>
        <time>2024-02-18T09:42:42Z</time>
      </trkpt>
      <trkpt lat="46.66681" lon="0.50953">
        <ele>117</ele>
        <time>2024-02-18T09:42:47Z</time>
      </trkpt>
      <trkpt lat="46.66686" lon="0.5094">
        <ele>117.8</ele>
        <time>2024-02-18T09:42:51Z</time>
      </trkpt>
      <trkpt lat="46.66688" lon="0.50939">
        <ele>118</ele>
        <time>2024-02-18T09:42:52Z</time>
      </trkpt>
      <trkpt lat="46.66689" lon="0.50938">
        <ele>118.2</ele>
        <time>2024-02-18T09:42:53Z</time>
      </trkpt>
      <trkpt lat="46.6669" lon="0.50936">
        <ele>118.2</ele>
        <time>2024-02-18T09:42:54Z</time>
      </trkpt>
      <trkpt lat="46.66696" lon="0.50926">
        <ele>118.6</ele>
        <time>2024-02-18T09:42:58Z</time>
      </trkpt>
      <trkpt lat="46.66703" lon="0.509">
        <ele>118.8</ele>
        <time>2024-02-18T09:43:04Z</time>
      </trkpt>
      <trkpt lat="46.66707" lon="0.50882">
        <ele>118.4</ele>
        <time>2024-02-18T09:43:09Z</time>
      </trkpt>
      <trkpt lat="46.66711" lon="0.50866">
        <ele>118.4</ele>
        <time>2024-02-18T09:43:13Z</time>
      </trkpt>
      <trkpt lat="46.66716" lon="0.5086">
        <ele>118.4</ele>
        <time>2024-02-18T09:43:16Z</time>
      </trkpt>
      <trkpt lat="46.66719" lon="0.50853">
        <ele>118.4</ele>
        <time>2024-02-18T09:43:18Z</time>
      </trkpt>
      <trkpt lat="46.66725" lon="0.50845">
        <ele>118.4</ele>
        <time>2024-02-18T09:43:21Z</time>
      </trkpt>
      <trkpt lat="46.66729" lon="0.50843">
        <ele>118.4</ele>
        <time>2024-02-18T09:43:23Z</time>
      </trkpt>
      <trkpt lat="46.66733" lon="0.5084">
        <ele>118.2</ele>
        <time>2024-02-18T09:43:26Z</time>
      </trkpt>
      <trkpt lat="46.66737" lon="0.50835">
        <ele>118.4</ele>
        <time>2024-02-18T09:43:29Z</time>
      </trkpt>
      <trkpt lat="46.66742" lon="0.50827">
        <ele>118.6</ele>
        <time>2024-02-18T09:43:32Z</time>
      </trkpt>
      <trkpt lat="46.66744" lon="0.50827">
        <ele>118.6</ele>
        <time>2024-02-18T09:43:33Z</time>
      </trkpt>
      <trkpt lat="46.66747" lon="0.50826">
        <ele>118.6</ele>
        <time>2024-02-18T09:43:34Z</time>
      </trkpt>
      <trkpt lat="46.66755" lon="0.50819">
        <ele>118.4</ele>
        <time>2024-02-18T09:43:37Z</time>
      </trkpt>
      <trkpt lat="46.6677" lon="0.50803">
        <ele>118.2</ele>
        <time>2024-02-18T09:43:43Z</time>
      </trkpt>
      <trkpt lat="46.66788" lon="0.50784">
        <ele>118</ele>
        <time>2024-02-18T09:43:49Z</time>
      </trkpt>
      <trkpt lat="46.66809" lon="0.50759">
        <ele>118.4</ele>
        <time>2024-02-18T09:43:56Z</time>
      </trkpt>
      <trkpt lat="46.66821" lon="0.50746">
        <ele>118.4</ele>
        <time>2024-02-18T09:44:01Z</time>
      </trkpt>
      <trkpt lat="46.66837" lon="0.50729">
        <ele>119.2</ele>
        <time>2024-02-18T09:44:08Z</time>
      </trkpt>
      <trkpt lat="46.6684" lon="0.50726">
        <ele>119</ele>
        <time>2024-02-18T09:44:09Z</time>
      </trkpt>
      <trkpt lat="46.66854" lon="0.50713">
        <ele>119.2</ele>
        <time>2024-02-18T09:44:16Z</time>
      </trkpt>
      <trkpt lat="46.66868" lon="0.50697">
        <ele>119.6</ele>
        <time>2024-02-18T09:44:24Z</time>
      </trkpt>
      <trkpt lat="46.66875" lon="0.50687">
        <ele>120.2</ele>
        <time>2024-02-18T09:44:28Z</time>
      </trkpt>
      <trkpt lat="46.6688" lon="0.5068">
        <ele>120.4</ele>
        <time>2024-02-18T09:44:30Z</time>
      </trkpt>
      <trkpt lat="46.66892" lon="0.50668">
        <ele>121</ele>
        <time>2024-02-18T09:44:36Z</time>
      </trkpt>
      <trkpt lat="46.66894" lon="0.50666">
        <ele>121.4</ele>
        <time>2024-02-18T09:44:37Z</time>
      </trkpt>
      <trkpt lat="46.66906" lon="0.50652">
        <ele>122.2</ele>
        <time>2024-02-18T09:44:43Z</time>
      </trkpt>
      <trkpt lat="46.66909" lon="0.50648">
        <ele>122.4</ele>
        <time>2024-02-18T09:44:45Z</time>
      </trkpt>
      <trkpt lat="46.66918" lon="0.50639">
        <ele>123.4</ele>
        <time>2024-02-18T09:44:49Z</time>
      </trkpt>
      <trkpt lat="46.6692" lon="0.50637">
        <ele>123.6</ele>
        <time>2024-02-18T09:44:50Z</time>
      </trkpt>
      <trkpt lat="46.66934" lon="0.50621">
        <ele>124.2</ele>
        <time>2024-02-18T09:44:56Z</time>
      </trkpt>
      <trkpt lat="46.66941" lon="0.50613">
        <ele>124.8</ele>
        <time>2024-02-18T09:44:59Z</time>
      </trkpt>
      <trkpt lat="46.66947" lon="0.50606">
        <ele>125.4</ele>
        <time>2024-02-18T09:45:02Z</time>
      </trkpt>
      <trkpt lat="46.66959" lon="0.50593">
        <ele>125.8</ele>
        <time>2024-02-18T09:45:07Z</time>
      </trkpt>
      <trkpt lat="46.66965" lon="0.50586">
        <ele>126</ele>
        <time>2024-02-18T09:45:10Z</time>
      </trkpt>
      <trkpt lat="46.66982" lon="0.50568">
        <ele>126.8</ele>
        <time>2024-02-18T09:45:16Z</time>
      </trkpt>
      <trkpt lat="46.66986" lon="0.50564">
        <ele>127</ele>
        <time>2024-02-18T09:45:17Z</time>
      </trkpt>
      <trkpt lat="46.6701" lon="0.50542">
        <ele>127.6</ele>
        <time>2024-02-18T09:45:25Z</time>
      </trkpt>
      <trkpt lat="46.67024" lon="0.50528">
        <ele>127.8</ele>
        <time>2024-02-18T09:45:29Z</time>
      </trkpt>
      <trkpt lat="46.6703" lon="0.50522">
        <ele>127.8</ele>
        <time>2024-02-18T09:45:31Z</time>
      </trkpt>
      <trkpt lat="46.67055" lon="0.50494">
        <ele>128.8</ele>
        <time>2024-02-18T09:45:39Z</time>
      </trkpt>
      <trkpt lat="46.67061" lon="0.50486">
        <ele>129</ele>
        <time>2024-02-18T09:45:41Z</time>
      </trkpt>
      <trkpt lat="46.67073" lon="0.50474">
        <ele>129.2</ele>
        <time>2024-02-18T09:45:45Z</time>
      </trkpt>
      <trkpt lat="46.67076" lon="0.50471">
        <ele>129.4</ele>
        <time>2024-02-18T09:45:46Z</time>
      </trkpt>
      <trkpt lat="46.67094" lon="0.50453">
        <ele>129.8</ele>
        <time>2024-02-18T09:45:52Z</time>
      </trkpt>
      <trkpt lat="46.67102" lon="0.50443">
        <ele>130</ele>
        <time>2024-02-18T09:45:55Z</time>
      </trkpt>
      <trkpt lat="46.67117" lon="0.50428">
        <ele>130.2</ele>
        <time>2024-02-18T09:46:00Z</time>
      </trkpt>
      <trkpt lat="46.67139" lon="0.50418">
        <ele>130.4</ele>
        <time>2024-02-18T09:46:05Z</time>
      </trkpt>
      <trkpt lat="46.67163" lon="0.50409">
        <ele>129.8</ele>
        <time>2024-02-18T09:46:11Z</time>
      </trkpt>
      <trkpt lat="46.67179" lon="0.50411">
        <ele>129.4</ele>
        <time>2024-02-18T09:46:16Z</time>
      </trkpt>
      <trkpt lat="46.67181" lon="0.50413">
        <ele>129.4</ele>
        <time>2024-02-18T09:46:18Z</time>
      </trkpt>
      <trkpt lat="46.67186" lon="0.50416">
        <ele>129.2</ele>
        <time>2024-02-18T09:46:22Z</time>
      </trkpt>
      <trkpt lat="46.6719" lon="0.50423">
        <ele>129.2</ele>
        <time>2024-02-18T09:46:25Z</time>
      </trkpt>
      <trkpt lat="46.67196" lon="0.50432">
        <ele>129</ele>
        <time>2024-02-18T09:46:28Z</time>
      </trkpt>
      <trkpt lat="46.67197" lon="0.50436">
        <ele>129</ele>
        <time>2024-02-18T09:46:29Z</time>
      </trkpt>
      <trkpt lat="46.67202" lon="0.5045">
        <ele>128.6</ele>
        <time>2024-02-18T09:46:32Z</time>
      </trkpt>
      <trkpt lat="46.67207" lon="0.50462">
        <ele>127.8</ele>
        <time>2024-02-18T09:46:34Z</time>
      </trkpt>
      <trkpt lat="46.67214" lon="0.50477">
        <ele>126.8</ele>
        <time>2024-02-18T09:46:37Z</time>
      </trkpt>
      <trkpt lat="46.67217" lon="0.50481">
        <ele>126.6</ele>
        <time>2024-02-18T09:46:38Z</time>
      </trkpt>
      <trkpt lat="46.67219" lon="0.50485">
        <ele>126.6</ele>
        <time>2024-02-18T09:46:39Z</time>
      </trkpt>
      <trkpt lat="46.67221" lon="0.50491">
        <ele>126.6</ele>
        <time>2024-02-18T09:46:40Z</time>
      </trkpt>
      <trkpt lat="46.67231" lon="0.50512">
        <ele>125.4</ele>
        <time>2024-02-18T09:46:44Z</time>
      </trkpt>
      <trkpt lat="46.67233" lon="0.50518">
        <ele>125.2</ele>
        <time>2024-02-18T09:46:45Z</time>
      </trkpt>
      <trkpt lat="46.67234" lon="0.50524">
        <ele>125</ele>
        <time>2024-02-18T09:46:46Z</time>
      </trkpt>
      <trkpt lat="46.67236" lon="0.5053">
        <ele>124.6</ele>
        <time>2024-02-18T09:46:47Z</time>
      </trkpt>
      <trkpt lat="46.67239" lon="0.50534">
        <ele>124.4</ele>
        <time>2024-02-18T09:46:48Z</time>
      </trkpt>
      <trkpt lat="46.67244" lon="0.50543">
        <ele>124.2</ele>
        <time>2024-02-18T09:46:50Z</time>
      </trkpt>
      <trkpt lat="46.67261" lon="0.50568">
        <ele>123.6</ele>
        <time>2024-02-18T09:46:55Z</time>
      </trkpt>
      <trkpt lat="46.67265" lon="0.50573">
        <ele>123.4</ele>
        <time>2024-02-18T09:46:56Z</time>
      </trkpt>
      <trkpt lat="46.67269" lon="0.50585">
        <ele>122</ele>
        <time>2024-02-18T09:46:58Z</time>
      </trkpt>
      <trkpt lat="46.67275" lon="0.50597">
        <ele>121.2</ele>
        <time>2024-02-18T09:47:00Z</time>
      </trkpt>
      <trkpt lat="46.67278" lon="0.50602">
        <ele>121</ele>
        <time>2024-02-18T09:47:01Z</time>
      </trkpt>
      <trkpt lat="46.6728" lon="0.50607">
        <ele>120.4</ele>
        <time>2024-02-18T09:47:02Z</time>
      </trkpt>
      <trkpt lat="46.67284" lon="0.50615">
        <ele>119.8</ele>
        <time>2024-02-18T09:47:04Z</time>
      </trkpt>
      <trkpt lat="46.67286" lon="0.50633">
        <ele>120</ele>
        <time>2024-02-18T09:47:09Z</time>
      </trkpt>
      <trkpt lat="46.67293" lon="0.5066">
        <ele>119.8</ele>
        <time>2024-02-18T09:47:15Z</time>
      </trkpt>
      <trkpt lat="46.67295" lon="0.5067">
        <ele>119.6</ele>
        <time>2024-02-18T09:47:17Z</time>
      </trkpt>
      <trkpt lat="46.67295" lon="0.50677">
        <ele>119.8</ele>
        <time>2024-02-18T09:47:19Z</time>
      </trkpt>
      <trkpt lat="46.67295" lon="0.50679">
        <ele>120</ele>
        <time>2024-02-18T09:47:20Z</time>
      </trkpt>
      <trkpt lat="46.67291" lon="0.5069">
        <ele>120.2</ele>
        <time>2024-02-18T09:47:23Z</time>
      </trkpt>
      <trkpt lat="46.67296" lon="0.50699">
        <ele>120.6</ele>
        <time>2024-02-18T09:47:24Z</time>
      </trkpt>
      <trkpt lat="46.67306" lon="0.50704">
        <ele>117.8</ele>
        <time>2024-02-18T09:47:30Z</time>
      </trkpt>
      <trkpt lat="46.67308" lon="0.50705">
        <ele>116.6</ele>
        <time>2024-02-18T09:47:31Z</time>
      </trkpt>
      <trkpt lat="46.6731" lon="0.50705">
        <ele>115.6</ele>
        <time>2024-02-18T09:47:34Z</time>
      </trkpt>
      <trkpt lat="46.67311" lon="0.507">
        <ele>116.2</ele>
        <time>2024-02-18T09:47:40Z</time>
      </trkpt>
      <trkpt lat="46.67312" lon="0.50699">
        <ele>116</ele>
        <time>2024-02-18T09:47:41Z</time>
      </trkpt>
      <trkpt lat="46.67313" lon="0.50699">
        <ele>116</ele>
        <time>2024-02-18T09:47:42Z</time>
      </trkpt>
      <trkpt lat="46.67321" lon="0.50699">
        <ele>115.6</ele>
        <time>2024-02-18T09:47:45Z</time>
      </trkpt>
      <trkpt lat="46.67325" lon="0.50699">
        <ele>114.2</ele>
        <time>2024-02-18T09:47:47Z</time>
      </trkpt>
      <trkpt lat="46.67328" lon="0.50701">
        <ele>112.8</ele>
        <time>2024-02-18T09:47:49Z</time>
      </trkpt>
      <trkpt lat="46.67329" lon="0.50702">
        <ele>112.6</ele>
        <time>2024-02-18T09:47:50Z</time>
      </trkpt>
      <trkpt lat="46.67331" lon="0.50706">
        <ele>111.6</ele>
        <time>2024-02-18T09:47:52Z</time>
      </trkpt>
      <trkpt lat="46.67334" lon="0.50722">
        <ele>111.2</ele>
        <time>2024-02-18T09:47:56Z</time>
      </trkpt>
      <trkpt lat="46.67336" lon="0.5073">
        <ele>110.6</ele>
        <time>2024-02-18T09:47:58Z</time>
      </trkpt>
      <trkpt lat="46.67338" lon="0.50734">
        <ele>110.2</ele>
        <time>2024-02-18T09:47:59Z</time>
      </trkpt>
      <trkpt lat="46.67341" lon="0.50742">
        <ele>109.6</ele>
        <time>2024-02-18T09:48:01Z</time>
      </trkpt>
      <trkpt lat="46.67343" lon="0.50749">
        <ele>109.6</ele>
        <time>2024-02-18T09:48:03Z</time>
      </trkpt>
      <trkpt lat="46.67345" lon="0.50757">
        <ele>109.6</ele>
        <time>2024-02-18T09:48:06Z</time>
      </trkpt>
      <trkpt lat="46.67347" lon="0.50765">
        <ele>109.6</ele>
        <time>2024-02-18T09:48:09Z</time>
      </trkpt>
      <trkpt lat="46.67349" lon="0.50772">
        <ele>110.4</ele>
        <time>2024-02-18T09:48:15Z</time>
      </trkpt>
      <trkpt lat="46.67349" lon="0.50774">
        <ele>110.6</ele>
        <time>2024-02-18T09:48:17Z</time>
      </trkpt>
      <trkpt lat="46.67349" lon="0.50777">
        <ele>111.2</ele>
        <time>2024-02-18T09:48:20Z</time>
      </trkpt>
      <trkpt lat="46.67348" lon="0.5078">
        <ele>111.4</ele>
        <time>2024-02-18T09:48:22Z</time>
      </trkpt>
      <trkpt lat="46.67351" lon="0.50787">
        <ele>111.2</ele>
        <time>2024-02-18T09:48:26Z</time>
      </trkpt>
      <trkpt lat="46.67352" lon="0.50789">
        <ele>111.2</ele>
        <time>2024-02-18T09:48:27Z</time>
      </trkpt>
      <trkpt lat="46.67359" lon="0.50796">
        <ele>111</ele>
        <time>2024-02-18T09:48:29Z</time>
      </trkpt>
      <trkpt lat="46.67364" lon="0.50801">
        <ele>109.8</ele>
        <time>2024-02-18T09:48:31Z</time>
      </trkpt>
      <trkpt lat="46.67369" lon="0.50803">
        <ele>108.8</ele>
        <time>2024-02-18T09:48:33Z</time>
      </trkpt>
      <trkpt lat="46.67378" lon="0.50806">
        <ele>106.4</ele>
        <time>2024-02-18T09:48:37Z</time>
      </trkpt>
      <trkpt lat="46.67381" lon="0.50809">
        <ele>105.6</ele>
        <time>2024-02-18T09:48:38Z</time>
      </trkpt>
      <trkpt lat="46.67383" lon="0.50812">
        <ele>104.8</ele>
        <time>2024-02-18T09:48:39Z</time>
      </trkpt>
      <trkpt lat="46.67388" lon="0.50823">
        <ele>104.6</ele>
        <time>2024-02-18T09:48:43Z</time>
      </trkpt>
      <trkpt lat="46.67389" lon="0.50829">
        <ele>105</ele>
        <time>2024-02-18T09:48:45Z</time>
      </trkpt>
      <trkpt lat="46.6739" lon="0.50836">
        <ele>105.6</ele>
        <time>2024-02-18T09:48:48Z</time>
      </trkpt>
      <trkpt lat="46.67392" lon="0.50843">
        <ele>106</ele>
        <time>2024-02-18T09:48:51Z</time>
      </trkpt>
      <trkpt lat="46.67393" lon="0.50851">
        <ele>107</ele>
        <time>2024-02-18T09:48:54Z</time>
      </trkpt>
      <trkpt lat="46.67394" lon="0.50853">
        <ele>107.2</ele>
        <time>2024-02-18T09:48:55Z</time>
      </trkpt>
      <trkpt lat="46.67398" lon="0.50864">
        <ele>107.4</ele>
        <time>2024-02-18T09:48:59Z</time>
      </trkpt>
      <trkpt lat="46.67399" lon="0.50867">
        <ele>107.4</ele>
        <time>2024-02-18T09:49:00Z</time>
      </trkpt>
      <trkpt lat="46.67401" lon="0.50874">
        <ele>108</ele>
        <time>2024-02-18T09:49:03Z</time>
      </trkpt>
      <trkpt lat="46.67403" lon="0.50879">
        <ele>108.2</ele>
        <time>2024-02-18T09:49:05Z</time>
      </trkpt>
      <trkpt lat="46.67412" lon="0.50897">
        <ele>108.8</ele>
        <time>2024-02-18T09:49:11Z</time>
      </trkpt>
      <trkpt lat="46.67419" lon="0.50904">
        <ele>109.2</ele>
        <time>2024-02-18T09:49:15Z</time>
      </trkpt>
      <trkpt lat="46.67422" lon="0.50907">
        <ele>109</ele>
        <time>2024-02-18T09:49:16Z</time>
      </trkpt>
      <trkpt lat="46.67435" lon="0.50918">
        <ele>108.8</ele>
        <time>2024-02-18T09:49:21Z</time>
      </trkpt>
      <trkpt lat="46.67444" lon="0.50928">
        <ele>108.2</ele>
        <time>2024-02-18T09:49:25Z</time>
      </trkpt>
      <trkpt lat="46.67447" lon="0.5093">
        <ele>108</ele>
        <time>2024-02-18T09:49:27Z</time>
      </trkpt>
      <trkpt lat="46.67461" lon="0.50942">
        <ele>107.8</ele>
        <time>2024-02-18T09:49:31Z</time>
      </trkpt>
      <trkpt lat="46.6747" lon="0.50946">
        <ele>107.2</ele>
        <time>2024-02-18T09:49:33Z</time>
      </trkpt>
      <trkpt lat="46.67475" lon="0.50948">
        <ele>107</ele>
        <time>2024-02-18T09:49:34Z</time>
      </trkpt>
      <trkpt lat="46.67484" lon="0.5095">
        <ele>106.4</ele>
        <time>2024-02-18T09:49:36Z</time>
      </trkpt>
      <trkpt lat="46.67489" lon="0.5095">
        <ele>106.2</ele>
        <time>2024-02-18T09:49:37Z</time>
      </trkpt>
      <trkpt lat="46.67494" lon="0.50949">
        <ele>105.8</ele>
        <time>2024-02-18T09:49:38Z</time>
      </trkpt>
      <trkpt lat="46.67499" lon="0.5095">
        <ele>105.6</ele>
        <time>2024-02-18T09:49:39Z</time>
      </trkpt>
      <trkpt lat="46.67507" lon="0.50954">
        <ele>105.2</ele>
        <time>2024-02-18T09:49:41Z</time>
      </trkpt>
      <trkpt lat="46.67511" lon="0.50956">
        <ele>105</ele>
        <time>2024-02-18T09:49:42Z</time>
      </trkpt>
      <trkpt lat="46.67522" lon="0.5096">
        <ele>104.2</ele>
        <time>2024-02-18T09:49:44Z</time>
      </trkpt>
      <trkpt lat="46.67527" lon="0.50961">
        <ele>103.4</ele>
        <time>2024-02-18T09:49:45Z</time>
      </trkpt>
      <trkpt lat="46.67531" lon="0.50961">
        <ele>103</ele>
        <time>2024-02-18T09:49:46Z</time>
      </trkpt>
      <trkpt lat="46.67537" lon="0.50954">
        <ele>102</ele>
        <time>2024-02-18T09:49:49Z</time>
      </trkpt>
      <trkpt lat="46.67539" lon="0.50951">
        <ele>101.8</ele>
        <time>2024-02-18T09:49:50Z</time>
      </trkpt>
      <trkpt lat="46.67542" lon="0.5095">
        <ele>101.8</ele>
        <time>2024-02-18T09:49:51Z</time>
      </trkpt>
      <trkpt lat="46.67548" lon="0.50956">
        <ele>101</ele>
        <time>2024-02-18T09:49:54Z</time>
      </trkpt>
      <trkpt lat="46.67549" lon="0.50957">
        <ele>100.8</ele>
        <time>2024-02-18T09:49:55Z</time>
      </trkpt>
      <trkpt lat="46.67556" lon="0.50956">
        <ele>100.2</ele>
        <time>2024-02-18T09:49:58Z</time>
      </trkpt>
      <trkpt lat="46.67561" lon="0.50958">
        <ele>99.8</ele>
        <time>2024-02-18T09:50:00Z</time>
      </trkpt>
      <trkpt lat="46.67564" lon="0.50957">
        <ele>99.8</ele>
        <time>2024-02-18T09:50:01Z</time>
      </trkpt>
      <trkpt lat="46.67566" lon="0.50955">
        <ele>99.2</ele>
        <time>2024-02-18T09:50:02Z</time>
      </trkpt>
      <trkpt lat="46.67568" lon="0.50951">
        <ele>98.8</ele>
        <time>2024-02-18T09:50:03Z</time>
      </trkpt>
      <trkpt lat="46.67572" lon="0.50946">
        <ele>98.2</ele>
        <time>2024-02-18T09:50:05Z</time>
      </trkpt>
      <trkpt lat="46.67574" lon="0.50948">
        <ele>98.2</ele>
        <time>2024-02-18T09:50:06Z</time>
      </trkpt>
      <trkpt lat="46.67581" lon="0.50951">
        <ele>97.8</ele>
        <time>2024-02-18T09:50:08Z</time>
      </trkpt>
      <trkpt lat="46.67585" lon="0.50951">
        <ele>97.6</ele>
        <time>2024-02-18T09:50:09Z</time>
      </trkpt>
      <trkpt lat="46.67591" lon="0.50951">
        <ele>97.4</ele>
        <time>2024-02-18T09:50:10Z</time>
      </trkpt>
      <trkpt lat="46.676" lon="0.50952">
        <ele>96.4</ele>
        <time>2024-02-18T09:50:12Z</time>
      </trkpt>
      <trkpt lat="46.6761" lon="0.50947">
        <ele>95.4</ele>
        <time>2024-02-18T09:50:14Z</time>
      </trkpt>
      <trkpt lat="46.67614" lon="0.50945">
        <ele>94.2</ele>
        <time>2024-02-18T09:50:15Z</time>
      </trkpt>
      <trkpt lat="46.67618" lon="0.50943">
        <ele>93.6</ele>
        <time>2024-02-18T09:50:16Z</time>
      </trkpt>
      <trkpt lat="46.6762" lon="0.50939">
        <ele>92.8</ele>
        <time>2024-02-18T09:50:17Z</time>
      </trkpt>
      <trkpt lat="46.67624" lon="0.50935">
        <ele>92</ele>
        <time>2024-02-18T09:50:18Z</time>
      </trkpt>
      <trkpt lat="46.67626" lon="0.5093">
        <ele>91.6</ele>
        <time>2024-02-18T09:50:19Z</time>
      </trkpt>
      <trkpt lat="46.67625" lon="0.5092">
        <ele>91.8</ele>
        <time>2024-02-18T09:50:22Z</time>
      </trkpt>
      <trkpt lat="46.67626" lon="0.50917">
        <ele>91.8</ele>
        <time>2024-02-18T09:50:23Z</time>
      </trkpt>
      <trkpt lat="46.67629" lon="0.50909">
        <ele>91.8</ele>
        <time>2024-02-18T09:50:26Z</time>
      </trkpt>
      <trkpt lat="46.67635" lon="0.5089">
        <ele>92.4</ele>
        <time>2024-02-18T09:50:33Z</time>
      </trkpt>
      <trkpt lat="46.67636" lon="0.50887">
        <ele>92.8</ele>
        <time>2024-02-18T09:50:34Z</time>
      </trkpt>
      <trkpt lat="46.67637" lon="0.50875">
        <ele>93.6</ele>
        <time>2024-02-18T09:50:38Z</time>
      </trkpt>
      <trkpt lat="46.67639" lon="0.5087">
        <ele>94</ele>
        <time>2024-02-18T09:50:39Z</time>
      </trkpt>
      <trkpt lat="46.67644" lon="0.50853">
        <ele>94.8</ele>
        <time>2024-02-18T09:50:43Z</time>
      </trkpt>
      <trkpt lat="46.67651" lon="0.50836">
        <ele>95</ele>
        <time>2024-02-18T09:50:48Z</time>
      </trkpt>
      <trkpt lat="46.67654" lon="0.50832">
        <ele>95.2</ele>
        <time>2024-02-18T09:50:50Z</time>
      </trkpt>
      <trkpt lat="46.67663" lon="0.50822">
        <ele>96</ele>
        <time>2024-02-18T09:50:55Z</time>
      </trkpt>
      <trkpt lat="46.67665" lon="0.50821">
        <ele>96.2</ele>
        <time>2024-02-18T09:50:56Z</time>
      </trkpt>
      <trkpt lat="46.67669" lon="0.50811">
        <ele>97.2</ele>
        <time>2024-02-18T09:51:00Z</time>
      </trkpt>
      <trkpt lat="46.67675" lon="0.50797">
        <ele>97.8</ele>
        <time>2024-02-18T09:51:05Z</time>
      </trkpt>
      <trkpt lat="46.6768" lon="0.50793">
        <ele>98.2</ele>
        <time>2024-02-18T09:51:07Z</time>
      </trkpt>
      <trkpt lat="46.67684" lon="0.50787">
        <ele>98.2</ele>
        <time>2024-02-18T09:51:09Z</time>
      </trkpt>
      <trkpt lat="46.67688" lon="0.50776">
        <ele>99.4</ele>
        <time>2024-02-18T09:51:13Z</time>
      </trkpt>
      <trkpt lat="46.67688" lon="0.50771">
        <ele>99.6</ele>
        <time>2024-02-18T09:51:15Z</time>
      </trkpt>
      <trkpt lat="46.67684" lon="0.50763">
        <ele>99.2</ele>
        <time>2024-02-18T09:51:19Z</time>
      </trkpt>
      <trkpt lat="46.67673" lon="0.50748">
        <ele>98.6</ele>
        <time>2024-02-18T09:51:24Z</time>
      </trkpt>
      <trkpt lat="46.67671" lon="0.50743">
        <ele>98.6</ele>
        <time>2024-02-18T09:51:25Z</time>
      </trkpt>
      <trkpt lat="46.67666" lon="0.5073">
        <ele>98.4</ele>
        <time>2024-02-18T09:51:28Z</time>
      </trkpt>
      <trkpt lat="46.67665" lon="0.50725">
        <ele>98.2</ele>
        <time>2024-02-18T09:51:29Z</time>
      </trkpt>
      <trkpt lat="46.67662" lon="0.50715">
        <ele>98.2</ele>
        <time>2024-02-18T09:51:31Z</time>
      </trkpt>
      <trkpt lat="46.67659" lon="0.50704">
        <ele>97.8</ele>
        <time>2024-02-18T09:51:34Z</time>
      </trkpt>
      <trkpt lat="46.67659" lon="0.507">
        <ele>97.6</ele>
        <time>2024-02-18T09:51:35Z</time>
      </trkpt>
      <trkpt lat="46.6766" lon="0.50695">
        <ele>97.2</ele>
        <time>2024-02-18T09:51:37Z</time>
      </trkpt>
      <trkpt lat="46.67662" lon="0.50685">
        <ele>97.2</ele>
        <time>2024-02-18T09:51:40Z</time>
      </trkpt>
      <trkpt lat="46.67663" lon="0.5067">
        <ele>97.6</ele>
        <time>2024-02-18T09:51:45Z</time>
      </trkpt>
      <trkpt lat="46.67665" lon="0.50661">
        <ele>98.2</ele>
        <time>2024-02-18T09:51:48Z</time>
      </trkpt>
      <trkpt lat="46.67665" lon="0.50656">
        <ele>98.8</ele>
        <time>2024-02-18T09:51:50Z</time>
      </trkpt>
      <trkpt lat="46.67666" lon="0.50654">
        <ele>99</ele>
        <time>2024-02-18T09:51:51Z</time>
      </trkpt>
      <trkpt lat="46.67667" lon="0.50652">
        <ele>99.4</ele>
        <time>2024-02-18T09:51:52Z</time>
      </trkpt>
      <trkpt lat="46.6767" lon="0.50648">
        <ele>100.4</ele>
        <time>2024-02-18T09:51:55Z</time>
      </trkpt>
      <trkpt lat="46.67672" lon="0.50644">
        <ele>101.2</ele>
        <time>2024-02-18T09:51:57Z</time>
      </trkpt>
      <trkpt lat="46.67673" lon="0.50642">
        <ele>101.8</ele>
        <time>2024-02-18T09:51:58Z</time>
      </trkpt>
      <trkpt lat="46.67679" lon="0.50629">
        <ele>102.6</ele>
        <time>2024-02-18T09:52:04Z</time>
      </trkpt>
      <trkpt lat="46.67681" lon="0.50626">
        <ele>103</ele>
        <time>2024-02-18T09:52:06Z</time>
      </trkpt>
      <trkpt lat="46.67685" lon="0.50619">
        <ele>104</ele>
        <time>2024-02-18T09:52:10Z</time>
      </trkpt>
      <trkpt lat="46.67686" lon="0.50617">
        <ele>104</ele>
        <time>2024-02-18T09:52:11Z</time>
      </trkpt>
      <trkpt lat="46.67689" lon="0.50615">
        <ele>105.2</ele>
        <time>2024-02-18T09:52:14Z</time>
      </trkpt>
      <trkpt lat="46.67692" lon="0.50611">
        <ele>106.4</ele>
        <time>2024-02-18T09:52:17Z</time>
      </trkpt>
      <trkpt lat="46.67694" lon="0.5061">
        <ele>106.6</ele>
        <time>2024-02-18T09:52:18Z</time>
      </trkpt>
      <trkpt lat="46.67697" lon="0.50604">
        <ele>107.4</ele>
        <time>2024-02-18T09:52:22Z</time>
      </trkpt>
      <trkpt lat="46.67698" lon="0.50602">
        <ele>107.6</ele>
        <time>2024-02-18T09:52:23Z</time>
      </trkpt>
      <trkpt lat="46.67704" lon="0.50586">
        <ele>108.2</ele>
        <time>2024-02-18T09:52:31Z</time>
      </trkpt>
      <trkpt lat="46.67709" lon="0.50579">
        <ele>108.4</ele>
        <time>2024-02-18T09:52:35Z</time>
      </trkpt>
      <trkpt lat="46.67711" lon="0.50579">
        <ele>108.4</ele>
        <time>2024-02-18T09:52:36Z</time>
      </trkpt>
      <trkpt lat="46.67712" lon="0.50579">
        <ele>108.6</ele>
        <time>2024-02-18T09:52:37Z</time>
      </trkpt>
      <trkpt lat="46.67713" lon="0.50578">
        <ele>109</ele>
        <time>2024-02-18T09:52:38Z</time>
      </trkpt>
      <trkpt lat="46.67715" lon="0.50578">
        <ele>109.6</ele>
        <time>2024-02-18T09:52:40Z</time>
      </trkpt>
      <trkpt lat="46.6772" lon="0.50569">
        <ele>110</ele>
        <time>2024-02-18T09:52:45Z</time>
      </trkpt>
      <trkpt lat="46.67728" lon="0.50559">
        <ele>108.2</ele>
        <time>2024-02-18T09:52:50Z</time>
      </trkpt>
      <trkpt lat="46.67731" lon="0.50557">
        <ele>107.2</ele>
        <time>2024-02-18T09:52:51Z</time>
      </trkpt>
      <trkpt lat="46.67733" lon="0.50555">
        <ele>106.6</ele>
        <time>2024-02-18T09:52:52Z</time>
      </trkpt>
      <trkpt lat="46.67742" lon="0.50547">
        <ele>107</ele>
        <time>2024-02-18T09:52:57Z</time>
      </trkpt>
      <trkpt lat="46.67743" lon="0.50547">
        <ele>107.8</ele>
        <time>2024-02-18T09:52:58Z</time>
      </trkpt>
      <trkpt lat="46.67745" lon="0.50545">
        <ele>108.4</ele>
        <time>2024-02-18T09:53:00Z</time>
      </trkpt>
      <trkpt lat="46.67752" lon="0.50538">
        <ele>109.2</ele>
        <time>2024-02-18T09:53:04Z</time>
      </trkpt>
      <trkpt lat="46.67756" lon="0.50531">
        <ele>109.4</ele>
        <time>2024-02-18T09:53:07Z</time>
      </trkpt>
      <trkpt lat="46.67759" lon="0.50529">
        <ele>109.2</ele>
        <time>2024-02-18T09:53:09Z</time>
      </trkpt>
      <trkpt lat="46.67764" lon="0.50523">
        <ele>109.4</ele>
        <time>2024-02-18T09:53:13Z</time>
      </trkpt>
      <trkpt lat="46.6777" lon="0.50515">
        <ele>110.2</ele>
        <time>2024-02-18T09:53:18Z</time>
      </trkpt>
      <trkpt lat="46.67772" lon="0.50514">
        <ele>110.4</ele>
        <time>2024-02-18T09:53:19Z</time>
      </trkpt>
      <trkpt lat="46.67775" lon="0.5051">
        <ele>111.2</ele>
        <time>2024-02-18T09:53:23Z</time>
      </trkpt>
      <trkpt lat="46.67781" lon="0.50504">
        <ele>111.8</ele>
        <time>2024-02-18T09:53:29Z</time>
      </trkpt>
      <trkpt lat="46.67783" lon="0.50503">
        <ele>112.2</ele>
        <time>2024-02-18T09:53:31Z</time>
      </trkpt>
      <trkpt lat="46.67787" lon="0.50498">
        <ele>113.2</ele>
        <time>2024-02-18T09:53:38Z</time>
      </trkpt>
      <trkpt lat="46.67787" lon="0.50496">
        <ele>113.4</ele>
        <time>2024-02-18T09:53:39Z</time>
      </trkpt>
      <trkpt lat="46.67787" lon="0.50493">
        <ele>113.4</ele>
        <time>2024-02-18T09:53:40Z</time>
      </trkpt>
      <trkpt lat="46.67789" lon="0.50476">
        <ele>112.8</ele>
        <time>2024-02-18T09:53:46Z</time>
      </trkpt>
      <trkpt lat="46.67789" lon="0.50465">
        <ele>112.8</ele>
        <time>2024-02-18T09:53:52Z</time>
      </trkpt>
      <trkpt lat="46.6779" lon="0.50457">
        <ele>113.4</ele>
        <time>2024-02-18T09:53:56Z</time>
      </trkpt>
      <trkpt lat="46.67791" lon="0.50451">
        <ele>114.4</ele>
        <time>2024-02-18T09:53:59Z</time>
      </trkpt>
      <trkpt lat="46.67792" lon="0.50449">
        <ele>115</ele>
        <time>2024-02-18T09:54:00Z</time>
      </trkpt>
      <trkpt lat="46.67794" lon="0.50445">
        <ele>115.6</ele>
        <time>2024-02-18T09:54:02Z</time>
      </trkpt>
      <trkpt lat="46.67797" lon="0.50433">
        <ele>116.2</ele>
        <time>2024-02-18T09:54:06Z</time>
      </trkpt>
      <trkpt lat="46.678" lon="0.50422">
        <ele>116.6</ele>
        <time>2024-02-18T09:54:10Z</time>
      </trkpt>
      <trkpt lat="46.67802" lon="0.50418">
        <ele>116.8</ele>
        <time>2024-02-18T09:54:12Z</time>
      </trkpt>
      <trkpt lat="46.67804" lon="0.50399">
        <ele>117.6</ele>
        <time>2024-02-18T09:54:19Z</time>
      </trkpt>
      <trkpt lat="46.67804" lon="0.50396">
        <ele>117.8</ele>
        <time>2024-02-18T09:54:20Z</time>
      </trkpt>
      <trkpt lat="46.67805" lon="0.50394">
        <ele>117.6</ele>
        <time>2024-02-18T09:54:21Z</time>
      </trkpt>
      <trkpt lat="46.67809" lon="0.5039">
        <ele>118</ele>
        <time>2024-02-18T09:54:24Z</time>
      </trkpt>
      <trkpt lat="46.67813" lon="0.50386">
        <ele>119</ele>
        <time>2024-02-18T09:54:28Z</time>
      </trkpt>
      <trkpt lat="46.67816" lon="0.50383">
        <ele>119.8</ele>
        <time>2024-02-18T09:54:31Z</time>
      </trkpt>
      <trkpt lat="46.67816" lon="0.50383">
        <ele>120</ele>
        <time>2024-02-18T09:54:32Z</time>
      </trkpt>
      <trkpt lat="46.67822" lon="0.50382">
        <ele>121</ele>
        <time>2024-02-18T09:54:37Z</time>
      </trkpt>
      <trkpt lat="46.67823" lon="0.50383">
        <ele>121.2</ele>
        <time>2024-02-18T09:54:38Z</time>
      </trkpt>
      <trkpt lat="46.67824" lon="0.50383">
        <ele>121.4</ele>
        <time>2024-02-18T09:54:39Z</time>
      </trkpt>
      <trkpt lat="46.67826" lon="0.50384">
        <ele>121.8</ele>
        <time>2024-02-18T09:54:41Z</time>
      </trkpt>
      <trkpt lat="46.67826" lon="0.50382">
        <ele>122.4</ele>
        <time>2024-02-18T09:54:43Z</time>
      </trkpt>
      <trkpt lat="46.67828" lon="0.50381">
        <ele>123</ele>
        <time>2024-02-18T09:54:45Z</time>
      </trkpt>
      <trkpt lat="46.67832" lon="0.50381">
        <ele>123.4</ele>
        <time>2024-02-18T09:54:48Z</time>
      </trkpt>
      <trkpt lat="46.67833" lon="0.50381">
        <ele>123.8</ele>
        <time>2024-02-18T09:54:50Z</time>
      </trkpt>
      <trkpt lat="46.67834" lon="0.50381">
        <ele>124.2</ele>
        <time>2024-02-18T09:54:51Z</time>
      </trkpt>
      <trkpt lat="46.67836" lon="0.50381">
        <ele>124.6</ele>
        <time>2024-02-18T09:54:53Z</time>
      </trkpt>
      <trkpt lat="46.67838" lon="0.50381">
        <ele>124.8</ele>
        <time>2024-02-18T09:54:55Z</time>
      </trkpt>
      <trkpt lat="46.6784" lon="0.5038">
        <ele>125</ele>
        <time>2024-02-18T09:54:56Z</time>
      </trkpt>
      <trkpt lat="46.67843" lon="0.50377">
        <ele>125.6</ele>
        <time>2024-02-18T09:54:59Z</time>
      </trkpt>
      <trkpt lat="46.67846" lon="0.50374">
        <ele>126</ele>
        <time>2024-02-18T09:55:01Z</time>
      </trkpt>
      <trkpt lat="46.67847" lon="0.50372">
        <ele>126.2</ele>
        <time>2024-02-18T09:55:02Z</time>
      </trkpt>
      <trkpt lat="46.67848" lon="0.5037">
        <ele>126.6</ele>
        <time>2024-02-18T09:55:03Z</time>
      </trkpt>
      <trkpt lat="46.67854" lon="0.50366">
        <ele>127</ele>
        <time>2024-02-18T09:55:08Z</time>
      </trkpt>
      <trkpt lat="46.67857" lon="0.50362">
        <ele>127.8</ele>
        <time>2024-02-18T09:55:12Z</time>
      </trkpt>
      <trkpt lat="46.67859" lon="0.5036">
        <ele>128.2</ele>
        <time>2024-02-18T09:55:14Z</time>
      </trkpt>
      <trkpt lat="46.67868" lon="0.50352">
        <ele>129.4</ele>
        <time>2024-02-18T09:55:23Z</time>
      </trkpt>
      <trkpt lat="46.6787" lon="0.50351">
        <ele>129.6</ele>
        <time>2024-02-18T09:55:24Z</time>
      </trkpt>
      <trkpt lat="46.67876" lon="0.50348">
        <ele>130.4</ele>
        <time>2024-02-18T09:55:29Z</time>
      </trkpt>
      <trkpt lat="46.6788" lon="0.50343">
        <ele>130.8</ele>
        <time>2024-02-18T09:55:32Z</time>
      </trkpt>
      <trkpt lat="46.67885" lon="0.50335">
        <ele>131.4</ele>
        <time>2024-02-18T09:55:37Z</time>
      </trkpt>
      <trkpt lat="46.67888" lon="0.50323">
        <ele>132</ele>
        <time>2024-02-18T09:55:43Z</time>
      </trkpt>
      <trkpt lat="46.67894" lon="0.50299">
        <ele>131.8</ele>
        <time>2024-02-18T09:55:54Z</time>
      </trkpt>
      <trkpt lat="46.67895" lon="0.50294">
        <ele>131.6</ele>
        <time>2024-02-18T09:55:56Z</time>
      </trkpt>
      <trkpt lat="46.67897" lon="0.50291">
        <ele>131.4</ele>
        <time>2024-02-18T09:55:58Z</time>
      </trkpt>
      <trkpt lat="46.67898" lon="0.50291">
        <ele>131.4</ele>
        <time>2024-02-18T09:55:59Z</time>
      </trkpt>
      <trkpt lat="46.679" lon="0.50291">
        <ele>131.6</ele>
        <time>2024-02-18T09:56:01Z</time>
      </trkpt>
      <trkpt lat="46.67908" lon="0.50295">
        <ele>132.4</ele>
        <time>2024-02-18T09:56:08Z</time>
      </trkpt>
      <trkpt lat="46.67909" lon="0.50296">
        <ele>132.8</ele>
        <time>2024-02-18T09:56:10Z</time>
      </trkpt>
      <trkpt lat="46.67909" lon="0.50297">
        <ele>133</ele>
        <time>2024-02-18T09:56:11Z</time>
      </trkpt>
      <trkpt lat="46.67908" lon="0.50302">
        <ele>133.2</ele>
        <time>2024-02-18T09:56:14Z</time>
      </trkpt>
      <trkpt lat="46.67907" lon="0.50309">
        <ele>133.2</ele>
        <time>2024-02-18T09:56:17Z</time>
      </trkpt>
      <trkpt lat="46.67908" lon="0.50313">
        <ele>133.2</ele>
        <time>2024-02-18T09:56:19Z</time>
      </trkpt>
      <trkpt lat="46.6791" lon="0.50313">
        <ele>133</ele>
        <time>2024-02-18T09:56:21Z</time>
      </trkpt>
      <trkpt lat="46.67913" lon="0.50305">
        <ele>133.4</ele>
        <time>2024-02-18T09:56:26Z</time>
      </trkpt>
      <trkpt lat="46.67918" lon="0.50298">
        <ele>133.2</ele>
        <time>2024-02-18T09:56:30Z</time>
      </trkpt>
      <trkpt lat="46.6792" lon="0.50297">
        <ele>133.2</ele>
        <time>2024-02-18T09:56:31Z</time>
      </trkpt>
      <trkpt lat="46.67921" lon="0.50297">
        <ele>133.2</ele>
        <time>2024-02-18T09:56:32Z</time>
      </trkpt>
      <trkpt lat="46.67924" lon="0.503">
        <ele>133.2</ele>
        <time>2024-02-18T09:56:35Z</time>
      </trkpt>
      <trkpt lat="46.67927" lon="0.50304">
        <ele>133.4</ele>
        <time>2024-02-18T09:56:38Z</time>
      </trkpt>
      <trkpt lat="46.67927" lon="0.50308">
        <ele>133.6</ele>
        <time>2024-02-18T09:56:40Z</time>
      </trkpt>
      <trkpt lat="46.67924" lon="0.50314">
        <ele>133.8</ele>
        <time>2024-02-18T09:56:43Z</time>
      </trkpt>
      <trkpt lat="46.6792" lon="0.50317">
        <ele>133.8</ele>
        <time>2024-02-18T09:56:45Z</time>
      </trkpt>
      <trkpt lat="46.67917" lon="0.5032">
        <ele>133.6</ele>
        <time>2024-02-18T09:56:47Z</time>
      </trkpt>
      <trkpt lat="46.67916" lon="0.50323">
        <ele>133.2</ele>
        <time>2024-02-18T09:56:49Z</time>
      </trkpt>
      <trkpt lat="46.67916" lon="0.50325">
        <ele>133</ele>
        <time>2024-02-18T09:56:50Z</time>
      </trkpt>
      <trkpt lat="46.67915" lon="0.5033">
        <ele>132.8</ele>
        <time>2024-02-18T09:56:53Z</time>
      </trkpt>
      <trkpt lat="46.67913" lon="0.50334">
        <ele>132.6</ele>
        <time>2024-02-18T09:56:55Z</time>
      </trkpt>
      <trkpt lat="46.6791" lon="0.50339">
        <ele>132.4</ele>
        <time>2024-02-18T09:56:57Z</time>
      </trkpt>
      <trkpt lat="46.67909" lon="0.50348">
        <ele>132.2</ele>
        <time>2024-02-18T09:57:00Z</time>
      </trkpt>
      <trkpt lat="46.67909" lon="0.5035">
        <ele>132.2</ele>
        <time>2024-02-18T09:57:01Z</time>
      </trkpt>
      <trkpt lat="46.67912" lon="0.50353">
        <ele>132</ele>
        <time>2024-02-18T09:57:04Z</time>
      </trkpt>
      <trkpt lat="46.67913" lon="0.50355">
        <ele>132</ele>
        <time>2024-02-18T09:57:05Z</time>
      </trkpt>
      <trkpt lat="46.67916" lon="0.50358">
        <ele>132.6</ele>
        <time>2024-02-18T09:57:08Z</time>
      </trkpt>
      <trkpt lat="46.67918" lon="0.50358">
        <ele>132.8</ele>
        <time>2024-02-18T09:57:10Z</time>
      </trkpt>
      <trkpt lat="46.67919" lon="0.50358">
        <ele>133</ele>
        <time>2024-02-18T09:57:11Z</time>
      </trkpt>
      <trkpt lat="46.67923" lon="0.50354">
        <ele>133.4</ele>
        <time>2024-02-18T09:57:17Z</time>
      </trkpt>
      <trkpt lat="46.67924" lon="0.50355">
        <ele>133.4</ele>
        <time>2024-02-18T09:57:19Z</time>
      </trkpt>
      <trkpt lat="46.67926" lon="0.50357">
        <ele>133.4</ele>
        <time>2024-02-18T09:57:21Z</time>
      </trkpt>
      <trkpt lat="46.67929" lon="0.50359">
        <ele>133.4</ele>
        <time>2024-02-18T09:57:25Z</time>
      </trkpt>
      <trkpt lat="46.67931" lon="0.5037">
        <ele>133.4</ele>
        <time>2024-02-18T09:57:37Z</time>
      </trkpt>
      <trkpt lat="46.67932" lon="0.50374">
        <ele>133.4</ele>
        <time>2024-02-18T09:57:40Z</time>
      </trkpt>
      <trkpt lat="46.67932" lon="0.50376">
        <ele>133.6</ele>
        <time>2024-02-18T09:57:43Z</time>
      </trkpt>
      <trkpt lat="46.6793" lon="0.5038">
        <ele>133.2</ele>
        <time>2024-02-18T09:57:46Z</time>
      </trkpt>
      <trkpt lat="46.67927" lon="0.50382">
        <ele>133.2</ele>
        <time>2024-02-18T09:57:48Z</time>
      </trkpt>
      <trkpt lat="46.67923" lon="0.50386">
        <ele>132.4</ele>
        <time>2024-02-18T09:57:53Z</time>
      </trkpt>
      <trkpt lat="46.67922" lon="0.50387">
        <ele>132.2</ele>
        <time>2024-02-18T09:57:54Z</time>
      </trkpt>
      <trkpt lat="46.67918" lon="0.50403">
        <ele>131.6</ele>
        <time>2024-02-18T09:58:00Z</time>
      </trkpt>
      <trkpt lat="46.67917" lon="0.50408">
        <ele>131.2</ele>
        <time>2024-02-18T09:58:01Z</time>
      </trkpt>
      <trkpt lat="46.67914" lon="0.50417">
        <ele>130.8</ele>
        <time>2024-02-18T09:58:04Z</time>
      </trkpt>
      <trkpt lat="46.67911" lon="0.50419">
        <ele>130.6</ele>
        <time>2024-02-18T09:58:05Z</time>
      </trkpt>
      <trkpt lat="46.67904" lon="0.50424">
        <ele>130.4</ele>
        <time>2024-02-18T09:58:08Z</time>
      </trkpt>
      <trkpt lat="46.67904" lon="0.50426">
        <ele>130.2</ele>
        <time>2024-02-18T09:58:09Z</time>
      </trkpt>
      <trkpt lat="46.67904" lon="0.50427">
        <ele>130</ele>
        <time>2024-02-18T09:58:10Z</time>
      </trkpt>
      <trkpt lat="46.67904" lon="0.50429">
        <ele>129.4</ele>
        <time>2024-02-18T09:58:12Z</time>
      </trkpt>
      <trkpt lat="46.67903" lon="0.50435">
        <ele>129.2</ele>
        <time>2024-02-18T09:58:14Z</time>
      </trkpt>
      <trkpt lat="46.679" lon="0.50445">
        <ele>129.2</ele>
        <time>2024-02-18T09:58:17Z</time>
      </trkpt>
      <trkpt lat="46.67897" lon="0.50453">
        <ele>129</ele>
        <time>2024-02-18T09:58:19Z</time>
      </trkpt>
      <trkpt lat="46.67895" lon="0.50471">
        <ele>128.8</ele>
        <time>2024-02-18T09:58:24Z</time>
      </trkpt>
      <trkpt lat="46.67896" lon="0.50473">
        <ele>128.8</ele>
        <time>2024-02-18T09:58:25Z</time>
      </trkpt>
      <trkpt lat="46.679" lon="0.50475">
        <ele>129</ele>
        <time>2024-02-18T09:58:28Z</time>
      </trkpt>
      <trkpt lat="46.67906" lon="0.50486">
        <ele>129.2</ele>
        <time>2024-02-18T09:58:33Z</time>
      </trkpt>
      <trkpt lat="46.67907" lon="0.50491">
        <ele>129</ele>
        <time>2024-02-18T09:58:36Z</time>
      </trkpt>
      <trkpt lat="46.67905" lon="0.50502">
        <ele>129</ele>
        <time>2024-02-18T09:58:39Z</time>
      </trkpt>
      <trkpt lat="46.67905" lon="0.50517">
        <ele>128.2</ele>
        <time>2024-02-18T09:58:44Z</time>
      </trkpt>
      <trkpt lat="46.67906" lon="0.50519">
        <ele>127.8</ele>
        <time>2024-02-18T09:58:45Z</time>
      </trkpt>
      <trkpt lat="46.67906" lon="0.50518">
        <ele>127.8</ele>
        <time>2024-02-18T09:58:46Z</time>
      </trkpt>
      <trkpt lat="46.67908" lon="0.50515">
        <ele>127.8</ele>
        <time>2024-02-18T09:58:49Z</time>
      </trkpt>
      <trkpt lat="46.67908" lon="0.50514">
        <ele>128.2</ele>
        <time>2024-02-18T09:58:50Z</time>
      </trkpt>
      <trkpt lat="46.67909" lon="0.50513">
        <ele>128.6</ele>
        <time>2024-02-18T09:58:51Z</time>
      </trkpt>
      <trkpt lat="46.67911" lon="0.50512">
        <ele>128.8</ele>
        <time>2024-02-18T09:58:53Z</time>
      </trkpt>
      <trkpt lat="46.67914" lon="0.50509">
        <ele>129.2</ele>
        <time>2024-02-18T09:58:55Z</time>
      </trkpt>
      <trkpt lat="46.67925" lon="0.50502">
        <ele>129.8</ele>
        <time>2024-02-18T09:59:01Z</time>
      </trkpt>
      <trkpt lat="46.67927" lon="0.50503">
        <ele>130.2</ele>
        <time>2024-02-18T09:59:03Z</time>
      </trkpt>
      <trkpt lat="46.67928" lon="0.50505">
        <ele>130.2</ele>
        <time>2024-02-18T09:59:04Z</time>
      </trkpt>
      <trkpt lat="46.6793" lon="0.50507">
        <ele>130.4</ele>
        <time>2024-02-18T09:59:05Z</time>
      </trkpt>
      <trkpt lat="46.67941" lon="0.50516">
        <ele>130.4</ele>
        <time>2024-02-18T09:59:09Z</time>
      </trkpt>
      <trkpt lat="46.67957" lon="0.50521">
        <ele>130.2</ele>
        <time>2024-02-18T09:59:14Z</time>
      </trkpt>
      <trkpt lat="46.6796" lon="0.5052">
        <ele>130.2</ele>
        <time>2024-02-18T09:59:15Z</time>
      </trkpt>
      <trkpt lat="46.67968" lon="0.50516">
        <ele>130.6</ele>
        <time>2024-02-18T09:59:19Z</time>
      </trkpt>
      <trkpt lat="46.67969" lon="0.50516">
        <ele>130.8</ele>
        <time>2024-02-18T09:59:20Z</time>
      </trkpt>
      <trkpt lat="46.67971" lon="0.50518">
        <ele>131</ele>
        <time>2024-02-18T09:59:22Z</time>
      </trkpt>
      <trkpt lat="46.67972" lon="0.50523">
        <ele>130.8</ele>
        <time>2024-02-18T09:59:25Z</time>
      </trkpt>
      <trkpt lat="46.67972" lon="0.50525">
        <ele>130.8</ele>
        <time>2024-02-18T09:59:26Z</time>
      </trkpt>
      <trkpt lat="46.67965" lon="0.50528">
        <ele>130</ele>
        <time>2024-02-18T09:59:30Z</time>
      </trkpt>
      <trkpt lat="46.67964" lon="0.5053">
        <ele>129.8</ele>
        <time>2024-02-18T09:59:31Z</time>
      </trkpt>
      <trkpt lat="46.67961" lon="0.50535">
        <ele>129.8</ele>
        <time>2024-02-18T09:59:33Z</time>
      </trkpt>
      <trkpt lat="46.67953" lon="0.50541">
        <ele>129</ele>
        <time>2024-02-18T09:59:36Z</time>
      </trkpt>
      <trkpt lat="46.67948" lon="0.50544">
        <ele>128.6</ele>
        <time>2024-02-18T09:59:38Z</time>
      </trkpt>
      <trkpt lat="46.6794" lon="0.50558">
        <ele>127.8</ele>
        <time>2024-02-18T09:59:42Z</time>
      </trkpt>
      <trkpt lat="46.67936" lon="0.50562">
        <ele>127.6</ele>
        <time>2024-02-18T09:59:43Z</time>
      </trkpt>
      <trkpt lat="46.67931" lon="0.50567">
        <ele>127</ele>
        <time>2024-02-18T09:59:45Z</time>
      </trkpt>
      <trkpt lat="46.67929" lon="0.50571">
        <ele>126.6</ele>
        <time>2024-02-18T09:59:46Z</time>
      </trkpt>
      <trkpt lat="46.67925" lon="0.50578">
        <ele>126.2</ele>
        <time>2024-02-18T09:59:48Z</time>
      </trkpt>
      <trkpt lat="46.67924" lon="0.50581">
        <ele>125.6</ele>
        <time>2024-02-18T09:59:49Z</time>
      </trkpt>
      <trkpt lat="46.67924" lon="0.50583">
        <ele>125</ele>
        <time>2024-02-18T09:59:51Z</time>
      </trkpt>
      <trkpt lat="46.67924" lon="0.50585">
        <ele>124.8</ele>
        <time>2024-02-18T09:59:52Z</time>
      </trkpt>
      <trkpt lat="46.67927" lon="0.50588">
        <ele>124.4</ele>
        <time>2024-02-18T09:59:54Z</time>
      </trkpt>
      <trkpt lat="46.67929" lon="0.50589">
        <ele>124.4</ele>
        <time>2024-02-18T09:59:56Z</time>
      </trkpt>
      <trkpt lat="46.67932" lon="0.50592">
        <ele>124.6</ele>
        <time>2024-02-18T09:59:58Z</time>
      </trkpt>
      <trkpt lat="46.67933" lon="0.50597">
        <ele>124.8</ele>
        <time>2024-02-18T10:00:00Z</time>
      </trkpt>
      <trkpt lat="46.67932" lon="0.50612">
        <ele>123.8</ele>
        <time>2024-02-18T10:00:05Z</time>
      </trkpt>
      <trkpt lat="46.67933" lon="0.50615">
        <ele>123.4</ele>
        <time>2024-02-18T10:00:06Z</time>
      </trkpt>
      <trkpt lat="46.67933" lon="0.50626">
        <ele>122.4</ele>
        <time>2024-02-18T10:00:09Z</time>
      </trkpt>
      <trkpt lat="46.67933" lon="0.50635">
        <ele>120.8</ele>
        <time>2024-02-18T10:00:11Z</time>
      </trkpt>
      <trkpt lat="46.67935" lon="0.50644">
        <ele>119.6</ele>
        <time>2024-02-18T10:00:14Z</time>
      </trkpt>
      <trkpt lat="46.67935" lon="0.50646">
        <ele>119.4</ele>
        <time>2024-02-18T10:00:15Z</time>
      </trkpt>
      <trkpt lat="46.67936" lon="0.50646">
        <ele>119.2</ele>
        <time>2024-02-18T10:00:16Z</time>
      </trkpt>
      <trkpt lat="46.67941" lon="0.50648">
        <ele>119.6</ele>
        <time>2024-02-18T10:00:20Z</time>
      </trkpt>
      <trkpt lat="46.67946" lon="0.50654">
        <ele>120.4</ele>
        <time>2024-02-18T10:00:23Z</time>
      </trkpt>
      <trkpt lat="46.67947" lon="0.50657">
        <ele>120.4</ele>
        <time>2024-02-18T10:00:24Z</time>
      </trkpt>
      <trkpt lat="46.67948" lon="0.50669">
        <ele>119.6</ele>
        <time>2024-02-18T10:00:29Z</time>
      </trkpt>
      <trkpt lat="46.67951" lon="0.50668">
        <ele>119.4</ele>
        <time>2024-02-18T10:00:32Z</time>
      </trkpt>
      <trkpt lat="46.67953" lon="0.50666">
        <ele>119.6</ele>
        <time>2024-02-18T10:00:34Z</time>
      </trkpt>
      <trkpt lat="46.67955" lon="0.50665">
        <ele>119.8</ele>
        <time>2024-02-18T10:00:36Z</time>
      </trkpt>
      <trkpt lat="46.67957" lon="0.50662">
        <ele>120.6</ele>
        <time>2024-02-18T10:00:38Z</time>
      </trkpt>
      <trkpt lat="46.67958" lon="0.50657">
        <ele>122.2</ele>
        <time>2024-02-18T10:00:41Z</time>
      </trkpt>
      <trkpt lat="46.67959" lon="0.50653">
        <ele>122.8</ele>
        <time>2024-02-18T10:00:43Z</time>
      </trkpt>
      <trkpt lat="46.67958" lon="0.5065">
        <ele>123.2</ele>
        <time>2024-02-18T10:00:46Z</time>
      </trkpt>
      <trkpt lat="46.67956" lon="0.50646">
        <ele>123.4</ele>
        <time>2024-02-18T10:00:49Z</time>
      </trkpt>
      <trkpt lat="46.67956" lon="0.50643">
        <ele>123.6</ele>
        <time>2024-02-18T10:00:51Z</time>
      </trkpt>
      <trkpt lat="46.67964" lon="0.50642">
        <ele>124.6</ele>
        <time>2024-02-18T10:00:57Z</time>
      </trkpt>
      <trkpt lat="46.67966" lon="0.5064">
        <ele>124.8</ele>
        <time>2024-02-18T10:00:58Z</time>
      </trkpt>
      <trkpt lat="46.67966" lon="0.50639">
        <ele>124.8</ele>
        <time>2024-02-18T10:00:59Z</time>
      </trkpt>
      <trkpt lat="46.67967" lon="0.50629">
        <ele>125.2</ele>
        <time>2024-02-18T10:01:04Z</time>
      </trkpt>
      <trkpt lat="46.67968" lon="0.50627">
        <ele>125.2</ele>
        <time>2024-02-18T10:01:05Z</time>
      </trkpt>
      <trkpt lat="46.6797" lon="0.50618">
        <ele>125.6</ele>
        <time>2024-02-18T10:01:09Z</time>
      </trkpt>
      <trkpt lat="46.6797" lon="0.50613">
        <ele>125.8</ele>
        <time>2024-02-18T10:01:11Z</time>
      </trkpt>
      <trkpt lat="46.67971" lon="0.50597">
        <ele>126.6</ele>
        <time>2024-02-18T10:01:17Z</time>
      </trkpt>
      <trkpt lat="46.67972" lon="0.50594">
        <ele>126.8</ele>
        <time>2024-02-18T10:01:18Z</time>
      </trkpt>
      <trkpt lat="46.67973" lon="0.50582">
        <ele>127.4</ele>
        <time>2024-02-18T10:01:24Z</time>
      </trkpt>
      <trkpt lat="46.67973" lon="0.50577">
        <ele>127.8</ele>
        <time>2024-02-18T10:01:26Z</time>
      </trkpt>
      <trkpt lat="46.67976" lon="0.50565">
        <ele>128.4</ele>
        <time>2024-02-18T10:01:31Z</time>
      </trkpt>
      <trkpt lat="46.67978" lon="0.50558">
        <ele>128.8</ele>
        <time>2024-02-18T10:01:34Z</time>
      </trkpt>
      <trkpt lat="46.67979" lon="0.50552">
        <ele>129.4</ele>
        <time>2024-02-18T10:01:37Z</time>
      </trkpt>
      <trkpt lat="46.6798" lon="0.5055">
        <ele>129.6</ele>
        <time>2024-02-18T10:01:38Z</time>
      </trkpt>
      <trkpt lat="46.67982" lon="0.50546">
        <ele>129.8</ele>
        <time>2024-02-18T10:01:40Z</time>
      </trkpt>
      <trkpt lat="46.67983" lon="0.50545">
        <ele>130</ele>
        <time>2024-02-18T10:01:42Z</time>
      </trkpt>
      <trkpt lat="46.67984" lon="0.50545">
        <ele>130.2</ele>
        <time>2024-02-18T10:01:43Z</time>
      </trkpt>
      <trkpt lat="46.67986" lon="0.50538">
        <ele>130.4</ele>
        <time>2024-02-18T10:01:52Z</time>
      </trkpt>
      <trkpt lat="46.67988" lon="0.50536">
        <ele>130.2</ele>
        <time>2024-02-18T10:01:54Z</time>
      </trkpt>
      <trkpt lat="46.67989" lon="0.50531">
        <ele>130.2</ele>
        <time>2024-02-18T10:01:58Z</time>
      </trkpt>
      <trkpt lat="46.67991" lon="0.50529">
        <ele>130.4</ele>
        <time>2024-02-18T10:02:00Z</time>
      </trkpt>
      <trkpt lat="46.67992" lon="0.50529">
        <ele>130.6</ele>
        <time>2024-02-18T10:02:04Z</time>
      </trkpt>
      <trkpt lat="46.67996" lon="0.50533">
        <ele>131</ele>
        <time>2024-02-18T10:02:11Z</time>
      </trkpt>
      <trkpt lat="46.67998" lon="0.50534">
        <ele>131</ele>
        <time>2024-02-18T10:02:14Z</time>
      </trkpt>
      <trkpt lat="46.68003" lon="0.50533">
        <ele>131.2</ele>
        <time>2024-02-18T10:02:18Z</time>
      </trkpt>
      <trkpt lat="46.68007" lon="0.5053">
        <ele>131.4</ele>
        <time>2024-02-18T10:02:21Z</time>
      </trkpt>
      <trkpt lat="46.68015" lon="0.50522">
        <ele>131.4</ele>
        <time>2024-02-18T10:02:26Z</time>
      </trkpt>
      <trkpt lat="46.68017" lon="0.50522">
        <ele>131.4</ele>
        <time>2024-02-18T10:02:27Z</time>
      </trkpt>
      <trkpt lat="46.68019" lon="0.50528">
        <ele>131.4</ele>
        <time>2024-02-18T10:02:30Z</time>
      </trkpt>
      <trkpt lat="46.68018" lon="0.50529">
        <ele>131.4</ele>
        <time>2024-02-18T10:02:31Z</time>
      </trkpt>
      <trkpt lat="46.68016" lon="0.50538">
        <ele>131.4</ele>
        <time>2024-02-18T10:02:35Z</time>
      </trkpt>
      <trkpt lat="46.68014" lon="0.50538">
        <ele>131.4</ele>
        <time>2024-02-18T10:02:36Z</time>
      </trkpt>
      <trkpt lat="46.6801" lon="0.5054">
        <ele>131</ele>
        <time>2024-02-18T10:02:39Z</time>
      </trkpt>
      <trkpt lat="46.68009" lon="0.50543">
        <ele>130.8</ele>
        <time>2024-02-18T10:02:41Z</time>
      </trkpt>
      <trkpt lat="46.6801" lon="0.50546">
        <ele>130.6</ele>
        <time>2024-02-18T10:02:44Z</time>
      </trkpt>
      <trkpt lat="46.68011" lon="0.50547">
        <ele>130.6</ele>
        <time>2024-02-18T10:02:45Z</time>
      </trkpt>
      <trkpt lat="46.68017" lon="0.50552">
        <ele>130.6</ele>
        <time>2024-02-18T10:02:50Z</time>
      </trkpt>
      <trkpt lat="46.6802" lon="0.50556">
        <ele>130.6</ele>
        <time>2024-02-18T10:02:53Z</time>
      </trkpt>
      <trkpt lat="46.6802" lon="0.50561">
        <ele>130.4</ele>
        <time>2024-02-18T10:02:55Z</time>
      </trkpt>
      <trkpt lat="46.68022" lon="0.50565">
        <ele>130</ele>
        <time>2024-02-18T10:02:57Z</time>
      </trkpt>
      <trkpt lat="46.68022" lon="0.50571">
        <ele>129.8</ele>
        <time>2024-02-18T10:02:59Z</time>
      </trkpt>
      <trkpt lat="46.68023" lon="0.50576">
        <ele>129.6</ele>
        <time>2024-02-18T10:03:01Z</time>
      </trkpt>
      <trkpt lat="46.68026" lon="0.50579">
        <ele>129.4</ele>
        <time>2024-02-18T10:03:04Z</time>
      </trkpt>
      <trkpt lat="46.68031" lon="0.50581">
        <ele>129.6</ele>
        <time>2024-02-18T10:03:07Z</time>
      </trkpt>
      <trkpt lat="46.68032" lon="0.50585">
        <ele>129.6</ele>
        <time>2024-02-18T10:03:09Z</time>
      </trkpt>
      <trkpt lat="46.68031" lon="0.506">
        <ele>129.2</ele>
        <time>2024-02-18T10:03:15Z</time>
      </trkpt>
      <trkpt lat="46.68032" lon="0.50601">
        <ele>129.2</ele>
        <time>2024-02-18T10:03:16Z</time>
      </trkpt>
      <trkpt lat="46.68038" lon="0.50603">
        <ele>129.2</ele>
        <time>2024-02-18T10:03:20Z</time>
      </trkpt>
      <trkpt lat="46.68042" lon="0.50602">
        <ele>129.4</ele>
        <time>2024-02-18T10:03:24Z</time>
      </trkpt>
      <trkpt lat="46.68043" lon="0.50603">
        <ele>129.4</ele>
        <time>2024-02-18T10:03:25Z</time>
      </trkpt>
      <trkpt lat="46.68044" lon="0.50607">
        <ele>129.6</ele>
        <time>2024-02-18T10:03:28Z</time>
      </trkpt>
      <trkpt lat="46.68045" lon="0.50611">
        <ele>129.6</ele>
        <time>2024-02-18T10:03:30Z</time>
      </trkpt>
      <trkpt lat="46.68046" lon="0.50613">
        <ele>129.6</ele>
        <time>2024-02-18T10:03:31Z</time>
      </trkpt>
      <trkpt lat="46.68048" lon="0.50614">
        <ele>129.6</ele>
        <time>2024-02-18T10:03:32Z</time>
      </trkpt>
      <trkpt lat="46.6806" lon="0.5062">
        <ele>129.6</ele>
        <time>2024-02-18T10:03:38Z</time>
      </trkpt>
      <trkpt lat="46.68062" lon="0.50622">
        <ele>129.8</ele>
        <time>2024-02-18T10:03:39Z</time>
      </trkpt>
      <trkpt lat="46.68064" lon="0.50626">
        <ele>130</ele>
        <time>2024-02-18T10:03:41Z</time>
      </trkpt>
      <trkpt lat="46.68064" lon="0.50629">
        <ele>130</ele>
        <time>2024-02-18T10:03:42Z</time>
      </trkpt>
      <trkpt lat="46.68065" lon="0.50631">
        <ele>130</ele>
        <time>2024-02-18T10:03:43Z</time>
      </trkpt>
      <trkpt lat="46.68067" lon="0.50633">
        <ele>130</ele>
        <time>2024-02-18T10:03:45Z</time>
      </trkpt>
      <trkpt lat="46.6807" lon="0.50635">
        <ele>130</ele>
        <time>2024-02-18T10:03:47Z</time>
      </trkpt>
      <trkpt lat="46.68082" lon="0.50636">
        <ele>130.2</ele>
        <time>2024-02-18T10:03:52Z</time>
      </trkpt>
      <trkpt lat="46.68083" lon="0.50638">
        <ele>130.4</ele>
        <time>2024-02-18T10:03:53Z</time>
      </trkpt>
      <trkpt lat="46.68083" lon="0.50643">
        <ele>130.2</ele>
        <time>2024-02-18T10:03:56Z</time>
      </trkpt>
      <trkpt lat="46.68083" lon="0.50648">
        <ele>130</ele>
        <time>2024-02-18T10:03:59Z</time>
      </trkpt>
      <trkpt lat="46.68083" lon="0.50654">
        <ele>130</ele>
        <time>2024-02-18T10:04:01Z</time>
      </trkpt>
      <trkpt lat="46.68088" lon="0.50656">
        <ele>129.8</ele>
        <time>2024-02-18T10:04:04Z</time>
      </trkpt>
      <trkpt lat="46.68093" lon="0.50654">
        <ele>129.6</ele>
        <time>2024-02-18T10:04:07Z</time>
      </trkpt>
      <trkpt lat="46.68095" lon="0.50657">
        <ele>129.6</ele>
        <time>2024-02-18T10:04:09Z</time>
      </trkpt>
      <trkpt lat="46.68095" lon="0.5066">
        <ele>129.6</ele>
        <time>2024-02-18T10:04:10Z</time>
      </trkpt>
      <trkpt lat="46.68096" lon="0.50667">
        <ele>129.4</ele>
        <time>2024-02-18T10:04:13Z</time>
      </trkpt>
      <trkpt lat="46.68108" lon="0.50676">
        <ele>128.8</ele>
        <time>2024-02-18T10:04:18Z</time>
      </trkpt>
      <trkpt lat="46.68113" lon="0.5068">
        <ele>128.8</ele>
        <time>2024-02-18T10:04:20Z</time>
      </trkpt>
      <trkpt lat="46.6812" lon="0.50687">
        <ele>128.8</ele>
        <time>2024-02-18T10:04:23Z</time>
      </trkpt>
      <trkpt lat="46.68123" lon="0.50691">
        <ele>129</ele>
        <time>2024-02-18T10:04:24Z</time>
      </trkpt>
      <trkpt lat="46.68128" lon="0.50703">
        <ele>129</ele>
        <time>2024-02-18T10:04:27Z</time>
      </trkpt>
      <trkpt lat="46.68128" lon="0.50712">
        <ele>128.8</ele>
        <time>2024-02-18T10:04:29Z</time>
      </trkpt>
      <trkpt lat="46.6813" lon="0.50722">
        <ele>128.2</ele>
        <time>2024-02-18T10:04:32Z</time>
      </trkpt>
      <trkpt lat="46.68133" lon="0.50725">
        <ele>127.8</ele>
        <time>2024-02-18T10:04:34Z</time>
      </trkpt>
      <trkpt lat="46.68135" lon="0.50725">
        <ele>127.6</ele>
        <time>2024-02-18T10:04:35Z</time>
      </trkpt>
      <trkpt lat="46.68139" lon="0.50729">
        <ele>127.4</ele>
        <time>2024-02-18T10:04:37Z</time>
      </trkpt>
      <trkpt lat="46.68142" lon="0.50735">
        <ele>127.4</ele>
        <time>2024-02-18T10:04:39Z</time>
      </trkpt>
      <trkpt lat="46.68149" lon="0.50742">
        <ele>127.4</ele>
        <time>2024-02-18T10:04:42Z</time>
      </trkpt>
      <trkpt lat="46.68155" lon="0.50745">
        <ele>127.2</ele>
        <time>2024-02-18T10:04:44Z</time>
      </trkpt>
      <trkpt lat="46.68158" lon="0.50753">
        <ele>127.2</ele>
        <time>2024-02-18T10:04:47Z</time>
      </trkpt>
      <trkpt lat="46.68159" lon="0.50756">
        <ele>127</ele>
        <time>2024-02-18T10:04:48Z</time>
      </trkpt>
      <trkpt lat="46.6816" lon="0.50759">
        <ele>126.6</ele>
        <time>2024-02-18T10:04:50Z</time>
      </trkpt>
      <trkpt lat="46.68161" lon="0.5076">
        <ele>126.4</ele>
        <time>2024-02-18T10:04:51Z</time>
      </trkpt>
      <trkpt lat="46.68163" lon="0.5076">
        <ele>126.2</ele>
        <time>2024-02-18T10:04:52Z</time>
      </trkpt>
      <trkpt lat="46.68165" lon="0.5076">
        <ele>125.8</ele>
        <time>2024-02-18T10:04:54Z</time>
      </trkpt>
      <trkpt lat="46.68171" lon="0.50759">
        <ele>125.6</ele>
        <time>2024-02-18T10:04:57Z</time>
      </trkpt>
      <trkpt lat="46.68174" lon="0.50764">
        <ele>125.4</ele>
        <time>2024-02-18T10:04:59Z</time>
      </trkpt>
      <trkpt lat="46.68175" lon="0.50769">
        <ele>125.2</ele>
        <time>2024-02-18T10:05:01Z</time>
      </trkpt>
      <trkpt lat="46.68176" lon="0.50774">
        <ele>124.6</ele>
        <time>2024-02-18T10:05:04Z</time>
      </trkpt>
      <trkpt lat="46.68176" lon="0.50775">
        <ele>124.2</ele>
        <time>2024-02-18T10:05:06Z</time>
      </trkpt>
      <trkpt lat="46.68176" lon="0.50776">
        <ele>124</ele>
        <time>2024-02-18T10:05:07Z</time>
      </trkpt>
      <trkpt lat="46.68181" lon="0.5078">
        <ele>123.8</ele>
        <time>2024-02-18T10:05:14Z</time>
      </trkpt>
      <trkpt lat="46.6819" lon="0.50786">
        <ele>123.8</ele>
        <time>2024-02-18T10:05:25Z</time>
      </trkpt>
      <trkpt lat="46.68195" lon="0.50791">
        <ele>123.6</ele>
        <time>2024-02-18T10:05:32Z</time>
      </trkpt>
      <trkpt lat="46.682" lon="0.50794">
        <ele>123.2</ele>
        <time>2024-02-18T10:05:35Z</time>
      </trkpt>
      <trkpt lat="46.68201" lon="0.50795">
        <ele>123</ele>
        <time>2024-02-18T10:05:36Z</time>
      </trkpt>
      <trkpt lat="46.6821" lon="0.50798">
        <ele>123.2</ele>
        <time>2024-02-18T10:05:42Z</time>
      </trkpt>
      <trkpt lat="46.68215" lon="0.50799">
        <ele>124</ele>
        <time>2024-02-18T10:05:45Z</time>
      </trkpt>
      <trkpt lat="46.68216" lon="0.50799">
        <ele>124.2</ele>
        <time>2024-02-18T10:05:46Z</time>
      </trkpt>
      <trkpt lat="46.68218" lon="0.50798">
        <ele>125</ele>
        <time>2024-02-18T10:05:48Z</time>
      </trkpt>
      <trkpt lat="46.68219" lon="0.50797">
        <ele>125.2</ele>
        <time>2024-02-18T10:05:49Z</time>
      </trkpt>
      <trkpt lat="46.68225" lon="0.50791">
        <ele>125.8</ele>
        <time>2024-02-18T10:05:54Z</time>
      </trkpt>
      <trkpt lat="46.6823" lon="0.50782">
        <ele>126.2</ele>
        <time>2024-02-18T10:05:59Z</time>
      </trkpt>
      <trkpt lat="46.68231" lon="0.50779">
        <ele>126.2</ele>
        <time>2024-02-18T10:06:00Z</time>
      </trkpt>
      <trkpt lat="46.68237" lon="0.50764">
        <ele>127.2</ele>
        <time>2024-02-18T10:06:06Z</time>
      </trkpt>
      <trkpt lat="46.68239" lon="0.50763">
        <ele>127.4</ele>
        <time>2024-02-18T10:06:07Z</time>
      </trkpt>
      <trkpt lat="46.68246" lon="0.50757">
        <ele>128.4</ele>
        <time>2024-02-18T10:06:11Z</time>
      </trkpt>
      <trkpt lat="46.6825" lon="0.50754">
        <ele>128.8</ele>
        <time>2024-02-18T10:06:13Z</time>
      </trkpt>
      <trkpt lat="46.68256" lon="0.50746">
        <ele>129.2</ele>
        <time>2024-02-18T10:06:17Z</time>
      </trkpt>
      <trkpt lat="46.68258" lon="0.5074">
        <ele>129.4</ele>
        <time>2024-02-18T10:06:19Z</time>
      </trkpt>
      <trkpt lat="46.68261" lon="0.50722">
        <ele>130.4</ele>
        <time>2024-02-18T10:06:26Z</time>
      </trkpt>
      <trkpt lat="46.68262" lon="0.5072">
        <ele>130.4</ele>
        <time>2024-02-18T10:06:27Z</time>
      </trkpt>
      <trkpt lat="46.68266" lon="0.50715">
        <ele>130.4</ele>
        <time>2024-02-18T10:06:31Z</time>
      </trkpt>
      <trkpt lat="46.68269" lon="0.50714">
        <ele>130.4</ele>
        <time>2024-02-18T10:06:33Z</time>
      </trkpt>
      <trkpt lat="46.6827" lon="0.50713">
        <ele>130.8</ele>
        <time>2024-02-18T10:06:34Z</time>
      </trkpt>
      <trkpt lat="46.68272" lon="0.50709">
        <ele>131.2</ele>
        <time>2024-02-18T10:06:36Z</time>
      </trkpt>
      <trkpt lat="46.68274" lon="0.50706">
        <ele>131.2</ele>
        <time>2024-02-18T10:06:37Z</time>
      </trkpt>
      <trkpt lat="46.68277" lon="0.50702">
        <ele>131.4</ele>
        <time>2024-02-18T10:06:39Z</time>
      </trkpt>
      <trkpt lat="46.68281" lon="0.50702">
        <ele>131.2</ele>
        <time>2024-02-18T10:06:41Z</time>
      </trkpt>
      <trkpt lat="46.68288" lon="0.50702">
        <ele>131.4</ele>
        <time>2024-02-18T10:06:44Z</time>
      </trkpt>
      <trkpt lat="46.68291" lon="0.50704">
        <ele>131.4</ele>
        <time>2024-02-18T10:06:46Z</time>
      </trkpt>
      <trkpt lat="46.68299" lon="0.50716">
        <ele>131.4</ele>
        <time>2024-02-18T10:06:54Z</time>
      </trkpt>
      <trkpt lat="46.683" lon="0.50721">
        <ele>131</ele>
        <time>2024-02-18T10:06:58Z</time>
      </trkpt>
      <trkpt lat="46.68301" lon="0.50727">
        <ele>130.8</ele>
        <time>2024-02-18T10:07:00Z</time>
      </trkpt>
      <trkpt lat="46.68302" lon="0.50742">
        <ele>130.6</ele>
        <time>2024-02-18T10:07:05Z</time>
      </trkpt>
      <trkpt lat="46.68302" lon="0.50745">
        <ele>130.6</ele>
        <time>2024-02-18T10:07:06Z</time>
      </trkpt>
      <trkpt lat="46.68299" lon="0.50757">
        <ele>130.4</ele>
        <time>2024-02-18T10:07:10Z</time>
      </trkpt>
      <trkpt lat="46.683" lon="0.50761">
        <ele>130.4</ele>
        <time>2024-02-18T10:07:11Z</time>
      </trkpt>
      <trkpt lat="46.68298" lon="0.50786">
        <ele>130.4</ele>
        <time>2024-02-18T10:07:16Z</time>
      </trkpt>
      <trkpt lat="46.68302" lon="0.508">
        <ele>130</ele>
        <time>2024-02-18T10:07:20Z</time>
      </trkpt>
      <trkpt lat="46.6831" lon="0.50809">
        <ele>130.2</ele>
        <time>2024-02-18T10:07:24Z</time>
      </trkpt>
      <trkpt lat="46.68313" lon="0.50811">
        <ele>130.2</ele>
        <time>2024-02-18T10:07:25Z</time>
      </trkpt>
      <trkpt lat="46.68319" lon="0.50813">
        <ele>130.4</ele>
        <time>2024-02-18T10:07:27Z</time>
      </trkpt>
      <trkpt lat="46.68324" lon="0.50818">
        <ele>130.6</ele>
        <time>2024-02-18T10:07:29Z</time>
      </trkpt>
      <trkpt lat="46.68326" lon="0.5082">
        <ele>130.6</ele>
        <time>2024-02-18T10:07:30Z</time>
      </trkpt>
      <trkpt lat="46.68331" lon="0.50822">
        <ele>130.6</ele>
        <time>2024-02-18T10:07:32Z</time>
      </trkpt>
      <trkpt lat="46.68338" lon="0.50823">
        <ele>130.8</ele>
        <time>2024-02-18T10:07:34Z</time>
      </trkpt>
      <trkpt lat="46.68345" lon="0.50825">
        <ele>131.2</ele>
        <time>2024-02-18T10:07:37Z</time>
      </trkpt>
      <trkpt lat="46.6835" lon="0.50831">
        <ele>131.4</ele>
        <time>2024-02-18T10:07:39Z</time>
      </trkpt>
      <trkpt lat="46.68358" lon="0.5085">
        <ele>131.2</ele>
        <time>2024-02-18T10:07:45Z</time>
      </trkpt>
      <trkpt lat="46.68361" lon="0.50873">
        <ele>131</ele>
        <time>2024-02-18T10:07:53Z</time>
      </trkpt>
      <trkpt lat="46.68362" lon="0.50875">
        <ele>131</ele>
        <time>2024-02-18T10:07:54Z</time>
      </trkpt>
      <trkpt lat="46.68366" lon="0.50889">
        <ele>130.6</ele>
        <time>2024-02-18T10:07:58Z</time>
      </trkpt>
      <trkpt lat="46.68369" lon="0.5091">
        <ele>130.2</ele>
        <time>2024-02-18T10:08:03Z</time>
      </trkpt>
      <trkpt lat="46.68368" lon="0.50912">
        <ele>130.2</ele>
        <time>2024-02-18T10:08:04Z</time>
      </trkpt>
      <trkpt lat="46.6837" lon="0.50919">
        <ele>129.8</ele>
        <time>2024-02-18T10:08:07Z</time>
      </trkpt>
      <trkpt lat="46.68371" lon="0.50922">
        <ele>129.8</ele>
        <time>2024-02-18T10:08:08Z</time>
      </trkpt>
      <trkpt lat="46.68378" lon="0.50936">
        <ele>129.6</ele>
        <time>2024-02-18T10:08:13Z</time>
      </trkpt>
      <trkpt lat="46.68386" lon="0.50945">
        <ele>129.6</ele>
        <time>2024-02-18T10:08:16Z</time>
      </trkpt>
      <trkpt lat="46.68392" lon="0.50951">
        <ele>129.6</ele>
        <time>2024-02-18T10:08:18Z</time>
      </trkpt>
      <trkpt lat="46.68395" lon="0.50954">
        <ele>129.4</ele>
        <time>2024-02-18T10:08:19Z</time>
      </trkpt>
      <trkpt lat="46.68411" lon="0.50963">
        <ele>129</ele>
        <time>2024-02-18T10:08:24Z</time>
      </trkpt>
      <trkpt lat="46.68414" lon="0.50964">
        <ele>129</ele>
        <time>2024-02-18T10:08:25Z</time>
      </trkpt>
      <trkpt lat="46.68429" lon="0.50967">
        <ele>129</ele>
        <time>2024-02-18T10:08:29Z</time>
      </trkpt>
      <trkpt lat="46.68436" lon="0.5097">
        <ele>129</ele>
        <time>2024-02-18T10:08:31Z</time>
      </trkpt>
      <trkpt lat="46.68439" lon="0.50977">
        <ele>129.2</ele>
        <time>2024-02-18T10:08:33Z</time>
      </trkpt>
      <trkpt lat="46.68444" lon="0.50984">
        <ele>129.2</ele>
        <time>2024-02-18T10:08:37Z</time>
      </trkpt>
      <trkpt lat="46.68446" lon="0.50986">
        <ele>129</ele>
        <time>2024-02-18T10:08:38Z</time>
      </trkpt>
      <trkpt lat="46.68453" lon="0.50994">
        <ele>129</ele>
        <time>2024-02-18T10:08:41Z</time>
      </trkpt>
      <trkpt lat="46.68455" lon="0.50999">
        <ele>128.8</ele>
        <time>2024-02-18T10:08:43Z</time>
      </trkpt>
      <trkpt lat="46.6846" lon="0.51015">
        <ele>128.2</ele>
        <time>2024-02-18T10:08:48Z</time>
      </trkpt>
      <trkpt lat="46.68468" lon="0.51026">
        <ele>128</ele>
        <time>2024-02-18T10:08:49Z</time>
      </trkpt>
      <trkpt lat="46.68473" lon="0.51031">
        <ele>128</ele>
        <time>2024-02-18T10:08:53Z</time>
      </trkpt>
      <trkpt lat="46.68488" lon="0.51051">
        <ele>128.2</ele>
        <time>2024-02-18T10:08:59Z</time>
      </trkpt>
      <trkpt lat="46.68495" lon="0.51062">
        <ele>128.4</ele>
        <time>2024-02-18T10:09:03Z</time>
      </trkpt>
      <trkpt lat="46.68497" lon="0.51067">
        <ele>128.4</ele>
        <time>2024-02-18T10:09:04Z</time>
      </trkpt>
      <trkpt lat="46.68498" lon="0.5107">
        <ele>128.2</ele>
        <time>2024-02-18T10:09:05Z</time>
      </trkpt>
      <trkpt lat="46.68498" lon="0.51079">
        <ele>128</ele>
        <time>2024-02-18T10:09:08Z</time>
      </trkpt>
      <trkpt lat="46.68498" lon="0.51083">
        <ele>128</ele>
        <time>2024-02-18T10:09:09Z</time>
      </trkpt>
      <trkpt lat="46.68497" lon="0.51103">
        <ele>127.4</ele>
        <time>2024-02-18T10:09:14Z</time>
      </trkpt>
      <trkpt lat="46.68493" lon="0.51113">
        <ele>127.2</ele>
        <time>2024-02-18T10:09:17Z</time>
      </trkpt>
      <trkpt lat="46.68488" lon="0.51118">
        <ele>126.8</ele>
        <time>2024-02-18T10:09:19Z</time>
      </trkpt>
      <trkpt lat="46.68485" lon="0.5112">
        <ele>126.2</ele>
        <time>2024-02-18T10:09:20Z</time>
      </trkpt>
      <trkpt lat="46.68482" lon="0.51123">
        <ele>125.8</ele>
        <time>2024-02-18T10:09:21Z</time>
      </trkpt>
      <trkpt lat="46.68476" lon="0.51129">
        <ele>125.2</ele>
        <time>2024-02-18T10:09:23Z</time>
      </trkpt>
      <trkpt lat="46.68468" lon="0.51134">
        <ele>125.2</ele>
        <time>2024-02-18T10:09:25Z</time>
      </trkpt>
      <trkpt lat="46.68457" lon="0.51143">
        <ele>124.4</ele>
        <time>2024-02-18T10:09:29Z</time>
      </trkpt>
      <trkpt lat="46.68439" lon="0.51151">
        <ele>124.6</ele>
        <time>2024-02-18T10:09:35Z</time>
      </trkpt>
      <trkpt lat="46.68434" lon="0.51156">
        <ele>124.8</ele>
        <time>2024-02-18T10:09:40Z</time>
      </trkpt>
      <trkpt lat="46.68426" lon="0.51162">
        <ele>124.4</ele>
        <time>2024-02-18T10:09:49Z</time>
      </trkpt>
      <trkpt lat="46.68421" lon="0.5116">
        <ele>124.4</ele>
        <time>2024-02-18T10:09:54Z</time>
      </trkpt>
      <trkpt lat="46.68416" lon="0.51161">
        <ele>124.6</ele>
        <time>2024-02-18T10:09:57Z</time>
      </trkpt>
      <trkpt lat="46.68401" lon="0.51169">
        <ele>124.6</ele>
        <time>2024-02-18T10:10:07Z</time>
      </trkpt>
      <trkpt lat="46.68394" lon="0.51169">
        <ele>124.2</ele>
        <time>2024-02-18T10:10:12Z</time>
      </trkpt>
      <trkpt lat="46.68392" lon="0.5117">
        <ele>124</ele>
        <time>2024-02-18T10:10:14Z</time>
      </trkpt>
      <trkpt lat="46.68391" lon="0.5117">
        <ele>123.8</ele>
        <time>2024-02-18T10:10:15Z</time>
      </trkpt>
      <trkpt lat="46.68376" lon="0.51182">
        <ele>122.8</ele>
        <time>2024-02-18T10:10:24Z</time>
      </trkpt>
      <trkpt lat="46.68373" lon="0.51185">
        <ele>122.2</ele>
        <time>2024-02-18T10:10:27Z</time>
      </trkpt>
      <trkpt lat="46.68367" lon="0.51188">
        <ele>122</ele>
        <time>2024-02-18T10:10:29Z</time>
      </trkpt>
      <trkpt lat="46.68363" lon="0.51189">
        <ele>122</ele>
        <time>2024-02-18T10:10:30Z</time>
      </trkpt>
      <trkpt lat="46.68351" lon="0.51186">
        <ele>121.6</ele>
        <time>2024-02-18T10:10:33Z</time>
      </trkpt>
      <trkpt lat="46.68345" lon="0.51181">
        <ele>121.4</ele>
        <time>2024-02-18T10:10:35Z</time>
      </trkpt>
      <trkpt lat="46.68337" lon="0.51181">
        <ele>121.2</ele>
        <time>2024-02-18T10:10:37Z</time>
      </trkpt>
      <trkpt lat="46.68332" lon="0.51182">
        <ele>120.8</ele>
        <time>2024-02-18T10:10:38Z</time>
      </trkpt>
      <trkpt lat="46.68326" lon="0.51181">
        <ele>120</ele>
        <time>2024-02-18T10:10:39Z</time>
      </trkpt>
      <trkpt lat="46.68312" lon="0.51177">
        <ele>118.6</ele>
        <time>2024-02-18T10:10:41Z</time>
      </trkpt>
      <trkpt lat="46.68305" lon="0.51175">
        <ele>118</ele>
        <time>2024-02-18T10:10:42Z</time>
      </trkpt>
      <trkpt lat="46.68295" lon="0.51168">
        <ele>117</ele>
        <time>2024-02-18T10:10:44Z</time>
      </trkpt>
      <trkpt lat="46.68288" lon="0.51163">
        <ele>115.8</ele>
        <time>2024-02-18T10:10:46Z</time>
      </trkpt>
      <trkpt lat="46.68276" lon="0.51144">
        <ele>115.2</ele>
        <time>2024-02-18T10:10:51Z</time>
      </trkpt>
      <trkpt lat="46.68259" lon="0.51114">
        <ele>115</ele>
        <time>2024-02-18T10:10:57Z</time>
      </trkpt>
      <trkpt lat="46.68257" lon="0.51109">
        <ele>114.8</ele>
        <time>2024-02-18T10:10:58Z</time>
      </trkpt>
      <trkpt lat="46.68242" lon="0.51074">
        <ele>114.4</ele>
        <time>2024-02-18T10:11:04Z</time>
      </trkpt>
      <trkpt lat="46.68229" lon="0.51043">
        <ele>114.2</ele>
        <time>2024-02-18T10:11:10Z</time>
      </trkpt>
      <trkpt lat="46.68226" lon="0.51038">
        <ele>114.2</ele>
        <time>2024-02-18T10:11:11Z</time>
      </trkpt>
      <trkpt lat="46.68212" lon="0.51013">
        <ele>114</ele>
        <time>2024-02-18T10:11:15Z</time>
      </trkpt>
      <trkpt lat="46.68209" lon="0.51006">
        <ele>113.8</ele>
        <time>2024-02-18T10:11:16Z</time>
      </trkpt>
      <trkpt lat="46.68206" lon="0.50999">
        <ele>112.6</ele>
        <time>2024-02-18T10:11:17Z</time>
      </trkpt>
      <trkpt lat="46.68203" lon="0.50996">
        <ele>112</ele>
        <time>2024-02-18T10:11:18Z</time>
      </trkpt>
      <trkpt lat="46.682" lon="0.50993">
        <ele>111.4</ele>
        <time>2024-02-18T10:11:19Z</time>
      </trkpt>
      <trkpt lat="46.68191" lon="0.50982">
        <ele>111.4</ele>
        <time>2024-02-18T10:11:24Z</time>
      </trkpt>
      <trkpt lat="46.68188" lon="0.50977">
        <ele>111.4</ele>
        <time>2024-02-18T10:11:26Z</time>
      </trkpt>
      <trkpt lat="46.68185" lon="0.50971">
        <ele>111.6</ele>
        <time>2024-02-18T10:11:32Z</time>
      </trkpt>
      <trkpt lat="46.68185" lon="0.5097">
        <ele>111.4</ele>
        <time>2024-02-18T10:11:53Z</time>
      </trkpt>
      <trkpt lat="46.68184" lon="0.50968">
        <ele>111.4</ele>
        <time>2024-02-18T10:12:08Z</time>
      </trkpt>
      <trkpt lat="46.68183" lon="0.50966">
        <ele>111.2</ele>
        <time>2024-02-18T10:12:27Z</time>
      </trkpt>
      <trkpt lat="46.68183" lon="0.50965">
        <ele>111.2</ele>
        <time>2024-02-18T10:12:48Z</time>
      </trkpt>
      <trkpt lat="46.68183" lon="0.50964">
        <ele>111.2</ele>
        <time>2024-02-18T10:13:00Z</time>
      </trkpt>
      <trkpt lat="46.68184" lon="0.50962">
        <ele>111.2</ele>
        <time>2024-02-18T10:13:16Z</time>
      </trkpt>
      <trkpt lat="46.68184" lon="0.5096">
        <ele>111.2</ele>
        <time>2024-02-18T10:13:34Z</time>
      </trkpt>
      <trkpt lat="46.68184" lon="0.50953">
        <ele>111.2</ele>
        <time>2024-02-18T10:13:43Z</time>
      </trkpt>
      <trkpt lat="46.68185" lon="0.50952">
        <ele>111.2</ele>
        <time>2024-02-18T10:13:46Z</time>
      </trkpt>
      <trkpt lat="46.68186" lon="0.50952">
        <ele>111.2</ele>
        <time>2024-02-18T10:13:47Z</time>
      </trkpt>
      <trkpt lat="46.68186" lon="0.50951">
        <ele>111</ele>
        <time>2024-02-18T10:13:49Z</time>
      </trkpt>
      <trkpt lat="46.68189" lon="0.50948">
        <ele>111</ele>
        <time>2024-02-18T10:13:57Z</time>
      </trkpt>
      <trkpt lat="46.68191" lon="0.50946">
        <ele>110.8</ele>
        <time>2024-02-18T10:14:08Z</time>
      </trkpt>
      <trkpt lat="46.68197" lon="0.50947">
        <ele>110.8</ele>
        <time>2024-02-18T10:14:18Z</time>
      </trkpt>
      <trkpt lat="46.68198" lon="0.50947">
        <ele>110.8</ele>
        <time>2024-02-18T10:14:20Z</time>
      </trkpt>
      <trkpt lat="46.68206" lon="0.50946">
        <ele>112.4</ele>
        <time>2024-02-18T10:14:29Z</time>
      </trkpt>
      <trkpt lat="46.68208" lon="0.50945">
        <ele>113</ele>
        <time>2024-02-18T10:14:32Z</time>
      </trkpt>
      <trkpt lat="46.68209" lon="0.50944">
        <ele>113.4</ele>
        <time>2024-02-18T10:14:35Z</time>
      </trkpt>
      <trkpt lat="46.68213" lon="0.50941">
        <ele>114.4</ele>
        <time>2024-02-18T10:14:40Z</time>
      </trkpt>
      <trkpt lat="46.68216" lon="0.50939">
        <ele>115</ele>
        <time>2024-02-18T10:14:44Z</time>
      </trkpt>
      <trkpt lat="46.68218" lon="0.50938">
        <ele>115.6</ele>
        <time>2024-02-18T10:14:47Z</time>
      </trkpt>
      <trkpt lat="46.68219" lon="0.50934">
        <ele>116</ele>
        <time>2024-02-18T10:14:50Z</time>
      </trkpt>
      <trkpt lat="46.68222" lon="0.50929">
        <ele>116.8</ele>
        <time>2024-02-18T10:14:54Z</time>
      </trkpt>
      <trkpt lat="46.68222" lon="0.50928">
        <ele>117.2</ele>
        <time>2024-02-18T10:14:56Z</time>
      </trkpt>
      <trkpt lat="46.68223" lon="0.50926">
        <ele>118</ele>
        <time>2024-02-18T10:14:58Z</time>
      </trkpt>
      <trkpt lat="46.68226" lon="0.50919">
        <ele>119.2</ele>
        <time>2024-02-18T10:15:05Z</time>
      </trkpt>
      <trkpt lat="46.68228" lon="0.50917">
        <ele>119.4</ele>
        <time>2024-02-18T10:15:07Z</time>
      </trkpt>
      <trkpt lat="46.68229" lon="0.50915">
        <ele>119.8</ele>
        <time>2024-02-18T10:15:08Z</time>
      </trkpt>
      <trkpt lat="46.6823" lon="0.50912">
        <ele>120.2</ele>
        <time>2024-02-18T10:15:10Z</time>
      </trkpt>
      <trkpt lat="46.68233" lon="0.50901">
        <ele>121.2</ele>
        <time>2024-02-18T10:15:18Z</time>
      </trkpt>
      <trkpt lat="46.68233" lon="0.50899">
        <ele>121.2</ele>
        <time>2024-02-18T10:15:19Z</time>
      </trkpt>
      <trkpt lat="46.68235" lon="0.50891">
        <ele>122.2</ele>
        <time>2024-02-18T10:15:25Z</time>
      </trkpt>
      <trkpt lat="46.68236" lon="0.50888">
        <ele>122.8</ele>
        <time>2024-02-18T10:15:29Z</time>
      </trkpt>
      <trkpt lat="46.68236" lon="0.50885">
        <ele>122.8</ele>
        <time>2024-02-18T10:15:31Z</time>
      </trkpt>
      <trkpt lat="46.68236" lon="0.5088">
        <ele>122.6</ele>
        <time>2024-02-18T10:15:34Z</time>
      </trkpt>
      <trkpt lat="46.68231" lon="0.50868">
        <ele>122.4</ele>
        <time>2024-02-18T10:15:39Z</time>
      </trkpt>
      <trkpt lat="46.68227" lon="0.50849">
        <ele>121.4</ele>
        <time>2024-02-18T10:15:44Z</time>
      </trkpt>
      <trkpt lat="46.68226" lon="0.50834">
        <ele>121.8</ele>
        <time>2024-02-18T10:15:49Z</time>
      </trkpt>
      <trkpt lat="46.68226" lon="0.5082">
        <ele>123</ele>
        <time>2024-02-18T10:15:55Z</time>
      </trkpt>
      <trkpt lat="46.68227" lon="0.50818">
        <ele>123.2</ele>
        <time>2024-02-18T10:15:56Z</time>
      </trkpt>
      <trkpt lat="46.68227" lon="0.50815">
        <ele>123.4</ele>
        <time>2024-02-18T10:15:57Z</time>
      </trkpt>
      <trkpt lat="46.68232" lon="0.50803">
        <ele>123.8</ele>
        <time>2024-02-18T10:16:02Z</time>
      </trkpt>
      <trkpt lat="46.68234" lon="0.50789">
        <ele>124.4</ele>
        <time>2024-02-18T10:16:07Z</time>
      </trkpt>
      <trkpt lat="46.68236" lon="0.50785">
        <ele>124.4</ele>
        <time>2024-02-18T10:16:08Z</time>
      </trkpt>
      <trkpt lat="46.68241" lon="0.50769">
        <ele>125.8</ele>
        <time>2024-02-18T10:16:13Z</time>
      </trkpt>
      <trkpt lat="46.68244" lon="0.50765">
        <ele>126.2</ele>
        <time>2024-02-18T10:16:15Z</time>
      </trkpt>
      <trkpt lat="46.68246" lon="0.50762">
        <ele>126.6</ele>
        <time>2024-02-18T10:16:17Z</time>
      </trkpt>
      <trkpt lat="46.68249" lon="0.50761">
        <ele>126.8</ele>
        <time>2024-02-18T10:16:19Z</time>
      </trkpt>
      <trkpt lat="46.68251" lon="0.50759">
        <ele>126.8</ele>
        <time>2024-02-18T10:16:20Z</time>
      </trkpt>
      <trkpt lat="46.68254" lon="0.50755">
        <ele>127.2</ele>
        <time>2024-02-18T10:16:22Z</time>
      </trkpt>
      <trkpt lat="46.68258" lon="0.50751">
        <ele>127.4</ele>
        <time>2024-02-18T10:16:24Z</time>
      </trkpt>
      <trkpt lat="46.68259" lon="0.50748">
        <ele>127.4</ele>
        <time>2024-02-18T10:16:25Z</time>
      </trkpt>
      <trkpt lat="46.6826" lon="0.50739">
        <ele>127.6</ele>
        <time>2024-02-18T10:16:28Z</time>
      </trkpt>
      <trkpt lat="46.68263" lon="0.50728">
        <ele>127.8</ele>
        <time>2024-02-18T10:16:32Z</time>
      </trkpt>
      <trkpt lat="46.68263" lon="0.50726">
        <ele>127.8</ele>
        <time>2024-02-18T10:16:33Z</time>
      </trkpt>
      <trkpt lat="46.68266" lon="0.50719">
        <ele>128</ele>
        <time>2024-02-18T10:16:36Z</time>
      </trkpt>
      <trkpt lat="46.68268" lon="0.50716">
        <ele>128</ele>
        <time>2024-02-18T10:16:38Z</time>
      </trkpt>
      <trkpt lat="46.68271" lon="0.50714">
        <ele>128.2</ele>
        <time>2024-02-18T10:16:40Z</time>
      </trkpt>
      <trkpt lat="46.68275" lon="0.50709">
        <ele>128.6</ele>
        <time>2024-02-18T10:16:43Z</time>
      </trkpt>
      <trkpt lat="46.68275" lon="0.50709">
        <ele>129</ele>
        <time>2024-02-18T10:16:45Z</time>
      </trkpt>
      <trkpt lat="46.68282" lon="0.50702">
        <ele>129.2</ele>
        <time>2024-02-18T10:16:48Z</time>
      </trkpt>
      <trkpt lat="46.68284" lon="0.50701">
        <ele>129.2</ele>
        <time>2024-02-18T10:16:49Z</time>
      </trkpt>
      <trkpt lat="46.68286" lon="0.50701">
        <ele>129.2</ele>
        <time>2024-02-18T10:16:50Z</time>
      </trkpt>
      <trkpt lat="46.68289" lon="0.50706">
        <ele>129.2</ele>
        <time>2024-02-18T10:16:53Z</time>
      </trkpt>
      <trkpt lat="46.68295" lon="0.50715">
        <ele>129.4</ele>
        <time>2024-02-18T10:16:58Z</time>
      </trkpt>
      <trkpt lat="46.68298" lon="0.50722">
        <ele>129.4</ele>
        <time>2024-02-18T10:17:01Z</time>
      </trkpt>
      <trkpt lat="46.68297" lon="0.50731">
        <ele>129.6</ele>
        <time>2024-02-18T10:17:04Z</time>
      </trkpt>
      <trkpt lat="46.68296" lon="0.5075">
        <ele>128.6</ele>
        <time>2024-02-18T10:17:10Z</time>
      </trkpt>
      <trkpt lat="46.68291" lon="0.50767">
        <ele>128.2</ele>
        <time>2024-02-18T10:17:15Z</time>
      </trkpt>
      <trkpt lat="46.68291" lon="0.50777">
        <ele>128</ele>
        <time>2024-02-18T10:17:17Z</time>
      </trkpt>
      <trkpt lat="46.68289" lon="0.50788">
        <ele>127.8</ele>
        <time>2024-02-18T10:17:19Z</time>
      </trkpt>
      <trkpt lat="46.68289" lon="0.50792">
        <ele>127.8</ele>
        <time>2024-02-18T10:17:20Z</time>
      </trkpt>
      <trkpt lat="46.6829" lon="0.50796">
        <ele>127.8</ele>
        <time>2024-02-18T10:17:21Z</time>
      </trkpt>
      <trkpt lat="46.68293" lon="0.50803">
        <ele>127.8</ele>
        <time>2024-02-18T10:17:23Z</time>
      </trkpt>
      <trkpt lat="46.68294" lon="0.50806">
        <ele>127.8</ele>
        <time>2024-02-18T10:17:24Z</time>
      </trkpt>
      <trkpt lat="46.68297" lon="0.50809">
        <ele>127.8</ele>
        <time>2024-02-18T10:17:25Z</time>
      </trkpt>
      <trkpt lat="46.68302" lon="0.50813">
        <ele>128</ele>
        <time>2024-02-18T10:17:27Z</time>
      </trkpt>
      <trkpt lat="46.68309" lon="0.50817">
        <ele>128</ele>
        <time>2024-02-18T10:17:29Z</time>
      </trkpt>
      <trkpt lat="46.68313" lon="0.50819">
        <ele>128</ele>
        <time>2024-02-18T10:17:30Z</time>
      </trkpt>
      <trkpt lat="46.68319" lon="0.50823">
        <ele>128</ele>
        <time>2024-02-18T10:17:32Z</time>
      </trkpt>
      <trkpt lat="46.68326" lon="0.50827">
        <ele>128.2</ele>
        <time>2024-02-18T10:17:34Z</time>
      </trkpt>
      <trkpt lat="46.68341" lon="0.5083">
        <ele>128.8</ele>
        <time>2024-02-18T10:17:38Z</time>
      </trkpt>
      <trkpt lat="46.68348" lon="0.50832">
        <ele>129</ele>
        <time>2024-02-18T10:17:40Z</time>
      </trkpt>
      <trkpt lat="46.68352" lon="0.50837">
        <ele>129.2</ele>
        <time>2024-02-18T10:17:42Z</time>
      </trkpt>
      <trkpt lat="46.68354" lon="0.50851">
        <ele>129</ele>
        <time>2024-02-18T10:17:47Z</time>
      </trkpt>
      <trkpt lat="46.68356" lon="0.50869">
        <ele>128.2</ele>
        <time>2024-02-18T10:17:53Z</time>
      </trkpt>
      <trkpt lat="46.68358" lon="0.50888">
        <ele>128.4</ele>
        <time>2024-02-18T10:17:58Z</time>
      </trkpt>
      <trkpt lat="46.68364" lon="0.50908">
        <ele>127.8</ele>
        <time>2024-02-18T10:18:04Z</time>
      </trkpt>
      <trkpt lat="46.68364" lon="0.50912">
        <ele>127.8</ele>
        <time>2024-02-18T10:18:05Z</time>
      </trkpt>
      <trkpt lat="46.68367" lon="0.50918">
        <ele>127.8</ele>
        <time>2024-02-18T10:18:07Z</time>
      </trkpt>
      <trkpt lat="46.6837" lon="0.50925">
        <ele>127.4</ele>
        <time>2024-02-18T10:18:09Z</time>
      </trkpt>
      <trkpt lat="46.68386" lon="0.50944">
        <ele>127.2</ele>
        <time>2024-02-18T10:18:16Z</time>
      </trkpt>
      <trkpt lat="46.68389" lon="0.50946">
        <ele>127.2</ele>
        <time>2024-02-18T10:18:17Z</time>
      </trkpt>
      <trkpt lat="46.68395" lon="0.50951">
        <ele>127.2</ele>
        <time>2024-02-18T10:18:19Z</time>
      </trkpt>
      <trkpt lat="46.68402" lon="0.50955">
        <ele>127.2</ele>
        <time>2024-02-18T10:18:21Z</time>
      </trkpt>
      <trkpt lat="46.68413" lon="0.50961">
        <ele>126.8</ele>
        <time>2024-02-18T10:18:24Z</time>
      </trkpt>
      <trkpt lat="46.68421" lon="0.50963">
        <ele>126.6</ele>
        <time>2024-02-18T10:18:26Z</time>
      </trkpt>
      <trkpt lat="46.68425" lon="0.50964">
        <ele>126.4</ele>
        <time>2024-02-18T10:18:27Z</time>
      </trkpt>
      <trkpt lat="46.68434" lon="0.50971">
        <ele>126.6</ele>
        <time>2024-02-18T10:18:31Z</time>
      </trkpt>
      <trkpt lat="46.68441" lon="0.50983">
        <ele>126.6</ele>
        <time>2024-02-18T10:18:36Z</time>
      </trkpt>
      <trkpt lat="46.68447" lon="0.50987">
        <ele>126.6</ele>
        <time>2024-02-18T10:18:38Z</time>
      </trkpt>
      <trkpt lat="46.68451" lon="0.50994">
        <ele>126.4</ele>
        <time>2024-02-18T10:18:40Z</time>
      </trkpt>
      <trkpt lat="46.68452" lon="0.50997">
        <ele>126.4</ele>
        <time>2024-02-18T10:18:41Z</time>
      </trkpt>
      <trkpt lat="46.68454" lon="0.51002">
        <ele>126.4</ele>
        <time>2024-02-18T10:18:43Z</time>
      </trkpt>
      <trkpt lat="46.68459" lon="0.51013">
        <ele>126.4</ele>
        <time>2024-02-18T10:18:46Z</time>
      </trkpt>
      <trkpt lat="46.68463" lon="0.51021">
        <ele>126.2</ele>
        <time>2024-02-18T10:18:48Z</time>
      </trkpt>
      <trkpt lat="46.68469" lon="0.5103">
        <ele>125.8</ele>
        <time>2024-02-18T10:18:51Z</time>
      </trkpt>
      <trkpt lat="46.68485" lon="0.51051">
        <ele>125.6</ele>
        <time>2024-02-18T10:18:58Z</time>
      </trkpt>
      <trkpt lat="46.68488" lon="0.51057">
        <ele>125.6</ele>
        <time>2024-02-18T10:19:00Z</time>
      </trkpt>
      <trkpt lat="46.68491" lon="0.51067">
        <ele>125.6</ele>
        <time>2024-02-18T10:19:03Z</time>
      </trkpt>
      <trkpt lat="46.68493" lon="0.51086">
        <ele>125.6</ele>
        <time>2024-02-18T10:19:09Z</time>
      </trkpt>
      <trkpt lat="46.68493" lon="0.51101">
        <ele>124.8</ele>
        <time>2024-02-18T10:19:13Z</time>
      </trkpt>
      <trkpt lat="46.68491" lon="0.51106">
        <ele>124.8</ele>
        <time>2024-02-18T10:19:14Z</time>
      </trkpt>
      <trkpt lat="46.68489" lon="0.51109">
        <ele>124.4</ele>
        <time>2024-02-18T10:19:15Z</time>
      </trkpt>
      <trkpt lat="46.68483" lon="0.51117">
        <ele>123.6</ele>
        <time>2024-02-18T10:19:17Z</time>
      </trkpt>
      <trkpt lat="46.68477" lon="0.51125">
        <ele>123.4</ele>
        <time>2024-02-18T10:19:19Z</time>
      </trkpt>
      <trkpt lat="46.68464" lon="0.51134">
        <ele>123.2</ele>
        <time>2024-02-18T10:19:22Z</time>
      </trkpt>
      <trkpt lat="46.68459" lon="0.51137">
        <ele>122.8</ele>
        <time>2024-02-18T10:19:24Z</time>
      </trkpt>
      <trkpt lat="46.68454" lon="0.5114">
        <ele>122.6</ele>
        <time>2024-02-18T10:19:26Z</time>
      </trkpt>
      <trkpt lat="46.68445" lon="0.51143">
        <ele>122.4</ele>
        <time>2024-02-18T10:19:29Z</time>
      </trkpt>
      <trkpt lat="46.68437" lon="0.51149">
        <ele>122.6</ele>
        <time>2024-02-18T10:19:33Z</time>
      </trkpt>
      <trkpt lat="46.68436" lon="0.51151">
        <ele>122.8</ele>
        <time>2024-02-18T10:19:34Z</time>
      </trkpt>
      <trkpt lat="46.68434" lon="0.51158">
        <ele>122.6</ele>
        <time>2024-02-18T10:19:38Z</time>
      </trkpt>
      <trkpt lat="46.68432" lon="0.51159">
        <ele>122.6</ele>
        <time>2024-02-18T10:19:39Z</time>
      </trkpt>
      <trkpt lat="46.68427" lon="0.51157">
        <ele>122.4</ele>
        <time>2024-02-18T10:19:42Z</time>
      </trkpt>
      <trkpt lat="46.68422" lon="0.51158">
        <ele>122.4</ele>
        <time>2024-02-18T10:19:44Z</time>
      </trkpt>
      <trkpt lat="46.68409" lon="0.51161">
        <ele>122.8</ele>
        <time>2024-02-18T10:19:51Z</time>
      </trkpt>
      <trkpt lat="46.68404" lon="0.51167">
        <ele>122.4</ele>
        <time>2024-02-18T10:19:55Z</time>
      </trkpt>
      <trkpt lat="46.68401" lon="0.51167">
        <ele>122.2</ele>
        <time>2024-02-18T10:19:56Z</time>
      </trkpt>
      <trkpt lat="46.68398" lon="0.51167">
        <ele>122</ele>
        <time>2024-02-18T10:19:59Z</time>
      </trkpt>
      <trkpt lat="46.68394" lon="0.5117">
        <ele>122</ele>
        <time>2024-02-18T10:20:02Z</time>
      </trkpt>
      <trkpt lat="46.68384" lon="0.51178">
        <ele>121.4</ele>
        <time>2024-02-18T10:20:06Z</time>
      </trkpt>
      <trkpt lat="46.68382" lon="0.51179">
        <ele>121.4</ele>
        <time>2024-02-18T10:20:07Z</time>
      </trkpt>
      <trkpt lat="46.68375" lon="0.51184">
        <ele>120.4</ele>
        <time>2024-02-18T10:20:11Z</time>
      </trkpt>
      <trkpt lat="46.68374" lon="0.51186">
        <ele>120.2</ele>
        <time>2024-02-18T10:20:12Z</time>
      </trkpt>
      <trkpt lat="46.68366" lon="0.51192">
        <ele>119.8</ele>
        <time>2024-02-18T10:20:16Z</time>
      </trkpt>
      <trkpt lat="46.68365" lon="0.51194">
        <ele>119.4</ele>
        <time>2024-02-18T10:20:17Z</time>
      </trkpt>
      <trkpt lat="46.68365" lon="0.51196">
        <ele>119.4</ele>
        <time>2024-02-18T10:20:18Z</time>
      </trkpt>
      <trkpt lat="46.68367" lon="0.51204">
        <ele>119.2</ele>
        <time>2024-02-18T10:20:22Z</time>
      </trkpt>
      <trkpt lat="46.68367" lon="0.51205">
        <ele>119.2</ele>
        <time>2024-02-18T10:20:23Z</time>
      </trkpt>
      <trkpt lat="46.68369" lon="0.51204">
        <ele>119.4</ele>
        <time>2024-02-18T10:20:25Z</time>
      </trkpt>
      <trkpt lat="46.6837" lon="0.51203">
        <ele>119.6</ele>
        <time>2024-02-18T10:20:26Z</time>
      </trkpt>
      <trkpt lat="46.68374" lon="0.51197">
        <ele>120.4</ele>
        <time>2024-02-18T10:20:30Z</time>
      </trkpt>
      <trkpt lat="46.68377" lon="0.51196">
        <ele>120.8</ele>
        <time>2024-02-18T10:20:32Z</time>
      </trkpt>
      <trkpt lat="46.68389" lon="0.51191">
        <ele>121.4</ele>
        <time>2024-02-18T10:20:37Z</time>
      </trkpt>
      <trkpt lat="46.68392" lon="0.5119">
        <ele>121.4</ele>
        <time>2024-02-18T10:20:38Z</time>
      </trkpt>
      <trkpt lat="46.68397" lon="0.51188">
        <ele>121.4</ele>
        <time>2024-02-18T10:20:40Z</time>
      </trkpt>
      <trkpt lat="46.68403" lon="0.51187">
        <ele>121.4</ele>
        <time>2024-02-18T10:20:42Z</time>
      </trkpt>
      <trkpt lat="46.6841" lon="0.51186">
        <ele>121.4</ele>
        <time>2024-02-18T10:20:45Z</time>
      </trkpt>
      <trkpt lat="46.68423" lon="0.51184">
        <ele>120.6</ele>
        <time>2024-02-18T10:20:50Z</time>
      </trkpt>
      <trkpt lat="46.68433" lon="0.51182">
        <ele>120.2</ele>
        <time>2024-02-18T10:20:53Z</time>
      </trkpt>
      <trkpt lat="46.68444" lon="0.51182">
        <ele>120</ele>
        <time>2024-02-18T10:20:57Z</time>
      </trkpt>
      <trkpt lat="46.68462" lon="0.51182">
        <ele>120.6</ele>
        <time>2024-02-18T10:21:04Z</time>
      </trkpt>
      <trkpt lat="46.68474" lon="0.51178">
        <ele>121.4</ele>
        <time>2024-02-18T10:21:09Z</time>
      </trkpt>
      <trkpt lat="46.68483" lon="0.51173">
        <ele>122.8</ele>
        <time>2024-02-18T10:21:13Z</time>
      </trkpt>
      <trkpt lat="46.68492" lon="0.51166">
        <ele>123.6</ele>
        <time>2024-02-18T10:21:16Z</time>
      </trkpt>
      <trkpt lat="46.68501" lon="0.51157">
        <ele>123.8</ele>
        <time>2024-02-18T10:21:19Z</time>
      </trkpt>
      <trkpt lat="46.68511" lon="0.51144">
        <ele>124.4</ele>
        <time>2024-02-18T10:21:23Z</time>
      </trkpt>
      <trkpt lat="46.68521" lon="0.51129">
        <ele>125</ele>
        <time>2024-02-18T10:21:27Z</time>
      </trkpt>
      <trkpt lat="46.6853" lon="0.51113">
        <ele>125.6</ele>
        <time>2024-02-18T10:21:30Z</time>
      </trkpt>
      <trkpt lat="46.68535" lon="0.51101">
        <ele>126.2</ele>
        <time>2024-02-18T10:21:32Z</time>
      </trkpt>
      <trkpt lat="46.68544" lon="0.51073">
        <ele>126.4</ele>
        <time>2024-02-18T10:21:37Z</time>
      </trkpt>
      <trkpt lat="46.68552" lon="0.51037">
        <ele>127.2</ele>
        <time>2024-02-18T10:21:43Z</time>
      </trkpt>
      <trkpt lat="46.68554" lon="0.5102">
        <ele>127.4</ele>
        <time>2024-02-18T10:21:46Z</time>
      </trkpt>
      <trkpt lat="46.68554" lon="0.50984">
        <ele>127.6</ele>
        <time>2024-02-18T10:21:52Z</time>
      </trkpt>
      <trkpt lat="46.68552" lon="0.50978">
        <ele>127.6</ele>
        <time>2024-02-18T10:21:53Z</time>
      </trkpt>
      <trkpt lat="46.68548" lon="0.50962">
        <ele>128</ele>
        <time>2024-02-18T10:21:56Z</time>
      </trkpt>
      <trkpt lat="46.6854" lon="0.50947">
        <ele>128</ele>
        <time>2024-02-18T10:21:59Z</time>
      </trkpt>
      <trkpt lat="46.68533" lon="0.50939">
        <ele>128</ele>
        <time>2024-02-18T10:22:01Z</time>
      </trkpt>
      <trkpt lat="46.6852" lon="0.50921">
        <ele>128.2</ele>
        <time>2024-02-18T10:22:05Z</time>
      </trkpt>
      <trkpt lat="46.68502" lon="0.50901">
        <ele>128.4</ele>
        <time>2024-02-18T10:22:10Z</time>
      </trkpt>
      <trkpt lat="46.68499" lon="0.50897">
        <ele>128.4</ele>
        <time>2024-02-18T10:22:11Z</time>
      </trkpt>
      <trkpt lat="46.68483" lon="0.50882">
        <ele>128.4</ele>
        <time>2024-02-18T10:22:16Z</time>
      </trkpt>
      <trkpt lat="46.6848" lon="0.50878">
        <ele>128.4</ele>
        <time>2024-02-18T10:22:17Z</time>
      </trkpt>
      <trkpt lat="46.6847" lon="0.50868">
        <ele>128.6</ele>
        <time>2024-02-18T10:22:20Z</time>
      </trkpt>
      <trkpt lat="46.6846" lon="0.50859">
        <ele>128.6</ele>
        <time>2024-02-18T10:22:23Z</time>
      </trkpt>
      <trkpt lat="46.68457" lon="0.50855">
        <ele>128.6</ele>
        <time>2024-02-18T10:22:24Z</time>
      </trkpt>
      <trkpt lat="46.68446" lon="0.50835">
        <ele>128.6</ele>
        <time>2024-02-18T10:22:28Z</time>
      </trkpt>
      <trkpt lat="46.68438" lon="0.50812">
        <ele>129.2</ele>
        <time>2024-02-18T10:22:32Z</time>
      </trkpt>
      <trkpt lat="46.68429" lon="0.50788">
        <ele>129.4</ele>
        <time>2024-02-18T10:22:36Z</time>
      </trkpt>
      <trkpt lat="46.68418" lon="0.50755">
        <ele>129.2</ele>
        <time>2024-02-18T10:22:41Z</time>
      </trkpt>
      <trkpt lat="46.68413" lon="0.50742">
        <ele>129.2</ele>
        <time>2024-02-18T10:22:43Z</time>
      </trkpt>
      <trkpt lat="46.68407" lon="0.5073">
        <ele>129.4</ele>
        <time>2024-02-18T10:22:45Z</time>
      </trkpt>
      <trkpt lat="46.68398" lon="0.50715">
        <ele>129</ele>
        <time>2024-02-18T10:22:48Z</time>
      </trkpt>
      <trkpt lat="46.6839" lon="0.50707">
        <ele>128.6</ele>
        <time>2024-02-18T10:22:50Z</time>
      </trkpt>
      <trkpt lat="46.6838" lon="0.50693">
        <ele>128.8</ele>
        <time>2024-02-18T10:22:53Z</time>
      </trkpt>
      <trkpt lat="46.68366" lon="0.50668">
        <ele>129.2</ele>
        <time>2024-02-18T10:22:57Z</time>
      </trkpt>
      <trkpt lat="46.68361" lon="0.50654">
        <ele>129.2</ele>
        <time>2024-02-18T10:22:59Z</time>
      </trkpt>
      <trkpt lat="46.68346" lon="0.50605">
        <ele>129.4</ele>
        <time>2024-02-18T10:23:06Z</time>
      </trkpt>
      <trkpt lat="46.68326" lon="0.50548">
        <ele>129.2</ele>
        <time>2024-02-18T10:23:14Z</time>
      </trkpt>
      <trkpt lat="46.68312" lon="0.505">
        <ele>129.6</ele>
        <time>2024-02-18T10:23:21Z</time>
      </trkpt>
      <trkpt lat="46.68308" lon="0.50487">
        <ele>129.8</ele>
        <time>2024-02-18T10:23:23Z</time>
      </trkpt>
      <trkpt lat="46.683" lon="0.50468">
        <ele>130</ele>
        <time>2024-02-18T10:23:26Z</time>
      </trkpt>
      <trkpt lat="46.68296" lon="0.50461">
        <ele>130</ele>
        <time>2024-02-18T10:23:27Z</time>
      </trkpt>
      <trkpt lat="46.68284" lon="0.50443">
        <ele>130.2</ele>
        <time>2024-02-18T10:23:30Z</time>
      </trkpt>
      <trkpt lat="46.68282" lon="0.50436">
        <ele>130.2</ele>
        <time>2024-02-18T10:23:31Z</time>
      </trkpt>
      <trkpt lat="46.68276" lon="0.50423">
        <ele>130.2</ele>
        <time>2024-02-18T10:23:33Z</time>
      </trkpt>
      <trkpt lat="46.68262" lon="0.50384">
        <ele>130.8</ele>
        <time>2024-02-18T10:23:39Z</time>
      </trkpt>
      <trkpt lat="46.68249" lon="0.50346">
        <ele>130.8</ele>
        <time>2024-02-18T10:23:45Z</time>
      </trkpt>
      <trkpt lat="46.68246" lon="0.50332">
        <ele>131.4</ele>
        <time>2024-02-18T10:23:47Z</time>
      </trkpt>
      <trkpt lat="46.68236" lon="0.50293">
        <ele>131.6</ele>
        <time>2024-02-18T10:23:52Z</time>
      </trkpt>
      <trkpt lat="46.68226" lon="0.50249">
        <ele>131.6</ele>
        <time>2024-02-18T10:23:58Z</time>
      </trkpt>
      <trkpt lat="46.68214" lon="0.50208">
        <ele>132</ele>
        <time>2024-02-18T10:24:04Z</time>
      </trkpt>
      <trkpt lat="46.68212" lon="0.50203">
        <ele>132.2</ele>
        <time>2024-02-18T10:24:05Z</time>
      </trkpt>
      <trkpt lat="46.68203" lon="0.50194">
        <ele>132.2</ele>
        <time>2024-02-18T10:24:07Z</time>
      </trkpt>
      <trkpt lat="46.68193" lon="0.50188">
        <ele>132.2</ele>
        <time>2024-02-18T10:24:09Z</time>
      </trkpt>
      <trkpt lat="46.68175" lon="0.50173">
        <ele>132.4</ele>
        <time>2024-02-18T10:24:13Z</time>
      </trkpt>
      <trkpt lat="46.68166" lon="0.50165">
        <ele>132.4</ele>
        <time>2024-02-18T10:24:15Z</time>
      </trkpt>
      <trkpt lat="46.68133" lon="0.5014">
        <ele>132.4</ele>
        <time>2024-02-18T10:24:22Z</time>
      </trkpt>
      <trkpt lat="46.68117" lon="0.50122">
        <ele>132.2</ele>
        <time>2024-02-18T10:24:26Z</time>
      </trkpt>
      <trkpt lat="46.68109" lon="0.50112">
        <ele>132.2</ele>
        <time>2024-02-18T10:24:28Z</time>
      </trkpt>
      <trkpt lat="46.68092" lon="0.50083">
        <ele>132.4</ele>
        <time>2024-02-18T10:24:33Z</time>
      </trkpt>
      <trkpt lat="46.68085" lon="0.50073">
        <ele>132.4</ele>
        <time>2024-02-18T10:24:35Z</time>
      </trkpt>
      <trkpt lat="46.68082" lon="0.50068">
        <ele>132.4</ele>
        <time>2024-02-18T10:24:36Z</time>
      </trkpt>
      <trkpt lat="46.6807" lon="0.50047">
        <ele>132.4</ele>
        <time>2024-02-18T10:24:40Z</time>
      </trkpt>
      <trkpt lat="46.68046" lon="0.50016">
        <ele>132.6</ele>
        <time>2024-02-18T10:24:46Z</time>
      </trkpt>
      <trkpt lat="46.68042" lon="0.50011">
        <ele>132.6</ele>
        <time>2024-02-18T10:24:47Z</time>
      </trkpt>
      <trkpt lat="46.68018" lon="0.49983">
        <ele>132.6</ele>
        <time>2024-02-18T10:24:53Z</time>
      </trkpt>
      <trkpt lat="46.68011" lon="0.49975">
        <ele>132.6</ele>
        <time>2024-02-18T10:24:55Z</time>
      </trkpt>
      <trkpt lat="46.67995" lon="0.49958">
        <ele>132.6</ele>
        <time>2024-02-18T10:24:59Z</time>
      </trkpt>
      <trkpt lat="46.6799" lon="0.49953">
        <ele>132.6</ele>
        <time>2024-02-18T10:25:00Z</time>
      </trkpt>
      <trkpt lat="46.67985" lon="0.49948">
        <ele>132.8</ele>
        <time>2024-02-18T10:25:01Z</time>
      </trkpt>
      <trkpt lat="46.67979" lon="0.49935">
        <ele>132.6</ele>
        <time>2024-02-18T10:25:03Z</time>
      </trkpt>
      <trkpt lat="46.67977" lon="0.49928">
        <ele>132.6</ele>
        <time>2024-02-18T10:25:04Z</time>
      </trkpt>
      <trkpt lat="46.67975" lon="0.49921">
        <ele>132.6</ele>
        <time>2024-02-18T10:25:05Z</time>
      </trkpt>
      <trkpt lat="46.67968" lon="0.49891">
        <ele>132.6</ele>
        <time>2024-02-18T10:25:09Z</time>
      </trkpt>
      <trkpt lat="46.67957" lon="0.49843">
        <ele>132.6</ele>
        <time>2024-02-18T10:25:15Z</time>
      </trkpt>
      <trkpt lat="46.67947" lon="0.49812">
        <ele>132.6</ele>
        <time>2024-02-18T10:25:20Z</time>
      </trkpt>
      <trkpt lat="46.67944" lon="0.49808">
        <ele>132.6</ele>
        <time>2024-02-18T10:25:21Z</time>
      </trkpt>
      <trkpt lat="46.67941" lon="0.49804">
        <ele>132.6</ele>
        <time>2024-02-18T10:25:22Z</time>
      </trkpt>
      <trkpt lat="46.67933" lon="0.49799">
        <ele>132.4</ele>
        <time>2024-02-18T10:25:24Z</time>
      </trkpt>
      <trkpt lat="46.67928" lon="0.49798">
        <ele>132.4</ele>
        <time>2024-02-18T10:25:25Z</time>
      </trkpt>
      <trkpt lat="46.67917" lon="0.49793">
        <ele>132.4</ele>
        <time>2024-02-18T10:25:28Z</time>
      </trkpt>
      <trkpt lat="46.67911" lon="0.49787">
        <ele>132.4</ele>
        <time>2024-02-18T10:25:30Z</time>
      </trkpt>
      <trkpt lat="46.67909" lon="0.49783">
        <ele>132.4</ele>
        <time>2024-02-18T10:25:31Z</time>
      </trkpt>
      <trkpt lat="46.679" lon="0.49766">
        <ele>132.2</ele>
        <time>2024-02-18T10:25:35Z</time>
      </trkpt>
      <trkpt lat="46.67897" lon="0.4976">
        <ele>132</ele>
        <time>2024-02-18T10:25:36Z</time>
      </trkpt>
      <trkpt lat="46.67883" lon="0.49729">
        <ele>132</ele>
        <time>2024-02-18T10:25:43Z</time>
      </trkpt>
      <trkpt lat="46.67869" lon="0.49709">
        <ele>132.2</ele>
        <time>2024-02-18T10:25:49Z</time>
      </trkpt>
      <trkpt lat="46.67856" lon="0.49686">
        <ele>132.8</ele>
        <time>2024-02-18T10:25:55Z</time>
      </trkpt>
      <trkpt lat="46.67851" lon="0.4967">
        <ele>132.8</ele>
        <time>2024-02-18T10:25:59Z</time>
      </trkpt>
      <trkpt lat="46.67849" lon="0.49666">
        <ele>132.8</ele>
        <time>2024-02-18T10:26:00Z</time>
      </trkpt>
      <trkpt lat="46.67846" lon="0.49656">
        <ele>132.8</ele>
        <time>2024-02-18T10:26:02Z</time>
      </trkpt>
      <trkpt lat="46.6784" lon="0.49636">
        <ele>132.8</ele>
        <time>2024-02-18T10:26:06Z</time>
      </trkpt>
      <trkpt lat="46.67834" lon="0.49624">
        <ele>132.8</ele>
        <time>2024-02-18T10:26:08Z</time>
      </trkpt>
      <trkpt lat="46.67828" lon="0.49614">
        <ele>132.8</ele>
        <time>2024-02-18T10:26:10Z</time>
      </trkpt>
      <trkpt lat="46.67825" lon="0.49608">
        <ele>132.8</ele>
        <time>2024-02-18T10:26:11Z</time>
      </trkpt>
      <trkpt lat="46.67824" lon="0.49603">
        <ele>132.8</ele>
        <time>2024-02-18T10:26:12Z</time>
      </trkpt>
      <trkpt lat="46.67812" lon="0.49578">
        <ele>133</ele>
        <time>2024-02-18T10:26:16Z</time>
      </trkpt>
      <trkpt lat="46.67792" lon="0.49533">
        <ele>133.2</ele>
        <time>2024-02-18T10:26:24Z</time>
      </trkpt>
      <trkpt lat="46.67781" lon="0.49515">
        <ele>133.2</ele>
        <time>2024-02-18T10:26:27Z</time>
      </trkpt>
      <trkpt lat="46.67768" lon="0.49495">
        <ele>133.2</ele>
        <time>2024-02-18T10:26:30Z</time>
      </trkpt>
      <trkpt lat="46.67745" lon="0.49454">
        <ele>133.4</ele>
        <time>2024-02-18T10:26:36Z</time>
      </trkpt>
      <trkpt lat="46.67735" lon="0.4943">
        <ele>133.4</ele>
        <time>2024-02-18T10:26:40Z</time>
      </trkpt>
      <trkpt lat="46.67732" lon="0.49424">
        <ele>133.4</ele>
        <time>2024-02-18T10:26:41Z</time>
      </trkpt>
      <trkpt lat="46.67726" lon="0.49414">
        <ele>133.4</ele>
        <time>2024-02-18T10:26:43Z</time>
      </trkpt>
      <trkpt lat="46.67714" lon="0.49394">
        <ele>133.2</ele>
        <time>2024-02-18T10:26:47Z</time>
      </trkpt>
      <trkpt lat="46.6771" lon="0.4939">
        <ele>133.2</ele>
        <time>2024-02-18T10:26:48Z</time>
      </trkpt>
      <trkpt lat="46.67703" lon="0.49372">
        <ele>133.2</ele>
        <time>2024-02-18T10:26:52Z</time>
      </trkpt>
      <trkpt lat="46.67707" lon="0.49356">
        <ele>133.2</ele>
        <time>2024-02-18T10:26:55Z</time>
      </trkpt>
      <trkpt lat="46.67709" lon="0.49351">
        <ele>133.2</ele>
        <time>2024-02-18T10:26:56Z</time>
      </trkpt>
      <trkpt lat="46.67721" lon="0.4933">
        <ele>133.2</ele>
        <time>2024-02-18T10:27:01Z</time>
      </trkpt>
      <trkpt lat="46.67724" lon="0.49326">
        <ele>133.4</ele>
        <time>2024-02-18T10:27:02Z</time>
      </trkpt>
      <trkpt lat="46.6773" lon="0.49318">
        <ele>133.6</ele>
        <time>2024-02-18T10:27:04Z</time>
      </trkpt>
      <trkpt lat="46.67746" lon="0.49295">
        <ele>133.6</ele>
        <time>2024-02-18T10:27:09Z</time>
      </trkpt>
      <trkpt lat="46.67764" lon="0.49268">
        <ele>133.2</ele>
        <time>2024-02-18T10:27:14Z</time>
      </trkpt>
      <trkpt lat="46.67788" lon="0.49238">
        <ele>133.4</ele>
        <time>2024-02-18T10:27:20Z</time>
      </trkpt>
      <trkpt lat="46.67793" lon="0.49233">
        <ele>133.4</ele>
        <time>2024-02-18T10:27:21Z</time>
      </trkpt>
      <trkpt lat="46.67814" lon="0.49209">
        <ele>133.2</ele>
        <time>2024-02-18T10:27:26Z</time>
      </trkpt>
      <trkpt lat="46.67837" lon="0.49184">
        <ele>133.8</ele>
        <time>2024-02-18T10:27:31Z</time>
      </trkpt>
      <trkpt lat="46.67867" lon="0.49153">
        <ele>133.6</ele>
        <time>2024-02-18T10:27:37Z</time>
      </trkpt>
      <trkpt lat="46.67904" lon="0.49112">
        <ele>133.4</ele>
        <time>2024-02-18T10:27:45Z</time>
      </trkpt>
      <trkpt lat="46.67922" lon="0.49089">
        <ele>133.8</ele>
        <time>2024-02-18T10:27:50Z</time>
      </trkpt>
      <trkpt lat="46.67925" lon="0.49086">
        <ele>133.8</ele>
        <time>2024-02-18T10:27:51Z</time>
      </trkpt>
      <trkpt lat="46.67931" lon="0.49079">
        <ele>133.8</ele>
        <time>2024-02-18T10:27:53Z</time>
      </trkpt>
      <trkpt lat="46.67936" lon="0.49074">
        <ele>133.6</ele>
        <time>2024-02-18T10:27:55Z</time>
      </trkpt>
      <trkpt lat="46.67938" lon="0.4907">
        <ele>133.8</ele>
        <time>2024-02-18T10:27:56Z</time>
      </trkpt>
      <trkpt lat="46.67938" lon="0.49066">
        <ele>133.6</ele>
        <time>2024-02-18T10:27:57Z</time>
      </trkpt>
      <trkpt lat="46.67938" lon="0.49062">
        <ele>133.8</ele>
        <time>2024-02-18T10:27:58Z</time>
      </trkpt>
      <trkpt lat="46.67931" lon="0.49041">
        <ele>134</ele>
        <time>2024-02-18T10:28:03Z</time>
      </trkpt>
      <trkpt lat="46.67919" lon="0.49009">
        <ele>133.8</ele>
        <time>2024-02-18T10:28:10Z</time>
      </trkpt>
      <trkpt lat="46.67912" lon="0.48994">
        <ele>133.6</ele>
        <time>2024-02-18T10:28:13Z</time>
      </trkpt>
      <trkpt lat="46.67905" lon="0.48976">
        <ele>133.8</ele>
        <time>2024-02-18T10:28:16Z</time>
      </trkpt>
      <trkpt lat="46.67891" lon="0.48947">
        <ele>133.6</ele>
        <time>2024-02-18T10:28:21Z</time>
      </trkpt>
      <trkpt lat="46.67885" lon="0.48935">
        <ele>133.6</ele>
        <time>2024-02-18T10:28:23Z</time>
      </trkpt>
      <trkpt lat="46.67881" lon="0.48924">
        <ele>133.4</ele>
        <time>2024-02-18T10:28:25Z</time>
      </trkpt>
      <trkpt lat="46.67878" lon="0.48912">
        <ele>133.4</ele>
        <time>2024-02-18T10:28:27Z</time>
      </trkpt>
      <trkpt lat="46.67876" lon="0.48906">
        <ele>133.2</ele>
        <time>2024-02-18T10:28:28Z</time>
      </trkpt>
      <trkpt lat="46.6786" lon="0.48873">
        <ele>132.6</ele>
        <time>2024-02-18T10:28:33Z</time>
      </trkpt>
      <trkpt lat="46.67854" lon="0.48858">
        <ele>132.4</ele>
        <time>2024-02-18T10:28:35Z</time>
      </trkpt>
      <trkpt lat="46.67846" lon="0.48837">
        <ele>132</ele>
        <time>2024-02-18T10:28:38Z</time>
      </trkpt>
      <trkpt lat="46.67839" lon="0.48823">
        <ele>131.4</ele>
        <time>2024-02-18T10:28:40Z</time>
      </trkpt>
      <trkpt lat="46.6783" lon="0.48801">
        <ele>131</ele>
        <time>2024-02-18T10:28:44Z</time>
      </trkpt>
      <trkpt lat="46.67827" lon="0.48797">
        <ele>130.8</ele>
        <time>2024-02-18T10:28:45Z</time>
      </trkpt>
      <trkpt lat="46.67819" lon="0.48788">
        <ele>130.6</ele>
        <time>2024-02-18T10:28:48Z</time>
      </trkpt>
      <trkpt lat="46.67813" lon="0.48776">
        <ele>130.4</ele>
        <time>2024-02-18T10:28:52Z</time>
      </trkpt>
      <trkpt lat="46.67811" lon="0.4877">
        <ele>130.2</ele>
        <time>2024-02-18T10:28:53Z</time>
      </trkpt>
      <trkpt lat="46.67798" lon="0.48745">
        <ele>129.6</ele>
        <time>2024-02-18T10:28:59Z</time>
      </trkpt>
      <trkpt lat="46.67793" lon="0.48734">
        <ele>129</ele>
        <time>2024-02-18T10:29:02Z</time>
      </trkpt>
      <trkpt lat="46.67786" lon="0.48722">
        <ele>128.8</ele>
        <time>2024-02-18T10:29:06Z</time>
      </trkpt>
      <trkpt lat="46.67775" lon="0.48698">
        <ele>128.6</ele>
        <time>2024-02-18T10:29:12Z</time>
      </trkpt>
      <trkpt lat="46.67766" lon="0.48683">
        <ele>128.4</ele>
        <time>2024-02-18T10:29:17Z</time>
      </trkpt>
      <trkpt lat="46.67761" lon="0.48674">
        <ele>128</ele>
        <time>2024-02-18T10:29:20Z</time>
      </trkpt>
      <trkpt lat="46.67756" lon="0.48667">
        <ele>128</ele>
        <time>2024-02-18T10:29:22Z</time>
      </trkpt>
      <trkpt lat="46.67746" lon="0.48645">
        <ele>127.6</ele>
        <time>2024-02-18T10:29:27Z</time>
      </trkpt>
      <trkpt lat="46.67741" lon="0.48633">
        <ele>126.8</ele>
        <time>2024-02-18T10:29:29Z</time>
      </trkpt>
      <trkpt lat="46.67735" lon="0.48623">
        <ele>126.2</ele>
        <time>2024-02-18T10:29:31Z</time>
      </trkpt>
      <trkpt lat="46.67732" lon="0.4862">
        <ele>125.6</ele>
        <time>2024-02-18T10:29:32Z</time>
      </trkpt>
      <trkpt lat="46.67721" lon="0.48613">
        <ele>124.8</ele>
        <time>2024-02-18T10:29:37Z</time>
      </trkpt>
      <trkpt lat="46.6772" lon="0.48611">
        <ele>124.6</ele>
        <time>2024-02-18T10:29:38Z</time>
      </trkpt>
      <trkpt lat="46.6772" lon="0.48609">
        <ele>124.6</ele>
        <time>2024-02-18T10:29:39Z</time>
      </trkpt>
      <trkpt lat="46.67721" lon="0.48605">
        <ele>124.4</ele>
        <time>2024-02-18T10:29:41Z</time>
      </trkpt>
      <trkpt lat="46.67722" lon="0.4859">
        <ele>123.8</ele>
        <time>2024-02-18T10:29:47Z</time>
      </trkpt>
      <trkpt lat="46.67714" lon="0.48571">
        <ele>124.2</ele>
        <time>2024-02-18T10:29:53Z</time>
      </trkpt>
      <trkpt lat="46.67707" lon="0.48565">
        <ele>124.8</ele>
        <time>2024-02-18T10:29:56Z</time>
      </trkpt>
      <trkpt lat="46.67705" lon="0.48566">
        <ele>125</ele>
        <time>2024-02-18T10:29:57Z</time>
      </trkpt>
      <trkpt lat="46.67699" lon="0.48571">
        <ele>125.6</ele>
        <time>2024-02-18T10:30:00Z</time>
      </trkpt>
      <trkpt lat="46.6769" lon="0.48575">
        <ele>126.2</ele>
        <time>2024-02-18T10:30:04Z</time>
      </trkpt>
      <trkpt lat="46.67679" lon="0.48577">
        <ele>126.6</ele>
        <time>2024-02-18T10:30:08Z</time>
      </trkpt>
      <trkpt lat="46.67677" lon="0.48577">
        <ele>126.8</ele>
        <time>2024-02-18T10:30:09Z</time>
      </trkpt>
      <trkpt lat="46.67672" lon="0.48573">
        <ele>126.6</ele>
        <time>2024-02-18T10:30:12Z</time>
      </trkpt>
      <trkpt lat="46.67661" lon="0.48568">
        <ele>126.4</ele>
        <time>2024-02-18T10:30:17Z</time>
      </trkpt>
      <trkpt lat="46.67656" lon="0.48554">
        <ele>126.6</ele>
        <time>2024-02-18T10:30:23Z</time>
      </trkpt>
      <trkpt lat="46.6766" lon="0.48537">
        <ele>127.2</ele>
        <time>2024-02-18T10:30:29Z</time>
      </trkpt>
      <trkpt lat="46.67662" lon="0.48526">
        <ele>126.6</ele>
        <time>2024-02-18T10:30:33Z</time>
      </trkpt>
      <trkpt lat="46.67659" lon="0.48511">
        <ele>126.6</ele>
        <time>2024-02-18T10:30:37Z</time>
      </trkpt>
      <trkpt lat="46.67652" lon="0.48482">
        <ele>127</ele>
        <time>2024-02-18T10:30:43Z</time>
      </trkpt>
      <trkpt lat="46.67635" lon="0.4845">
        <ele>127.2</ele>
        <time>2024-02-18T10:30:50Z</time>
      </trkpt>
      <trkpt lat="46.67621" lon="0.48414">
        <ele>127.2</ele>
        <time>2024-02-18T10:30:58Z</time>
      </trkpt>
      <trkpt lat="46.67608" lon="0.48389">
        <ele>127.2</ele>
        <time>2024-02-18T10:31:04Z</time>
      </trkpt>
      <trkpt lat="46.67599" lon="0.48363">
        <ele>127.2</ele>
        <time>2024-02-18T10:31:09Z</time>
      </trkpt>
      <trkpt lat="46.67588" lon="0.48337">
        <ele>127</ele>
        <time>2024-02-18T10:31:15Z</time>
      </trkpt>
      <trkpt lat="46.67583" lon="0.48322">
        <ele>126.8</ele>
        <time>2024-02-18T10:31:18Z</time>
      </trkpt>
      <trkpt lat="46.67583" lon="0.48317">
        <ele>126.6</ele>
        <time>2024-02-18T10:31:19Z</time>
      </trkpt>
      <trkpt lat="46.67584" lon="0.48313">
        <ele>126.4</ele>
        <time>2024-02-18T10:31:20Z</time>
      </trkpt>
      <trkpt lat="46.67587" lon="0.48303">
        <ele>126.4</ele>
        <time>2024-02-18T10:31:22Z</time>
      </trkpt>
      <trkpt lat="46.67587" lon="0.48298">
        <ele>126</ele>
        <time>2024-02-18T10:31:23Z</time>
      </trkpt>
      <trkpt lat="46.67586" lon="0.48291">
        <ele>125.6</ele>
        <time>2024-02-18T10:31:24Z</time>
      </trkpt>
      <trkpt lat="46.67583" lon="0.4828">
        <ele>124.8</ele>
        <time>2024-02-18T10:31:26Z</time>
      </trkpt>
      <trkpt lat="46.67581" lon="0.48266">
        <ele>124.4</ele>
        <time>2024-02-18T10:31:28Z</time>
      </trkpt>
      <trkpt lat="46.67583" lon="0.48254">
        <ele>124.2</ele>
        <time>2024-02-18T10:31:30Z</time>
      </trkpt>
      <trkpt lat="46.67583" lon="0.48238">
        <ele>123.8</ele>
        <time>2024-02-18T10:31:32Z</time>
      </trkpt>
      <trkpt lat="46.67583" lon="0.4823">
        <ele>123.2</ele>
        <time>2024-02-18T10:31:33Z</time>
      </trkpt>
      <trkpt lat="46.67584" lon="0.48222">
        <ele>123</ele>
        <time>2024-02-18T10:31:34Z</time>
      </trkpt>
      <trkpt lat="46.67589" lon="0.48212">
        <ele>122</ele>
        <time>2024-02-18T10:31:36Z</time>
      </trkpt>
      <trkpt lat="46.67591" lon="0.48208">
        <ele>121.4</ele>
        <time>2024-02-18T10:31:37Z</time>
      </trkpt>
      <trkpt lat="46.67592" lon="0.48203">
        <ele>120.6</ele>
        <time>2024-02-18T10:31:38Z</time>
      </trkpt>
      <trkpt lat="46.67594" lon="0.48191">
        <ele>119.6</ele>
        <time>2024-02-18T10:31:41Z</time>
      </trkpt>
      <trkpt lat="46.67604" lon="0.48187">
        <ele>118.8</ele>
        <time>2024-02-18T10:31:45Z</time>
      </trkpt>
      <trkpt lat="46.67605" lon="0.48188">
        <ele>118.4</ele>
        <time>2024-02-18T10:31:46Z</time>
      </trkpt>
      <trkpt lat="46.67605" lon="0.48196">
        <ele>118</ele>
        <time>2024-02-18T10:31:50Z</time>
      </trkpt>
      <trkpt lat="46.67607" lon="0.4821">
        <ele>120</ele>
        <time>2024-02-18T10:31:55Z</time>
      </trkpt>
      <trkpt lat="46.67607" lon="0.48213">
        <ele>120.4</ele>
        <time>2024-02-18T10:31:56Z</time>
      </trkpt>
      <trkpt lat="46.67606" lon="0.4822">
        <ele>121.2</ele>
        <time>2024-02-18T10:31:58Z</time>
      </trkpt>
      <trkpt lat="46.67608" lon="0.48226">
        <ele>121.6</ele>
        <time>2024-02-18T10:32:00Z</time>
      </trkpt>
      <trkpt lat="46.6761" lon="0.48228">
        <ele>121.6</ele>
        <time>2024-02-18T10:32:01Z</time>
      </trkpt>
      <trkpt lat="46.67617" lon="0.48223">
        <ele>121.8</ele>
        <time>2024-02-18T10:32:04Z</time>
      </trkpt>
      <trkpt lat="46.67617" lon="0.4822">
        <ele>121.6</ele>
        <time>2024-02-18T10:32:05Z</time>
      </trkpt>
      <trkpt lat="46.67616" lon="0.48213">
        <ele>121</ele>
        <time>2024-02-18T10:32:07Z</time>
      </trkpt>
      <trkpt lat="46.67615" lon="0.48203">
        <ele>120</ele>
        <time>2024-02-18T10:32:09Z</time>
      </trkpt>
      <trkpt lat="46.67613" lon="0.48199">
        <ele>119.6</ele>
        <time>2024-02-18T10:32:10Z</time>
      </trkpt>
      <trkpt lat="46.67612" lon="0.48196">
        <ele>119</ele>
        <time>2024-02-18T10:32:11Z</time>
      </trkpt>
      <trkpt lat="46.67611" lon="0.48194">
        <ele>118.8</ele>
        <time>2024-02-18T10:32:12Z</time>
      </trkpt>
      <trkpt lat="46.67611" lon="0.4818">
        <ele>117.6</ele>
        <time>2024-02-18T10:32:16Z</time>
      </trkpt>
      <trkpt lat="46.67611" lon="0.48163">
        <ele>117.2</ele>
        <time>2024-02-18T10:32:21Z</time>
      </trkpt>
      <trkpt lat="46.67609" lon="0.4814">
        <ele>117</ele>
        <time>2024-02-18T10:32:26Z</time>
      </trkpt>
      <trkpt lat="46.67608" lon="0.48131">
        <ele>116.8</ele>
        <time>2024-02-18T10:32:28Z</time>
      </trkpt>
      <trkpt lat="46.67607" lon="0.48125">
        <ele>116.4</ele>
        <time>2024-02-18T10:32:29Z</time>
      </trkpt>
      <trkpt lat="46.67606" lon="0.4812">
        <ele>116</ele>
        <time>2024-02-18T10:32:30Z</time>
      </trkpt>
      <trkpt lat="46.676" lon="0.48115">
        <ele>115.6</ele>
        <time>2024-02-18T10:32:32Z</time>
      </trkpt>
      <trkpt lat="46.67597" lon="0.48113">
        <ele>115.2</ele>
        <time>2024-02-18T10:32:33Z</time>
      </trkpt>
      <trkpt lat="46.67586" lon="0.48106">
        <ele>115.6</ele>
        <time>2024-02-18T10:32:36Z</time>
      </trkpt>
      <trkpt lat="46.6758" lon="0.48102">
        <ele>115.4</ele>
        <time>2024-02-18T10:32:38Z</time>
      </trkpt>
      <trkpt lat="46.67568" lon="0.48095">
        <ele>115.2</ele>
        <time>2024-02-18T10:32:41Z</time>
      </trkpt>
      <trkpt lat="46.67557" lon="0.48091">
        <ele>114.8</ele>
        <time>2024-02-18T10:32:44Z</time>
      </trkpt>
      <trkpt lat="46.67549" lon="0.48087">
        <ele>114.2</ele>
        <time>2024-02-18T10:32:46Z</time>
      </trkpt>
      <trkpt lat="46.67543" lon="0.48085">
        <ele>113.8</ele>
        <time>2024-02-18T10:32:48Z</time>
      </trkpt>
      <trkpt lat="46.6754" lon="0.48084">
        <ele>113.6</ele>
        <time>2024-02-18T10:32:49Z</time>
      </trkpt>
      <trkpt lat="46.67537" lon="0.48084">
        <ele>113.2</ele>
        <time>2024-02-18T10:32:51Z</time>
      </trkpt>
      <trkpt lat="46.67534" lon="0.48082">
        <ele>112.6</ele>
        <time>2024-02-18T10:32:53Z</time>
      </trkpt>
      <trkpt lat="46.67528" lon="0.4808">
        <ele>111.8</ele>
        <time>2024-02-18T10:32:56Z</time>
      </trkpt>
      <trkpt lat="46.67521" lon="0.48075">
        <ele>110.6</ele>
        <time>2024-02-18T10:32:59Z</time>
      </trkpt>
      <trkpt lat="46.67516" lon="0.48074">
        <ele>109.4</ele>
        <time>2024-02-18T10:33:01Z</time>
      </trkpt>
      <trkpt lat="46.67512" lon="0.48076">
        <ele>109.2</ele>
        <time>2024-02-18T10:33:03Z</time>
      </trkpt>
      <trkpt lat="46.67499" lon="0.4809">
        <ele>109.6</ele>
        <time>2024-02-18T10:33:09Z</time>
      </trkpt>
      <trkpt lat="46.67491" lon="0.48096">
        <ele>110.6</ele>
        <time>2024-02-18T10:33:13Z</time>
      </trkpt>
      <trkpt lat="46.67485" lon="0.48102">
        <ele>111.2</ele>
        <time>2024-02-18T10:33:16Z</time>
      </trkpt>
      <trkpt lat="46.67478" lon="0.48106">
        <ele>112</ele>
        <time>2024-02-18T10:33:19Z</time>
      </trkpt>
      <trkpt lat="46.67476" lon="0.48106">
        <ele>112.2</ele>
        <time>2024-02-18T10:33:20Z</time>
      </trkpt>
      <trkpt lat="46.67475" lon="0.48107">
        <ele>112.4</ele>
        <time>2024-02-18T10:33:21Z</time>
      </trkpt>
      <trkpt lat="46.67469" lon="0.4811">
        <ele>113.2</ele>
        <time>2024-02-18T10:33:23Z</time>
      </trkpt>
      <trkpt lat="46.67464" lon="0.48114">
        <ele>113.4</ele>
        <time>2024-02-18T10:33:26Z</time>
      </trkpt>
      <trkpt lat="46.67454" lon="0.4812">
        <ele>114.2</ele>
        <time>2024-02-18T10:33:30Z</time>
      </trkpt>
      <trkpt lat="46.67452" lon="0.48122">
        <ele>114.6</ele>
        <time>2024-02-18T10:33:31Z</time>
      </trkpt>
      <trkpt lat="46.67444" lon="0.48127">
        <ele>115.4</ele>
        <time>2024-02-18T10:33:35Z</time>
      </trkpt>
      <trkpt lat="46.67439" lon="0.48132">
        <ele>116.2</ele>
        <time>2024-02-18T10:33:38Z</time>
      </trkpt>
      <trkpt lat="46.67436" lon="0.48134">
        <ele>116.8</ele>
        <time>2024-02-18T10:33:40Z</time>
      </trkpt>
      <trkpt lat="46.67428" lon="0.48138">
        <ele>117.6</ele>
        <time>2024-02-18T10:33:44Z</time>
      </trkpt>
      <trkpt lat="46.67427" lon="0.48139">
        <ele>118</ele>
        <time>2024-02-18T10:33:45Z</time>
      </trkpt>
      <trkpt lat="46.67422" lon="0.48143">
        <ele>118.8</ele>
        <time>2024-02-18T10:33:48Z</time>
      </trkpt>
      <trkpt lat="46.67419" lon="0.48145">
        <ele>119</ele>
        <time>2024-02-18T10:33:50Z</time>
      </trkpt>
      <trkpt lat="46.67414" lon="0.48147">
        <ele>119.4</ele>
        <time>2024-02-18T10:33:52Z</time>
      </trkpt>
      <trkpt lat="46.67412" lon="0.4815">
        <ele>120.2</ele>
        <time>2024-02-18T10:33:54Z</time>
      </trkpt>
      <trkpt lat="46.67406" lon="0.48154">
        <ele>121.4</ele>
        <time>2024-02-18T10:33:57Z</time>
      </trkpt>
      <trkpt lat="46.67405" lon="0.48157">
        <ele>121.6</ele>
        <time>2024-02-18T10:33:58Z</time>
      </trkpt>
      <trkpt lat="46.67397" lon="0.48163">
        <ele>122.6</ele>
        <time>2024-02-18T10:34:04Z</time>
      </trkpt>
      <trkpt lat="46.67396" lon="0.48163">
        <ele>123</ele>
        <time>2024-02-18T10:34:06Z</time>
      </trkpt>
      <trkpt lat="46.67394" lon="0.48167">
        <ele>123.6</ele>
        <time>2024-02-18T10:34:09Z</time>
      </trkpt>
      <trkpt lat="46.67393" lon="0.48168">
        <ele>124</ele>
        <time>2024-02-18T10:34:10Z</time>
      </trkpt>
      <trkpt lat="46.67389" lon="0.48172">
        <ele>124.8</ele>
        <time>2024-02-18T10:34:13Z</time>
      </trkpt>
      <trkpt lat="46.67386" lon="0.48175">
        <ele>125</ele>
        <time>2024-02-18T10:34:15Z</time>
      </trkpt>
      <trkpt lat="46.6738" lon="0.48181">
        <ele>125.8</ele>
        <time>2024-02-18T10:34:19Z</time>
      </trkpt>
      <trkpt lat="46.67379" lon="0.48183">
        <ele>125.8</ele>
        <time>2024-02-18T10:34:20Z</time>
      </trkpt>
      <trkpt lat="46.67373" lon="0.48188">
        <ele>126.8</ele>
        <time>2024-02-18T10:34:25Z</time>
      </trkpt>
      <trkpt lat="46.67372" lon="0.48189">
        <ele>126.8</ele>
        <time>2024-02-18T10:34:26Z</time>
      </trkpt>
      <trkpt lat="46.6737" lon="0.48194">
        <ele>127</ele>
        <time>2024-02-18T10:34:29Z</time>
      </trkpt>
      <trkpt lat="46.67367" lon="0.48197">
        <ele>127.4</ele>
        <time>2024-02-18T10:34:31Z</time>
      </trkpt>
      <trkpt lat="46.67365" lon="0.482">
        <ele>127.8</ele>
        <time>2024-02-18T10:34:32Z</time>
      </trkpt>
      <trkpt lat="46.67364" lon="0.48201">
        <ele>128</ele>
        <time>2024-02-18T10:34:33Z</time>
      </trkpt>
      <trkpt lat="46.67356" lon="0.48207">
        <ele>128.6</ele>
        <time>2024-02-18T10:34:37Z</time>
      </trkpt>
      <trkpt lat="46.6735" lon="0.48213">
        <ele>129.2</ele>
        <time>2024-02-18T10:34:40Z</time>
      </trkpt>
      <trkpt lat="46.67342" lon="0.48221">
        <ele>129.8</ele>
        <time>2024-02-18T10:34:44Z</time>
      </trkpt>
      <trkpt lat="46.67333" lon="0.48231">
        <ele>130.2</ele>
        <time>2024-02-18T10:34:50Z</time>
      </trkpt>
      <trkpt lat="46.67321" lon="0.48243">
        <ele>131</ele>
        <time>2024-02-18T10:34:56Z</time>
      </trkpt>
      <trkpt lat="46.67318" lon="0.48247">
        <ele>131.2</ele>
        <time>2024-02-18T10:34:58Z</time>
      </trkpt>
      <trkpt lat="46.67308" lon="0.4826">
        <ele>131.8</ele>
        <time>2024-02-18T10:35:03Z</time>
      </trkpt>
      <trkpt lat="46.67304" lon="0.48266">
        <ele>132.4</ele>
        <time>2024-02-18T10:35:05Z</time>
      </trkpt>
      <trkpt lat="46.67292" lon="0.48276">
        <ele>132.8</ele>
        <time>2024-02-18T10:35:09Z</time>
      </trkpt>
      <trkpt lat="46.67286" lon="0.48283">
        <ele>133.4</ele>
        <time>2024-02-18T10:35:12Z</time>
      </trkpt>
      <trkpt lat="46.67282" lon="0.48289">
        <ele>133.8</ele>
        <time>2024-02-18T10:35:14Z</time>
      </trkpt>
      <trkpt lat="46.67265" lon="0.48304">
        <ele>134.4</ele>
        <time>2024-02-18T10:35:20Z</time>
      </trkpt>
      <trkpt lat="46.67259" lon="0.4831">
        <ele>134.4</ele>
        <time>2024-02-18T10:35:22Z</time>
      </trkpt>
      <trkpt lat="46.67241" lon="0.48321">
        <ele>135</ele>
        <time>2024-02-18T10:35:26Z</time>
      </trkpt>
      <trkpt lat="46.67229" lon="0.48327">
        <ele>135.6</ele>
        <time>2024-02-18T10:35:29Z</time>
      </trkpt>
      <trkpt lat="46.67209" lon="0.48334">
        <ele>136</ele>
        <time>2024-02-18T10:35:34Z</time>
      </trkpt>
      <trkpt lat="46.67195" lon="0.48341">
        <ele>135.8</ele>
        <time>2024-02-18T10:35:39Z</time>
      </trkpt>
      <trkpt lat="46.67189" lon="0.4835">
        <ele>135.6</ele>
        <time>2024-02-18T10:35:45Z</time>
      </trkpt>
      <trkpt lat="46.67188" lon="0.4835">
        <ele>135.6</ele>
        <time>2024-02-18T10:35:46Z</time>
      </trkpt>
      <trkpt lat="46.67183" lon="0.48349">
        <ele>135.6</ele>
        <time>2024-02-18T10:35:50Z</time>
      </trkpt>
      <trkpt lat="46.6717" lon="0.4834">
        <ele>135.4</ele>
        <time>2024-02-18T10:35:56Z</time>
      </trkpt>
      <trkpt lat="46.67167" lon="0.48335">
        <ele>135.2</ele>
        <time>2024-02-18T10:35:58Z</time>
      </trkpt>
      <trkpt lat="46.67163" lon="0.48328">
        <ele>135.2</ele>
        <time>2024-02-18T10:36:01Z</time>
      </trkpt>
      <trkpt lat="46.67163" lon="0.48319">
        <ele>135</ele>
        <time>2024-02-18T10:36:05Z</time>
      </trkpt>
      <trkpt lat="46.67161" lon="0.48314">
        <ele>135</ele>
        <time>2024-02-18T10:36:07Z</time>
      </trkpt>
      <trkpt lat="46.67153" lon="0.48298">
        <ele>135</ele>
        <time>2024-02-18T10:36:13Z</time>
      </trkpt>
      <trkpt lat="46.67144" lon="0.48281">
        <ele>134.8</ele>
        <time>2024-02-18T10:36:19Z</time>
      </trkpt>
      <trkpt lat="46.67138" lon="0.48269">
        <ele>134.6</ele>
        <time>2024-02-18T10:36:23Z</time>
      </trkpt>
      <trkpt lat="46.67134" lon="0.48259">
        <ele>134.4</ele>
        <time>2024-02-18T10:36:26Z</time>
      </trkpt>
      <trkpt lat="46.67124" lon="0.48234">
        <ele>133.8</ele>
        <time>2024-02-18T10:36:33Z</time>
      </trkpt>
      <trkpt lat="46.67118" lon="0.48223">
        <ele>133.4</ele>
        <time>2024-02-18T10:36:36Z</time>
      </trkpt>
      <trkpt lat="46.67112" lon="0.48212">
        <ele>133</ele>
        <time>2024-02-18T10:36:39Z</time>
      </trkpt>
      <trkpt lat="46.67101" lon="0.48193">
        <ele>132.4</ele>
        <time>2024-02-18T10:36:45Z</time>
      </trkpt>
      <trkpt lat="46.67091" lon="0.48172">
        <ele>131</ele>
        <time>2024-02-18T10:36:51Z</time>
      </trkpt>
      <trkpt lat="46.67088" lon="0.48168">
        <ele>130.8</ele>
        <time>2024-02-18T10:36:52Z</time>
      </trkpt>
      <trkpt lat="46.67072" lon="0.48143">
        <ele>130.4</ele>
        <time>2024-02-18T10:36:58Z</time>
      </trkpt>
      <trkpt lat="46.67066" lon="0.48133">
        <ele>130</ele>
        <time>2024-02-18T10:37:00Z</time>
      </trkpt>
      <trkpt lat="46.67055" lon="0.48115">
        <ele>129.4</ele>
        <time>2024-02-18T10:37:04Z</time>
      </trkpt>
      <trkpt lat="46.6704" lon="0.48093">
        <ele>128.6</ele>
        <time>2024-02-18T10:37:09Z</time>
      </trkpt>
      <trkpt lat="46.67039" lon="0.48089">
        <ele>128.4</ele>
        <time>2024-02-18T10:37:10Z</time>
      </trkpt>
      <trkpt lat="46.67029" lon="0.48066">
        <ele>128.2</ele>
        <time>2024-02-18T10:37:15Z</time>
      </trkpt>
      <trkpt lat="46.67021" lon="0.4805">
        <ele>127.6</ele>
        <time>2024-02-18T10:37:19Z</time>
      </trkpt>
      <trkpt lat="46.67019" lon="0.48039">
        <ele>127.2</ele>
        <time>2024-02-18T10:37:21Z</time>
      </trkpt>
      <trkpt lat="46.67019" lon="0.48023">
        <ele>126.8</ele>
        <time>2024-02-18T10:37:25Z</time>
      </trkpt>
      <trkpt lat="46.67017" lon="0.48004">
        <ele>126.6</ele>
        <time>2024-02-18T10:37:29Z</time>
      </trkpt>
      <trkpt lat="46.67017" lon="0.47998">
        <ele>126.2</ele>
        <time>2024-02-18T10:37:30Z</time>
      </trkpt>
      <trkpt lat="46.67014" lon="0.47991">
        <ele>125.6</ele>
        <time>2024-02-18T10:37:32Z</time>
      </trkpt>
      <trkpt lat="46.67014" lon="0.47988">
        <ele>125.4</ele>
        <time>2024-02-18T10:37:33Z</time>
      </trkpt>
      <trkpt lat="46.67013" lon="0.47984">
        <ele>125.2</ele>
        <time>2024-02-18T10:37:34Z</time>
      </trkpt>
      <trkpt lat="46.67014" lon="0.47965">
        <ele>124.2</ele>
        <time>2024-02-18T10:37:38Z</time>
      </trkpt>
      <trkpt lat="46.67014" lon="0.4796">
        <ele>124.2</ele>
        <time>2024-02-18T10:37:39Z</time>
      </trkpt>
      <trkpt lat="46.67014" lon="0.47927">
        <ele>123.6</ele>
        <time>2024-02-18T10:37:45Z</time>
      </trkpt>
      <trkpt lat="46.6702" lon="0.47915">
        <ele>123.2</ele>
        <time>2024-02-18T10:37:49Z</time>
      </trkpt>
      <trkpt lat="46.67026" lon="0.4791">
        <ele>122.2</ele>
        <time>2024-02-18T10:37:52Z</time>
      </trkpt>
      <trkpt lat="46.6703" lon="0.47908">
        <ele>122</ele>
        <time>2024-02-18T10:37:53Z</time>
      </trkpt>
      <trkpt lat="46.67031" lon="0.47906">
        <ele>121.8</ele>
        <time>2024-02-18T10:37:54Z</time>
      </trkpt>
      <trkpt lat="46.67039" lon="0.47894">
        <ele>121.6</ele>
        <time>2024-02-18T10:37:59Z</time>
      </trkpt>
      <trkpt lat="46.67045" lon="0.47889">
        <ele>120.8</ele>
        <time>2024-02-18T10:38:02Z</time>
      </trkpt>
      <trkpt lat="46.67051" lon="0.47889">
        <ele>120</ele>
        <time>2024-02-18T10:38:04Z</time>
      </trkpt>
      <trkpt lat="46.67059" lon="0.47892">
        <ele>119.6</ele>
        <time>2024-02-18T10:38:06Z</time>
      </trkpt>
      <trkpt lat="46.67062" lon="0.47893">
        <ele>119.6</ele>
        <time>2024-02-18T10:38:07Z</time>
      </trkpt>
      <trkpt lat="46.67065" lon="0.47894">
        <ele>119.6</ele>
        <time>2024-02-18T10:38:08Z</time>
      </trkpt>
      <trkpt lat="46.67068" lon="0.47893">
        <ele>119.4</ele>
        <time>2024-02-18T10:38:09Z</time>
      </trkpt>
      <trkpt lat="46.67069" lon="0.4789">
        <ele>118.8</ele>
        <time>2024-02-18T10:38:11Z</time>
      </trkpt>
      <trkpt lat="46.6707" lon="0.47888">
        <ele>118.6</ele>
        <time>2024-02-18T10:38:12Z</time>
      </trkpt>
      <trkpt lat="46.67069" lon="0.47873">
        <ele>118.2</ele>
        <time>2024-02-18T10:38:17Z</time>
      </trkpt>
      <trkpt lat="46.6707" lon="0.47864">
        <ele>118</ele>
        <time>2024-02-18T10:38:19Z</time>
      </trkpt>
      <trkpt lat="46.67073" lon="0.47855">
        <ele>117.6</ele>
        <time>2024-02-18T10:38:21Z</time>
      </trkpt>
      <trkpt lat="46.67075" lon="0.47851">
        <ele>116.4</ele>
        <time>2024-02-18T10:38:22Z</time>
      </trkpt>
      <trkpt lat="46.67086" lon="0.47835">
        <ele>115.6</ele>
        <time>2024-02-18T10:38:27Z</time>
      </trkpt>
      <trkpt lat="46.67086" lon="0.47834">
        <ele>115.4</ele>
        <time>2024-02-18T10:38:28Z</time>
      </trkpt>
      <trkpt lat="46.67086" lon="0.47832">
        <ele>115.4</ele>
        <time>2024-02-18T10:38:29Z</time>
      </trkpt>
      <trkpt lat="46.67082" lon="0.47825">
        <ele>116.2</ele>
        <time>2024-02-18T10:38:34Z</time>
      </trkpt>
      <trkpt lat="46.6708" lon="0.47821">
        <ele>116.6</ele>
        <time>2024-02-18T10:38:36Z</time>
      </trkpt>
      <trkpt lat="46.6708" lon="0.47817">
        <ele>117</ele>
        <time>2024-02-18T10:38:38Z</time>
      </trkpt>
      <trkpt lat="46.6708" lon="0.47815">
        <ele>117.2</ele>
        <time>2024-02-18T10:38:39Z</time>
      </trkpt>
      <trkpt lat="46.67083" lon="0.47806">
        <ele>116.4</ele>
        <time>2024-02-18T10:38:44Z</time>
      </trkpt>
      <trkpt lat="46.67081" lon="0.47804">
        <ele>116.4</ele>
        <time>2024-02-18T10:38:46Z</time>
      </trkpt>
      <trkpt lat="46.67078" lon="0.47799">
        <ele>116.6</ele>
        <time>2024-02-18T10:38:49Z</time>
      </trkpt>
      <trkpt lat="46.67074" lon="0.47779">
        <ele>116.6</ele>
        <time>2024-02-18T10:38:54Z</time>
      </trkpt>
      <trkpt lat="46.67071" lon="0.47763">
        <ele>115.8</ele>
        <time>2024-02-18T10:38:58Z</time>
      </trkpt>
      <trkpt lat="46.6707" lon="0.47755">
        <ele>115.6</ele>
        <time>2024-02-18T10:39:02Z</time>
      </trkpt>
      <trkpt lat="46.67069" lon="0.47752">
        <ele>115.8</ele>
        <time>2024-02-18T10:39:04Z</time>
      </trkpt>
      <trkpt lat="46.67069" lon="0.47748">
        <ele>116</ele>
        <time>2024-02-18T10:39:06Z</time>
      </trkpt>
      <trkpt lat="46.67066" lon="0.47739">
        <ele>116.6</ele>
        <time>2024-02-18T10:39:09Z</time>
      </trkpt>
      <trkpt lat="46.6706" lon="0.47726">
        <ele>116.2</ele>
        <time>2024-02-18T10:39:14Z</time>
      </trkpt>
      <trkpt lat="46.67052" lon="0.47701">
        <ele>116</ele>
        <time>2024-02-18T10:39:20Z</time>
      </trkpt>
      <trkpt lat="46.67049" lon="0.47691">
        <ele>115.4</ele>
        <time>2024-02-18T10:39:23Z</time>
      </trkpt>
      <trkpt lat="46.67047" lon="0.47687">
        <ele>115.2</ele>
        <time>2024-02-18T10:39:24Z</time>
      </trkpt>
      <trkpt lat="46.67043" lon="0.47675">
        <ele>114.8</ele>
        <time>2024-02-18T10:39:26Z</time>
      </trkpt>
      <trkpt lat="46.67042" lon="0.47654">
        <ele>114.2</ele>
        <time>2024-02-18T10:39:29Z</time>
      </trkpt>
      <trkpt lat="46.67044" lon="0.47635">
        <ele>113.2</ele>
        <time>2024-02-18T10:39:31Z</time>
      </trkpt>
      <trkpt lat="46.67046" lon="0.47624">
        <ele>113</ele>
        <time>2024-02-18T10:39:32Z</time>
      </trkpt>
      <trkpt lat="46.67048" lon="0.47613">
        <ele>112.6</ele>
        <time>2024-02-18T10:39:33Z</time>
      </trkpt>
      <trkpt lat="46.67053" lon="0.47579">
        <ele>111.8</ele>
        <time>2024-02-18T10:39:36Z</time>
      </trkpt>
      <trkpt lat="46.67054" lon="0.47559">
        <ele>111</ele>
        <time>2024-02-18T10:39:38Z</time>
      </trkpt>
      <trkpt lat="46.67054" lon="0.47549">
        <ele>110.6</ele>
        <time>2024-02-18T10:39:39Z</time>
      </trkpt>
      <trkpt lat="46.67055" lon="0.47511">
        <ele>109.4</ele>
        <time>2024-02-18T10:39:43Z</time>
      </trkpt>
      <trkpt lat="46.67057" lon="0.47492">
        <ele>109</ele>
        <time>2024-02-18T10:39:45Z</time>
      </trkpt>
      <trkpt lat="46.67057" lon="0.47471">
        <ele>108.4</ele>
        <time>2024-02-18T10:39:47Z</time>
      </trkpt>
      <trkpt lat="46.67059" lon="0.47432">
        <ele>107.4</ele>
        <time>2024-02-18T10:39:51Z</time>
      </trkpt>
      <trkpt lat="46.6706" lon="0.47387">
        <ele>106.4</ele>
        <time>2024-02-18T10:39:55Z</time>
      </trkpt>
      <trkpt lat="46.67061" lon="0.47365">
        <ele>105.6</ele>
        <time>2024-02-18T10:39:57Z</time>
      </trkpt>
      <trkpt lat="46.67061" lon="0.47357">
        <ele>105.4</ele>
        <time>2024-02-18T10:39:58Z</time>
      </trkpt>
      <trkpt lat="46.67058" lon="0.47352">
        <ele>105.2</ele>
        <time>2024-02-18T10:39:59Z</time>
      </trkpt>
      <trkpt lat="46.67057" lon="0.47348">
        <ele>104.8</ele>
        <time>2024-02-18T10:40:00Z</time>
      </trkpt>
      <trkpt lat="46.67053" lon="0.47342">
        <ele>104.2</ele>
        <time>2024-02-18T10:40:02Z</time>
      </trkpt>
      <trkpt lat="46.67053" lon="0.47338">
        <ele>104</ele>
        <time>2024-02-18T10:40:03Z</time>
      </trkpt>
      <trkpt lat="46.67053" lon="0.47333">
        <ele>104</ele>
        <time>2024-02-18T10:40:04Z</time>
      </trkpt>
      <trkpt lat="46.67052" lon="0.47319">
        <ele>103.6</ele>
        <time>2024-02-18T10:40:06Z</time>
      </trkpt>
      <trkpt lat="46.67049" lon="0.47304">
        <ele>103.6</ele>
        <time>2024-02-18T10:40:08Z</time>
      </trkpt>
      <trkpt lat="46.67042" lon="0.473">
        <ele>103.6</ele>
        <time>2024-02-18T10:40:10Z</time>
      </trkpt>
      <trkpt lat="46.67037" lon="0.47301">
        <ele>103.6</ele>
        <time>2024-02-18T10:40:11Z</time>
      </trkpt>
      <trkpt lat="46.67033" lon="0.473">
        <ele>103.4</ele>
        <time>2024-02-18T10:40:12Z</time>
      </trkpt>
      <trkpt lat="46.67028" lon="0.47295">
        <ele>103</ele>
        <time>2024-02-18T10:40:14Z</time>
      </trkpt>
      <trkpt lat="46.67025" lon="0.47289">
        <ele>102.4</ele>
        <time>2024-02-18T10:40:17Z</time>
      </trkpt>
      <trkpt lat="46.67025" lon="0.47286">
        <ele>102.2</ele>
        <time>2024-02-18T10:40:18Z</time>
      </trkpt>
      <trkpt lat="46.67024" lon="0.47278">
        <ele>102</ele>
        <time>2024-02-18T10:40:20Z</time>
      </trkpt>
      <trkpt lat="46.67024" lon="0.47274">
        <ele>101.8</ele>
        <time>2024-02-18T10:40:21Z</time>
      </trkpt>
      <trkpt lat="46.67027" lon="0.47269">
        <ele>101.8</ele>
        <time>2024-02-18T10:40:23Z</time>
      </trkpt>
      <trkpt lat="46.67027" lon="0.47263">
        <ele>101.4</ele>
        <time>2024-02-18T10:40:25Z</time>
      </trkpt>
      <trkpt lat="46.67027" lon="0.47255">
        <ele>101.2</ele>
        <time>2024-02-18T10:40:27Z</time>
      </trkpt>
      <trkpt lat="46.67027" lon="0.47241">
        <ele>101.4</ele>
        <time>2024-02-18T10:40:30Z</time>
      </trkpt>
      <trkpt lat="46.67025" lon="0.47237">
        <ele>101.4</ele>
        <time>2024-02-18T10:40:31Z</time>
      </trkpt>
      <trkpt lat="46.67024" lon="0.47233">
        <ele>101.4</ele>
        <time>2024-02-18T10:40:32Z</time>
      </trkpt>
      <trkpt lat="46.67026" lon="0.47227">
        <ele>101.2</ele>
        <time>2024-02-18T10:40:34Z</time>
      </trkpt>
      <trkpt lat="46.67028" lon="0.47223">
        <ele>100.8</ele>
        <time>2024-02-18T10:40:36Z</time>
      </trkpt>
      <trkpt lat="46.67029" lon="0.47209">
        <ele>100.6</ele>
        <time>2024-02-18T10:40:39Z</time>
      </trkpt>
      <trkpt lat="46.67028" lon="0.47191">
        <ele>100.2</ele>
        <time>2024-02-18T10:40:42Z</time>
      </trkpt>
      <trkpt lat="46.67027" lon="0.47177">
        <ele>100.2</ele>
        <time>2024-02-18T10:40:44Z</time>
      </trkpt>
      <trkpt lat="46.67026" lon="0.4717">
        <ele>99.6</ele>
        <time>2024-02-18T10:40:45Z</time>
      </trkpt>
      <trkpt lat="46.67024" lon="0.4715">
        <ele>98.6</ele>
        <time>2024-02-18T10:40:48Z</time>
      </trkpt>
      <trkpt lat="46.67023" lon="0.47144">
        <ele>98.6</ele>
        <time>2024-02-18T10:40:49Z</time>
      </trkpt>
      <trkpt lat="46.67023" lon="0.47139">
        <ele>98.6</ele>
        <time>2024-02-18T10:40:50Z</time>
      </trkpt>
      <trkpt lat="46.67022" lon="0.4713">
        <ele>98.2</ele>
        <time>2024-02-18T10:40:52Z</time>
      </trkpt>
      <trkpt lat="46.6702" lon="0.47125">
        <ele>98</ele>
        <time>2024-02-18T10:40:53Z</time>
      </trkpt>
      <trkpt lat="46.67017" lon="0.47115">
        <ele>97.6</ele>
        <time>2024-02-18T10:40:55Z</time>
      </trkpt>
      <trkpt lat="46.67017" lon="0.4711">
        <ele>97.4</ele>
        <time>2024-02-18T10:40:56Z</time>
      </trkpt>
      <trkpt lat="46.67017" lon="0.47105">
        <ele>97.6</ele>
        <time>2024-02-18T10:40:57Z</time>
      </trkpt>
      <trkpt lat="46.67018" lon="0.47101">
        <ele>97.6</ele>
        <time>2024-02-18T10:40:58Z</time>
      </trkpt>
      <trkpt lat="46.67018" lon="0.47095">
        <ele>97.4</ele>
        <time>2024-02-18T10:40:59Z</time>
      </trkpt>
      <trkpt lat="46.67023" lon="0.47076">
        <ele>96.2</ele>
        <time>2024-02-18T10:41:02Z</time>
      </trkpt>
      <trkpt lat="46.67021" lon="0.47064">
        <ele>95.6</ele>
        <time>2024-02-18T10:41:04Z</time>
      </trkpt>
      <trkpt lat="46.67019" lon="0.47037">
        <ele>95</ele>
        <time>2024-02-18T10:41:08Z</time>
      </trkpt>
      <trkpt lat="46.67018" lon="0.47017">
        <ele>94.6</ele>
        <time>2024-02-18T10:41:11Z</time>
      </trkpt>
      <trkpt lat="46.67018" lon="0.47006">
        <ele>94.4</ele>
        <time>2024-02-18T10:41:13Z</time>
      </trkpt>
      <trkpt lat="46.67018" lon="0.46991">
        <ele>93.8</ele>
        <time>2024-02-18T10:41:16Z</time>
      </trkpt>
      <trkpt lat="46.67019" lon="0.46986">
        <ele>93.8</ele>
        <time>2024-02-18T10:41:17Z</time>
      </trkpt>
      <trkpt lat="46.67017" lon="0.46983">
        <ele>93.4</ele>
        <time>2024-02-18T10:41:18Z</time>
      </trkpt>
      <trkpt lat="46.67013" lon="0.46982">
        <ele>93.2</ele>
        <time>2024-02-18T10:41:20Z</time>
      </trkpt>
      <trkpt lat="46.67012" lon="0.46979">
        <ele>93.2</ele>
        <time>2024-02-18T10:41:24Z</time>
      </trkpt>
      <trkpt lat="46.67012" lon="0.46958">
        <ele>93.2</ele>
        <time>2024-02-18T10:41:30Z</time>
      </trkpt>
      <trkpt lat="46.67013" lon="0.46954">
        <ele>93.2</ele>
        <time>2024-02-18T10:41:31Z</time>
      </trkpt>
      <trkpt lat="46.67015" lon="0.46951">
        <ele>92.8</ele>
        <time>2024-02-18T10:41:32Z</time>
      </trkpt>
      <trkpt lat="46.67016" lon="0.46949">
        <ele>92.6</ele>
        <time>2024-02-18T10:41:33Z</time>
      </trkpt>
      <trkpt lat="46.67018" lon="0.46947">
        <ele>92.4</ele>
        <time>2024-02-18T10:41:35Z</time>
      </trkpt>
      <trkpt lat="46.67018" lon="0.46942">
        <ele>92.4</ele>
        <time>2024-02-18T10:41:37Z</time>
      </trkpt>
      <trkpt lat="46.67016" lon="0.46939">
        <ele>92.4</ele>
        <time>2024-02-18T10:41:39Z</time>
      </trkpt>
      <trkpt lat="46.67013" lon="0.46939">
        <ele>92.4</ele>
        <time>2024-02-18T10:41:40Z</time>
      </trkpt>
      <trkpt lat="46.67009" lon="0.46939">
        <ele>92.2</ele>
        <time>2024-02-18T10:41:42Z</time>
      </trkpt>
      <trkpt lat="46.67005" lon="0.46945">
        <ele>92.2</ele>
        <time>2024-02-18T10:41:45Z</time>
      </trkpt>
      <trkpt lat="46.66997" lon="0.46959">
        <ele>93.2</ele>
        <time>2024-02-18T10:41:51Z</time>
      </trkpt>
      <trkpt lat="46.66986" lon="0.4697">
        <ele>93.4</ele>
        <time>2024-02-18T10:41:57Z</time>
      </trkpt>
      <trkpt lat="46.6698" lon="0.46965">
        <ele>93.6</ele>
        <time>2024-02-18T10:42:00Z</time>
      </trkpt>
      <trkpt lat="46.66974" lon="0.46962">
        <ele>93.4</ele>
        <time>2024-02-18T10:42:02Z</time>
      </trkpt>
      <trkpt lat="46.66971" lon="0.46963">
        <ele>93.4</ele>
        <time>2024-02-18T10:42:04Z</time>
      </trkpt>
      <trkpt lat="46.66971" lon="0.46964">
        <ele>93.4</ele>
        <time>2024-02-18T10:42:05Z</time>
      </trkpt>
      <trkpt lat="46.66966" lon="0.46973">
        <ele>93.6</ele>
        <time>2024-02-18T10:42:10Z</time>
      </trkpt>
      <trkpt lat="46.66964" lon="0.4698">
        <ele>93.6</ele>
        <time>2024-02-18T10:42:14Z</time>
      </trkpt>
      <trkpt lat="46.66966" lon="0.46981">
        <ele>93.8</ele>
        <time>2024-02-18T10:42:16Z</time>
      </trkpt>
      <trkpt lat="46.66969" lon="0.46977">
        <ele>94</ele>
        <time>2024-02-18T10:42:19Z</time>
      </trkpt>
      <trkpt lat="46.66971" lon="0.46976">
        <ele>93.8</ele>
        <time>2024-02-18T10:42:21Z</time>
      </trkpt>
      <trkpt lat="46.66973" lon="0.46976">
        <ele>93.4</ele>
        <time>2024-02-18T10:42:22Z</time>
      </trkpt>
      <trkpt lat="46.66976" lon="0.4698">
        <ele>92.6</ele>
        <time>2024-02-18T10:42:24Z</time>
      </trkpt>
      <trkpt lat="46.66976" lon="0.46982">
        <ele>92.6</ele>
        <time>2024-02-18T10:42:25Z</time>
      </trkpt>
      <trkpt lat="46.66981" lon="0.47">
        <ele>93.6</ele>
        <time>2024-02-18T10:42:31Z</time>
      </trkpt>
      <trkpt lat="46.66981" lon="0.47002">
        <ele>93.8</ele>
        <time>2024-02-18T10:42:32Z</time>
      </trkpt>
      <trkpt lat="46.6698" lon="0.47016">
        <ele>94.4</ele>
        <time>2024-02-18T10:42:37Z</time>
      </trkpt>
      <trkpt lat="46.66976" lon="0.47026">
        <ele>94.8</ele>
        <time>2024-02-18T10:42:41Z</time>
      </trkpt>
      <trkpt lat="46.66975" lon="0.47026">
        <ele>94.8</ele>
        <time>2024-02-18T10:42:42Z</time>
      </trkpt>
      <trkpt lat="46.66974" lon="0.47027">
        <ele>95</ele>
        <time>2024-02-18T10:42:43Z</time>
      </trkpt>
      <trkpt lat="46.66969" lon="0.47033">
        <ele>94.8</ele>
        <time>2024-02-18T10:42:47Z</time>
      </trkpt>
      <trkpt lat="46.66964" lon="0.47043">
        <ele>95</ele>
        <time>2024-02-18T10:42:53Z</time>
      </trkpt>
      <trkpt lat="46.66959" lon="0.4704">
        <ele>95.4</ele>
        <time>2024-02-18T10:42:58Z</time>
      </trkpt>
      <trkpt lat="46.66955" lon="0.47032">
        <ele>95.4</ele>
        <time>2024-02-18T10:43:03Z</time>
      </trkpt>
      <trkpt lat="46.66951" lon="0.47016">
        <ele>95.4</ele>
        <time>2024-02-18T10:43:08Z</time>
      </trkpt>
      <trkpt lat="46.66949" lon="0.46989">
        <ele>94.6</ele>
        <time>2024-02-18T10:43:14Z</time>
      </trkpt>
      <trkpt lat="46.6695" lon="0.46969">
        <ele>93.8</ele>
        <time>2024-02-18T10:43:20Z</time>
      </trkpt>
      <trkpt lat="46.66952" lon="0.46956">
        <ele>93.6</ele>
        <time>2024-02-18T10:43:25Z</time>
      </trkpt>
      <trkpt lat="46.66957" lon="0.46945">
        <ele>93</ele>
        <time>2024-02-18T10:43:29Z</time>
      </trkpt>
      <trkpt lat="46.66961" lon="0.46941">
        <ele>92.8</ele>
        <time>2024-02-18T10:43:31Z</time>
      </trkpt>
      <trkpt lat="46.66962" lon="0.46938">
        <ele>92.4</ele>
        <time>2024-02-18T10:43:32Z</time>
      </trkpt>
      <trkpt lat="46.66964" lon="0.46936">
        <ele>92.2</ele>
        <time>2024-02-18T10:43:33Z</time>
      </trkpt>
      <trkpt lat="46.66971" lon="0.46932">
        <ele>91.8</ele>
        <time>2024-02-18T10:43:35Z</time>
      </trkpt>
      <trkpt lat="46.66979" lon="0.4693">
        <ele>91.6</ele>
        <time>2024-02-18T10:43:37Z</time>
      </trkpt>
      <trkpt lat="46.66986" lon="0.4693">
        <ele>91.6</ele>
        <time>2024-02-18T10:43:39Z</time>
      </trkpt>
      <trkpt lat="46.66993" lon="0.46927">
        <ele>91.8</ele>
        <time>2024-02-18T10:43:41Z</time>
      </trkpt>
      <trkpt lat="46.66995" lon="0.46925">
        <ele>91.8</ele>
        <time>2024-02-18T10:43:42Z</time>
      </trkpt>
      <trkpt lat="46.66997" lon="0.46923">
        <ele>91.8</ele>
        <time>2024-02-18T10:43:43Z</time>
      </trkpt>
      <trkpt lat="46.67" lon="0.46911">
        <ele>92</ele>
        <time>2024-02-18T10:43:46Z</time>
      </trkpt>
      <trkpt lat="46.67001" lon="0.46906">
        <ele>91.6</ele>
        <time>2024-02-18T10:43:48Z</time>
      </trkpt>
      <trkpt lat="46.67007" lon="0.46901">
        <ele>91.4</ele>
        <time>2024-02-18T10:43:50Z</time>
      </trkpt>
      <trkpt lat="46.67008" lon="0.46899">
        <ele>91.4</ele>
        <time>2024-02-18T10:43:51Z</time>
      </trkpt>
      <trkpt lat="46.67014" lon="0.46883">
        <ele>90.8</ele>
        <time>2024-02-18T10:43:57Z</time>
      </trkpt>
      <trkpt lat="46.6702" lon="0.46869">
        <ele>90.4</ele>
        <time>2024-02-18T10:44:03Z</time>
      </trkpt>
      <trkpt lat="46.67023" lon="0.46866">
        <ele>90</ele>
        <time>2024-02-18T10:44:11Z</time>
      </trkpt>
      <trkpt lat="46.67024" lon="0.4686">
        <ele>90.4</ele>
        <time>2024-02-18T10:44:16Z</time>
      </trkpt>
      <trkpt lat="46.67023" lon="0.46856">
        <ele>90.4</ele>
        <time>2024-02-18T10:44:18Z</time>
      </trkpt>
      <trkpt lat="46.67024" lon="0.46851">
        <ele>90.4</ele>
        <time>2024-02-18T10:44:20Z</time>
      </trkpt>
      <trkpt lat="46.67028" lon="0.46838">
        <ele>90.2</ele>
        <time>2024-02-18T10:44:26Z</time>
      </trkpt>
      <trkpt lat="46.6703" lon="0.46819">
        <ele>90.2</ele>
        <time>2024-02-18T10:44:31Z</time>
      </trkpt>
      <trkpt lat="46.67034" lon="0.46795">
        <ele>90</ele>
        <time>2024-02-18T10:44:37Z</time>
      </trkpt>
      <trkpt lat="46.67037" lon="0.46764">
        <ele>90</ele>
        <time>2024-02-18T10:44:45Z</time>
      </trkpt>
      <trkpt lat="46.67041" lon="0.4674">
        <ele>89.4</ele>
        <time>2024-02-18T10:44:51Z</time>
      </trkpt>
      <trkpt lat="46.67043" lon="0.46725">
        <ele>89.2</ele>
        <time>2024-02-18T10:44:55Z</time>
      </trkpt>
      <trkpt lat="46.67046" lon="0.46709">
        <ele>89.4</ele>
        <time>2024-02-18T10:44:59Z</time>
      </trkpt>
      <trkpt lat="46.67046" lon="0.46674">
        <ele>89</ele>
        <time>2024-02-18T10:45:07Z</time>
      </trkpt>
      <trkpt lat="46.67047" lon="0.46643">
        <ele>88.6</ele>
        <time>2024-02-18T10:45:14Z</time>
      </trkpt>
      <trkpt lat="46.67045" lon="0.4661">
        <ele>89.2</ele>
        <time>2024-02-18T10:45:21Z</time>
      </trkpt>
      <trkpt lat="46.67037" lon="0.46576">
        <ele>89.2</ele>
        <time>2024-02-18T10:45:28Z</time>
      </trkpt>
      <trkpt lat="46.67029" lon="0.46556">
        <ele>89.4</ele>
        <time>2024-02-18T10:45:34Z</time>
      </trkpt>
      <trkpt lat="46.67029" lon="0.46553">
        <ele>89.4</ele>
        <time>2024-02-18T10:45:36Z</time>
      </trkpt>
      <trkpt lat="46.6703" lon="0.46549">
        <ele>89.4</ele>
        <time>2024-02-18T10:45:38Z</time>
      </trkpt>
      <trkpt lat="46.67042" lon="0.46539">
        <ele>89.4</ele>
        <time>2024-02-18T10:45:43Z</time>
      </trkpt>
      <trkpt lat="46.67044" lon="0.46532">
        <ele>89.6</ele>
        <time>2024-02-18T10:45:45Z</time>
      </trkpt>
      <trkpt lat="46.67047" lon="0.46521">
        <ele>90</ele>
        <time>2024-02-18T10:45:48Z</time>
      </trkpt>
      <trkpt lat="46.67051" lon="0.46502">
        <ele>90</ele>
        <time>2024-02-18T10:45:54Z</time>
      </trkpt>
      <trkpt lat="46.67051" lon="0.46492">
        <ele>90.4</ele>
        <time>2024-02-18T10:45:57Z</time>
      </trkpt>
      <trkpt lat="46.67049" lon="0.46487">
        <ele>90.8</ele>
        <time>2024-02-18T10:45:59Z</time>
      </trkpt>
      <trkpt lat="46.67046" lon="0.46481">
        <ele>91.4</ele>
        <time>2024-02-18T10:46:01Z</time>
      </trkpt>
      <trkpt lat="46.67039" lon="0.4647">
        <ele>92</ele>
        <time>2024-02-18T10:46:05Z</time>
      </trkpt>
      <trkpt lat="46.67038" lon="0.46466">
        <ele>92.2</ele>
        <time>2024-02-18T10:46:06Z</time>
      </trkpt>
      <trkpt lat="46.67038" lon="0.46459">
        <ele>92.8</ele>
        <time>2024-02-18T10:46:08Z</time>
      </trkpt>
      <trkpt lat="46.67037" lon="0.46455">
        <ele>93</ele>
        <time>2024-02-18T10:46:09Z</time>
      </trkpt>
      <trkpt lat="46.67035" lon="0.4645">
        <ele>93.4</ele>
        <time>2024-02-18T10:46:12Z</time>
      </trkpt>
      <trkpt lat="46.67035" lon="0.4645">
        <ele>93.4</ele>
        <time>2024-02-18T10:46:13Z</time>
      </trkpt>
      <trkpt lat="46.67032" lon="0.46453">
        <ele>93.4</ele>
        <time>2024-02-18T10:46:17Z</time>
      </trkpt>
      <trkpt lat="46.67028" lon="0.46453">
        <ele>93.2</ele>
        <time>2024-02-18T10:46:19Z</time>
      </trkpt>
      <trkpt lat="46.67016" lon="0.46446">
        <ele>93.4</ele>
        <time>2024-02-18T10:46:24Z</time>
      </trkpt>
      <trkpt lat="46.67007" lon="0.46431">
        <ele>93.4</ele>
        <time>2024-02-18T10:46:30Z</time>
      </trkpt>
      <trkpt lat="46.67005" lon="0.46426">
        <ele>93.6</ele>
        <time>2024-02-18T10:46:33Z</time>
      </trkpt>
      <trkpt lat="46.67004" lon="0.46422">
        <ele>93.8</ele>
        <time>2024-02-18T10:46:35Z</time>
      </trkpt>
      <trkpt lat="46.67005" lon="0.46419">
        <ele>94</ele>
        <time>2024-02-18T10:46:36Z</time>
      </trkpt>
      <trkpt lat="46.67009" lon="0.46407">
        <ele>94.4</ele>
        <time>2024-02-18T10:46:40Z</time>
      </trkpt>
      <trkpt lat="46.67018" lon="0.46392">
        <ele>94.8</ele>
        <time>2024-02-18T10:46:46Z</time>
      </trkpt>
      <trkpt lat="46.67019" lon="0.46387">
        <ele>95.2</ele>
        <time>2024-02-18T10:46:48Z</time>
      </trkpt>
      <trkpt lat="46.67023" lon="0.46374">
        <ele>95.6</ele>
        <time>2024-02-18T10:46:52Z</time>
      </trkpt>
      <trkpt lat="46.67023" lon="0.4636">
        <ele>96</ele>
        <time>2024-02-18T10:46:57Z</time>
      </trkpt>
      <trkpt lat="46.67023" lon="0.46357">
        <ele>96.2</ele>
        <time>2024-02-18T10:46:58Z</time>
      </trkpt>
      <trkpt lat="46.67025" lon="0.46355">
        <ele>96</ele>
        <time>2024-02-18T10:46:59Z</time>
      </trkpt>
      <trkpt lat="46.67028" lon="0.46345">
        <ele>96</ele>
        <time>2024-02-18T10:47:03Z</time>
      </trkpt>
      <trkpt lat="46.67032" lon="0.46337">
        <ele>96.4</ele>
        <time>2024-02-18T10:47:07Z</time>
      </trkpt>
      <trkpt lat="46.67036" lon="0.46336">
        <ele>96.4</ele>
        <time>2024-02-18T10:47:09Z</time>
      </trkpt>
      <trkpt lat="46.6704" lon="0.46343">
        <ele>96</ele>
        <time>2024-02-18T10:47:14Z</time>
      </trkpt>
      <trkpt lat="46.67042" lon="0.46347">
        <ele>95.6</ele>
        <time>2024-02-18T10:47:17Z</time>
      </trkpt>
      <trkpt lat="46.67044" lon="0.46353">
        <ele>95.6</ele>
        <time>2024-02-18T10:47:19Z</time>
      </trkpt>
      <trkpt lat="46.67047" lon="0.46363">
        <ele>95.2</ele>
        <time>2024-02-18T10:47:23Z</time>
      </trkpt>
      <trkpt lat="46.67048" lon="0.46366">
        <ele>95</ele>
        <time>2024-02-18T10:47:24Z</time>
      </trkpt>
      <trkpt lat="46.67051" lon="0.46369">
        <ele>94.4</ele>
        <time>2024-02-18T10:47:27Z</time>
      </trkpt>
      <trkpt lat="46.67055" lon="0.46372">
        <ele>94.4</ele>
        <time>2024-02-18T10:47:29Z</time>
      </trkpt>
      <trkpt lat="46.67059" lon="0.46375">
        <ele>94.2</ele>
        <time>2024-02-18T10:47:31Z</time>
      </trkpt>
      <trkpt lat="46.67062" lon="0.46374">
        <ele>94.4</ele>
        <time>2024-02-18T10:47:33Z</time>
      </trkpt>
      <trkpt lat="46.67065" lon="0.46373">
        <ele>94.2</ele>
        <time>2024-02-18T10:47:35Z</time>
      </trkpt>
      <trkpt lat="46.67075" lon="0.46372">
        <ele>93.8</ele>
        <time>2024-02-18T10:47:39Z</time>
      </trkpt>
      <trkpt lat="46.6708" lon="0.46375">
        <ele>93.6</ele>
        <time>2024-02-18T10:47:41Z</time>
      </trkpt>
      <trkpt lat="46.67085" lon="0.46377">
        <ele>93.6</ele>
        <time>2024-02-18T10:47:43Z</time>
      </trkpt>
      <trkpt lat="46.67087" lon="0.46378">
        <ele>93.6</ele>
        <time>2024-02-18T10:47:44Z</time>
      </trkpt>
      <trkpt lat="46.671" lon="0.46384">
        <ele>93.6</ele>
        <time>2024-02-18T10:47:49Z</time>
      </trkpt>
      <trkpt lat="46.67113" lon="0.46393">
        <ele>93.8</ele>
        <time>2024-02-18T10:47:54Z</time>
      </trkpt>
      <trkpt lat="46.67115" lon="0.46394">
        <ele>93.8</ele>
        <time>2024-02-18T10:47:55Z</time>
      </trkpt>
      <trkpt lat="46.67123" lon="0.46401">
        <ele>93.2</ele>
        <time>2024-02-18T10:47:58Z</time>
      </trkpt>
      <trkpt lat="46.67126" lon="0.46404">
        <ele>93</ele>
        <time>2024-02-18T10:47:59Z</time>
      </trkpt>
      <trkpt lat="46.67133" lon="0.4641">
        <ele>92.4</ele>
        <time>2024-02-18T10:48:01Z</time>
      </trkpt>
      <trkpt lat="46.67136" lon="0.46413">
        <ele>91.8</ele>
        <time>2024-02-18T10:48:02Z</time>
      </trkpt>
      <trkpt lat="46.67152" lon="0.46426">
        <ele>91.2</ele>
        <time>2024-02-18T10:48:07Z</time>
      </trkpt>
      <trkpt lat="46.67168" lon="0.46431">
        <ele>91.6</ele>
        <time>2024-02-18T10:48:13Z</time>
      </trkpt>
      <trkpt lat="46.67185" lon="0.46432">
        <ele>92</ele>
        <time>2024-02-18T10:48:19Z</time>
      </trkpt>
      <trkpt lat="46.67188" lon="0.46431">
        <ele>92</ele>
        <time>2024-02-18T10:48:20Z</time>
      </trkpt>
      <trkpt lat="46.67195" lon="0.46432">
        <ele>92.2</ele>
        <time>2024-02-18T10:48:23Z</time>
      </trkpt>
      <trkpt lat="46.67199" lon="0.46442">
        <ele>92.4</ele>
        <time>2024-02-18T10:48:27Z</time>
      </trkpt>
      <trkpt lat="46.67203" lon="0.46442">
        <ele>92.4</ele>
        <time>2024-02-18T10:48:29Z</time>
      </trkpt>
      <trkpt lat="46.67207" lon="0.46439">
        <ele>92.4</ele>
        <time>2024-02-18T10:48:31Z</time>
      </trkpt>
      <trkpt lat="46.67219" lon="0.46437">
        <ele>92.4</ele>
        <time>2024-02-18T10:48:36Z</time>
      </trkpt>
      <trkpt lat="46.67221" lon="0.46435">
        <ele>92.6</ele>
        <time>2024-02-18T10:48:37Z</time>
      </trkpt>
      <trkpt lat="46.67226" lon="0.46433">
        <ele>92.8</ele>
        <time>2024-02-18T10:48:39Z</time>
      </trkpt>
      <trkpt lat="46.67229" lon="0.46433">
        <ele>93</ele>
        <time>2024-02-18T10:48:40Z</time>
      </trkpt>
      <trkpt lat="46.67232" lon="0.46435">
        <ele>92.8</ele>
        <time>2024-02-18T10:48:41Z</time>
      </trkpt>
      <trkpt lat="46.67235" lon="0.46444">
        <ele>92.8</ele>
        <time>2024-02-18T10:48:45Z</time>
      </trkpt>
      <trkpt lat="46.67237" lon="0.46447">
        <ele>92.4</ele>
        <time>2024-02-18T10:48:47Z</time>
      </trkpt>
      <trkpt lat="46.67241" lon="0.46448">
        <ele>92.2</ele>
        <time>2024-02-18T10:48:49Z</time>
      </trkpt>
      <trkpt lat="46.67246" lon="0.46448">
        <ele>91.8</ele>
        <time>2024-02-18T10:48:52Z</time>
      </trkpt>
      <trkpt lat="46.67251" lon="0.46447">
        <ele>91.8</ele>
        <time>2024-02-18T10:48:54Z</time>
      </trkpt>
      <trkpt lat="46.67262" lon="0.46456">
        <ele>92</ele>
        <time>2024-02-18T10:48:59Z</time>
      </trkpt>
      <trkpt lat="46.67264" lon="0.46459">
        <ele>91.8</ele>
        <time>2024-02-18T10:49:00Z</time>
      </trkpt>
      <trkpt lat="46.67271" lon="0.46465">
        <ele>91.8</ele>
        <time>2024-02-18T10:49:02Z</time>
      </trkpt>
      <trkpt lat="46.67273" lon="0.46473">
        <ele>91.2</ele>
        <time>2024-02-18T10:49:04Z</time>
      </trkpt>
      <trkpt lat="46.67274" lon="0.46481">
        <ele>90.8</ele>
        <time>2024-02-18T10:49:06Z</time>
      </trkpt>
      <trkpt lat="46.67274" lon="0.46485">
        <ele>90.6</ele>
        <time>2024-02-18T10:49:07Z</time>
      </trkpt>
      <trkpt lat="46.67274" lon="0.46488">
        <ele>90.6</ele>
        <time>2024-02-18T10:49:08Z</time>
      </trkpt>
      <trkpt lat="46.67277" lon="0.4649">
        <ele>90.6</ele>
        <time>2024-02-18T10:49:09Z</time>
      </trkpt>
      <trkpt lat="46.6728" lon="0.46492">
        <ele>90.4</ele>
        <time>2024-02-18T10:49:11Z</time>
      </trkpt>
      <trkpt lat="46.6729" lon="0.46489">
        <ele>90.6</ele>
        <time>2024-02-18T10:49:16Z</time>
      </trkpt>
      <trkpt lat="46.67298" lon="0.46486">
        <ele>90.6</ele>
        <time>2024-02-18T10:49:19Z</time>
      </trkpt>
      <trkpt lat="46.67305" lon="0.46487">
        <ele>90.8</ele>
        <time>2024-02-18T10:49:21Z</time>
      </trkpt>
      <trkpt lat="46.67308" lon="0.46489">
        <ele>90.6</ele>
        <time>2024-02-18T10:49:22Z</time>
      </trkpt>
      <trkpt lat="46.67317" lon="0.46489">
        <ele>90.4</ele>
        <time>2024-02-18T10:49:24Z</time>
      </trkpt>
      <trkpt lat="46.67323" lon="0.46488">
        <ele>90.4</ele>
        <time>2024-02-18T10:49:26Z</time>
      </trkpt>
      <trkpt lat="46.67325" lon="0.46486">
        <ele>90.6</ele>
        <time>2024-02-18T10:49:27Z</time>
      </trkpt>
      <trkpt lat="46.67331" lon="0.46484">
        <ele>90.4</ele>
        <time>2024-02-18T10:49:30Z</time>
      </trkpt>
      <trkpt lat="46.67335" lon="0.46484">
        <ele>90.2</ele>
        <time>2024-02-18T10:49:32Z</time>
      </trkpt>
      <trkpt lat="46.67341" lon="0.46485">
        <ele>90</ele>
        <time>2024-02-18T10:49:34Z</time>
      </trkpt>
      <trkpt lat="46.67344" lon="0.46484">
        <ele>90</ele>
        <time>2024-02-18T10:49:35Z</time>
      </trkpt>
      <trkpt lat="46.67348" lon="0.46482">
        <ele>89.8</ele>
        <time>2024-02-18T10:49:37Z</time>
      </trkpt>
      <trkpt lat="46.67351" lon="0.46478">
        <ele>89.8</ele>
        <time>2024-02-18T10:49:39Z</time>
      </trkpt>
      <trkpt lat="46.67352" lon="0.46477">
        <ele>89.8</ele>
        <time>2024-02-18T10:49:40Z</time>
      </trkpt>
      <trkpt lat="46.6736" lon="0.46462">
        <ele>90.2</ele>
        <time>2024-02-18T10:49:45Z</time>
      </trkpt>
      <trkpt lat="46.67364" lon="0.46455">
        <ele>90.4</ele>
        <time>2024-02-18T10:49:49Z</time>
      </trkpt>
      <trkpt lat="46.67372" lon="0.46439">
        <ele>90.4</ele>
        <time>2024-02-18T10:49:55Z</time>
      </trkpt>
      <trkpt lat="46.67377" lon="0.46438">
        <ele>90.4</ele>
        <time>2024-02-18T10:49:57Z</time>
      </trkpt>
      <trkpt lat="46.67379" lon="0.46439">
        <ele>90.2</ele>
        <time>2024-02-18T10:49:58Z</time>
      </trkpt>
      <trkpt lat="46.67379" lon="0.46441">
        <ele>90.2</ele>
        <time>2024-02-18T10:49:59Z</time>
      </trkpt>
      <trkpt lat="46.67381" lon="0.46443">
        <ele>89.6</ele>
        <time>2024-02-18T10:50:02Z</time>
      </trkpt>
      <trkpt lat="46.67382" lon="0.46443">
        <ele>89.6</ele>
        <time>2024-02-18T10:50:03Z</time>
      </trkpt>
      <trkpt lat="46.67385" lon="0.46445">
        <ele>89.6</ele>
        <time>2024-02-18T10:50:05Z</time>
      </trkpt>
      <trkpt lat="46.6739" lon="0.46449">
        <ele>89.6</ele>
        <time>2024-02-18T10:50:08Z</time>
      </trkpt>
      <trkpt lat="46.67393" lon="0.46446">
        <ele>89.2</ele>
        <time>2024-02-18T10:50:11Z</time>
      </trkpt>
      <trkpt lat="46.67395" lon="0.46443">
        <ele>89.2</ele>
        <time>2024-02-18T10:50:12Z</time>
      </trkpt>
      <trkpt lat="46.674" lon="0.46435">
        <ele>89.4</ele>
        <time>2024-02-18T10:50:16Z</time>
      </trkpt>
      <trkpt lat="46.67402" lon="0.4643">
        <ele>89.4</ele>
        <time>2024-02-18T10:50:19Z</time>
      </trkpt>
      <trkpt lat="46.67402" lon="0.46432">
        <ele>89.4</ele>
        <time>2024-02-18T10:50:20Z</time>
      </trkpt>
      <trkpt lat="46.67403" lon="0.46433">
        <ele>89.4</ele>
        <time>2024-02-18T10:50:23Z</time>
      </trkpt>
      <trkpt lat="46.67402" lon="0.46432">
        <ele>89.4</ele>
        <time>2024-02-18T10:50:24Z</time>
      </trkpt>
      <trkpt lat="46.67404" lon="0.46422">
        <ele>89.4</ele>
        <time>2024-02-18T10:50:29Z</time>
      </trkpt>
      <trkpt lat="46.67404" lon="0.4642">
        <ele>89.6</ele>
        <time>2024-02-18T10:50:30Z</time>
      </trkpt>
      <trkpt lat="46.67403" lon="0.4642">
        <ele>89.6</ele>
        <time>2024-02-18T10:50:33Z</time>
      </trkpt>
      <trkpt lat="46.67402" lon="0.46421">
        <ele>89.6</ele>
        <time>2024-02-18T10:50:34Z</time>
      </trkpt>
      <trkpt lat="46.674" lon="0.46421">
        <ele>89.8</ele>
        <time>2024-02-18T10:50:36Z</time>
      </trkpt>
      <trkpt lat="46.67399" lon="0.46419">
        <ele>89.8</ele>
        <time>2024-02-18T10:50:37Z</time>
      </trkpt>
      <trkpt lat="46.674" lon="0.46416">
        <ele>89.8</ele>
        <time>2024-02-18T10:50:38Z</time>
      </trkpt>
      <trkpt lat="46.67401" lon="0.4641">
        <ele>89.6</ele>
        <time>2024-02-18T10:50:42Z</time>
      </trkpt>
      <trkpt lat="46.67396" lon="0.46416">
        <ele>89.8</ele>
        <time>2024-02-18T10:50:47Z</time>
      </trkpt>
      <trkpt lat="46.67385" lon="0.46416">
        <ele>90.8</ele>
        <time>2024-02-18T10:50:51Z</time>
      </trkpt>
      <trkpt lat="46.67372" lon="0.46412">
        <ele>91.2</ele>
        <time>2024-02-18T10:50:56Z</time>
      </trkpt>
      <trkpt lat="46.67357" lon="0.464">
        <ele>91.8</ele>
        <time>2024-02-18T10:51:02Z</time>
      </trkpt>
      <trkpt lat="46.6734" lon="0.464">
        <ele>92.8</ele>
        <time>2024-02-18T10:51:08Z</time>
      </trkpt>
      <trkpt lat="46.67324" lon="0.46399">
        <ele>93.6</ele>
        <time>2024-02-18T10:51:14Z</time>
      </trkpt>
      <trkpt lat="46.67318" lon="0.46399">
        <ele>94</ele>
        <time>2024-02-18T10:51:16Z</time>
      </trkpt>
      <trkpt lat="46.67316" lon="0.46397">
        <ele>94</ele>
        <time>2024-02-18T10:51:17Z</time>
      </trkpt>
      <trkpt lat="46.67314" lon="0.46394">
        <ele>94</ele>
        <time>2024-02-18T10:51:19Z</time>
      </trkpt>
      <trkpt lat="46.67313" lon="0.46383">
        <ele>94.2</ele>
        <time>2024-02-18T10:51:24Z</time>
      </trkpt>
      <trkpt lat="46.67315" lon="0.46364">
        <ele>94</ele>
        <time>2024-02-18T10:51:29Z</time>
      </trkpt>
      <trkpt lat="46.67313" lon="0.46353">
        <ele>94</ele>
        <time>2024-02-18T10:51:32Z</time>
      </trkpt>
      <trkpt lat="46.67312" lon="0.46346">
        <ele>94.2</ele>
        <time>2024-02-18T10:51:34Z</time>
      </trkpt>
      <trkpt lat="46.67312" lon="0.46329">
        <ele>94.8</ele>
        <time>2024-02-18T10:51:40Z</time>
      </trkpt>
      <trkpt lat="46.67312" lon="0.46328">
        <ele>94.6</ele>
        <time>2024-02-18T10:51:41Z</time>
      </trkpt>
      <trkpt lat="46.67313" lon="0.46319">
        <ele>94.4</ele>
        <time>2024-02-18T10:51:45Z</time>
      </trkpt>
      <trkpt lat="46.67306" lon="0.46312">
        <ele>94.6</ele>
        <time>2024-02-18T10:51:49Z</time>
      </trkpt>
      <trkpt lat="46.67304" lon="0.46311">
        <ele>94.6</ele>
        <time>2024-02-18T10:51:50Z</time>
      </trkpt>
      <trkpt lat="46.67299" lon="0.46305">
        <ele>94.8</ele>
        <time>2024-02-18T10:51:53Z</time>
      </trkpt>
      <trkpt lat="46.67297" lon="0.46303">
        <ele>95</ele>
        <time>2024-02-18T10:51:54Z</time>
      </trkpt>
      <trkpt lat="46.67287" lon="0.46292">
        <ele>95.6</ele>
        <time>2024-02-18T10:51:58Z</time>
      </trkpt>
      <trkpt lat="46.67279" lon="0.46284">
        <ele>96</ele>
        <time>2024-02-18T10:52:02Z</time>
      </trkpt>
      <trkpt lat="46.67276" lon="0.46279">
        <ele>96.2</ele>
        <time>2024-02-18T10:52:05Z</time>
      </trkpt>
      <trkpt lat="46.67273" lon="0.4628">
        <ele>96.4</ele>
        <time>2024-02-18T10:52:07Z</time>
      </trkpt>
      <trkpt lat="46.67261" lon="0.46288">
        <ele>96.8</ele>
        <time>2024-02-18T10:52:14Z</time>
      </trkpt>
      <trkpt lat="46.67247" lon="0.46299">
        <ele>96.6</ele>
        <time>2024-02-18T10:52:21Z</time>
      </trkpt>
      <trkpt lat="46.67237" lon="0.4631">
        <ele>97</ele>
        <time>2024-02-18T10:52:26Z</time>
      </trkpt>
      <trkpt lat="46.67233" lon="0.46312">
        <ele>96.8</ele>
        <time>2024-02-18T10:52:27Z</time>
      </trkpt>
      <trkpt lat="46.67229" lon="0.46312">
        <ele>97</ele>
        <time>2024-02-18T10:52:28Z</time>
      </trkpt>
      <trkpt lat="46.67222" lon="0.46307">
        <ele>97</ele>
        <time>2024-02-18T10:52:30Z</time>
      </trkpt>
      <trkpt lat="46.67213" lon="0.46289">
        <ele>96.8</ele>
        <time>2024-02-18T10:52:37Z</time>
      </trkpt>
      <trkpt lat="46.67213" lon="0.46287">
        <ele>96.6</ele>
        <time>2024-02-18T10:52:38Z</time>
      </trkpt>
      <trkpt lat="46.67213" lon="0.46278">
        <ele>97.2</ele>
        <time>2024-02-18T10:52:41Z</time>
      </trkpt>
      <trkpt lat="46.67209" lon="0.46266">
        <ele>97.6</ele>
        <time>2024-02-18T10:52:45Z</time>
      </trkpt>
      <trkpt lat="46.67203" lon="0.46252">
        <ele>97.8</ele>
        <time>2024-02-18T10:52:50Z</time>
      </trkpt>
      <trkpt lat="46.67201" lon="0.4624">
        <ele>98.2</ele>
        <time>2024-02-18T10:52:54Z</time>
      </trkpt>
      <trkpt lat="46.67202" lon="0.46237">
        <ele>98</ele>
        <time>2024-02-18T10:52:55Z</time>
      </trkpt>
      <trkpt lat="46.67208" lon="0.46218">
        <ele>98</ele>
        <time>2024-02-18T10:53:00Z</time>
      </trkpt>
      <trkpt lat="46.67213" lon="0.46194">
        <ele>98</ele>
        <time>2024-02-18T10:53:06Z</time>
      </trkpt>
      <trkpt lat="46.67216" lon="0.46178">
        <ele>97.8</ele>
        <time>2024-02-18T10:53:12Z</time>
      </trkpt>
      <trkpt lat="46.67217" lon="0.46171">
        <ele>97.8</ele>
        <time>2024-02-18T10:53:19Z</time>
      </trkpt>
      <trkpt lat="46.67218" lon="0.46169">
        <ele>97.8</ele>
        <time>2024-02-18T10:53:20Z</time>
      </trkpt>
      <trkpt lat="46.67219" lon="0.46167">
        <ele>97.8</ele>
        <time>2024-02-18T10:53:21Z</time>
      </trkpt>
      <trkpt lat="46.67221" lon="0.46156">
        <ele>97.8</ele>
        <time>2024-02-18T10:53:24Z</time>
      </trkpt>
      <trkpt lat="46.67226" lon="0.46131">
        <ele>97.8</ele>
        <time>2024-02-18T10:53:30Z</time>
      </trkpt>
      <trkpt lat="46.67233" lon="0.46103">
        <ele>98.2</ele>
        <time>2024-02-18T10:53:36Z</time>
      </trkpt>
      <trkpt lat="46.67242" lon="0.46073">
        <ele>98.6</ele>
        <time>2024-02-18T10:53:41Z</time>
      </trkpt>
      <trkpt lat="46.6725" lon="0.46038">
        <ele>99</ele>
        <time>2024-02-18T10:53:47Z</time>
      </trkpt>
      <trkpt lat="46.67254" lon="0.46017">
        <ele>99.2</ele>
        <time>2024-02-18T10:53:50Z</time>
      </trkpt>
      <trkpt lat="46.67258" lon="0.45993">
        <ele>99.6</ele>
        <time>2024-02-18T10:53:53Z</time>
      </trkpt>
      <trkpt lat="46.67264" lon="0.45951">
        <ele>100</ele>
        <time>2024-02-18T10:53:59Z</time>
      </trkpt>
      <trkpt lat="46.67265" lon="0.45938">
        <ele>99.8</ele>
        <time>2024-02-18T10:54:01Z</time>
      </trkpt>
      <trkpt lat="46.67269" lon="0.45916">
        <ele>99.8</ele>
        <time>2024-02-18T10:54:04Z</time>
      </trkpt>
      <trkpt lat="46.67276" lon="0.45866">
        <ele>99</ele>
        <time>2024-02-18T10:54:11Z</time>
      </trkpt>
      <trkpt lat="46.67281" lon="0.4583">
        <ele>98.2</ele>
        <time>2024-02-18T10:54:17Z</time>
      </trkpt>
      <trkpt lat="46.67283" lon="0.45818">
        <ele>98</ele>
        <time>2024-02-18T10:54:19Z</time>
      </trkpt>
      <trkpt lat="46.67287" lon="0.45776">
        <ele>97.8</ele>
        <time>2024-02-18T10:54:25Z</time>
      </trkpt>
      <trkpt lat="46.67293" lon="0.45703">
        <ele>97.4</ele>
        <time>2024-02-18T10:54:34Z</time>
      </trkpt>
      <trkpt lat="46.67304" lon="0.45652">
        <ele>97.8</ele>
        <time>2024-02-18T10:54:41Z</time>
      </trkpt>
      <trkpt lat="46.6732" lon="0.456">
        <ele>98.6</ele>
        <time>2024-02-18T10:54:49Z</time>
      </trkpt>
      <trkpt lat="46.67331" lon="0.45565">
        <ele>97.8</ele>
        <time>2024-02-18T10:54:56Z</time>
      </trkpt>
      <trkpt lat="46.67338" lon="0.45536">
        <ele>97.4</ele>
        <time>2024-02-18T10:55:02Z</time>
      </trkpt>
      <trkpt lat="46.67339" lon="0.45514">
        <ele>97.6</ele>
        <time>2024-02-18T10:55:07Z</time>
      </trkpt>
      <trkpt lat="46.67342" lon="0.45505">
        <ele>97</ele>
        <time>2024-02-18T10:55:09Z</time>
      </trkpt>
      <trkpt lat="46.67341" lon="0.45492">
        <ele>96.6</ele>
        <time>2024-02-18T10:55:11Z</time>
      </trkpt>
      <trkpt lat="46.67334" lon="0.45442">
        <ele>96.8</ele>
        <time>2024-02-18T10:55:18Z</time>
      </trkpt>
      <trkpt lat="46.67325" lon="0.45387">
        <ele>97.2</ele>
        <time>2024-02-18T10:55:26Z</time>
      </trkpt>
      <trkpt lat="46.67316" lon="0.45324">
        <ele>98.2</ele>
        <time>2024-02-18T10:55:35Z</time>
      </trkpt>
      <trkpt lat="46.67314" lon="0.45317">
        <ele>98.2</ele>
        <time>2024-02-18T10:55:36Z</time>
      </trkpt>
      <trkpt lat="46.67305" lon="0.45246">
        <ele>98.2</ele>
        <time>2024-02-18T10:55:46Z</time>
      </trkpt>
      <trkpt lat="46.67299" lon="0.45202">
        <ele>98.4</ele>
        <time>2024-02-18T10:55:53Z</time>
      </trkpt>
      <trkpt lat="46.67293" lon="0.4516">
        <ele>98.6</ele>
        <time>2024-02-18T10:56:00Z</time>
      </trkpt>
      <trkpt lat="46.67286" lon="0.45113">
        <ele>98.4</ele>
        <time>2024-02-18T10:56:08Z</time>
      </trkpt>
      <trkpt lat="46.67279" lon="0.45068">
        <ele>99.2</ele>
        <time>2024-02-18T10:56:16Z</time>
      </trkpt>
      <trkpt lat="46.67278" lon="0.45058">
        <ele>99.4</ele>
        <time>2024-02-18T10:56:18Z</time>
      </trkpt>
      <trkpt lat="46.67273" lon="0.45014">
        <ele>99.4</ele>
        <time>2024-02-18T10:56:26Z</time>
      </trkpt>
      <trkpt lat="46.67266" lon="0.44975">
        <ele>100.4</ele>
        <time>2024-02-18T10:56:34Z</time>
      </trkpt>
      <trkpt lat="46.67261" lon="0.44944">
        <ele>101.4</ele>
        <time>2024-02-18T10:56:40Z</time>
      </trkpt>
      <trkpt lat="46.6726" lon="0.44934">
        <ele>101.6</ele>
        <time>2024-02-18T10:56:42Z</time>
      </trkpt>
      <trkpt lat="46.67256" lon="0.44908">
        <ele>102.4</ele>
        <time>2024-02-18T10:56:47Z</time>
      </trkpt>
      <trkpt lat="46.67254" lon="0.44891">
        <ele>102.4</ele>
        <time>2024-02-18T10:56:50Z</time>
      </trkpt>
      <trkpt lat="46.67247" lon="0.44842">
        <ele>103.4</ele>
        <time>2024-02-18T10:56:58Z</time>
      </trkpt>
      <trkpt lat="46.67247" lon="0.44836">
        <ele>103.4</ele>
        <time>2024-02-18T10:56:59Z</time>
      </trkpt>
      <trkpt lat="46.67242" lon="0.44803">
        <ele>104.4</ele>
        <time>2024-02-18T10:57:05Z</time>
      </trkpt>
      <trkpt lat="46.6724" lon="0.44792">
        <ele>104.6</ele>
        <time>2024-02-18T10:57:07Z</time>
      </trkpt>
      <trkpt lat="46.67233" lon="0.44745">
        <ele>105.2</ele>
        <time>2024-02-18T10:57:16Z</time>
      </trkpt>
      <trkpt lat="46.67231" lon="0.44729">
        <ele>105.6</ele>
        <time>2024-02-18T10:57:19Z</time>
      </trkpt>
      <trkpt lat="46.67225" lon="0.4469">
        <ele>106.6</ele>
        <time>2024-02-18T10:57:26Z</time>
      </trkpt>
      <trkpt lat="46.67218" lon="0.44637">
        <ele>106.4</ele>
        <time>2024-02-18T10:57:35Z</time>
      </trkpt>
      <trkpt lat="46.67217" lon="0.44631">
        <ele>106.6</ele>
        <time>2024-02-18T10:57:36Z</time>
      </trkpt>
      <trkpt lat="46.6721" lon="0.44576">
        <ele>107.4</ele>
        <time>2024-02-18T10:57:45Z</time>
      </trkpt>
      <trkpt lat="46.67208" lon="0.44565">
        <ele>107.8</ele>
        <time>2024-02-18T10:57:47Z</time>
      </trkpt>
      <trkpt lat="46.67204" lon="0.44541">
        <ele>108.2</ele>
        <time>2024-02-18T10:57:51Z</time>
      </trkpt>
      <trkpt lat="46.67203" lon="0.44536">
        <ele>108.4</ele>
        <time>2024-02-18T10:57:52Z</time>
      </trkpt>
      <trkpt lat="46.67192" lon="0.44502">
        <ele>108.8</ele>
        <time>2024-02-18T10:57:58Z</time>
      </trkpt>
      <trkpt lat="46.67189" lon="0.44497">
        <ele>108.8</ele>
        <time>2024-02-18T10:57:59Z</time>
      </trkpt>
      <trkpt lat="46.6717" lon="0.44456">
        <ele>109.2</ele>
        <time>2024-02-18T10:58:07Z</time>
      </trkpt>
      <trkpt lat="46.67151" lon="0.44408">
        <ele>109.2</ele>
        <time>2024-02-18T10:58:16Z</time>
      </trkpt>
      <trkpt lat="46.67134" lon="0.44359">
        <ele>109.6</ele>
        <time>2024-02-18T10:58:25Z</time>
      </trkpt>
      <trkpt lat="46.67131" lon="0.44353">
        <ele>109.6</ele>
        <time>2024-02-18T10:58:26Z</time>
      </trkpt>
      <trkpt lat="46.67129" lon="0.44347">
        <ele>109.8</ele>
        <time>2024-02-18T10:58:27Z</time>
      </trkpt>
      <trkpt lat="46.67118" lon="0.44318">
        <ele>110</ele>
        <time>2024-02-18T10:58:32Z</time>
      </trkpt>
      <trkpt lat="46.67105" lon="0.44288">
        <ele>110</ele>
        <time>2024-02-18T10:58:38Z</time>
      </trkpt>
      <trkpt lat="46.67094" lon="0.44259">
        <ele>109.8</ele>
        <time>2024-02-18T10:58:44Z</time>
      </trkpt>
      <trkpt lat="46.67081" lon="0.44219">
        <ele>109.6</ele>
        <time>2024-02-18T10:58:51Z</time>
      </trkpt>
      <trkpt lat="46.67075" lon="0.44196">
        <ele>109.2</ele>
        <time>2024-02-18T10:58:55Z</time>
      </trkpt>
      <trkpt lat="46.67073" lon="0.44192">
        <ele>109.2</ele>
        <time>2024-02-18T10:58:56Z</time>
      </trkpt>
      <trkpt lat="46.67069" lon="0.44191">
        <ele>109</ele>
        <time>2024-02-18T10:58:57Z</time>
      </trkpt>
      <trkpt lat="46.67058" lon="0.44191">
        <ele>109</ele>
        <time>2024-02-18T10:59:00Z</time>
      </trkpt>
      <trkpt lat="46.67029" lon="0.44195">
        <ele>109.4</ele>
        <time>2024-02-18T10:59:06Z</time>
      </trkpt>
      <trkpt lat="46.66993" lon="0.44199">
        <ele>109.8</ele>
        <time>2024-02-18T10:59:12Z</time>
      </trkpt>
      <trkpt lat="46.66961" lon="0.44187">
        <ele>109.8</ele>
        <time>2024-02-18T10:59:18Z</time>
      </trkpt>
      <trkpt lat="46.66939" lon="0.4416">
        <ele>109.8</ele>
        <time>2024-02-18T10:59:23Z</time>
      </trkpt>
      <trkpt lat="46.66914" lon="0.44115">
        <ele>108.8</ele>
        <time>2024-02-18T10:59:30Z</time>
      </trkpt>
      <trkpt lat="46.66896" lon="0.44069">
        <ele>109.2</ele>
        <time>2024-02-18T10:59:37Z</time>
      </trkpt>
      <trkpt lat="46.66882" lon="0.4404">
        <ele>109.6</ele>
        <time>2024-02-18T10:59:43Z</time>
      </trkpt>
      <trkpt lat="46.66867" lon="0.44027">
        <ele>109.6</ele>
        <time>2024-02-18T10:59:48Z</time>
      </trkpt>
      <trkpt lat="46.66839" lon="0.44013">
        <ele>110</ele>
        <time>2024-02-18T10:59:54Z</time>
      </trkpt>
      <trkpt lat="46.6683" lon="0.44008">
        <ele>110.4</ele>
        <time>2024-02-18T10:59:56Z</time>
      </trkpt>
      <trkpt lat="46.66825" lon="0.44006">
        <ele>110.4</ele>
        <time>2024-02-18T10:59:57Z</time>
      </trkpt>
      <trkpt lat="46.66805" lon="0.44001">
        <ele>111</ele>
        <time>2024-02-18T11:00:01Z</time>
      </trkpt>
      <trkpt lat="46.66801" lon="0.44">
        <ele>111</ele>
        <time>2024-02-18T11:00:02Z</time>
      </trkpt>
      <trkpt lat="46.66764" lon="0.43994">
        <ele>111.8</ele>
        <time>2024-02-18T11:00:10Z</time>
      </trkpt>
      <trkpt lat="46.66753" lon="0.43993">
        <ele>112</ele>
        <time>2024-02-18T11:00:12Z</time>
      </trkpt>
      <trkpt lat="46.66733" lon="0.4399">
        <ele>112.2</ele>
        <time>2024-02-18T11:00:16Z</time>
      </trkpt>
      <trkpt lat="46.66719" lon="0.43988">
        <ele>113</ele>
        <time>2024-02-18T11:00:19Z</time>
      </trkpt>
      <trkpt lat="46.66714" lon="0.43987">
        <ele>113.2</ele>
        <time>2024-02-18T11:00:20Z</time>
      </trkpt>
      <trkpt lat="46.66701" lon="0.43984">
        <ele>113.4</ele>
        <time>2024-02-18T11:00:23Z</time>
      </trkpt>
      <trkpt lat="46.66671" lon="0.43977">
        <ele>114</ele>
        <time>2024-02-18T11:00:30Z</time>
      </trkpt>
      <trkpt lat="46.66647" lon="0.43973">
        <ele>114.2</ele>
        <time>2024-02-18T11:00:36Z</time>
      </trkpt>
      <trkpt lat="46.66634" lon="0.4397">
        <ele>114.4</ele>
        <time>2024-02-18T11:00:39Z</time>
      </trkpt>
      <trkpt lat="46.66607" lon="0.43963">
        <ele>115</ele>
        <time>2024-02-18T11:00:46Z</time>
      </trkpt>
      <trkpt lat="46.66604" lon="0.43961">
        <ele>115</ele>
        <time>2024-02-18T11:00:47Z</time>
      </trkpt>
      <trkpt lat="46.66592" lon="0.43959">
        <ele>115.2</ele>
        <time>2024-02-18T11:00:51Z</time>
      </trkpt>
      <trkpt lat="46.66585" lon="0.43957">
        <ele>115.6</ele>
        <time>2024-02-18T11:00:53Z</time>
      </trkpt>
      <trkpt lat="46.66585" lon="0.43957">
        <ele>116.4</ele>
        <time>2024-02-18T11:00:56Z</time>
      </trkpt>
      <trkpt lat="46.6654" lon="0.43944">
        <ele>116.8</ele>
        <time>2024-02-18T11:01:04Z</time>
      </trkpt>
      <trkpt lat="46.66514" lon="0.4394">
        <ele>117.2</ele>
        <time>2024-02-18T11:01:10Z</time>
      </trkpt>
      <trkpt lat="46.66506" lon="0.43939">
        <ele>117.4</ele>
        <time>2024-02-18T11:01:12Z</time>
      </trkpt>
      <trkpt lat="46.66484" lon="0.43939">
        <ele>117.6</ele>
        <time>2024-02-18T11:01:17Z</time>
      </trkpt>
      <trkpt lat="46.66457" lon="0.43944">
        <ele>118.2</ele>
        <time>2024-02-18T11:01:23Z</time>
      </trkpt>
      <trkpt lat="46.66416" lon="0.43952">
        <ele>118</ele>
        <time>2024-02-18T11:01:31Z</time>
      </trkpt>
      <trkpt lat="46.66402" lon="0.43951">
        <ele>118.4</ele>
        <time>2024-02-18T11:01:34Z</time>
      </trkpt>
      <trkpt lat="46.66397" lon="0.43951">
        <ele>118.8</ele>
        <time>2024-02-18T11:01:35Z</time>
      </trkpt>
      <trkpt lat="46.66383" lon="0.43949">
        <ele>119.4</ele>
        <time>2024-02-18T11:01:38Z</time>
      </trkpt>
      <trkpt lat="46.66364" lon="0.43947">
        <ele>119.8</ele>
        <time>2024-02-18T11:01:42Z</time>
      </trkpt>
      <trkpt lat="46.66341" lon="0.43944">
        <ele>119.8</ele>
        <time>2024-02-18T11:01:47Z</time>
      </trkpt>
      <trkpt lat="46.66323" lon="0.43936">
        <ele>120</ele>
        <time>2024-02-18T11:01:52Z</time>
      </trkpt>
      <trkpt lat="46.66321" lon="0.43924">
        <ele>119.8</ele>
        <time>2024-02-18T11:01:54Z</time>
      </trkpt>
      <trkpt lat="46.66323" lon="0.43918">
        <ele>119.8</ele>
        <time>2024-02-18T11:01:55Z</time>
      </trkpt>
      <trkpt lat="46.66335" lon="0.43875">
        <ele>120.2</ele>
        <time>2024-02-18T11:02:02Z</time>
      </trkpt>
      <trkpt lat="46.6635" lon="0.43825">
        <ele>120.4</ele>
        <time>2024-02-18T11:02:11Z</time>
      </trkpt>
      <trkpt lat="46.66355" lon="0.43809">
        <ele>120.6</ele>
        <time>2024-02-18T11:02:14Z</time>
      </trkpt>
      <trkpt lat="46.66362" lon="0.43792">
        <ele>120.8</ele>
        <time>2024-02-18T11:02:17Z</time>
      </trkpt>
      <trkpt lat="46.66364" lon="0.43787">
        <ele>121</ele>
        <time>2024-02-18T11:02:18Z</time>
      </trkpt>
      <trkpt lat="46.66382" lon="0.43749">
        <ele>120.6</ele>
        <time>2024-02-18T11:02:25Z</time>
      </trkpt>
      <trkpt lat="46.66387" lon="0.43739">
        <ele>120.4</ele>
        <time>2024-02-18T11:02:27Z</time>
      </trkpt>
      <trkpt lat="46.66392" lon="0.43729">
        <ele>120.2</ele>
        <time>2024-02-18T11:02:29Z</time>
      </trkpt>
      <trkpt lat="46.66397" lon="0.4372">
        <ele>119.8</ele>
        <time>2024-02-18T11:02:31Z</time>
      </trkpt>
      <trkpt lat="46.664" lon="0.43715">
        <ele>119.8</ele>
        <time>2024-02-18T11:02:32Z</time>
      </trkpt>
      <trkpt lat="46.66402" lon="0.43711">
        <ele>119.8</ele>
        <time>2024-02-18T11:02:33Z</time>
      </trkpt>
      <trkpt lat="46.66414" lon="0.4369">
        <ele>119.4</ele>
        <time>2024-02-18T11:02:38Z</time>
      </trkpt>
      <trkpt lat="46.66424" lon="0.4367">
        <ele>118.8</ele>
        <time>2024-02-18T11:02:43Z</time>
      </trkpt>
      <trkpt lat="46.66428" lon="0.43662">
        <ele>118.6</ele>
        <time>2024-02-18T11:02:45Z</time>
      </trkpt>
      <trkpt lat="46.66439" lon="0.4364">
        <ele>118</ele>
        <time>2024-02-18T11:02:51Z</time>
      </trkpt>
      <trkpt lat="46.66448" lon="0.43624">
        <ele>117.6</ele>
        <time>2024-02-18T11:02:56Z</time>
      </trkpt>
      <trkpt lat="46.66458" lon="0.43609">
        <ele>117</ele>
        <time>2024-02-18T11:03:01Z</time>
      </trkpt>
      <trkpt lat="46.66458" lon="0.43606">
        <ele>117</ele>
        <time>2024-02-18T11:03:02Z</time>
      </trkpt>
      <trkpt lat="46.66457" lon="0.43603">
        <ele>116.8</ele>
        <time>2024-02-18T11:03:03Z</time>
      </trkpt>
      <trkpt lat="46.66454" lon="0.43602">
        <ele>116.8</ele>
        <time>2024-02-18T11:03:05Z</time>
      </trkpt>
      <trkpt lat="46.66453" lon="0.43612">
        <ele>117.2</ele>
        <time>2024-02-18T11:03:09Z</time>
      </trkpt>
      <trkpt lat="46.66446" lon="0.43627">
        <ele>117.2</ele>
        <time>2024-02-18T11:03:13Z</time>
      </trkpt>
      <trkpt lat="46.66441" lon="0.43642">
        <ele>117.6</ele>
        <time>2024-02-18T11:03:18Z</time>
      </trkpt>
      <trkpt lat="46.66434" lon="0.43652">
        <ele>117.8</ele>
        <time>2024-02-18T11:03:23Z</time>
      </trkpt>
      <trkpt lat="46.66436" lon="0.43651">
        <ele>117.8</ele>
        <time>2024-02-18T11:03:26Z</time>
      </trkpt>
      <trkpt lat="46.66444" lon="0.43632">
        <ele>117.6</ele>
        <time>2024-02-18T11:03:31Z</time>
      </trkpt>
      <trkpt lat="46.66455" lon="0.43617">
        <ele>117.6</ele>
        <time>2024-02-18T11:03:36Z</time>
      </trkpt>
      <trkpt lat="46.66461" lon="0.43612">
        <ele>117.4</ele>
        <time>2024-02-18T11:03:39Z</time>
      </trkpt>
      <trkpt lat="46.66462" lon="0.43605">
        <ele>117</ele>
        <time>2024-02-18T11:03:41Z</time>
      </trkpt>
      <trkpt lat="46.66456" lon="0.43602">
        <ele>116.8</ele>
        <time>2024-02-18T11:03:44Z</time>
      </trkpt>
      <trkpt lat="46.66452" lon="0.43613">
        <ele>117</ele>
        <time>2024-02-18T11:03:47Z</time>
      </trkpt>
      <trkpt lat="46.66444" lon="0.43632">
        <ele>117.2</ele>
        <time>2024-02-18T11:03:52Z</time>
      </trkpt>
      <trkpt lat="46.66441" lon="0.43636">
        <ele>117.2</ele>
        <time>2024-02-18T11:03:56Z</time>
      </trkpt>
    </trkseg>
  </trk>
</gpx>